<?xml version='1.0' encoding='UTF-8'?>
<gpx version="1.1" creator="https://www.komoot.de" xmlns="http://www.topografix.com/GPX/1/1" xmlns:xsi="http://www.w3.org/2001/XMLSchema-instance" xsi:schemaLocation="http://www.topografix.com/GPX/1/1 http://www.topografix.com/GPX/1/1/gpx.xsd">
  <metadata>
    <name>Jakobsweg Via Imperii Süd Berlin 2</name>
    <author>
      <link href="https://www.komoot.de">
        <text>komoot</text>
        <type>text/html</type>
      </link>
    </author>
  </metadata>
  <trk>
    <name>Jakobsweg Via Imperii Süd Berlin 2</name>
    <trkseg>
      <trkpt lat="52.516169" lon="13.376916">
        <ele>34.024555</ele>
        <time>2022-10-22T07:47:52.598Z</time>
      </trkpt>
      <trkpt lat="52.516114" lon="13.377041">
        <ele>34.024555</ele>
        <time>2022-10-22T07:48:02.322Z</time>
      </trkpt>
      <trkpt lat="52.516122" lon="13.377149">
        <ele>34.024555</ele>
        <time>2022-10-22T07:48:09.124Z</time>
      </trkpt>
      <trkpt lat="52.516142" lon="13.377426">
        <ele>34.024555</ele>
        <time>2022-10-22T07:48:26.456Z</time>
      </trkpt>
      <trkpt lat="52.516131" lon="13.377428">
        <ele>34.024555</ele>
        <time>2022-10-22T07:48:27.624Z</time>
      </trkpt>
      <trkpt lat="52.515960" lon="13.377455">
        <ele>34.024555</ele>
        <time>2022-10-22T07:48:45.380Z</time>
      </trkpt>
      <trkpt lat="52.515810" lon="13.377597">
        <ele>34.024555</ele>
        <time>2022-10-22T07:49:03.243Z</time>
      </trkpt>
      <trkpt lat="52.515713" lon="13.377648">
        <ele>34.024555</ele>
        <time>2022-10-22T07:49:13.750Z</time>
      </trkpt>
      <trkpt lat="52.515562" lon="13.377633">
        <ele>33.991635</ele>
        <time>2022-10-22T07:49:29.332Z</time>
      </trkpt>
      <trkpt lat="52.514584" lon="13.377536">
        <ele>33.176830</ele>
        <time>2022-10-22T07:51:09.814Z</time>
      </trkpt>
      <trkpt lat="52.514444" lon="13.377527">
        <ele>33.060314</ele>
        <time>2022-10-22T07:51:24.015Z</time>
      </trkpt>
      <trkpt lat="52.514443" lon="13.377544">
        <ele>33.051670</ele>
        <time>2022-10-22T07:51:25.111Z</time>
      </trkpt>
      <trkpt lat="52.514436" lon="13.377616">
        <ele>33.014769</ele>
        <time>2022-10-22T07:51:29.642Z</time>
      </trkpt>
      <trkpt lat="52.514397" lon="13.377611">
        <ele>32.982238</ele>
        <time>2022-10-22T07:51:33.628Z</time>
      </trkpt>
      <trkpt lat="52.514108" lon="13.377548">
        <ele>32.739794</ele>
        <time>2022-10-22T07:52:03.099Z</time>
      </trkpt>
      <trkpt lat="52.513962" lon="13.377517">
        <ele>32.617368</ele>
        <time>2022-10-22T07:52:17.869Z</time>
      </trkpt>
      <trkpt lat="52.513816" lon="13.377486">
        <ele>32.544702</ele>
        <time>2022-10-22T07:52:32.567Z</time>
      </trkpt>
      <trkpt lat="52.513528" lon="13.377421">
        <ele>32.658600</ele>
        <time>2022-10-22T07:53:01.800Z</time>
      </trkpt>
      <trkpt lat="52.513162" lon="13.377356">
        <ele>32.802833</ele>
        <time>2022-10-22T07:53:38.946Z</time>
      </trkpt>
      <trkpt lat="52.513109" lon="13.377357">
        <ele>32.823600</ele>
        <time>2022-10-22T07:53:44.363Z</time>
      </trkpt>
      <trkpt lat="52.513037" lon="13.377362">
        <ele>32.851834</ele>
        <time>2022-10-22T07:53:51.796Z</time>
      </trkpt>
      <trkpt lat="52.512965" lon="13.377367">
        <ele>32.880069</ele>
        <time>2022-10-22T07:53:59.174Z</time>
      </trkpt>
      <trkpt lat="52.512938" lon="13.377362">
        <ele>32.890714</ele>
        <time>2022-10-22T07:54:01.956Z</time>
      </trkpt>
      <trkpt lat="52.512860" lon="13.377349">
        <ele>32.921432</ele>
        <time>2022-10-22T07:54:09.905Z</time>
      </trkpt>
      <trkpt lat="52.512588" lon="13.377349">
        <ele>33.028001</ele>
        <time>2022-10-22T07:54:37.891Z</time>
      </trkpt>
      <trkpt lat="52.512283" lon="13.377294">
        <ele>33.148217</ele>
        <time>2022-10-22T07:55:09.353Z</time>
      </trkpt>
      <trkpt lat="52.512282" lon="13.377264">
        <ele>33.155381</ele>
        <time>2022-10-22T07:55:11.228Z</time>
      </trkpt>
      <trkpt lat="52.512281" lon="13.377246">
        <ele>33.159690</ele>
        <time>2022-10-22T07:55:12.382Z</time>
      </trkpt>
      <trkpt lat="52.512276" lon="13.377169">
        <ele>33.178155</ele>
        <time>2022-10-22T07:55:17.150Z</time>
      </trkpt>
      <trkpt lat="52.512274" lon="13.377131">
        <ele>33.187250</ele>
        <time>2022-10-22T07:55:19.511Z</time>
      </trkpt>
      <trkpt lat="52.512272" lon="13.377090">
        <ele>33.197057</ele>
        <time>2022-10-22T07:55:22.078Z</time>
      </trkpt>
      <trkpt lat="52.512268" lon="13.377018">
        <ele>33.214297</ele>
        <time>2022-10-22T07:55:26.546Z</time>
      </trkpt>
      <trkpt lat="52.512265" lon="13.376959">
        <ele>33.228414</ele>
        <time>2022-10-22T07:55:30.225Z</time>
      </trkpt>
      <trkpt lat="52.512262" lon="13.376879">
        <ele>33.265393</ele>
        <time>2022-10-22T07:55:35.164Z</time>
      </trkpt>
      <trkpt lat="52.510749" lon="13.376551">
        <ele>34.623470</ele>
        <time>2022-10-22T07:58:11.005Z</time>
      </trkpt>
      <trkpt lat="52.510704" lon="13.376542">
        <ele>34.663811</ele>
        <time>2022-10-22T07:58:15.810Z</time>
      </trkpt>
      <trkpt lat="52.510701" lon="13.376587">
        <ele>34.688328</ele>
        <time>2022-10-22T07:58:18.771Z</time>
      </trkpt>
      <trkpt lat="52.510699" lon="13.376616">
        <ele>34.704135</ele>
        <time>2022-10-22T07:58:20.617Z</time>
      </trkpt>
      <trkpt lat="52.510695" lon="13.376686">
        <ele>34.742214</ele>
        <time>2022-10-22T07:58:25.144Z</time>
      </trkpt>
      <trkpt lat="52.510691" lon="13.376742">
        <ele>34.772752</ele>
        <time>2022-10-22T07:58:28.822Z</time>
      </trkpt>
      <trkpt lat="52.510688" lon="13.376785">
        <ele>34.796193</ele>
        <time>2022-10-22T07:58:31.591Z</time>
      </trkpt>
      <trkpt lat="52.510685" lon="13.376827">
        <ele>34.819097</ele>
        <time>2022-10-22T07:58:34.359Z</time>
      </trkpt>
      <trkpt lat="52.510679" lon="13.376912">
        <ele>34.922479</ele>
        <time>2022-10-22T07:58:39.850Z</time>
      </trkpt>
      <trkpt lat="52.510675" lon="13.376954">
        <ele>34.987367</ele>
        <time>2022-10-22T07:58:42.635Z</time>
      </trkpt>
      <trkpt lat="52.510637" lon="13.376943">
        <ele>35.084137</ele>
        <time>2022-10-22T07:58:46.823Z</time>
      </trkpt>
      <trkpt lat="52.510605" lon="13.376936">
        <ele>35.165100</ele>
        <time>2022-10-22T07:58:50.324Z</time>
      </trkpt>
      <trkpt lat="52.510595" lon="13.376934">
        <ele>35.190365</ele>
        <time>2022-10-22T07:58:51.440Z</time>
      </trkpt>
      <trkpt lat="52.510568" lon="13.376929">
        <ele>35.258509</ele>
        <time>2022-10-22T07:58:54.380Z</time>
      </trkpt>
      <trkpt lat="52.510522" lon="13.376907">
        <ele>35.378663</ele>
        <time>2022-10-22T07:58:59.537Z</time>
      </trkpt>
      <trkpt lat="52.510506" lon="13.376904">
        <ele>35.419051</ele>
        <time>2022-10-22T07:59:01.230Z</time>
      </trkpt>
      <trkpt lat="52.510498" lon="13.376903">
        <ele>35.439173</ele>
        <time>2022-10-22T07:59:02.096Z</time>
      </trkpt>
      <trkpt lat="52.510463" lon="13.376897">
        <ele>35.527428</ele>
        <time>2022-10-22T07:59:05.904Z</time>
      </trkpt>
      <trkpt lat="52.510393" lon="13.376884">
        <ele>35.704103</ele>
        <time>2022-10-22T07:59:13.497Z</time>
      </trkpt>
      <trkpt lat="52.510378" lon="13.376881">
        <ele>35.742000</ele>
        <time>2022-10-22T07:59:15.177Z</time>
      </trkpt>
      <trkpt lat="52.510376" lon="13.376921">
        <ele>35.803262</ele>
        <time>2022-10-22T07:59:17.759Z</time>
      </trkpt>
      <trkpt lat="52.510166" lon="13.376881">
        <ele>36.333462</ele>
        <time>2022-10-22T07:59:40.882Z</time>
      </trkpt>
      <trkpt lat="52.510057" lon="13.376859">
        <ele>36.608885</ele>
        <time>2022-10-22T07:59:53.516Z</time>
      </trkpt>
      <trkpt lat="52.509728" lon="13.376906">
        <ele>37.437118</ele>
        <time>2022-10-22T08:00:30.272Z</time>
      </trkpt>
      <trkpt lat="52.509665" lon="13.376913">
        <ele>37.595481</ele>
        <time>2022-10-22T08:00:37.343Z</time>
      </trkpt>
      <trkpt lat="52.509589" lon="13.376923">
        <ele>37.786696</ele>
        <time>2022-10-22T08:00:45.627Z</time>
      </trkpt>
      <trkpt lat="52.509530" lon="13.376934">
        <ele>37.935616</ele>
        <time>2022-10-22T08:00:51.803Z</time>
      </trkpt>
      <trkpt lat="52.509503" lon="13.376938">
        <ele>38.003606</ele>
        <time>2022-10-22T08:00:54.592Z</time>
      </trkpt>
      <trkpt lat="52.509468" lon="13.376945">
        <ele>38.092032</ele>
        <time>2022-10-22T08:00:58.474Z</time>
      </trkpt>
      <trkpt lat="52.509415" lon="13.376957">
        <ele>38.226211</ele>
        <time>2022-10-22T08:01:04.626Z</time>
      </trkpt>
      <trkpt lat="52.509316" lon="13.376986">
        <ele>38.478414</ele>
        <time>2022-10-22T08:01:16.021Z</time>
      </trkpt>
      <trkpt lat="52.508930" lon="13.377042">
        <ele>39.360513</ele>
        <time>2022-10-22T08:01:58.608Z</time>
      </trkpt>
      <trkpt lat="52.508925" lon="13.377011">
        <ele>39.367726</ele>
        <time>2022-10-22T08:02:00.811Z</time>
      </trkpt>
      <trkpt lat="52.508967" lon="13.377004">
        <ele>39.383324</ele>
        <time>2022-10-22T08:02:05.114Z</time>
      </trkpt>
      <trkpt lat="52.509039" lon="13.376993">
        <ele>39.410043</ele>
        <time>2022-10-22T08:02:12.402Z</time>
      </trkpt>
      <trkpt lat="52.509048" lon="13.376943">
        <ele>39.421769</ele>
        <time>2022-10-22T08:02:15.677Z</time>
      </trkpt>
      <trkpt lat="52.509047" lon="13.376917">
        <ele>39.427627</ele>
        <time>2022-10-22T08:02:17.438Z</time>
      </trkpt>
      <trkpt lat="52.509038" lon="13.376876">
        <ele>39.437429</ele>
        <time>2022-10-22T08:02:20.343Z</time>
      </trkpt>
      <trkpt lat="52.509029" lon="13.376836">
        <ele>39.447020</ele>
        <time>2022-10-22T08:02:23.366Z</time>
      </trkpt>
      <trkpt lat="52.508977" lon="13.376594">
        <ele>39.504735</ele>
        <time>2022-10-22T08:02:40.562Z</time>
      </trkpt>
      <trkpt lat="52.508937" lon="13.376600">
        <ele>39.519577</ele>
        <time>2022-10-22T08:02:44.586Z</time>
      </trkpt>
      <trkpt lat="52.508887" lon="13.376609">
        <ele>39.538162</ele>
        <time>2022-10-22T08:02:49.725Z</time>
      </trkpt>
      <trkpt lat="52.508799" lon="13.376625">
        <ele>39.570876</ele>
        <time>2022-10-22T08:02:58.966Z</time>
      </trkpt>
      <trkpt lat="52.508778" lon="13.376627">
        <ele>39.578649</ele>
        <time>2022-10-22T08:03:01.262Z</time>
      </trkpt>
      <trkpt lat="52.508757" lon="13.376646">
        <ele>39.587507</ele>
        <time>2022-10-22T08:03:03.933Z</time>
      </trkpt>
      <trkpt lat="52.508728" lon="13.376683">
        <ele>39.601074</ele>
        <time>2022-10-22T08:03:07.838Z</time>
      </trkpt>
      <trkpt lat="52.508718" lon="13.376695">
        <ele>39.605649</ele>
        <time>2022-10-22T08:03:09.160Z</time>
      </trkpt>
      <trkpt lat="52.508689" lon="13.376730">
        <ele>39.618945</ele>
        <time>2022-10-22T08:03:12.937Z</time>
      </trkpt>
      <trkpt lat="52.508653" lon="13.376773">
        <ele>39.635391</ele>
        <time>2022-10-22T08:03:17.707Z</time>
      </trkpt>
      <trkpt lat="52.508668" lon="13.376809">
        <ele>39.645202</ele>
        <time>2022-10-22T08:03:20.462Z</time>
      </trkpt>
      <trkpt lat="52.508528" lon="13.376986">
        <ele>39.710474</ele>
        <time>2022-10-22T08:03:38.273Z</time>
      </trkpt>
      <trkpt lat="52.508407" lon="13.376754">
        <ele>39.779185</ele>
        <time>2022-10-22T08:03:57.444Z</time>
      </trkpt>
      <trkpt lat="52.507731" lon="13.376359">
        <ele>39.820558</ele>
        <time>2022-10-22T08:05:10.719Z</time>
      </trkpt>
      <trkpt lat="52.507643" lon="13.376307">
        <ele>39.632252</ele>
        <time>2022-10-22T08:05:20.770Z</time>
      </trkpt>
      <trkpt lat="52.506967" lon="13.375903">
        <ele>38.183827</ele>
        <time>2022-10-22T08:06:36.672Z</time>
      </trkpt>
      <trkpt lat="52.506864" lon="13.375842">
        <ele>37.963367</ele>
        <time>2022-10-22T08:06:48.238Z</time>
      </trkpt>
      <trkpt lat="52.506715" lon="13.375759">
        <ele>37.646571</ele>
        <time>2022-10-22T08:07:04.839Z</time>
      </trkpt>
      <trkpt lat="52.506548" lon="13.375666">
        <ele>37.291514</ele>
        <time>2022-10-22T08:07:23.254Z</time>
      </trkpt>
      <trkpt lat="52.506437" lon="13.375602">
        <ele>37.054644</ele>
        <time>2022-10-22T08:07:35.506Z</time>
      </trkpt>
      <trkpt lat="52.506079" lon="13.375398">
        <ele>36.353600</ele>
        <time>2022-10-22T08:08:14.546Z</time>
      </trkpt>
      <trkpt lat="52.505977" lon="13.375339">
        <ele>36.275965</ele>
        <time>2022-10-22T08:08:25.639Z</time>
      </trkpt>
      <trkpt lat="52.505832" lon="13.375259">
        <ele>36.166153</ele>
        <time>2022-10-22T08:08:41.239Z</time>
      </trkpt>
      <trkpt lat="52.505768" lon="13.375223">
        <ele>36.117587</ele>
        <time>2022-10-22T08:08:48.134Z</time>
      </trkpt>
      <trkpt lat="52.505215" lon="13.374899">
        <ele>35.696081</ele>
        <time>2022-10-22T08:09:48.486Z</time>
      </trkpt>
      <trkpt lat="52.505123" lon="13.374844">
        <ele>35.625795</ele>
        <time>2022-10-22T08:09:58.548Z</time>
      </trkpt>
      <trkpt lat="52.504301" lon="13.374348">
        <ele>35.179955</ele>
        <time>2022-10-22T08:11:26.339Z</time>
      </trkpt>
      <trkpt lat="52.504211" lon="13.374295">
        <ele>35.237432</ele>
        <time>2022-10-22T08:11:36.098Z</time>
      </trkpt>
      <trkpt lat="52.503813" lon="13.374068">
        <ele>35.490708</ele>
        <time>2022-10-22T08:12:20.108Z</time>
      </trkpt>
      <trkpt lat="52.503769" lon="13.374002">
        <ele>35.526527</ele>
        <time>2022-10-22T08:12:26.418Z</time>
      </trkpt>
      <trkpt lat="52.503760" lon="13.373988">
        <ele>35.533978</ele>
        <time>2022-10-22T08:12:27.766Z</time>
      </trkpt>
      <trkpt lat="52.503713" lon="13.373885">
        <ele>35.581085</ele>
        <time>2022-10-22T08:12:36.040Z</time>
      </trkpt>
      <trkpt lat="52.503630" lon="13.373978">
        <ele>35.641483</ele>
        <time>2022-10-22T08:12:46.529Z</time>
      </trkpt>
      <trkpt lat="52.503504" lon="13.374118">
        <ele>35.732929</ele>
        <time>2022-10-22T08:13:02.010Z</time>
      </trkpt>
      <trkpt lat="52.503379" lon="13.374258">
        <ele>35.823878</ele>
        <time>2022-10-22T08:13:17.622Z</time>
      </trkpt>
      <trkpt lat="52.503063" lon="13.374820">
        <ele>36.103852</ele>
        <time>2022-10-22T08:14:04.298Z</time>
      </trkpt>
      <trkpt lat="52.503005" lon="13.374813">
        <ele>36.138814</ele>
        <time>2022-10-22T08:14:10.064Z</time>
      </trkpt>
      <trkpt lat="52.502954" lon="13.374815">
        <ele>36.169482</ele>
        <time>2022-10-22T08:14:15.163Z</time>
      </trkpt>
      <trkpt lat="52.502676" lon="13.374734">
        <ele>36.241740</ele>
        <time>2022-10-22T08:14:44.084Z</time>
      </trkpt>
      <trkpt lat="52.502642" lon="13.374669">
        <ele>36.254149</ele>
        <time>2022-10-22T08:14:49.468Z</time>
      </trkpt>
      <trkpt lat="52.502623" lon="13.374628">
        <ele>36.261610</ele>
        <time>2022-10-22T08:14:52.632Z</time>
      </trkpt>
      <trkpt lat="52.502612" lon="13.374603">
        <ele>36.266076</ele>
        <time>2022-10-22T08:14:54.638Z</time>
      </trkpt>
      <trkpt lat="52.502570" lon="13.374521">
        <ele>36.281593</ele>
        <time>2022-10-22T08:15:01.371Z</time>
      </trkpt>
      <trkpt lat="52.502548" lon="13.374476">
        <ele>36.289950</ele>
        <time>2022-10-22T08:15:05.076Z</time>
      </trkpt>
      <trkpt lat="52.502528" lon="13.374438">
        <ele>36.297224</ele>
        <time>2022-10-22T08:15:08.435Z</time>
      </trkpt>
      <trkpt lat="52.502614" lon="13.374282">
        <ele>36.327698</ele>
        <time>2022-10-22T08:15:21.877Z</time>
      </trkpt>
      <trkpt lat="52.502887" lon="13.373804">
        <ele>36.422603</ele>
        <time>2022-10-22T08:16:03.340Z</time>
      </trkpt>
      <trkpt lat="52.502905" lon="13.373773">
        <ele>36.428806</ele>
        <time>2022-10-22T08:16:06.002Z</time>
      </trkpt>
      <trkpt lat="52.502909" lon="13.373563">
        <ele>36.459227</ele>
        <time>2022-10-22T08:16:18.999Z</time>
      </trkpt>
      <trkpt lat="52.502525" lon="13.373450">
        <ele>36.552020</ele>
        <time>2022-10-22T08:16:58.117Z</time>
      </trkpt>
      <trkpt lat="52.501733" lon="13.373267">
        <ele>35.950681</ele>
        <time>2022-10-22T08:18:20.299Z</time>
      </trkpt>
      <trkpt lat="52.501299" lon="13.373210">
        <ele>35.453721</ele>
        <time>2022-10-22T08:19:04.988Z</time>
      </trkpt>
      <trkpt lat="52.500775" lon="13.373082">
        <ele>34.849037</ele>
        <time>2022-10-22T08:19:59.328Z</time>
      </trkpt>
      <trkpt lat="52.500563" lon="13.372973">
        <ele>34.595479</ele>
        <time>2022-10-22T08:20:22.118Z</time>
      </trkpt>
      <trkpt lat="52.500201" lon="13.372761">
        <ele>34.397283</ele>
        <time>2022-10-22T08:21:01.480Z</time>
      </trkpt>
      <trkpt lat="52.500080" lon="13.372695">
        <ele>34.340145</ele>
        <time>2022-10-22T08:21:14.490Z</time>
      </trkpt>
      <trkpt lat="52.499992" lon="13.372654">
        <ele>34.299152</ele>
        <time>2022-10-22T08:21:23.875Z</time>
      </trkpt>
      <trkpt lat="52.499530" lon="13.372387">
        <ele>34.079666</ele>
        <time>2022-10-22T08:22:13.661Z</time>
      </trkpt>
      <trkpt lat="52.499343" lon="13.372906">
        <ele>33.915129</ele>
        <time>2022-10-22T08:22:50.621Z</time>
      </trkpt>
      <trkpt lat="52.499199" lon="13.372926">
        <ele>33.850365</ele>
        <time>2022-10-22T08:23:05.161Z</time>
      </trkpt>
      <trkpt lat="52.499075" lon="13.372938">
        <ele>33.794698</ele>
        <time>2022-10-22T08:23:17.661Z</time>
      </trkpt>
      <trkpt lat="52.498371" lon="13.373014">
        <ele>34.381845</ele>
        <time>2022-10-22T08:24:30.585Z</time>
      </trkpt>
      <trkpt lat="52.497832" lon="13.373082">
        <ele>34.955716</ele>
        <time>2022-10-22T08:25:27.364Z</time>
      </trkpt>
      <trkpt lat="52.497606" lon="13.373110">
        <ele>35.196312</ele>
        <time>2022-10-22T08:25:50.990Z</time>
      </trkpt>
      <trkpt lat="52.497570" lon="13.373120">
        <ele>35.235071</ele>
        <time>2022-10-22T08:25:54.864Z</time>
      </trkpt>
      <trkpt lat="52.497496" lon="13.373127">
        <ele>35.313757</ele>
        <time>2022-10-22T08:26:02.577Z</time>
      </trkpt>
      <trkpt lat="52.497388" lon="13.373131">
        <ele>35.428436</ele>
        <time>2022-10-22T08:26:13.874Z</time>
      </trkpt>
      <trkpt lat="52.497292" lon="13.373134">
        <ele>35.530365</ele>
        <time>2022-10-22T08:26:23.952Z</time>
      </trkpt>
      <trkpt lat="52.497219" lon="13.373137">
        <ele>35.607883</ele>
        <time>2022-10-22T08:26:31.684Z</time>
      </trkpt>
      <trkpt lat="52.497088" lon="13.373142">
        <ele>35.707759</ele>
        <time>2022-10-22T08:26:45.468Z</time>
      </trkpt>
      <trkpt lat="52.497047" lon="13.373469">
        <ele>35.830453</ele>
        <time>2022-10-22T08:27:06.672Z</time>
      </trkpt>
      <trkpt lat="52.497029" lon="13.373465">
        <ele>35.841418</ele>
        <time>2022-10-22T08:27:08.480Z</time>
      </trkpt>
      <trkpt lat="52.495764" lon="13.373146">
        <ele>36.613973</ele>
        <time>2022-10-22T08:29:19.444Z</time>
      </trkpt>
      <trkpt lat="52.494866" lon="13.373086">
        <ele>36.670427</ele>
        <time>2022-10-22T08:30:49.821Z</time>
      </trkpt>
      <trkpt lat="52.493353" lon="13.373001">
        <ele>36.839408</ele>
        <time>2022-10-22T08:33:21.897Z</time>
      </trkpt>
      <trkpt lat="52.492462" lon="13.372951">
        <ele>37.469852</ele>
        <time>2022-10-22T08:34:54.096Z</time>
      </trkpt>
      <trkpt lat="52.492421" lon="13.373052">
        <ele>37.522118</ele>
        <time>2022-10-22T08:35:01.716Z</time>
      </trkpt>
      <trkpt lat="52.492384" lon="13.373048">
        <ele>37.548339</ele>
        <time>2022-10-22T08:35:05.608Z</time>
      </trkpt>
      <trkpt lat="52.492095" lon="13.373029">
        <ele>37.752871</ele>
        <time>2022-10-22T08:35:35.740Z</time>
      </trkpt>
      <trkpt lat="52.492020" lon="13.373029">
        <ele>37.805908</ele>
        <time>2022-10-22T08:35:43.536Z</time>
      </trkpt>
      <trkpt lat="52.491490" lon="13.372990">
        <ele>38.457033</ele>
        <time>2022-10-22T08:36:39.082Z</time>
      </trkpt>
      <trkpt lat="52.491044" lon="13.373060">
        <ele>39.020704</ele>
        <time>2022-10-22T08:37:26.017Z</time>
      </trkpt>
      <trkpt lat="52.489722" lon="13.373476">
        <ele>40.501574</ele>
        <time>2022-10-22T08:39:47.117Z</time>
      </trkpt>
      <trkpt lat="52.489655" lon="13.373490">
        <ele>40.557615</ele>
        <time>2022-10-22T08:39:53.924Z</time>
      </trkpt>
      <trkpt lat="52.489205" lon="13.373566">
        <ele>40.932970</ele>
        <time>2022-10-22T08:40:39.823Z</time>
      </trkpt>
      <trkpt lat="52.488770" lon="13.373382">
        <ele>41.305690</ele>
        <time>2022-10-22T08:41:26.288Z</time>
      </trkpt>
      <trkpt lat="52.487987" lon="13.372925">
        <ele>42.231746</ele>
        <time>2022-10-22T08:42:51.013Z</time>
      </trkpt>
      <trkpt lat="52.487873" lon="13.372879">
        <ele>42.384939</ele>
        <time>2022-10-22T08:43:03.262Z</time>
      </trkpt>
      <trkpt lat="52.487813" lon="13.373077">
        <ele>42.560684</ele>
        <time>2022-10-22T08:43:17.161Z</time>
      </trkpt>
      <trkpt lat="52.487728" lon="13.373083">
        <ele>42.671710</ele>
        <time>2022-10-22T08:43:25.708Z</time>
      </trkpt>
      <trkpt lat="52.487609" lon="13.373228">
        <ele>42.865081</ele>
        <time>2022-10-22T08:43:41.184Z</time>
      </trkpt>
      <trkpt lat="52.487556" lon="13.373227">
        <ele>42.934250</ele>
        <time>2022-10-22T08:43:46.718Z</time>
      </trkpt>
      <trkpt lat="52.487084" lon="13.373286">
        <ele>43.551984</ele>
        <time>2022-10-22T08:44:36.126Z</time>
      </trkpt>
      <trkpt lat="52.487052" lon="13.373287">
        <ele>43.593751</ele>
        <time>2022-10-22T08:44:39.512Z</time>
      </trkpt>
      <trkpt lat="52.487001" lon="13.373291">
        <ele>43.660381</ele>
        <time>2022-10-22T08:44:45.129Z</time>
      </trkpt>
      <trkpt lat="52.486724" lon="13.373328">
        <ele>44.091327</ele>
        <time>2022-10-22T08:45:15.508Z</time>
      </trkpt>
      <trkpt lat="52.486690" lon="13.373448">
        <ele>44.273155</ele>
        <time>2022-10-22T08:45:24.558Z</time>
      </trkpt>
      <trkpt lat="52.485942" lon="13.373532">
        <ele>45.964616</ele>
        <time>2022-10-22T08:46:47.914Z</time>
      </trkpt>
      <trkpt lat="52.485842" lon="13.373490">
        <ele>46.197482</ele>
        <time>2022-10-22T08:46:59.045Z</time>
      </trkpt>
      <trkpt lat="52.485660" lon="13.373440">
        <ele>46.613788</ele>
        <time>2022-10-22T08:47:18.628Z</time>
      </trkpt>
      <trkpt lat="52.485526" lon="13.373342">
        <ele>46.944723</ele>
        <time>2022-10-22T08:47:35.108Z</time>
      </trkpt>
      <trkpt lat="52.485285" lon="13.373286">
        <ele>47.493846</ele>
        <time>2022-10-22T08:48:01.035Z</time>
      </trkpt>
      <trkpt lat="52.485161" lon="13.373263">
        <ele>47.775374</ele>
        <time>2022-10-22T08:48:14.672Z</time>
      </trkpt>
      <trkpt lat="52.485164" lon="13.373090">
        <ele>47.980141</ele>
        <time>2022-10-22T08:48:25.391Z</time>
      </trkpt>
      <trkpt lat="52.485062" lon="13.373091">
        <ele>47.917616</ele>
        <time>2022-10-22T08:48:35.637Z</time>
      </trkpt>
      <trkpt lat="52.485061" lon="13.373303">
        <ele>47.838476</ele>
        <time>2022-10-22T08:48:49.198Z</time>
      </trkpt>
      <trkpt lat="52.485062" lon="13.373091">
        <ele>47.759337</ele>
        <time>2022-10-22T08:49:02.171Z</time>
      </trkpt>
      <trkpt lat="52.485164" lon="13.373090">
        <ele>47.696812</ele>
        <time>2022-10-22T08:49:12.529Z</time>
      </trkpt>
      <trkpt lat="52.485164" lon="13.372454">
        <ele>47.459402</ele>
        <time>2022-10-22T08:49:51.784Z</time>
      </trkpt>
      <trkpt lat="52.485144" lon="13.372454">
        <ele>47.447143</ele>
        <time>2022-10-22T08:49:53.789Z</time>
      </trkpt>
      <trkpt lat="52.485065" lon="13.372451">
        <ele>47.398704</ele>
        <time>2022-10-22T08:50:01.788Z</time>
      </trkpt>
      <trkpt lat="52.484977" lon="13.372448">
        <ele>47.344750</ele>
        <time>2022-10-22T08:50:10.879Z</time>
      </trkpt>
      <trkpt lat="52.484949" lon="13.372447">
        <ele>47.327583</ele>
        <time>2022-10-22T08:50:13.760Z</time>
      </trkpt>
      <trkpt lat="52.484946" lon="13.372380">
        <ele>47.302505</ele>
        <time>2022-10-22T08:50:18.094Z</time>
      </trkpt>
      <trkpt lat="52.484946" lon="13.372292">
        <ele>47.269655</ele>
        <time>2022-10-22T08:50:23.686Z</time>
      </trkpt>
      <trkpt lat="52.484946" lon="13.372231">
        <ele>47.246885</ele>
        <time>2022-10-22T08:50:27.546Z</time>
      </trkpt>
      <trkpt lat="52.484947" lon="13.372133">
        <ele>47.210298</ele>
        <time>2022-10-22T08:50:33.659Z</time>
      </trkpt>
      <trkpt lat="52.484947" lon="13.372077">
        <ele>47.189393</ele>
        <time>2022-10-22T08:50:37.048Z</time>
      </trkpt>
      <trkpt lat="52.484947" lon="13.371938">
        <ele>47.137507</ele>
        <time>2022-10-22T08:50:45.798Z</time>
      </trkpt>
      <trkpt lat="52.484947" lon="13.371900">
        <ele>47.123322</ele>
        <time>2022-10-22T08:50:48.262Z</time>
      </trkpt>
      <trkpt lat="52.484964" lon="13.371639">
        <ele>47.025338</ele>
        <time>2022-10-22T08:51:05.242Z</time>
      </trkpt>
      <trkpt lat="52.484970" lon="13.371564">
        <ele>46.997101</ele>
        <time>2022-10-22T08:51:09.977Z</time>
      </trkpt>
      <trkpt lat="52.484979" lon="13.370013">
        <ele>46.969863</ele>
        <time>2022-10-22T08:52:47.025Z</time>
      </trkpt>
      <trkpt lat="52.484965" lon="13.369200">
        <ele>47.025309</ele>
        <time>2022-10-22T08:53:36.779Z</time>
      </trkpt>
      <trkpt lat="52.484963" lon="13.369092">
        <ele>47.032676</ele>
        <time>2022-10-22T08:53:43.763Z</time>
      </trkpt>
      <trkpt lat="52.484963" lon="13.369055">
        <ele>47.035198</ele>
        <time>2022-10-22T08:53:46.199Z</time>
      </trkpt>
      <trkpt lat="52.484964" lon="13.368921">
        <ele>47.044334</ele>
        <time>2022-10-22T08:53:54.837Z</time>
      </trkpt>
      <trkpt lat="52.484965" lon="13.368770">
        <ele>47.054629</ele>
        <time>2022-10-22T08:54:04.716Z</time>
      </trkpt>
      <trkpt lat="52.484971" lon="13.368089">
        <ele>47.365844</ele>
        <time>2022-10-22T08:54:49.585Z</time>
      </trkpt>
      <trkpt lat="52.484983" lon="13.367093">
        <ele>48.628809</ele>
        <time>2022-10-22T08:55:55.506Z</time>
      </trkpt>
      <trkpt lat="52.484985" lon="13.367019">
        <ele>48.722718</ele>
        <time>2022-10-22T08:56:00.407Z</time>
      </trkpt>
      <trkpt lat="52.484989" lon="13.366637">
        <ele>49.207085</ele>
        <time>2022-10-22T08:56:25.808Z</time>
      </trkpt>
      <trkpt lat="52.484989" lon="13.366314">
        <ele>49.616581</ele>
        <time>2022-10-22T08:56:47.142Z</time>
      </trkpt>
      <trkpt lat="52.484989" lon="13.366081">
        <ele>49.911976</ele>
        <time>2022-10-22T08:57:02.558Z</time>
      </trkpt>
      <trkpt lat="52.484989" lon="13.365966">
        <ele>50.057772</ele>
        <time>2022-10-22T08:57:10.144Z</time>
      </trkpt>
      <trkpt lat="52.484993" lon="13.365500">
        <ele>50.648620</ele>
        <time>2022-10-22T08:57:40.492Z</time>
      </trkpt>
      <trkpt lat="52.484996" lon="13.364909">
        <ele>50.762518</ele>
        <time>2022-10-22T08:58:18.119Z</time>
      </trkpt>
      <trkpt lat="52.484997" lon="13.364591">
        <ele>50.714186</ele>
        <time>2022-10-22T08:58:38.045Z</time>
      </trkpt>
      <trkpt lat="52.485002" lon="13.364365">
        <ele>50.679815</ele>
        <time>2022-10-22T08:58:51.952Z</time>
      </trkpt>
      <trkpt lat="52.485016" lon="13.364060">
        <ele>50.633328</ele>
        <time>2022-10-22T08:59:10.624Z</time>
      </trkpt>
      <trkpt lat="52.485031" lon="13.363737">
        <ele>50.584094</ele>
        <time>2022-10-22T08:59:30.615Z</time>
      </trkpt>
      <trkpt lat="52.485005" lon="13.363622">
        <ele>50.565450</ele>
        <time>2022-10-22T08:59:38.270Z</time>
      </trkpt>
      <trkpt lat="52.485019" lon="13.363590">
        <ele>50.559461</ele>
        <time>2022-10-22T08:59:40.724Z</time>
      </trkpt>
      <trkpt lat="52.485051" lon="13.363517">
        <ele>50.545791</ele>
        <time>2022-10-22T08:59:46.383Z</time>
      </trkpt>
      <trkpt lat="52.485019" lon="13.363590">
        <ele>50.532120</ele>
        <time>2022-10-22T08:59:52.058Z</time>
      </trkpt>
      <trkpt lat="52.485005" lon="13.363622">
        <ele>50.526132</ele>
        <time>2022-10-22T08:59:54.509Z</time>
      </trkpt>
      <trkpt lat="52.483879" lon="13.363587">
        <ele>49.373077</ele>
        <time>2022-10-22T09:01:50.683Z</time>
      </trkpt>
      <trkpt lat="52.483655" lon="13.363584">
        <ele>48.960228</ele>
        <time>2022-10-22T09:02:14.095Z</time>
      </trkpt>
      <trkpt lat="52.483466" lon="13.363582">
        <ele>48.611892</ele>
        <time>2022-10-22T09:02:33.827Z</time>
      </trkpt>
      <trkpt lat="52.482597" lon="13.363570">
        <ele>47.028353</ele>
        <time>2022-10-22T09:04:04.557Z</time>
      </trkpt>
      <trkpt lat="52.481842" lon="13.363560">
        <ele>46.082815</ele>
        <time>2022-10-22T09:05:22.558Z</time>
      </trkpt>
      <trkpt lat="52.481441" lon="13.363555">
        <ele>45.580617</ele>
        <time>2022-10-22T09:06:03.570Z</time>
      </trkpt>
      <trkpt lat="52.481379" lon="13.363554">
        <ele>45.502969</ele>
        <time>2022-10-22T09:06:09.945Z</time>
      </trkpt>
      <trkpt lat="52.481316" lon="13.363554">
        <ele>45.424073</ele>
        <time>2022-10-22T09:06:16.285Z</time>
      </trkpt>
      <trkpt lat="52.481012" lon="13.363549">
        <ele>45.043346</ele>
        <time>2022-10-22T09:06:47.291Z</time>
      </trkpt>
      <trkpt lat="52.479683" lon="13.363532">
        <ele>44.180018</ele>
        <time>2022-10-22T09:09:02.037Z</time>
      </trkpt>
      <trkpt lat="52.479021" lon="13.363523">
        <ele>43.814980</ele>
        <time>2022-10-22T09:10:08.749Z</time>
      </trkpt>
      <trkpt lat="52.478595" lon="13.363518">
        <ele>43.637948</ele>
        <time>2022-10-22T09:10:51.674Z</time>
      </trkpt>
      <trkpt lat="52.478515" lon="13.363709">
        <ele>43.579278</ele>
        <time>2022-10-22T09:11:05.926Z</time>
      </trkpt>
      <trkpt lat="52.478504" lon="13.363680">
        <ele>43.570631</ele>
        <time>2022-10-22T09:11:08.010Z</time>
      </trkpt>
      <trkpt lat="52.478480" lon="13.363622">
        <ele>43.552884</ele>
        <time>2022-10-22T09:11:12.293Z</time>
      </trkpt>
      <trkpt lat="52.478458" lon="13.363567">
        <ele>43.536229</ele>
        <time>2022-10-22T09:11:16.393Z</time>
      </trkpt>
      <trkpt lat="52.478444" lon="13.363532">
        <ele>43.525631</ele>
        <time>2022-10-22T09:11:18.910Z</time>
      </trkpt>
      <trkpt lat="52.478398" lon="13.363512">
        <ele>43.505857</ele>
        <time>2022-10-22T09:11:23.705Z</time>
      </trkpt>
      <trkpt lat="52.478380" lon="13.363546">
        <ele>43.494455</ele>
        <time>2022-10-22T09:11:26.543Z</time>
      </trkpt>
      <trkpt lat="52.478342" lon="13.363616">
        <ele>43.470722</ele>
        <time>2022-10-22T09:11:32.306Z</time>
      </trkpt>
      <trkpt lat="52.478304" lon="13.363688">
        <ele>43.446608</ele>
        <time>2022-10-22T09:11:38.164Z</time>
      </trkpt>
      <trkpt lat="52.478292" lon="13.363711">
        <ele>43.438943</ele>
        <time>2022-10-22T09:11:40.035Z</time>
      </trkpt>
      <trkpt lat="52.478215" lon="13.363570">
        <ele>43.391012</ele>
        <time>2022-10-22T09:11:51.676Z</time>
      </trkpt>
      <trkpt lat="52.478157" lon="13.363519">
        <ele>43.363670</ele>
        <time>2022-10-22T09:11:58.351Z</time>
      </trkpt>
      <trkpt lat="52.478087" lon="13.363486">
        <ele>43.333406</ele>
        <time>2022-10-22T09:12:05.647Z</time>
      </trkpt>
      <trkpt lat="52.477370" lon="13.363476">
        <ele>43.014771</ele>
        <time>2022-10-22T09:13:18.287Z</time>
      </trkpt>
      <trkpt lat="52.477211" lon="13.363532">
        <ele>42.908430</ele>
        <time>2022-10-22T09:13:34.697Z</time>
      </trkpt>
      <trkpt lat="52.476824" lon="13.363581">
        <ele>42.654606</ele>
        <time>2022-10-22T09:14:13.702Z</time>
      </trkpt>
      <trkpt lat="52.476723" lon="13.364065">
        <ele>42.450828</ele>
        <time>2022-10-22T09:14:45.194Z</time>
      </trkpt>
      <trkpt lat="52.476668" lon="13.364157">
        <ele>42.399483</ele>
        <time>2022-10-22T09:14:53.154Z</time>
      </trkpt>
      <trkpt lat="52.476525" lon="13.364247">
        <ele>42.299334</ele>
        <time>2022-10-22T09:15:08.766Z</time>
      </trkpt>
      <trkpt lat="52.476411" lon="13.364320">
        <ele>42.219316</ele>
        <time>2022-10-22T09:15:21.219Z</time>
      </trkpt>
      <trkpt lat="52.475881" lon="13.364663">
        <ele>41.867804</ele>
        <time>2022-10-22T09:16:19.641Z</time>
      </trkpt>
      <trkpt lat="52.475743" lon="13.364581">
        <ele>41.813443</ele>
        <time>2022-10-22T09:16:34.608Z</time>
      </trkpt>
      <trkpt lat="52.475635" lon="13.364512">
        <ele>41.770517</ele>
        <time>2022-10-22T09:16:46.495Z</time>
      </trkpt>
      <trkpt lat="52.475541" lon="13.364454">
        <ele>41.733321</ele>
        <time>2022-10-22T09:16:56.733Z</time>
      </trkpt>
      <trkpt lat="52.475497" lon="13.364477">
        <ele>41.716216</ele>
        <time>2022-10-22T09:17:01.426Z</time>
      </trkpt>
      <trkpt lat="52.474972" lon="13.364186">
        <ele>41.510968</ele>
        <time>2022-10-22T09:17:57.524Z</time>
      </trkpt>
      <trkpt lat="52.474696" lon="13.364033">
        <ele>41.403065</ele>
        <time>2022-10-22T09:18:26.709Z</time>
      </trkpt>
      <trkpt lat="52.474669" lon="13.364020">
        <ele>41.392643</ele>
        <time>2022-10-22T09:18:29.569Z</time>
      </trkpt>
      <trkpt lat="52.474440" lon="13.363930">
        <ele>41.305423</ele>
        <time>2022-10-22T09:18:53.269Z</time>
      </trkpt>
      <trkpt lat="52.474272" lon="13.364031">
        <ele>41.239153</ele>
        <time>2022-10-22T09:19:11.418Z</time>
      </trkpt>
      <trkpt lat="52.474196" lon="13.364005">
        <ele>41.241090</ele>
        <time>2022-10-22T09:19:19.273Z</time>
      </trkpt>
      <trkpt lat="52.474196" lon="13.364005">
        <ele>41.241090</ele>
        <time>2022-10-22T09:19:19.423Z</time>
      </trkpt>
      <trkpt lat="52.474196" lon="13.364005">
        <ele>41.241090</ele>
        <time>2022-10-22T09:19:19.423Z</time>
      </trkpt>
      <trkpt lat="52.473384" lon="13.363533">
        <ele>41.447211</ele>
        <time>2022-10-22T09:20:45.628Z</time>
      </trkpt>
      <trkpt lat="52.472572" lon="13.363060">
        <ele>41.653382</ele>
        <time>2022-10-22T09:22:11.854Z</time>
      </trkpt>
      <trkpt lat="52.471760" lon="13.362588">
        <ele>41.936138</ele>
        <time>2022-10-22T09:23:38.060Z</time>
      </trkpt>
      <trkpt lat="52.470949" lon="13.362115">
        <ele>42.220970</ele>
        <time>2022-10-22T09:25:04.191Z</time>
      </trkpt>
      <trkpt lat="52.470137" lon="13.361642">
        <ele>42.440219</ele>
        <time>2022-10-22T09:26:30.417Z</time>
      </trkpt>
      <trkpt lat="52.469325" lon="13.361170">
        <ele>42.650581</ele>
        <time>2022-10-22T09:27:56.623Z</time>
      </trkpt>
      <trkpt lat="52.468513" lon="13.360697">
        <ele>42.903443</ele>
        <time>2022-10-22T09:29:22.849Z</time>
      </trkpt>
      <trkpt lat="52.467702" lon="13.360225">
        <ele>43.166969</ele>
        <time>2022-10-22T09:30:48.961Z</time>
      </trkpt>
      <trkpt lat="52.466890" lon="13.359752">
        <ele>43.535710</ele>
        <time>2022-10-22T09:32:15.188Z</time>
      </trkpt>
      <trkpt lat="52.466078" lon="13.359279">
        <ele>43.948306</ele>
        <time>2022-10-22T09:33:41.416Z</time>
      </trkpt>
      <trkpt lat="52.465266" lon="13.358807">
        <ele>44.473982</ele>
        <time>2022-10-22T09:35:07.623Z</time>
      </trkpt>
      <trkpt lat="52.464454" lon="13.358334">
        <ele>45.069904</ele>
        <time>2022-10-22T09:36:33.852Z</time>
      </trkpt>
      <trkpt lat="52.463643" lon="13.357861">
        <ele>45.736329</ele>
        <time>2022-10-22T09:37:59.987Z</time>
      </trkpt>
      <trkpt lat="52.462831" lon="13.357389">
        <ele>46.466654</ele>
        <time>2022-10-22T09:39:26.197Z</time>
      </trkpt>
      <trkpt lat="52.462019" lon="13.356916">
        <ele>46.902175</ele>
        <time>2022-10-22T09:40:52.427Z</time>
      </trkpt>
      <trkpt lat="52.461208" lon="13.356443">
        <ele>46.963728</ele>
        <time>2022-10-22T09:42:18.601Z</time>
      </trkpt>
      <trkpt lat="52.461172" lon="13.356421">
        <ele>46.966475</ele>
        <time>2022-10-22T09:42:22.419Z</time>
      </trkpt>
      <trkpt lat="52.461117" lon="13.356305">
        <ele>46.972880</ele>
        <time>2022-10-22T09:42:31.482Z</time>
      </trkpt>
      <trkpt lat="52.460986" lon="13.355985">
        <ele>46.989679</ele>
        <time>2022-10-22T09:42:55.154Z</time>
      </trkpt>
      <trkpt lat="52.460955" lon="13.355908">
        <ele>46.993701</ele>
        <time>2022-10-22T09:43:00.890Z</time>
      </trkpt>
      <trkpt lat="52.460963" lon="13.355692">
        <ele>47.003130</ele>
        <time>2022-10-22T09:43:14.220Z</time>
      </trkpt>
      <trkpt lat="52.460822" lon="13.355690">
        <ele>46.958795</ele>
        <time>2022-10-22T09:43:28.472Z</time>
      </trkpt>
      <trkpt lat="52.460379" lon="13.355680">
        <ele>46.810526</ele>
        <time>2022-10-22T09:44:13.201Z</time>
      </trkpt>
      <trkpt lat="52.459384" lon="13.355657">
        <ele>46.477506</ele>
        <time>2022-10-22T09:45:53.776Z</time>
      </trkpt>
      <trkpt lat="52.459284" lon="13.355611">
        <ele>46.442750</ele>
        <time>2022-10-22T09:46:04.211Z</time>
      </trkpt>
      <trkpt lat="52.459179" lon="13.355513">
        <ele>46.402326</ele>
        <time>2022-10-22T09:46:16.271Z</time>
      </trkpt>
      <trkpt lat="52.459094" lon="13.355568">
        <ele>46.456832</ele>
        <time>2022-10-22T09:46:25.441Z</time>
      </trkpt>
      <trkpt lat="52.458857" lon="13.355564">
        <ele>46.602854</ele>
        <time>2022-10-22T09:46:49.352Z</time>
      </trkpt>
      <trkpt lat="52.458528" lon="13.355564">
        <ele>46.805550</ele>
        <time>2022-10-22T09:47:22.686Z</time>
      </trkpt>
      <trkpt lat="52.457585" lon="13.355588">
        <ele>47.386598</ele>
        <time>2022-10-22T09:49:00.077Z</time>
      </trkpt>
      <trkpt lat="52.457482" lon="13.355726">
        <ele>47.468518</ele>
        <time>2022-10-22T09:49:13.911Z</time>
      </trkpt>
      <trkpt lat="52.457433" lon="13.355920">
        <ele>47.591980</ele>
        <time>2022-10-22T09:49:27.182Z</time>
      </trkpt>
      <trkpt lat="52.457419" lon="13.355914">
        <ele>47.611495</ele>
        <time>2022-10-22T09:49:28.625Z</time>
      </trkpt>
      <trkpt lat="52.457371" lon="13.355895">
        <ele>47.678090</ele>
        <time>2022-10-22T09:49:33.788Z</time>
      </trkpt>
      <trkpt lat="52.457322" lon="13.355876">
        <ele>47.745998</ele>
        <time>2022-10-22T09:49:39.044Z</time>
      </trkpt>
      <trkpt lat="52.457311" lon="13.355872">
        <ele>47.761193</ele>
        <time>2022-10-22T09:49:40.183Z</time>
      </trkpt>
      <trkpt lat="52.457304" lon="13.355805">
        <ele>47.817061</ele>
        <time>2022-10-22T09:49:44.479Z</time>
      </trkpt>
      <trkpt lat="52.457260" lon="13.355722">
        <ele>47.907475</ele>
        <time>2022-10-22T09:49:51.478Z</time>
      </trkpt>
      <trkpt lat="52.457260" lon="13.355693">
        <ele>47.931309</ele>
        <time>2022-10-22T09:49:53.270Z</time>
      </trkpt>
      <trkpt lat="52.457259" lon="13.355639">
        <ele>47.975709</ele>
        <time>2022-10-22T09:49:56.696Z</time>
      </trkpt>
      <trkpt lat="52.457258" lon="13.355593">
        <ele>48.013538</ele>
        <time>2022-10-22T09:49:59.649Z</time>
      </trkpt>
      <trkpt lat="52.457257" lon="13.355559">
        <ele>48.041514</ele>
        <time>2022-10-22T09:50:01.786Z</time>
      </trkpt>
      <trkpt lat="52.457256" lon="13.355527">
        <ele>48.067847</ele>
        <time>2022-10-22T09:50:03.828Z</time>
      </trkpt>
      <trkpt lat="52.457256" lon="13.355499">
        <ele>48.090859</ele>
        <time>2022-10-22T09:50:05.599Z</time>
      </trkpt>
      <trkpt lat="52.456247" lon="13.355460">
        <ele>49.452098</ele>
        <time>2022-10-22T09:51:51.138Z</time>
      </trkpt>
      <trkpt lat="52.456243" lon="13.355457">
        <ele>49.458030</ele>
        <time>2022-10-22T09:51:51.604Z</time>
      </trkpt>
      <trkpt lat="52.456015" lon="13.355284">
        <ele>49.796819</ele>
        <time>2022-10-22T09:52:18.503Z</time>
      </trkpt>
      <trkpt lat="52.455679" lon="13.354966">
        <ele>50.208444</ele>
        <time>2022-10-22T09:53:00.299Z</time>
      </trkpt>
      <trkpt lat="52.455663" lon="13.355010">
        <ele>50.238335</ele>
        <time>2022-10-22T09:53:03.555Z</time>
      </trkpt>
      <trkpt lat="52.455634" lon="13.355089">
        <ele>50.292137</ele>
        <time>2022-10-22T09:53:09.316Z</time>
      </trkpt>
      <trkpt lat="52.455602" lon="13.355051">
        <ele>50.329950</ele>
        <time>2022-10-22T09:53:13.571Z</time>
      </trkpt>
      <trkpt lat="52.455569" lon="13.355015">
        <ele>50.367885</ele>
        <time>2022-10-22T09:53:17.783Z</time>
      </trkpt>
      <trkpt lat="52.455105" lon="13.354504">
        <ele>50.902839</ele>
        <time>2022-10-22T09:54:16.704Z</time>
      </trkpt>
      <trkpt lat="52.455098" lon="13.354497">
        <ele>50.910686</ele>
        <time>2022-10-22T09:54:17.470Z</time>
      </trkpt>
      <trkpt lat="52.455057" lon="13.354450">
        <ele>50.958564</ele>
        <time>2022-10-22T09:54:22.523Z</time>
      </trkpt>
      <trkpt lat="52.454987" lon="13.354374">
        <ele>51.038916</ele>
        <time>2022-10-22T09:54:31.089Z</time>
      </trkpt>
      <trkpt lat="52.454817" lon="13.354177">
        <ele>51.238148</ele>
        <time>2022-10-22T09:54:52.579Z</time>
      </trkpt>
      <trkpt lat="52.454533" lon="13.353858">
        <ele>51.567618</ele>
        <time>2022-10-22T09:55:27.026Z</time>
      </trkpt>
      <trkpt lat="52.454194" lon="13.353482">
        <ele>51.318550</ele>
        <time>2022-10-22T09:56:08.533Z</time>
      </trkpt>
      <trkpt lat="52.453916" lon="13.353159">
        <ele>50.952169</ele>
        <time>2022-10-22T09:56:43.061Z</time>
      </trkpt>
      <trkpt lat="52.453873" lon="13.353109">
        <ele>50.895483</ele>
        <time>2022-10-22T09:56:48.445Z</time>
      </trkpt>
      <trkpt lat="52.453677" lon="13.352888">
        <ele>50.639694</ele>
        <time>2022-10-22T09:57:12.654Z</time>
      </trkpt>
      <trkpt lat="52.453504" lon="13.352692">
        <ele>50.413573</ele>
        <time>2022-10-22T09:57:34.299Z</time>
      </trkpt>
      <trkpt lat="52.453138" lon="13.352277">
        <ele>49.935061</ele>
        <time>2022-10-22T09:58:20.640Z</time>
      </trkpt>
      <trkpt lat="52.452538" lon="13.351597">
        <ele>49.160205</ele>
        <time>2022-10-22T09:59:36.155Z</time>
      </trkpt>
      <trkpt lat="52.452318" lon="13.351341">
        <ele>48.874912</ele>
        <time>2022-10-22T10:00:03.896Z</time>
      </trkpt>
      <trkpt lat="52.452244" lon="13.351257">
        <ele>48.779730</ele>
        <time>2022-10-22T10:00:13.058Z</time>
      </trkpt>
      <trkpt lat="52.452176" lon="13.351178">
        <ele>48.691596</ele>
        <time>2022-10-22T10:00:21.624Z</time>
      </trkpt>
      <trkpt lat="52.452154" lon="13.351218">
        <ele>48.656862</ele>
        <time>2022-10-22T10:00:24.945Z</time>
      </trkpt>
      <trkpt lat="52.452057" lon="13.351212">
        <ele>48.554182</ele>
        <time>2022-10-22T10:00:34.851Z</time>
      </trkpt>
      <trkpt lat="52.451759" lon="13.351158">
        <ele>48.237041</ele>
        <time>2022-10-22T10:01:05.227Z</time>
      </trkpt>
      <trkpt lat="52.451707" lon="13.351126">
        <ele>48.178294</ele>
        <time>2022-10-22T10:01:10.839Z</time>
      </trkpt>
      <trkpt lat="52.451672" lon="13.351102">
        <ele>48.138168</ele>
        <time>2022-10-22T10:01:14.656Z</time>
      </trkpt>
      <trkpt lat="52.450733" lon="13.352413">
        <ele>47.534362</ele>
        <time>2022-10-22T10:03:18.892Z</time>
      </trkpt>
      <trkpt lat="52.450559" lon="13.352662">
        <ele>47.463551</ele>
        <time>2022-10-22T10:03:42.227Z</time>
      </trkpt>
      <trkpt lat="52.450535" lon="13.352684">
        <ele>47.455120</ele>
        <time>2022-10-22T10:03:45.004Z</time>
      </trkpt>
      <trkpt lat="52.450484" lon="13.352732">
        <ele>47.437088</ele>
        <time>2022-10-22T10:03:51.023Z</time>
      </trkpt>
      <trkpt lat="52.450321" lon="13.352808">
        <ele>47.385116</ele>
        <time>2022-10-22T10:04:08.161Z</time>
      </trkpt>
      <trkpt lat="52.449566" lon="13.353093">
        <ele>47.374687</ele>
        <time>2022-10-22T10:05:25.758Z</time>
      </trkpt>
      <trkpt lat="52.449310" lon="13.353193">
        <ele>47.445268</ele>
        <time>2022-10-22T10:05:52.675Z</time>
      </trkpt>
      <trkpt lat="52.449297" lon="13.353268">
        <ele>47.458013</ele>
        <time>2022-10-22T10:05:57.511Z</time>
      </trkpt>
      <trkpt lat="52.449252" lon="13.353449">
        <ele>47.489967</ele>
        <time>2022-10-22T10:06:09.413Z</time>
      </trkpt>
      <trkpt lat="52.449227" lon="13.353587">
        <ele>47.513501</ele>
        <time>2022-10-22T10:06:18.255Z</time>
      </trkpt>
      <trkpt lat="52.449144" lon="13.354101">
        <ele>47.600420</ele>
        <time>2022-10-22T10:06:51.173Z</time>
      </trkpt>
      <trkpt lat="52.449125" lon="13.354349">
        <ele>47.641278</ele>
        <time>2022-10-22T10:07:06.955Z</time>
      </trkpt>
      <trkpt lat="52.449091" lon="13.354639">
        <ele>47.689552</ele>
        <time>2022-10-22T10:07:25.003Z</time>
      </trkpt>
      <trkpt lat="52.449056" lon="13.354929">
        <ele>47.737877</ele>
        <time>2022-10-22T10:07:43.623Z</time>
      </trkpt>
      <trkpt lat="52.449041" lon="13.355073">
        <ele>47.772563</ele>
        <time>2022-10-22T10:07:52.570Z</time>
      </trkpt>
      <trkpt lat="52.449037" lon="13.355106">
        <ele>47.783648</ele>
        <time>2022-10-22T10:07:54.628Z</time>
      </trkpt>
      <trkpt lat="52.449014" lon="13.355098">
        <ele>47.796356</ele>
        <time>2022-10-22T10:07:56.987Z</time>
      </trkpt>
      <trkpt lat="52.448985" lon="13.355091">
        <ele>47.812201</ele>
        <time>2022-10-22T10:07:59.879Z</time>
      </trkpt>
      <trkpt lat="52.448960" lon="13.355085">
        <ele>47.825858</ele>
        <time>2022-10-22T10:08:02.456Z</time>
      </trkpt>
      <trkpt lat="52.448924" lon="13.355075">
        <ele>47.845594</ele>
        <time>2022-10-22T10:08:06.101Z</time>
      </trkpt>
      <trkpt lat="52.448899" lon="13.355068">
        <ele>47.859303</ele>
        <time>2022-10-22T10:08:08.766Z</time>
      </trkpt>
      <trkpt lat="52.448844" lon="13.355052">
        <ele>47.889496</ele>
        <time>2022-10-22T10:08:14.596Z</time>
      </trkpt>
      <trkpt lat="52.448796" lon="13.355043">
        <ele>47.915611</ele>
        <time>2022-10-22T10:08:19.646Z</time>
      </trkpt>
      <trkpt lat="52.448774" lon="13.354948">
        <ele>47.949091</ele>
        <time>2022-10-22T10:08:25.852Z</time>
      </trkpt>
      <trkpt lat="52.448794" lon="13.354866">
        <ele>47.978188</ele>
        <time>2022-10-22T10:08:31.251Z</time>
      </trkpt>
      <trkpt lat="52.448803" lon="13.354831">
        <ele>47.990703</ele>
        <time>2022-10-22T10:08:33.561Z</time>
      </trkpt>
      <trkpt lat="52.448101" lon="13.354242">
        <ele>48.416896</ele>
        <time>2022-10-22T10:09:54.918Z</time>
      </trkpt>
      <trkpt lat="52.448077" lon="13.354343">
        <ele>48.452610</ele>
        <time>2022-10-22T10:10:01.822Z</time>
      </trkpt>
      <trkpt lat="52.447883" lon="13.355140">
        <ele>48.724646</ele>
        <time>2022-10-22T10:10:54.781Z</time>
      </trkpt>
      <trkpt lat="52.447553" lon="13.356498">
        <ele>48.776703</ele>
        <time>2022-10-22T10:12:24.085Z</time>
      </trkpt>
      <trkpt lat="52.447536" lon="13.356583">
        <ele>48.779888</ele>
        <time>2022-10-22T10:12:29.557Z</time>
      </trkpt>
      <trkpt lat="52.447519" lon="13.356671">
        <ele>48.783175</ele>
        <time>2022-10-22T10:12:35.207Z</time>
      </trkpt>
      <trkpt lat="52.446995" lon="13.357212">
        <ele>48.819346</ele>
        <time>2022-10-22T10:13:37.274Z</time>
      </trkpt>
      <trkpt lat="52.446860" lon="13.357350">
        <ele>48.826541</ele>
        <time>2022-10-22T10:13:53.186Z</time>
      </trkpt>
      <trkpt lat="52.446808" lon="13.357402">
        <ele>48.794153</ele>
        <time>2022-10-22T10:13:59.266Z</time>
      </trkpt>
      <trkpt lat="52.446748" lon="13.357463">
        <ele>48.756612</ele>
        <time>2022-10-22T10:14:06.397Z</time>
      </trkpt>
      <trkpt lat="52.445979" lon="13.358254">
        <ele>48.273885</ele>
        <time>2022-10-22T10:15:37.960Z</time>
      </trkpt>
      <trkpt lat="52.445961" lon="13.358272">
        <ele>48.262673</ele>
        <time>2022-10-22T10:15:40.034Z</time>
      </trkpt>
      <trkpt lat="52.445902" lon="13.358333">
        <ele>48.225583</ele>
        <time>2022-10-22T10:15:47.162Z</time>
      </trkpt>
      <trkpt lat="52.445961" lon="13.358272">
        <ele>48.188493</ele>
        <time>2022-10-22T10:15:54.237Z</time>
      </trkpt>
      <trkpt lat="52.445985" lon="13.358335">
        <ele>48.164409</ele>
        <time>2022-10-22T10:15:58.831Z</time>
      </trkpt>
      <trkpt lat="52.446103" lon="13.358648">
        <ele>48.045104</ele>
        <time>2022-10-22T10:16:21.688Z</time>
      </trkpt>
      <trkpt lat="52.446185" lon="13.358864">
        <ele>47.962613</ele>
        <time>2022-10-22T10:16:37.456Z</time>
      </trkpt>
      <trkpt lat="52.446432" lon="13.359519">
        <ele>47.566119</ele>
        <time>2022-10-22T10:17:25.340Z</time>
      </trkpt>
      <trkpt lat="52.446641" lon="13.360073">
        <ele>47.159761</ele>
        <time>2022-10-22T10:18:05.988Z</time>
      </trkpt>
      <trkpt lat="52.446746" lon="13.360351">
        <ele>46.955783</ele>
        <time>2022-10-22T10:18:26.421Z</time>
      </trkpt>
      <trkpt lat="52.446784" lon="13.360350">
        <ele>46.916894</ele>
        <time>2022-10-22T10:18:30.298Z</time>
      </trkpt>
      <trkpt lat="52.446793" lon="13.360373">
        <ele>46.899847</ele>
        <time>2022-10-22T10:18:31.995Z</time>
      </trkpt>
      <trkpt lat="52.446817" lon="13.360439">
        <ele>46.851914</ele>
        <time>2022-10-22T10:18:36.736Z</time>
      </trkpt>
      <trkpt lat="52.446835" lon="13.360491">
        <ele>46.814617</ele>
        <time>2022-10-22T10:18:40.522Z</time>
      </trkpt>
      <trkpt lat="52.446853" lon="13.360541">
        <ele>46.778399</ele>
        <time>2022-10-22T10:18:44.117Z</time>
      </trkpt>
      <trkpt lat="52.446878" lon="13.360596">
        <ele>46.735607</ele>
        <time>2022-10-22T10:18:48.343Z</time>
      </trkpt>
      <trkpt lat="52.446906" lon="13.360660">
        <ele>46.686472</ele>
        <time>2022-10-22T10:18:53.275Z</time>
      </trkpt>
      <trkpt lat="52.446916" lon="13.360684">
        <ele>46.668341</ele>
        <time>2022-10-22T10:18:55.117Z</time>
      </trkpt>
      <trkpt lat="52.446921" lon="13.360837">
        <ele>46.572779</ele>
        <time>2022-10-22T10:19:04.689Z</time>
      </trkpt>
      <trkpt lat="52.447111" lon="13.360923">
        <ele>46.371093</ele>
        <time>2022-10-22T10:19:24.809Z</time>
      </trkpt>
      <trkpt lat="52.447140" lon="13.361026">
        <ele>46.300330</ele>
        <time>2022-10-22T10:19:31.879Z</time>
      </trkpt>
      <trkpt lat="52.447185" lon="13.361191">
        <ele>46.187590</ele>
        <time>2022-10-22T10:19:43.174Z</time>
      </trkpt>
      <trkpt lat="52.447193" lon="13.361222">
        <ele>46.166594</ele>
        <time>2022-10-22T10:19:45.283Z</time>
      </trkpt>
      <trkpt lat="52.447265" lon="13.361488">
        <ele>45.935924</ele>
        <time>2022-10-22T10:20:03.387Z</time>
      </trkpt>
      <trkpt lat="52.447236" lon="13.361567">
        <ele>45.817258</ele>
        <time>2022-10-22T10:20:09.214Z</time>
      </trkpt>
      <trkpt lat="52.447337" lon="13.361920">
        <ele>45.315477</ele>
        <time>2022-10-22T10:20:33.574Z</time>
      </trkpt>
      <trkpt lat="52.447480" lon="13.362183">
        <ele>44.861972</ele>
        <time>2022-10-22T10:20:55.606Z</time>
      </trkpt>
      <trkpt lat="52.447443" lon="13.362234">
        <ele>44.759951</ele>
        <time>2022-10-22T10:21:00.523Z</time>
      </trkpt>
      <trkpt lat="52.447407" lon="13.362284">
        <ele>44.660374</ele>
        <time>2022-10-22T10:21:05.460Z</time>
      </trkpt>
      <trkpt lat="52.447364" lon="13.362345">
        <ele>44.540365</ele>
        <time>2022-10-22T10:21:11.301Z</time>
      </trkpt>
      <trkpt lat="52.447351" lon="13.362362">
        <ele>44.505269</ele>
        <time>2022-10-22T10:21:13.003Z</time>
      </trkpt>
      <trkpt lat="52.447309" lon="13.362333">
        <ele>44.409067</ele>
        <time>2022-10-22T10:21:17.728Z</time>
      </trkpt>
      <trkpt lat="52.447293" lon="13.362299">
        <ele>44.353795</ele>
        <time>2022-10-22T10:21:20.443Z</time>
      </trkpt>
      <trkpt lat="52.447257" lon="13.362228">
        <ele>44.234956</ele>
        <time>2022-10-22T10:21:26.266Z</time>
      </trkpt>
      <trkpt lat="52.447240" lon="13.362193">
        <ele>44.177368</ele>
        <time>2022-10-22T10:21:29.149Z</time>
      </trkpt>
      <trkpt lat="52.447222" lon="13.362158">
        <ele>44.118441</ele>
        <time>2022-10-22T10:21:32.064Z</time>
      </trkpt>
      <trkpt lat="52.447199" lon="13.362111">
        <ele>44.040883</ele>
        <time>2022-10-22T10:21:35.981Z</time>
      </trkpt>
      <trkpt lat="52.447177" lon="13.362066">
        <ele>43.966653</ele>
        <time>2022-10-22T10:21:39.624Z</time>
      </trkpt>
      <trkpt lat="52.447144" lon="13.362001">
        <ele>43.857799</ele>
        <time>2022-10-22T10:21:45.045Z</time>
      </trkpt>
      <trkpt lat="52.447141" lon="13.361886">
        <ele>43.709687</ele>
        <time>2022-10-22T10:21:52.331Z</time>
      </trkpt>
      <trkpt lat="52.447071" lon="13.361699">
        <ele>43.427306</ele>
        <time>2022-10-22T10:22:06.399Z</time>
      </trkpt>
      <trkpt lat="52.446920" lon="13.361832">
        <ele>43.065485</ele>
        <time>2022-10-22T10:22:24.701Z</time>
      </trkpt>
      <trkpt lat="52.446831" lon="13.361861">
        <ele>42.873921</ele>
        <time>2022-10-22T10:22:34.339Z</time>
      </trkpt>
      <trkpt lat="52.446516" lon="13.361928">
        <ele>42.200037</ele>
        <time>2022-10-22T10:23:08.276Z</time>
      </trkpt>
      <trkpt lat="52.446363" lon="13.362018">
        <ele>41.820044</ele>
        <time>2022-10-22T10:23:25.614Z</time>
      </trkpt>
      <trkpt lat="52.446237" lon="13.362172">
        <ele>41.452717</ele>
        <time>2022-10-22T10:23:42.314Z</time>
      </trkpt>
      <trkpt lat="52.446111" lon="13.362326">
        <ele>41.085390</ele>
        <time>2022-10-22T10:23:58.980Z</time>
      </trkpt>
      <trkpt lat="52.445993" lon="13.362471">
        <ele>40.740721</ele>
        <time>2022-10-22T10:24:14.575Z</time>
      </trkpt>
      <trkpt lat="52.445758" lon="13.362612">
        <ele>40.155731</ele>
        <time>2022-10-22T10:24:41.008Z</time>
      </trkpt>
      <trkpt lat="52.445392" lon="13.362832">
        <ele>39.244443</ele>
        <time>2022-10-22T10:25:22.073Z</time>
      </trkpt>
      <trkpt lat="52.445046" lon="13.363077">
        <ele>38.363409</ele>
        <time>2022-10-22T10:26:01.259Z</time>
      </trkpt>
      <trkpt lat="52.444925" lon="13.363138">
        <ele>38.067470</ele>
        <time>2022-10-22T10:26:14.258Z</time>
      </trkpt>
      <trkpt lat="52.444499" lon="13.363378">
        <ele>38.217249</ele>
        <time>2022-10-22T10:27:00.197Z</time>
      </trkpt>
      <trkpt lat="52.443242" lon="13.364103">
        <ele>38.795218</ele>
        <time>2022-10-22T10:29:18.893Z</time>
      </trkpt>
      <trkpt lat="52.439051" lon="13.366510">
        <ele>43.852691</ele>
        <time>2022-10-22T10:36:59.145Z</time>
      </trkpt>
      <trkpt lat="52.437163" lon="13.367587">
        <ele>47.078014</ele>
        <time>2022-10-22T10:40:35.168Z</time>
      </trkpt>
      <trkpt lat="52.436868" lon="13.367793">
        <ele>47.570868</ele>
        <time>2022-10-22T10:41:08.816Z</time>
      </trkpt>
      <trkpt lat="52.436791" lon="13.367874">
        <ele>47.711482</ele>
        <time>2022-10-22T10:41:18.269Z</time>
      </trkpt>
      <trkpt lat="52.436484" lon="13.368654">
        <ele>48.189338</ele>
        <time>2022-10-22T10:42:15.737Z</time>
      </trkpt>
      <trkpt lat="52.436389" lon="13.368880">
        <ele>48.102195</ele>
        <time>2022-10-22T10:42:32.576Z</time>
      </trkpt>
      <trkpt lat="52.436296" lon="13.369098">
        <ele>48.017732</ele>
        <time>2022-10-22T10:42:48.882Z</time>
      </trkpt>
      <trkpt lat="52.436274" lon="13.369125">
        <ele>48.003425</ele>
        <time>2022-10-22T10:42:51.596Z</time>
      </trkpt>
      <trkpt lat="52.435935" lon="13.367990">
        <ele>47.602210</ele>
        <time>2022-10-22T10:44:09.922Z</time>
      </trkpt>
      <trkpt lat="52.435794" lon="13.367514">
        <ele>47.434213</ele>
        <time>2022-10-22T10:44:42.859Z</time>
      </trkpt>
      <trkpt lat="52.435565" lon="13.366767">
        <ele>47.001475</ele>
        <time>2022-10-22T10:45:35.015Z</time>
      </trkpt>
      <trkpt lat="52.435531" lon="13.366793">
        <ele>46.964106</ele>
        <time>2022-10-22T10:45:38.890Z</time>
      </trkpt>
      <trkpt lat="52.435484" lon="13.366830">
        <ele>46.912173</ele>
        <time>2022-10-22T10:45:44.324Z</time>
      </trkpt>
      <trkpt lat="52.435408" lon="13.366886">
        <ele>46.829176</ele>
        <time>2022-10-22T10:45:52.905Z</time>
      </trkpt>
      <trkpt lat="52.435395" lon="13.366896">
        <ele>46.814872</ele>
        <time>2022-10-22T10:45:54.382Z</time>
      </trkpt>
      <trkpt lat="52.435352" lon="13.366817">
        <ele>46.750555</ele>
        <time>2022-10-22T10:46:01.029Z</time>
      </trkpt>
      <trkpt lat="52.435337" lon="13.366752">
        <ele>46.708346</ele>
        <time>2022-10-22T10:46:05.370Z</time>
      </trkpt>
      <trkpt lat="52.435319" lon="13.366677">
        <ele>46.659394</ele>
        <time>2022-10-22T10:46:10.408Z</time>
      </trkpt>
      <trkpt lat="52.435311" lon="13.366604">
        <ele>46.614349</ele>
        <time>2022-10-22T10:46:15.024Z</time>
      </trkpt>
      <trkpt lat="52.435240" lon="13.366312">
        <ele>46.423428</ele>
        <time>2022-10-22T10:46:34.750Z</time>
      </trkpt>
      <trkpt lat="52.435080" lon="13.365652">
        <ele>45.992068</ele>
        <time>2022-10-22T10:47:18.933Z</time>
      </trkpt>
      <trkpt lat="52.434874" lon="13.364623">
        <ele>45.451826</ele>
        <time>2022-10-22T10:48:25.888Z</time>
      </trkpt>
      <trkpt lat="52.434798" lon="13.364128">
        <ele>45.303049</ele>
        <time>2022-10-22T10:48:57.344Z</time>
      </trkpt>
      <trkpt lat="52.434763" lon="13.363899">
        <ele>45.234240</ele>
        <time>2022-10-22T10:49:11.928Z</time>
      </trkpt>
      <trkpt lat="52.434740" lon="13.363886">
        <ele>45.222610</ele>
        <time>2022-10-22T10:49:14.414Z</time>
      </trkpt>
      <trkpt lat="52.434740" lon="13.363886">
        <ele>45.222610</ele>
        <time>2022-10-22T10:49:14.414Z</time>
      </trkpt>
      <trkpt lat="52.432836" lon="13.363632">
        <ele>44.643732</ele>
        <time>2022-10-22T10:52:27.014Z</time>
      </trkpt>
      <trkpt lat="52.432836" lon="13.363632">
        <ele>44.643732</ele>
        <time>2022-10-22T10:52:27.014Z</time>
      </trkpt>
      <trkpt lat="52.432856" lon="13.363265">
        <ele>44.628167</ele>
        <time>2022-10-22T10:52:49.545Z</time>
      </trkpt>
      <trkpt lat="52.431129" lon="13.363022">
        <ele>44.923094</ele>
        <time>2022-10-22T10:55:44.359Z</time>
      </trkpt>
      <trkpt lat="52.430712" lon="13.362718">
        <ele>45.085265</ele>
        <time>2022-10-22T10:56:30.963Z</time>
      </trkpt>
      <trkpt lat="52.430736" lon="13.362599">
        <ele>45.112423</ele>
        <time>2022-10-22T10:56:38.662Z</time>
      </trkpt>
      <trkpt lat="52.430427" lon="13.362479">
        <ele>45.221930</ele>
        <time>2022-10-22T10:57:11.105Z</time>
      </trkpt>
      <trkpt lat="52.430119" lon="13.362435">
        <ele>45.296143</ele>
        <time>2022-10-22T10:57:42.702Z</time>
      </trkpt>
      <trkpt lat="52.429657" lon="13.362250">
        <ele>45.410300</ele>
        <time>2022-10-22T10:58:31.328Z</time>
      </trkpt>
      <trkpt lat="52.429530" lon="13.362149">
        <ele>45.444180</ele>
        <time>2022-10-22T10:58:45.822Z</time>
      </trkpt>
      <trkpt lat="52.429366" lon="13.362016">
        <ele>45.488097</ele>
        <time>2022-10-22T10:59:04.335Z</time>
      </trkpt>
      <trkpt lat="52.428582" lon="13.361594">
        <ele>45.592236</ele>
        <time>2022-10-22T11:00:27.337Z</time>
      </trkpt>
      <trkpt lat="52.428446" lon="13.361507">
        <ele>45.543820</ele>
        <time>2022-10-22T11:00:42.075Z</time>
      </trkpt>
      <trkpt lat="52.428147" lon="13.361174">
        <ele>45.423950</ele>
        <time>2022-10-22T11:01:18.686Z</time>
      </trkpt>
      <trkpt lat="52.427982" lon="13.361060">
        <ele>45.364568</ele>
        <time>2022-10-22T11:01:36.714Z</time>
      </trkpt>
      <trkpt lat="52.427545" lon="13.360747">
        <ele>45.206413</ele>
        <time>2022-10-22T11:02:24.524Z</time>
      </trkpt>
      <trkpt lat="52.427427" lon="13.360699">
        <ele>45.166091</ele>
        <time>2022-10-22T11:02:36.820Z</time>
      </trkpt>
      <trkpt lat="52.427373" lon="13.360677">
        <ele>45.147637</ele>
        <time>2022-10-22T11:02:42.369Z</time>
      </trkpt>
      <trkpt lat="52.427319" lon="13.360654">
        <ele>45.129133</ele>
        <time>2022-10-22T11:02:47.957Z</time>
      </trkpt>
      <trkpt lat="52.427218" lon="13.360679">
        <ele>45.095256</ele>
        <time>2022-10-22T11:02:58.223Z</time>
      </trkpt>
      <trkpt lat="52.427134" lon="13.360824">
        <ele>45.054808</ele>
        <time>2022-10-22T11:03:10.569Z</time>
      </trkpt>
      <trkpt lat="52.427089" lon="13.360790">
        <ele>45.035363</ele>
        <time>2022-10-22T11:03:15.593Z</time>
      </trkpt>
      <trkpt lat="52.426907" lon="13.360677">
        <ele>44.954362</ele>
        <time>2022-10-22T11:03:35.212Z</time>
      </trkpt>
      <trkpt lat="52.426855" lon="13.360434">
        <ele>44.889000</ele>
        <time>2022-10-22T11:03:51.168Z</time>
      </trkpt>
      <trkpt lat="52.426437" lon="13.360110">
        <ele>44.696561</ele>
        <time>2022-10-22T11:04:38.087Z</time>
      </trkpt>
      <trkpt lat="52.426437" lon="13.360110">
        <ele>44.696561</ele>
        <time>2022-10-22T11:04:38.088Z</time>
      </trkpt>
      <trkpt lat="52.426311" lon="13.360134">
        <ele>44.643764</ele>
        <time>2022-10-22T11:04:50.917Z</time>
      </trkpt>
      <trkpt lat="52.426062" lon="13.360396">
        <ele>44.520624</ele>
        <time>2022-10-22T11:05:20.710Z</time>
      </trkpt>
      <trkpt lat="52.425892" lon="13.360313">
        <ele>44.446796</ele>
        <time>2022-10-22T11:05:38.510Z</time>
      </trkpt>
      <trkpt lat="52.425659" lon="13.360470">
        <ele>44.341947</ele>
        <time>2022-10-22T11:06:03.791Z</time>
      </trkpt>
      <trkpt lat="52.425342" lon="13.360618">
        <ele>44.213339</ele>
        <time>2022-10-22T11:06:36.925Z</time>
      </trkpt>
      <trkpt lat="52.425288" lon="13.360640">
        <ele>44.192233</ele>
        <time>2022-10-22T11:06:42.545Z</time>
      </trkpt>
      <trkpt lat="52.425227" lon="13.360658">
        <ele>44.168722</ele>
        <time>2022-10-22T11:06:48.828Z</time>
      </trkpt>
      <trkpt lat="52.424938" lon="13.360764">
        <ele>44.056386</ele>
        <time>2022-10-22T11:07:18.813Z</time>
      </trkpt>
      <trkpt lat="52.424532" lon="13.361136">
        <ele>43.879968</ele>
        <time>2022-10-22T11:08:05.844Z</time>
      </trkpt>
      <trkpt lat="52.424358" lon="13.361198">
        <ele>43.812424</ele>
        <time>2022-10-22T11:08:23.762Z</time>
      </trkpt>
      <trkpt lat="52.424257" lon="13.361197">
        <ele>43.774111</ele>
        <time>2022-10-22T11:08:33.966Z</time>
      </trkpt>
      <trkpt lat="52.424234" lon="13.361188">
        <ele>43.765141</ele>
        <time>2022-10-22T11:08:36.328Z</time>
      </trkpt>
      <trkpt lat="52.424153" lon="13.361156">
        <ele>43.733536</ele>
        <time>2022-10-22T11:08:44.736Z</time>
      </trkpt>
      <trkpt lat="52.423995" lon="13.361015">
        <ele>43.665302</ele>
        <time>2022-10-22T11:09:02.800Z</time>
      </trkpt>
      <trkpt lat="52.423907" lon="13.360885">
        <ele>43.620373</ele>
        <time>2022-10-22T11:09:14.800Z</time>
      </trkpt>
      <trkpt lat="52.423851" lon="13.360743">
        <ele>43.591239</ele>
        <time>2022-10-22T11:09:25.207Z</time>
      </trkpt>
      <trkpt lat="52.423759" lon="13.360351">
        <ele>43.519601</ele>
        <time>2022-10-22T11:09:51.105Z</time>
      </trkpt>
      <trkpt lat="52.423632" lon="13.360079">
        <ele>43.461174</ele>
        <time>2022-10-22T11:10:12.116Z</time>
      </trkpt>
      <trkpt lat="52.423557" lon="13.359973">
        <ele>43.433482</ele>
        <time>2022-10-22T11:10:22.095Z</time>
      </trkpt>
      <trkpt lat="52.423267" lon="13.359699">
        <ele>43.339875</ele>
        <time>2022-10-22T11:10:55.720Z</time>
      </trkpt>
      <trkpt lat="52.423157" lon="13.359169">
        <ele>43.244388</ele>
        <time>2022-10-22T11:11:30.120Z</time>
      </trkpt>
      <trkpt lat="52.423081" lon="13.358437">
        <ele>43.117745</ele>
        <time>2022-10-22T11:12:15.737Z</time>
      </trkpt>
      <trkpt lat="52.423007" lon="13.358057">
        <ele>43.218863</ele>
        <time>2022-10-22T11:12:40.128Z</time>
      </trkpt>
      <trkpt lat="52.422974" lon="13.357734">
        <ele>43.305076</ele>
        <time>2022-10-22T11:13:00.267Z</time>
      </trkpt>
      <trkpt lat="52.422956" lon="13.357597">
        <ele>43.341968</ele>
        <time>2022-10-22T11:13:08.809Z</time>
      </trkpt>
      <trkpt lat="52.422933" lon="13.357467">
        <ele>43.377601</ele>
        <time>2022-10-22T11:13:17.155Z</time>
      </trkpt>
      <trkpt lat="52.422903" lon="13.357310">
        <ele>43.420912</ele>
        <time>2022-10-22T11:13:27.174Z</time>
      </trkpt>
      <trkpt lat="52.421881" lon="13.357840">
        <ele>43.883618</ele>
        <time>2022-10-22T11:15:17.147Z</time>
      </trkpt>
      <trkpt lat="52.421778" lon="13.357895">
        <ele>43.997488</ele>
        <time>2022-10-22T11:15:28.462Z</time>
      </trkpt>
      <trkpt lat="52.421772" lon="13.357871">
        <ele>44.016459</ele>
        <time>2022-10-22T11:15:30.116Z</time>
      </trkpt>
      <trkpt lat="52.421772" lon="13.357871">
        <ele>44.016459</ele>
        <time>2022-10-22T11:15:30.116Z</time>
      </trkpt>
      <trkpt lat="52.421751" lon="13.357766">
        <ele>44.097278</ele>
        <time>2022-10-22T11:15:37.203Z</time>
      </trkpt>
      <trkpt lat="52.421567" lon="13.357542">
        <ele>44.372113</ele>
        <time>2022-10-22T11:16:01.371Z</time>
      </trkpt>
      <trkpt lat="52.420947" lon="13.356911">
        <ele>45.247251</ele>
        <time>2022-10-22T11:17:17.812Z</time>
      </trkpt>
      <trkpt lat="52.420384" lon="13.356324">
        <ele>46.047386</ele>
        <time>2022-10-22T11:18:27.474Z</time>
      </trkpt>
      <trkpt lat="52.420311" lon="13.356368">
        <ele>46.085959</ele>
        <time>2022-10-22T11:18:35.555Z</time>
      </trkpt>
      <trkpt lat="52.420231" lon="13.356277">
        <ele>46.132484</ele>
        <time>2022-10-22T11:18:45.667Z</time>
      </trkpt>
      <trkpt lat="52.420231" lon="13.356168">
        <ele>46.164249</ele>
        <time>2022-10-22T11:18:52.581Z</time>
      </trkpt>
      <trkpt lat="52.419677" lon="13.355601">
        <ele>46.476306</ele>
        <time>2022-10-22T11:20:00.209Z</time>
      </trkpt>
      <trkpt lat="52.419200" lon="13.355118">
        <ele>46.744194</ele>
        <time>2022-10-22T11:20:56.750Z</time>
      </trkpt>
      <trkpt lat="52.418841" lon="13.354739">
        <ele>46.863759</ele>
        <time>2022-10-22T11:21:39.782Z</time>
      </trkpt>
      <trkpt lat="52.418739" lon="13.354643">
        <ele>46.798352</ele>
        <time>2022-10-22T11:21:51.617Z</time>
      </trkpt>
      <trkpt lat="52.418587" lon="13.354768">
        <ele>46.703783</ele>
        <time>2022-10-22T11:22:08.867Z</time>
      </trkpt>
      <trkpt lat="52.418588" lon="13.354815">
        <ele>46.687832</ele>
        <time>2022-10-22T11:22:11.793Z</time>
      </trkpt>
      <trkpt lat="52.418588" lon="13.354815">
        <ele>46.687832</ele>
        <time>2022-10-22T11:22:11.793Z</time>
      </trkpt>
      <trkpt lat="52.418588" lon="13.354851">
        <ele>46.675622</ele>
        <time>2022-10-22T11:22:14.004Z</time>
      </trkpt>
      <trkpt lat="52.418402" lon="13.355069">
        <ele>46.548470</ele>
        <time>2022-10-22T11:22:37.091Z</time>
      </trkpt>
      <trkpt lat="52.418389" lon="13.355180">
        <ele>46.510133</ele>
        <time>2022-10-22T11:22:44.149Z</time>
      </trkpt>
      <trkpt lat="52.418320" lon="13.355210">
        <ele>46.470434</ele>
        <time>2022-10-22T11:22:51.399Z</time>
      </trkpt>
      <trkpt lat="52.417808" lon="13.356500">
        <ele>45.948393</ele>
        <time>2022-10-22T11:24:26.378Z</time>
      </trkpt>
      <trkpt lat="52.417651" lon="13.356819">
        <ele>45.876979</ele>
        <time>2022-10-22T11:24:51.916Z</time>
      </trkpt>
      <trkpt lat="52.417357" lon="13.357209">
        <ele>45.809539</ele>
        <time>2022-10-22T11:25:30.544Z</time>
      </trkpt>
      <trkpt lat="52.417159" lon="13.357315">
        <ele>45.772396</ele>
        <time>2022-10-22T11:25:51.605Z</time>
      </trkpt>
      <trkpt lat="52.417000" lon="13.357347">
        <ele>45.743829</ele>
        <time>2022-10-22T11:26:07.771Z</time>
      </trkpt>
      <trkpt lat="52.416889" lon="13.357352">
        <ele>45.724027</ele>
        <time>2022-10-22T11:26:18.917Z</time>
      </trkpt>
      <trkpt lat="52.416698" lon="13.357456">
        <ele>45.688137</ele>
        <time>2022-10-22T11:26:39.137Z</time>
      </trkpt>
      <trkpt lat="52.416472" lon="13.357729">
        <ele>45.638077</ele>
        <time>2022-10-22T11:27:07.626Z</time>
      </trkpt>
      <trkpt lat="52.416335" lon="13.357833">
        <ele>45.611154</ele>
        <time>2022-10-22T11:27:23.118Z</time>
      </trkpt>
      <trkpt lat="52.416114" lon="13.357833">
        <ele>45.651108</ele>
        <time>2022-10-22T11:27:45.615Z</time>
      </trkpt>
      <trkpt lat="52.415889" lon="13.357742">
        <ele>45.809741</ele>
        <time>2022-10-22T11:28:09.231Z</time>
      </trkpt>
      <trkpt lat="52.415807" lon="13.358004">
        <ele>45.932688</ele>
        <time>2022-10-22T11:28:27.597Z</time>
      </trkpt>
      <trkpt lat="52.415762" lon="13.358372">
        <ele>46.089387</ele>
        <time>2022-10-22T11:28:50.929Z</time>
      </trkpt>
      <trkpt lat="52.415687" lon="13.358550">
        <ele>46.179712</ele>
        <time>2022-10-22T11:29:04.511Z</time>
      </trkpt>
      <trkpt lat="52.415608" lon="13.358562">
        <ele>46.234020</ele>
        <time>2022-10-22T11:29:12.719Z</time>
      </trkpt>
      <trkpt lat="52.415301" lon="13.358478">
        <ele>46.447073</ele>
        <time>2022-10-22T11:29:44.719Z</time>
      </trkpt>
      <trkpt lat="52.414959" lon="13.358756">
        <ele>46.708371</ele>
        <time>2022-10-22T11:30:24.208Z</time>
      </trkpt>
      <trkpt lat="52.414923" lon="13.358618">
        <ele>46.771036</ele>
        <time>2022-10-22T11:30:33.641Z</time>
      </trkpt>
      <trkpt lat="52.414915" lon="13.358588">
        <ele>46.784706</ele>
        <time>2022-10-22T11:30:35.711Z</time>
      </trkpt>
      <trkpt lat="52.414870" lon="13.358428">
        <ele>46.845339</ele>
        <time>2022-10-22T11:30:46.785Z</time>
      </trkpt>
      <trkpt lat="52.414883" lon="13.358296">
        <ele>46.882620</ele>
        <time>2022-10-22T11:30:55.189Z</time>
      </trkpt>
      <trkpt lat="52.414820" lon="13.358241">
        <ele>46.915247</ele>
        <time>2022-10-22T11:31:02.577Z</time>
      </trkpt>
      <trkpt lat="52.414699" lon="13.357838">
        <ele>47.040489</ele>
        <time>2022-10-22T11:31:30.649Z</time>
      </trkpt>
      <trkpt lat="52.414607" lon="13.357768">
        <ele>47.086853</ele>
        <time>2022-10-22T11:31:41.006Z</time>
      </trkpt>
      <trkpt lat="52.414607" lon="13.357768">
        <ele>47.086853</ele>
        <time>2022-10-22T11:31:41.006Z</time>
      </trkpt>
      <trkpt lat="52.414399" lon="13.357564">
        <ele>47.197651</ele>
        <time>2022-10-22T11:32:05.472Z</time>
      </trkpt>
      <trkpt lat="52.414337" lon="13.357460">
        <ele>47.238199</ele>
        <time>2022-10-22T11:32:14.473Z</time>
      </trkpt>
      <trkpt lat="52.414296" lon="13.357346">
        <ele>47.275099</ele>
        <time>2022-10-22T11:32:22.604Z</time>
      </trkpt>
      <trkpt lat="52.414293" lon="13.356992">
        <ele>47.373813</ele>
        <time>2022-10-22T11:32:44.297Z</time>
      </trkpt>
      <trkpt lat="52.414684" lon="13.355180">
        <ele>47.538475</ele>
        <time>2022-10-22T11:34:43.156Z</time>
      </trkpt>
      <trkpt lat="52.414756" lon="13.355134">
        <ele>47.524896</ele>
        <time>2022-10-22T11:34:50.943Z</time>
      </trkpt>
      <trkpt lat="52.414810" lon="13.354861">
        <ele>47.494136</ele>
        <time>2022-10-22T11:35:08.537Z</time>
      </trkpt>
      <trkpt lat="52.414777" lon="13.354752">
        <ele>47.481094</ele>
        <time>2022-10-22T11:35:15.973Z</time>
      </trkpt>
      <trkpt lat="52.414752" lon="13.354672">
        <ele>47.471459</ele>
        <time>2022-10-22T11:35:21.445Z</time>
      </trkpt>
      <trkpt lat="52.414912" lon="13.353933">
        <ele>47.387411</ele>
        <time>2022-10-22T11:36:10.006Z</time>
      </trkpt>
      <trkpt lat="52.415050" lon="13.354002">
        <ele>47.362059</ele>
        <time>2022-10-22T11:36:24.590Z</time>
      </trkpt>
      <trkpt lat="52.415062" lon="13.353940">
        <ele>47.355088</ele>
        <time>2022-10-22T11:36:28.631Z</time>
      </trkpt>
      <trkpt lat="52.415089" lon="13.353805">
        <ele>47.339860</ele>
        <time>2022-10-22T11:36:37.394Z</time>
      </trkpt>
      <trkpt lat="52.415138" lon="13.353560">
        <ele>47.318757</ele>
        <time>2022-10-22T11:36:53.522Z</time>
      </trkpt>
      <trkpt lat="52.415138" lon="13.353560">
        <ele>47.318757</ele>
        <time>2022-10-22T11:36:53.522Z</time>
      </trkpt>
      <trkpt lat="52.415211" lon="13.353192">
        <ele>47.297692</ele>
        <time>2022-10-22T11:37:17.267Z</time>
      </trkpt>
      <trkpt lat="52.415175" lon="13.352723">
        <ele>47.271961</ele>
        <time>2022-10-22T11:37:46.230Z</time>
      </trkpt>
      <trkpt lat="52.415108" lon="13.352604">
        <ele>47.263145</ele>
        <time>2022-10-22T11:37:56.144Z</time>
      </trkpt>
      <trkpt lat="52.414905" lon="13.352430">
        <ele>47.242701</ele>
        <time>2022-10-22T11:38:19.007Z</time>
      </trkpt>
      <trkpt lat="52.414675" lon="13.352473">
        <ele>47.222041</ele>
        <time>2022-10-22T11:38:42.343Z</time>
      </trkpt>
      <trkpt lat="52.414378" lon="13.352058">
        <ele>47.187213</ele>
        <time>2022-10-22T11:39:21.534Z</time>
      </trkpt>
      <trkpt lat="52.414294" lon="13.351896">
        <ele>47.175639</ele>
        <time>2022-10-22T11:39:34.709Z</time>
      </trkpt>
      <trkpt lat="52.414174" lon="13.351744">
        <ele>47.219778</ele>
        <time>2022-10-22T11:39:49.970Z</time>
      </trkpt>
      <trkpt lat="52.414174" lon="13.351744">
        <ele>47.219778</ele>
        <time>2022-10-22T11:39:49.970Z</time>
      </trkpt>
      <trkpt lat="52.414134" lon="13.351710">
        <ele>47.296612</ele>
        <time>2022-10-22T11:39:54.479Z</time>
      </trkpt>
      <trkpt lat="52.414102" lon="13.351683">
        <ele>47.357984</ele>
        <time>2022-10-22T11:39:58.037Z</time>
      </trkpt>
      <trkpt lat="52.414070" lon="13.351656">
        <ele>47.419355</ele>
        <time>2022-10-22T11:40:01.781Z</time>
      </trkpt>
      <trkpt lat="52.414047" lon="13.351636">
        <ele>47.463752</ele>
        <time>2022-10-22T11:40:04.432Z</time>
      </trkpt>
      <trkpt lat="52.414031" lon="13.351622">
        <ele>47.494680</ele>
        <time>2022-10-22T11:40:06.335Z</time>
      </trkpt>
      <trkpt lat="52.414000" lon="13.351596">
        <ele>47.554060</ele>
        <time>2022-10-22T11:40:09.978Z</time>
      </trkpt>
      <trkpt lat="52.413974" lon="13.351573">
        <ele>47.604440</ele>
        <time>2022-10-22T11:40:13.032Z</time>
      </trkpt>
      <trkpt lat="52.413945" lon="13.351548">
        <ele>47.660313</ele>
        <time>2022-10-22T11:40:16.437Z</time>
      </trkpt>
      <trkpt lat="52.413918" lon="13.351526">
        <ele>47.711729</ele>
        <time>2022-10-22T11:40:19.567Z</time>
      </trkpt>
      <trkpt lat="52.413918" lon="13.351526">
        <ele>47.711729</ele>
        <time>2022-10-22T11:40:19.567Z</time>
      </trkpt>
      <trkpt lat="52.413739" lon="13.351348">
        <ele>48.068737</ele>
        <time>2022-10-22T11:40:41.359Z</time>
      </trkpt>
      <trkpt lat="52.413433" lon="13.351120">
        <ele>48.641919</ele>
        <time>2022-10-22T11:41:17.287Z</time>
      </trkpt>
      <trkpt lat="52.413282" lon="13.351051">
        <ele>48.909233</ele>
        <time>2022-10-22T11:41:34.715Z</time>
      </trkpt>
      <trkpt lat="52.413110" lon="13.351042">
        <ele>49.202692</ele>
        <time>2022-10-22T11:41:53.927Z</time>
      </trkpt>
      <trkpt lat="52.412673" lon="13.351010">
        <ele>49.948646</ele>
        <time>2022-10-22T11:42:42.005Z</time>
      </trkpt>
      <trkpt lat="52.412607" lon="13.350927">
        <ele>50.090495</ele>
        <time>2022-10-22T11:42:51.082Z</time>
      </trkpt>
      <trkpt lat="52.412538" lon="13.350676">
        <ele>50.243438</ele>
        <time>2022-10-22T11:43:08.763Z</time>
      </trkpt>
      <trkpt lat="52.412592" lon="13.349879">
        <ele>50.308331</ele>
        <time>2022-10-22T11:43:58.788Z</time>
      </trkpt>
      <trkpt lat="52.412334" lon="13.349872">
        <ele>50.342565</ele>
        <time>2022-10-22T11:44:24.760Z</time>
      </trkpt>
      <trkpt lat="52.412334" lon="13.349851">
        <ele>50.344264</ele>
        <time>2022-10-22T11:44:26.052Z</time>
      </trkpt>
      <trkpt lat="52.412334" lon="13.349752">
        <ele>50.352276</ele>
        <time>2022-10-22T11:44:32.192Z</time>
      </trkpt>
      <trkpt lat="52.412334" lon="13.349655">
        <ele>50.360125</ele>
        <time>2022-10-22T11:44:38.188Z</time>
      </trkpt>
      <trkpt lat="52.412334" lon="13.349621">
        <ele>50.362877</ele>
        <time>2022-10-22T11:44:40.350Z</time>
      </trkpt>
      <trkpt lat="52.412382" lon="13.349574">
        <ele>50.370294</ele>
        <time>2022-10-22T11:44:46.079Z</time>
      </trkpt>
      <trkpt lat="52.412348" lon="13.349079">
        <ele>50.410605</ele>
        <time>2022-10-22T11:45:16.625Z</time>
      </trkpt>
      <trkpt lat="52.412211" lon="13.348239">
        <ele>50.353102</ele>
        <time>2022-10-22T11:46:10.698Z</time>
      </trkpt>
      <trkpt lat="52.412107" lon="13.347598">
        <ele>49.731512</ele>
        <time>2022-10-22T11:46:52.390Z</time>
      </trkpt>
      <trkpt lat="52.412030" lon="13.347146">
        <ele>49.291717</ele>
        <time>2022-10-22T11:47:22.472Z</time>
      </trkpt>
      <trkpt lat="52.412013" lon="13.347040">
        <ele>49.189004</ele>
        <time>2022-10-22T11:47:29.558Z</time>
      </trkpt>
      <trkpt lat="52.411997" lon="13.346939">
        <ele>49.091214</ele>
        <time>2022-10-22T11:47:36.187Z</time>
      </trkpt>
      <trkpt lat="52.411846" lon="13.345892">
        <ele>48.082976</ele>
        <time>2022-10-22T11:48:44.550Z</time>
      </trkpt>
      <trkpt lat="52.411767" lon="13.345069">
        <ele>47.610634</ele>
        <time>2022-10-22T11:49:36.249Z</time>
      </trkpt>
      <trkpt lat="52.411754" lon="13.344545">
        <ele>47.493195</ele>
        <time>2022-10-22T11:50:08.498Z</time>
      </trkpt>
      <trkpt lat="52.411746" lon="13.343519">
        <ele>47.263420</ele>
        <time>2022-10-22T11:51:11.389Z</time>
      </trkpt>
      <trkpt lat="52.411688" lon="13.342489">
        <ele>47.047559</ele>
        <time>2022-10-22T11:52:14.517Z</time>
      </trkpt>
      <trkpt lat="52.411745" lon="13.342481">
        <ele>47.048103</ele>
        <time>2022-10-22T11:52:20.295Z</time>
      </trkpt>
      <trkpt lat="52.411710" lon="13.341817">
        <ele>47.051963</ele>
        <time>2022-10-22T11:53:01.020Z</time>
      </trkpt>
      <trkpt lat="52.411652" lon="13.341831">
        <ele>47.052520</ele>
        <time>2022-10-22T11:53:07.000Z</time>
      </trkpt>
      <trkpt lat="52.411280" lon="13.341996">
        <ele>47.056180</ele>
        <time>2022-10-22T11:53:45.781Z</time>
      </trkpt>
      <trkpt lat="52.411138" lon="13.342001">
        <ele>47.057529</ele>
        <time>2022-10-22T11:54:00.122Z</time>
      </trkpt>
      <trkpt lat="52.410805" lon="13.341809">
        <ele>47.060881</ele>
        <time>2022-10-22T11:54:35.443Z</time>
      </trkpt>
      <trkpt lat="52.410516" lon="13.341805">
        <ele>47.063626</ele>
        <time>2022-10-22T11:55:04.537Z</time>
      </trkpt>
      <trkpt lat="52.410123" lon="13.340725">
        <ele>46.879167</ele>
        <time>2022-10-22T11:56:21.428Z</time>
      </trkpt>
      <trkpt lat="52.409747" lon="13.339840">
        <ele>46.705753</ele>
        <time>2022-10-22T11:57:27.656Z</time>
      </trkpt>
      <trkpt lat="52.409716" lon="13.339705">
        <ele>46.682559</ele>
        <time>2022-10-22T11:57:36.663Z</time>
      </trkpt>
      <trkpt lat="52.409716" lon="13.339705">
        <ele>46.682559</ele>
        <time>2022-10-22T11:57:36.775Z</time>
      </trkpt>
      <trkpt lat="52.409716" lon="13.339705">
        <ele>46.682559</ele>
        <time>2022-10-22T11:57:36.775Z</time>
      </trkpt>
      <trkpt lat="52.409268" lon="13.338482">
        <ele>46.311585</ele>
        <time>2022-10-22T11:59:03.865Z</time>
      </trkpt>
      <trkpt lat="52.408820" lon="13.337259">
        <ele>45.845062</ele>
        <time>2022-10-22T12:00:30.955Z</time>
      </trkpt>
      <trkpt lat="52.408372" lon="13.336036">
        <ele>45.453707</ele>
        <time>2022-10-22T12:01:58.045Z</time>
      </trkpt>
      <trkpt lat="52.407924" lon="13.334813">
        <ele>45.128947</ele>
        <time>2022-10-22T12:03:25.135Z</time>
      </trkpt>
      <trkpt lat="52.407477" lon="13.333590">
        <ele>44.900851</ele>
        <time>2022-10-22T12:04:52.175Z</time>
      </trkpt>
      <trkpt lat="52.407029" lon="13.332367">
        <ele>44.784539</ele>
        <time>2022-10-22T12:06:19.266Z</time>
      </trkpt>
      <trkpt lat="52.406581" lon="13.331144">
        <ele>44.727468</ele>
        <time>2022-10-22T12:07:46.358Z</time>
      </trkpt>
      <trkpt lat="52.406133" lon="13.329921">
        <ele>44.760748</ele>
        <time>2022-10-22T12:09:13.451Z</time>
      </trkpt>
      <trkpt lat="52.405685" lon="13.328698">
        <ele>44.657255</ele>
        <time>2022-10-22T12:10:40.544Z</time>
      </trkpt>
      <trkpt lat="52.405237" lon="13.327476">
        <ele>44.275362</ele>
        <time>2022-10-22T12:12:07.608Z</time>
      </trkpt>
      <trkpt lat="52.405125" lon="13.327202">
        <ele>44.187014</ele>
        <time>2022-10-22T12:12:27.906Z</time>
      </trkpt>
      <trkpt lat="52.404964" lon="13.326806">
        <ele>44.059539</ele>
        <time>2022-10-22T12:12:57.349Z</time>
      </trkpt>
      <trkpt lat="52.404809" lon="13.326405">
        <ele>43.981180</ele>
        <time>2022-10-22T12:13:26.737Z</time>
      </trkpt>
      <trkpt lat="52.401778" lon="13.318497">
        <ele>43.974262</ele>
        <time>2022-10-22T12:22:57.418Z</time>
      </trkpt>
      <trkpt lat="52.401010" lon="13.316429">
        <ele>44.981360</ele>
        <time>2022-10-22T12:25:30.275Z</time>
      </trkpt>
      <trkpt lat="52.400717" lon="13.315641">
        <ele>45.352359</ele>
        <time>2022-10-22T12:26:28.642Z</time>
      </trkpt>
      <trkpt lat="52.400698" lon="13.315600">
        <ele>45.373059</ele>
        <time>2022-10-22T12:26:31.902Z</time>
      </trkpt>
      <trkpt lat="52.400451" lon="13.315101">
        <ele>45.631394</ele>
        <time>2022-10-22T12:27:12.274Z</time>
      </trkpt>
      <trkpt lat="52.399452" lon="13.313486">
        <ele>46.169588</ele>
        <time>2022-10-22T12:29:33.657Z</time>
      </trkpt>
      <trkpt lat="52.398806" lon="13.312441">
        <ele>46.273768</ele>
        <time>2022-10-22T12:31:04.696Z</time>
      </trkpt>
      <trkpt lat="52.398690" lon="13.312267">
        <ele>46.291816</ele>
        <time>2022-10-22T12:31:20.550Z</time>
      </trkpt>
      <trkpt lat="52.398616" lon="13.312106">
        <ele>46.290890</ele>
        <time>2022-10-22T12:31:32.872Z</time>
      </trkpt>
      <trkpt lat="52.398810" lon="13.311879">
        <ele>46.282179</ele>
        <time>2022-10-22T12:31:56.806Z</time>
      </trkpt>
      <trkpt lat="52.399536" lon="13.311160">
        <ele>46.251179</ele>
        <time>2022-10-22T12:33:22.031Z</time>
      </trkpt>
      <trkpt lat="52.400804" lon="13.309821">
        <ele>45.709060</ele>
        <time>2022-10-22T12:35:53.831Z</time>
      </trkpt>
      <trkpt lat="52.403009" lon="13.307384">
        <ele>44.063542</ele>
        <time>2022-10-22T12:40:25.012Z</time>
      </trkpt>
      <trkpt lat="52.403423" lon="13.306932">
        <ele>44.460482</ele>
        <time>2022-10-22T12:41:16.341Z</time>
      </trkpt>
      <trkpt lat="52.403607" lon="13.306824">
        <ele>44.642348</ele>
        <time>2022-10-22T12:41:36.653Z</time>
      </trkpt>
      <trkpt lat="52.403769" lon="13.306792">
        <ele>44.794186</ele>
        <time>2022-10-22T12:41:53.817Z</time>
      </trkpt>
      <trkpt lat="52.404060" lon="13.306876">
        <ele>45.069140</ele>
        <time>2022-10-22T12:42:24.821Z</time>
      </trkpt>
      <trkpt lat="52.404123" lon="13.306908">
        <ele>45.130514</ele>
        <time>2022-10-22T12:42:31.799Z</time>
      </trkpt>
      <trkpt lat="52.404304" lon="13.306998">
        <ele>45.306520</ele>
        <time>2022-10-22T12:42:51.703Z</time>
      </trkpt>
      <trkpt lat="52.404534" lon="13.306782">
        <ele>45.553184</ele>
        <time>2022-10-22T12:43:19.737Z</time>
      </trkpt>
      <trkpt lat="52.405163" lon="13.306189">
        <ele>45.716918</ele>
        <time>2022-10-22T12:44:34.338Z</time>
      </trkpt>
      <trkpt lat="52.405529" lon="13.305799">
        <ele>45.722019</ele>
        <time>2022-10-22T12:45:18.041Z</time>
      </trkpt>
      <trkpt lat="52.405769" lon="13.305469">
        <ele>45.725680</ele>
        <time>2022-10-22T12:45:49.614Z</time>
      </trkpt>
      <trkpt lat="52.405814" lon="13.305345">
        <ele>45.726709</ele>
        <time>2022-10-22T12:45:58.613Z</time>
      </trkpt>
      <trkpt lat="52.405862" lon="13.304945">
        <ele>45.729616</ele>
        <time>2022-10-22T12:46:23.828Z</time>
      </trkpt>
      <trkpt lat="52.406283" lon="13.304514">
        <ele>45.401838</ele>
        <time>2022-10-22T12:47:14.508Z</time>
      </trkpt>
      <trkpt lat="52.406906" lon="13.303941">
        <ele>44.711147</ele>
        <time>2022-10-22T12:48:27.761Z</time>
      </trkpt>
      <trkpt lat="52.406935" lon="13.303881">
        <ele>44.665996</ele>
        <time>2022-10-22T12:48:32.538Z</time>
      </trkpt>
      <trkpt lat="52.406946" lon="13.303747">
        <ele>44.586246</ele>
        <time>2022-10-22T12:48:40.969Z</time>
      </trkpt>
      <trkpt lat="52.406966" lon="13.303561">
        <ele>44.474847</ele>
        <time>2022-10-22T12:48:52.785Z</time>
      </trkpt>
      <trkpt lat="52.407044" lon="13.303415">
        <ele>44.360378</ele>
        <time>2022-10-22T12:49:04.879Z</time>
      </trkpt>
      <trkpt lat="52.407496" lon="13.302967">
        <ele>43.941987</ele>
        <time>2022-10-22T12:49:58.688Z</time>
      </trkpt>
      <trkpt lat="52.407955" lon="13.302528">
        <ele>43.760484</ele>
        <time>2022-10-22T12:50:52.490Z</time>
      </trkpt>
      <trkpt lat="52.408546" lon="13.301860">
        <ele>43.515298</ele>
        <time>2022-10-22T12:52:04.654Z</time>
      </trkpt>
      <trkpt lat="52.409033" lon="13.301279">
        <ele>43.422530</ele>
        <time>2022-10-22T12:53:05.087Z</time>
      </trkpt>
      <trkpt lat="52.409487" lon="13.300666">
        <ele>43.552870</ele>
        <time>2022-10-22T12:54:04.314Z</time>
      </trkpt>
      <trkpt lat="52.409817" lon="13.300221">
        <ele>43.647561</ele>
        <time>2022-10-22T12:54:47.776Z</time>
      </trkpt>
      <trkpt lat="52.410696" lon="13.299040">
        <ele>43.533446</ele>
        <time>2022-10-22T12:56:42.801Z</time>
      </trkpt>
      <trkpt lat="52.410916" lon="13.298810">
        <ele>43.418873</ele>
        <time>2022-10-22T12:57:09.104Z</time>
      </trkpt>
      <trkpt lat="52.411349" lon="13.298333">
        <ele>43.189805</ele>
        <time>2022-10-22T12:58:02.098Z</time>
      </trkpt>
      <trkpt lat="52.411501" lon="13.298151">
        <ele>43.107156</ele>
        <time>2022-10-22T12:58:21.249Z</time>
      </trkpt>
      <trkpt lat="52.411680" lon="13.297945">
        <ele>43.011124</ele>
        <time>2022-10-22T12:58:43.633Z</time>
      </trkpt>
      <trkpt lat="52.411723" lon="13.298063">
        <ele>42.938702</ele>
        <time>2022-10-22T12:58:52.134Z</time>
      </trkpt>
      <trkpt lat="52.411760" lon="13.298031">
        <ele>42.868333</ele>
        <time>2022-10-22T12:58:56.436Z</time>
      </trkpt>
      <trkpt lat="52.411792" lon="13.298002">
        <ele>42.806828</ele>
        <time>2022-10-22T12:59:00.228Z</time>
      </trkpt>
      <trkpt lat="52.411832" lon="13.297967">
        <ele>42.730558</ele>
        <time>2022-10-22T12:59:04.926Z</time>
      </trkpt>
      <trkpt lat="52.411855" lon="13.297947">
        <ele>42.686764</ele>
        <time>2022-10-22T12:59:07.624Z</time>
      </trkpt>
      <trkpt lat="52.411904" lon="13.297904">
        <ele>42.593273</ele>
        <time>2022-10-22T12:59:13.264Z</time>
      </trkpt>
      <trkpt lat="52.411847" lon="13.297743">
        <ele>42.402266</ele>
        <time>2022-10-22T12:59:24.911Z</time>
      </trkpt>
      <trkpt lat="52.411950" lon="13.297636">
        <ele>42.197150</ele>
        <time>2022-10-22T12:59:37.476Z</time>
      </trkpt>
      <trkpt lat="52.412439" lon="13.297133">
        <ele>41.226077</ele>
        <time>2022-10-22T13:00:37.464Z</time>
      </trkpt>
      <trkpt lat="52.413049" lon="13.296503">
        <ele>40.013337</ele>
        <time>2022-10-22T13:01:52.862Z</time>
      </trkpt>
      <trkpt lat="52.413712" lon="13.295843">
        <ele>38.912909</ele>
        <time>2022-10-22T13:03:13.197Z</time>
      </trkpt>
      <trkpt lat="52.414215" lon="13.295322">
        <ele>38.075315</ele>
        <time>2022-10-22T13:04:14.266Z</time>
      </trkpt>
      <trkpt lat="52.413395" lon="13.292601">
        <ele>36.311993</ele>
        <time>2022-10-22T13:07:22.975Z</time>
      </trkpt>
      <trkpt lat="52.413203" lon="13.292152">
        <ele>36.043594</ele>
        <time>2022-10-22T13:07:56.888Z</time>
      </trkpt>
      <trkpt lat="52.412632" lon="13.291021">
        <ele>35.892283</ele>
        <time>2022-10-22T13:09:27.415Z</time>
      </trkpt>
      <trkpt lat="52.412293" lon="13.290625">
        <ele>35.844974</ele>
        <time>2022-10-22T13:10:09.247Z</time>
      </trkpt>
      <trkpt lat="52.411221" lon="13.288719">
        <ele>36.624121</ele>
        <time>2022-10-22T13:12:50.927Z</time>
      </trkpt>
      <trkpt lat="52.409760" lon="13.286107">
        <ele>38.491343</ele>
        <time>2022-10-22T13:16:35.736Z</time>
      </trkpt>
      <trkpt lat="52.409574" lon="13.285758">
        <ele>38.741821</ele>
        <time>2022-10-22T13:17:04.864Z</time>
      </trkpt>
      <trkpt lat="52.408384" lon="13.283603">
        <ele>38.766069</ele>
        <time>2022-10-22T13:20:02.445Z</time>
      </trkpt>
      <trkpt lat="52.408085" lon="13.283032">
        <ele>38.418669</ele>
        <time>2022-10-22T13:20:49.117Z</time>
      </trkpt>
      <trkpt lat="52.407814" lon="13.282388">
        <ele>37.885827</ele>
        <time>2022-10-22T13:21:37.958Z</time>
      </trkpt>
      <trkpt lat="52.406234" lon="13.279613">
        <ele>35.288262</ele>
        <time>2022-10-22T13:25:36.502Z</time>
      </trkpt>
      <trkpt lat="52.405815" lon="13.278801">
        <ele>34.734854</ele>
        <time>2022-10-22T13:26:42.341Z</time>
      </trkpt>
      <trkpt lat="52.405365" lon="13.278005">
        <ele>34.782244</ele>
        <time>2022-10-22T13:27:48.614Z</time>
      </trkpt>
      <trkpt lat="52.404883" lon="13.277213">
        <ele>34.831096</ele>
        <time>2022-10-22T13:28:57.676Z</time>
      </trkpt>
      <trkpt lat="52.404730" lon="13.276869">
        <ele>34.849686</ele>
        <time>2022-10-22T13:29:24.030Z</time>
      </trkpt>
      <trkpt lat="52.404630" lon="13.276617">
        <ele>34.845566</ele>
        <time>2022-10-22T13:29:42.638Z</time>
      </trkpt>
      <trkpt lat="52.404391" lon="13.275727">
        <ele>34.813285</ele>
        <time>2022-10-22T13:30:43.312Z</time>
      </trkpt>
      <trkpt lat="52.403703" lon="13.271955">
        <ele>34.352754</ele>
        <time>2022-10-22T13:34:45.747Z</time>
      </trkpt>
      <trkpt lat="52.403600" lon="13.271090">
        <ele>34.229916</ele>
        <time>2022-10-22T13:35:39.838Z</time>
      </trkpt>
      <trkpt lat="52.403559" lon="13.270404">
        <ele>34.331850</ele>
        <time>2022-10-22T13:36:22.101Z</time>
      </trkpt>
      <trkpt lat="52.403577" lon="13.269091">
        <ele>34.526069</ele>
        <time>2022-10-22T13:37:43.693Z</time>
      </trkpt>
      <trkpt lat="52.403578" lon="13.268998">
        <ele>34.539825</ele>
        <time>2022-10-22T13:37:49.529Z</time>
      </trkpt>
      <trkpt lat="52.403588" lon="13.268918">
        <ele>34.551901</ele>
        <time>2022-10-22T13:37:54.587Z</time>
      </trkpt>
      <trkpt lat="52.403739" lon="13.267192">
        <ele>34.869086</ele>
        <time>2022-10-22T13:39:41.772Z</time>
      </trkpt>
      <trkpt lat="52.403883" lon="13.265559">
        <ele>35.202766</ele>
        <time>2022-10-22T13:41:23.124Z</time>
      </trkpt>
      <trkpt lat="52.403885" lon="13.265543">
        <ele>35.206069</ele>
        <time>2022-10-22T13:41:24.162Z</time>
      </trkpt>
      <trkpt lat="52.404007" lon="13.264902">
        <ele>35.665578</ele>
        <time>2022-10-22T13:42:06.440Z</time>
      </trkpt>
      <trkpt lat="52.404146" lon="13.264356">
        <ele>36.183241</ele>
        <time>2022-10-22T13:42:44.156Z</time>
      </trkpt>
      <trkpt lat="52.404113" lon="13.264125">
        <ele>36.390828</ele>
        <time>2022-10-22T13:42:59.427Z</time>
      </trkpt>
      <trkpt lat="52.404074" lon="13.264091">
        <ele>36.454181</ele>
        <time>2022-10-22T13:43:04.038Z</time>
      </trkpt>
      <trkpt lat="52.404060" lon="13.264084">
        <ele>36.475173</ele>
        <time>2022-10-22T13:43:05.568Z</time>
      </trkpt>
      <trkpt lat="52.403991" lon="13.264043">
        <ele>36.580433</ele>
        <time>2022-10-22T13:43:13.389Z</time>
      </trkpt>
      <trkpt lat="52.403935" lon="13.264019">
        <ele>36.663447</ele>
        <time>2022-10-22T13:43:19.419Z</time>
      </trkpt>
      <trkpt lat="52.403810" lon="13.263978">
        <ele>36.846274</ele>
        <time>2022-10-22T13:43:32.837Z</time>
      </trkpt>
      <trkpt lat="52.403656" lon="13.263926">
        <ele>37.071776</ele>
        <time>2022-10-22T13:43:49.551Z</time>
      </trkpt>
      <trkpt lat="52.403501" lon="13.263875">
        <ele>37.298509</ele>
        <time>2022-10-22T13:44:06.327Z</time>
      </trkpt>
      <trkpt lat="52.402894" lon="13.263674">
        <ele>38.195594</ele>
        <time>2022-10-22T13:45:12.875Z</time>
      </trkpt>
      <trkpt lat="52.402885" lon="13.263738">
        <ele>38.254481</ele>
        <time>2022-10-22T13:45:17.141Z</time>
      </trkpt>
      <trkpt lat="52.402344" lon="13.263509">
        <ele>39.075609</ele>
        <time>2022-10-22T13:46:17.440Z</time>
      </trkpt>
      <trkpt lat="52.402632" lon="13.261778">
        <ele>40.506583</ele>
        <time>2022-10-22T13:48:11.202Z</time>
      </trkpt>
      <trkpt lat="52.402089" lon="13.261500">
        <ele>40.657646</ele>
        <time>2022-10-22T13:49:08.152Z</time>
      </trkpt>
      <trkpt lat="52.402453" lon="13.259404">
        <ele>40.971422</ele>
        <time>2022-10-22T13:51:21.770Z</time>
      </trkpt>
      <trkpt lat="52.402450" lon="13.259128">
        <ele>40.989399</ele>
        <time>2022-10-22T13:51:38.766Z</time>
      </trkpt>
      <trkpt lat="52.402399" lon="13.258660">
        <ele>41.020360</ele>
        <time>2022-10-22T13:52:07.825Z</time>
      </trkpt>
      <trkpt lat="52.402110" lon="13.258558">
        <ele>41.051916</ele>
        <time>2022-10-22T13:52:37.502Z</time>
      </trkpt>
      <trkpt lat="52.402158" lon="13.258097">
        <ele>41.082373</ele>
        <time>2022-10-22T13:53:06.088Z</time>
      </trkpt>
      <trkpt lat="52.402166" lon="13.257652">
        <ele>41.111367</ele>
        <time>2022-10-22T13:53:33.483Z</time>
      </trkpt>
      <trkpt lat="52.402142" lon="13.257483">
        <ele>41.122667</ele>
        <time>2022-10-22T13:53:44.127Z</time>
      </trkpt>
      <trkpt lat="52.402082" lon="13.257154">
        <ele>41.129226</ele>
        <time>2022-10-22T13:54:05.410Z</time>
      </trkpt>
      <trkpt lat="52.401882" lon="13.256020">
        <ele>41.054752</ele>
        <time>2022-10-22T13:55:17.898Z</time>
      </trkpt>
      <trkpt lat="52.402578" lon="13.255801">
        <ele>40.981467</ele>
        <time>2022-10-22T13:56:29.134Z</time>
      </trkpt>
      <trkpt lat="52.403464" lon="13.255610">
        <ele>40.715542</ele>
        <time>2022-10-22T13:57:59.489Z</time>
      </trkpt>
      <trkpt lat="52.403647" lon="13.255566">
        <ele>40.642847</ele>
        <time>2022-10-22T13:58:18.149Z</time>
      </trkpt>
      <trkpt lat="52.403773" lon="13.255522">
        <ele>40.592213</ele>
        <time>2022-10-22T13:58:31.108Z</time>
      </trkpt>
      <trkpt lat="52.404271" lon="13.255079">
        <ele>40.369513</ele>
        <time>2022-10-22T13:59:28.156Z</time>
      </trkpt>
      <trkpt lat="52.404216" lon="13.254947">
        <ele>40.331184</ele>
        <time>2022-10-22T13:59:37.884Z</time>
      </trkpt>
      <trkpt lat="52.404194" lon="13.254892">
        <ele>40.315414</ele>
        <time>2022-10-22T13:59:41.922Z</time>
      </trkpt>
      <trkpt lat="52.403951" lon="13.254237">
        <ele>40.019718</ele>
        <time>2022-10-22T14:00:29.209Z</time>
      </trkpt>
      <trkpt lat="52.403915" lon="13.254140">
        <ele>39.965415</ele>
        <time>2022-10-22T14:00:36.316Z</time>
      </trkpt>
      <trkpt lat="52.403900" lon="13.254096">
        <ele>39.941309</ele>
        <time>2022-10-22T14:00:39.480Z</time>
      </trkpt>
      <trkpt lat="52.403783" lon="13.253776">
        <ele>39.762879</ele>
        <time>2022-10-22T14:01:02.600Z</time>
      </trkpt>
      <trkpt lat="52.403461" lon="13.252902">
        <ele>39.274555</ele>
        <time>2022-10-22T14:02:06.098Z</time>
      </trkpt>
      <trkpt lat="52.403327" lon="13.252491">
        <ele>39.051671</ele>
        <time>2022-10-22T14:02:34.955Z</time>
      </trkpt>
      <trkpt lat="52.403157" lon="13.252029">
        <ele>38.806882</ele>
        <time>2022-10-22T14:03:08.567Z</time>
      </trkpt>
      <trkpt lat="52.402991" lon="13.251578">
        <ele>38.637602</ele>
        <time>2022-10-22T14:03:41.585Z</time>
      </trkpt>
      <trkpt lat="52.402761" lon="13.250929">
        <ele>38.396386</ele>
        <time>2022-10-22T14:04:28.368Z</time>
      </trkpt>
      <trkpt lat="52.402414" lon="13.250012">
        <ele>38.049588</ele>
        <time>2022-10-22T14:05:34.869Z</time>
      </trkpt>
      <trkpt lat="52.402115" lon="13.249211">
        <ele>38.028185</ele>
        <time>2022-10-22T14:06:32.592Z</time>
      </trkpt>
      <trkpt lat="52.401606" lon="13.247827">
        <ele>38.558265</ele>
        <time>2022-10-22T14:08:13.999Z</time>
      </trkpt>
      <trkpt lat="52.401166" lon="13.246637">
        <ele>38.762548</ele>
        <time>2022-10-22T14:09:41.008Z</time>
      </trkpt>
      <trkpt lat="52.401084" lon="13.246416">
        <ele>38.714619</ele>
        <time>2022-10-22T14:09:56.962Z</time>
      </trkpt>
      <trkpt lat="52.400736" lon="13.245479">
        <ele>38.511358</ele>
        <time>2022-10-22T14:11:04.620Z</time>
      </trkpt>
      <trkpt lat="52.400233" lon="13.244121">
        <ele>38.143378</ele>
        <time>2022-10-22T14:12:43.241Z</time>
      </trkpt>
      <trkpt lat="52.400152" lon="13.243898">
        <ele>38.056104</ele>
        <time>2022-10-22T14:12:59.356Z</time>
      </trkpt>
      <trkpt lat="52.400004" lon="13.243492">
        <ele>37.897062</ele>
        <time>2022-10-22T14:13:28.575Z</time>
      </trkpt>
      <trkpt lat="52.399348" lon="13.241701">
        <ele>37.288391</ele>
        <time>2022-10-22T14:15:37.489Z</time>
      </trkpt>
      <trkpt lat="52.399301" lon="13.241653">
        <ele>37.281452</ele>
        <time>2022-10-22T14:15:43.085Z</time>
      </trkpt>
      <trkpt lat="52.399200" lon="13.241636">
        <ele>37.268729</ele>
        <time>2022-10-22T14:15:53.220Z</time>
      </trkpt>
      <trkpt lat="52.399157" lon="13.241537">
        <ele>37.259438</ele>
        <time>2022-10-22T14:16:00.772Z</time>
      </trkpt>
      <trkpt lat="52.399119" lon="13.241438">
        <ele>37.250496</ele>
        <time>2022-10-22T14:16:07.986Z</time>
      </trkpt>
      <trkpt lat="52.399164" lon="13.241304">
        <ele>37.238802</ele>
        <time>2022-10-22T14:16:17.307Z</time>
      </trkpt>
      <trkpt lat="52.399143" lon="13.241192">
        <ele>37.229843</ele>
        <time>2022-10-22T14:16:24.563Z</time>
      </trkpt>
      <trkpt lat="52.398761" lon="13.240161">
        <ele>37.137621</ele>
        <time>2022-10-22T14:17:38.505Z</time>
      </trkpt>
      <trkpt lat="52.398697" lon="13.239989">
        <ele>37.122218</ele>
        <time>2022-10-22T14:17:50.917Z</time>
      </trkpt>
      <trkpt lat="52.397926" lon="13.237915">
        <ele>36.433337</ele>
        <time>2022-10-22T14:20:20.958Z</time>
      </trkpt>
      <trkpt lat="52.397784" lon="13.237594">
        <ele>36.304021</ele>
        <time>2022-10-22T14:20:45.814Z</time>
      </trkpt>
      <trkpt lat="52.397854" lon="13.237554">
        <ele>36.264395</ele>
        <time>2022-10-22T14:20:53.400Z</time>
      </trkpt>
      <trkpt lat="52.397663" lon="13.237294">
        <ele>36.131675</ele>
        <time>2022-10-22T14:21:18.661Z</time>
      </trkpt>
      <trkpt lat="52.397539" lon="13.237186">
        <ele>36.234618</ele>
        <time>2022-10-22T14:21:32.915Z</time>
      </trkpt>
      <trkpt lat="52.397558" lon="13.237091">
        <ele>36.281993</ele>
        <time>2022-10-22T14:21:39.101Z</time>
      </trkpt>
      <trkpt lat="52.397588" lon="13.236828">
        <ele>36.408781</ele>
        <time>2022-10-22T14:21:55.494Z</time>
      </trkpt>
      <trkpt lat="52.397556" lon="13.236669">
        <ele>36.488120</ele>
        <time>2022-10-22T14:22:05.784Z</time>
      </trkpt>
      <trkpt lat="52.397125" lon="13.235515">
        <ele>37.129284</ele>
        <time>2022-10-22T14:23:31.855Z</time>
      </trkpt>
      <trkpt lat="52.396814" lon="13.234671">
        <ele>37.651214</ele>
        <time>2022-10-22T14:24:35.279Z</time>
      </trkpt>
      <trkpt lat="52.396751" lon="13.234493">
        <ele>37.824426</ele>
        <time>2022-10-22T14:24:48.323Z</time>
      </trkpt>
      <trkpt lat="52.396720" lon="13.234388">
        <ele>37.922611</ele>
        <time>2022-10-22T14:24:55.903Z</time>
      </trkpt>
      <trkpt lat="52.396437" lon="13.233564">
        <ele>38.718532</ele>
        <time>2022-10-22T14:25:56.408Z</time>
      </trkpt>
      <trkpt lat="52.396399" lon="13.233458">
        <ele>38.822017</ele>
        <time>2022-10-22T14:26:04.301Z</time>
      </trkpt>
      <trkpt lat="52.396369" lon="13.233381">
        <ele>38.898918</ele>
        <time>2022-10-22T14:26:10.322Z</time>
      </trkpt>
      <trkpt lat="52.397115" lon="13.232101">
        <ele>40.313155</ele>
        <time>2022-10-22T14:28:04.025Z</time>
      </trkpt>
      <trkpt lat="52.397356" lon="13.231536">
        <ele>40.778318</ele>
        <time>2022-10-22T14:28:47.196Z</time>
      </trkpt>
      <trkpt lat="52.397462" lon="13.231136">
        <ele>41.072580</ele>
        <time>2022-10-22T14:29:14.468Z</time>
      </trkpt>
      <trkpt lat="52.397528" lon="13.230658">
        <ele>41.403274</ele>
        <time>2022-10-22T14:29:45.615Z</time>
      </trkpt>
      <trkpt lat="52.397538" lon="13.230419">
        <ele>41.564922</ele>
        <time>2022-10-22T14:30:00.728Z</time>
      </trkpt>
      <trkpt lat="52.397527" lon="13.229979">
        <ele>41.862068</ele>
        <time>2022-10-22T14:30:29.027Z</time>
      </trkpt>
      <trkpt lat="52.397522" lon="13.229942">
        <ele>41.887639</ele>
        <time>2022-10-22T14:30:31.418Z</time>
      </trkpt>
      <trkpt lat="52.397455" lon="13.229375">
        <ele>41.999067</ele>
        <time>2022-10-22T14:31:08.663Z</time>
      </trkpt>
      <trkpt lat="52.397309" lon="13.228523">
        <ele>42.005012</ele>
        <time>2022-10-22T14:32:04.320Z</time>
      </trkpt>
      <trkpt lat="52.397286" lon="13.228409">
        <ele>42.005818</ele>
        <time>2022-10-22T14:32:11.802Z</time>
      </trkpt>
      <trkpt lat="52.397817" lon="13.227664">
        <ele>42.013514</ele>
        <time>2022-10-22T14:33:22.476Z</time>
      </trkpt>
      <trkpt lat="52.397855" lon="13.227612">
        <ele>42.014059</ele>
        <time>2022-10-22T14:33:27.516Z</time>
      </trkpt>
      <trkpt lat="52.397824" lon="13.227556">
        <ele>42.014566</ele>
        <time>2022-10-22T14:33:32.254Z</time>
      </trkpt>
      <trkpt lat="52.397700" lon="13.227331">
        <ele>41.941246</ele>
        <time>2022-10-22T14:33:51.356Z</time>
      </trkpt>
      <trkpt lat="52.397264" lon="13.226587">
        <ele>40.968574</ele>
        <time>2022-10-22T14:34:56.864Z</time>
      </trkpt>
      <trkpt lat="52.397250" lon="13.226562">
        <ele>40.936578</ele>
        <time>2022-10-22T14:34:59.053Z</time>
      </trkpt>
      <trkpt lat="52.396817" lon="13.226121">
        <ele>40.148774</ele>
        <time>2022-10-22T14:35:52.363Z</time>
      </trkpt>
      <trkpt lat="52.396844" lon="13.226033">
        <ele>40.055897</ele>
        <time>2022-10-22T14:35:58.587Z</time>
      </trkpt>
      <trkpt lat="52.395819" lon="13.224979">
        <ele>38.798859</ele>
        <time>2022-10-22T14:38:01.904Z</time>
      </trkpt>
      <trkpt lat="52.395813" lon="13.224808">
        <ele>38.731566</ele>
        <time>2022-10-22T14:38:12.458Z</time>
      </trkpt>
      <trkpt lat="52.395593" lon="13.224249">
        <ele>38.470227</ele>
        <time>2022-10-22T14:38:53.168Z</time>
      </trkpt>
      <trkpt lat="52.395441" lon="13.223853">
        <ele>38.286424</ele>
        <time>2022-10-22T14:39:21.766Z</time>
      </trkpt>
      <trkpt lat="52.395389" lon="13.223626">
        <ele>38.191162</ele>
        <time>2022-10-22T14:39:36.584Z</time>
      </trkpt>
      <trkpt lat="52.395344" lon="13.223611">
        <ele>38.161596</ele>
        <time>2022-10-22T14:39:41.304Z</time>
      </trkpt>
      <trkpt lat="52.394891" lon="13.223396">
        <ele>37.427579</ele>
        <time>2022-10-22T14:40:29.984Z</time>
      </trkpt>
      <trkpt lat="52.394673" lon="13.222457">
        <ele>36.262802</ele>
        <time>2022-10-22T14:41:33.550Z</time>
      </trkpt>
      <trkpt lat="52.394618" lon="13.222093">
        <ele>35.828045</ele>
        <time>2022-10-22T14:41:57.517Z</time>
      </trkpt>
      <trkpt lat="52.394560" lon="13.221581">
        <ele>35.224303</ele>
        <time>2022-10-22T14:42:31.246Z</time>
      </trkpt>
      <trkpt lat="52.394575" lon="13.221133">
        <ele>34.704122</ele>
        <time>2022-10-22T14:43:00.303Z</time>
      </trkpt>
      <trkpt lat="52.394690" lon="13.220541">
        <ele>34.258745</ele>
        <time>2022-10-22T14:43:39.770Z</time>
      </trkpt>
      <trkpt lat="52.394727" lon="13.219971">
        <ele>33.863872</ele>
        <time>2022-10-22T14:44:16.067Z</time>
      </trkpt>
      <trkpt lat="52.394666" lon="13.218731">
        <ele>33.006898</ele>
        <time>2022-10-22T14:45:33.829Z</time>
      </trkpt>
      <trkpt lat="52.394647" lon="13.218640">
        <ele>32.940643</ele>
        <time>2022-10-22T14:45:39.694Z</time>
      </trkpt>
      <trkpt lat="52.394647" lon="13.218640">
        <ele>32.940643</ele>
        <time>2022-10-22T14:45:39.786Z</time>
      </trkpt>
      <trkpt lat="52.394647" lon="13.218640">
        <ele>32.940643</ele>
        <time>2022-10-22T14:45:39.786Z</time>
      </trkpt>
      <trkpt lat="52.394640" lon="13.218644">
        <ele>32.932274</ele>
        <time>2022-10-22T14:45:40.528Z</time>
      </trkpt>
      <trkpt lat="52.394324" lon="13.217754">
        <ele>32.919362</ele>
        <time>2022-10-22T14:46:43.410Z</time>
      </trkpt>
      <trkpt lat="52.394008" lon="13.216864">
        <ele>33.421311</ele>
        <time>2022-10-22T14:47:46.294Z</time>
      </trkpt>
      <trkpt lat="52.393913" lon="13.216095">
        <ele>33.803787</ele>
        <time>2022-10-22T14:48:34.211Z</time>
      </trkpt>
      <trkpt lat="52.393819" lon="13.215327">
        <ele>34.220006</ele>
        <time>2022-10-22T14:49:22.048Z</time>
      </trkpt>
      <trkpt lat="52.393784" lon="13.215346">
        <ele>34.258040</ele>
        <time>2022-10-22T14:49:25.722Z</time>
      </trkpt>
      <trkpt lat="52.393714" lon="13.215006">
        <ele>34.483916</ele>
        <time>2022-10-22T14:49:48.415Z</time>
      </trkpt>
      <trkpt lat="52.393516" lon="13.214189">
        <ele>35.037277</ele>
        <time>2022-10-22T14:50:43.793Z</time>
      </trkpt>
      <trkpt lat="52.393450" lon="13.213945">
        <ele>35.205284</ele>
        <time>2022-10-22T14:51:00.705Z</time>
      </trkpt>
      <trkpt lat="52.393370" lon="13.213675">
        <ele>35.394220</ele>
        <time>2022-10-22T14:51:19.696Z</time>
      </trkpt>
      <trkpt lat="52.393442" lon="13.213176">
        <ele>35.716994</ele>
        <time>2022-10-22T14:51:52.312Z</time>
      </trkpt>
      <trkpt lat="52.393447" lon="13.212966">
        <ele>35.849287</ele>
        <time>2022-10-22T14:52:05.633Z</time>
      </trkpt>
      <trkpt lat="52.393443" lon="13.212777">
        <ele>35.965223</ele>
        <time>2022-10-22T14:52:17.706Z</time>
      </trkpt>
      <trkpt lat="52.393415" lon="13.211877">
        <ele>36.493604</ele>
        <time>2022-10-22T14:53:14.938Z</time>
      </trkpt>
      <trkpt lat="52.393412" lon="13.211779">
        <ele>36.551137</ele>
        <time>2022-10-22T14:53:21.123Z</time>
      </trkpt>
      <trkpt lat="52.393403" lon="13.211441">
        <ele>36.749505</ele>
        <time>2022-10-22T14:53:42.507Z</time>
      </trkpt>
      <trkpt lat="52.393399" lon="13.211298">
        <ele>36.833438</ele>
        <time>2022-10-22T14:53:51.521Z</time>
      </trkpt>
      <trkpt lat="52.393393" lon="13.211099">
        <ele>36.950260</ele>
        <time>2022-10-22T14:54:03.994Z</time>
      </trkpt>
      <trkpt lat="52.393386" lon="13.210816">
        <ele>37.116328</ele>
        <time>2022-10-22T14:54:21.784Z</time>
      </trkpt>
      <trkpt lat="52.393375" lon="13.210343">
        <ele>37.393863</ele>
        <time>2022-10-22T14:54:51.578Z</time>
      </trkpt>
      <trkpt lat="52.393353" lon="13.210335">
        <ele>37.415515</ele>
        <time>2022-10-22T14:54:53.889Z</time>
      </trkpt>
      <trkpt lat="52.393334" lon="13.210171">
        <ele>37.513391</ele>
        <time>2022-10-22T14:55:04.351Z</time>
      </trkpt>
      <trkpt lat="52.393295" lon="13.210075">
        <ele>37.581011</ele>
        <time>2022-10-22T14:55:11.596Z</time>
      </trkpt>
      <trkpt lat="52.393281" lon="13.209941">
        <ele>37.660220</ele>
        <time>2022-10-22T14:55:20.215Z</time>
      </trkpt>
      <trkpt lat="52.393301" lon="13.209822">
        <ele>37.728787</ele>
        <time>2022-10-22T14:55:28.024Z</time>
      </trkpt>
      <trkpt lat="52.393343" lon="13.209733">
        <ele>37.791286</ele>
        <time>2022-10-22T14:55:35.075Z</time>
      </trkpt>
      <trkpt lat="52.393397" lon="13.209678">
        <ele>37.849164</ele>
        <time>2022-10-22T14:55:41.624Z</time>
      </trkpt>
      <trkpt lat="52.393350" lon="13.209447">
        <ele>37.984430</ele>
        <time>2022-10-22T14:55:56.995Z</time>
      </trkpt>
      <trkpt lat="52.393321" lon="13.207649">
        <ele>38.983580</ele>
        <time>2022-10-22T14:57:49.997Z</time>
      </trkpt>
      <trkpt lat="52.393308" lon="13.206482">
        <ele>39.713118</ele>
        <time>2022-10-22T14:59:04.145Z</time>
      </trkpt>
      <trkpt lat="52.393293" lon="13.205952">
        <ele>40.077491</ele>
        <time>2022-10-22T14:59:37.676Z</time>
      </trkpt>
      <trkpt lat="52.393264" lon="13.204411">
        <ele>41.136291</ele>
        <time>2022-10-22T15:01:15.028Z</time>
      </trkpt>
      <trkpt lat="52.393255" lon="13.203704">
        <ele>41.828513</ele>
        <time>2022-10-22T15:02:00.749Z</time>
      </trkpt>
      <trkpt lat="52.393244" lon="13.203505">
        <ele>42.057402</ele>
        <time>2022-10-22T15:02:13.835Z</time>
      </trkpt>
      <trkpt lat="52.393193" lon="13.202559">
        <ele>43.145274</ele>
        <time>2022-10-22T15:03:16.569Z</time>
      </trkpt>
      <trkpt lat="52.393118" lon="13.201698">
        <ele>44.141555</ele>
        <time>2022-10-22T15:04:13.321Z</time>
      </trkpt>
      <trkpt lat="52.393051" lon="13.200929">
        <ele>44.840286</ele>
        <time>2022-10-22T15:05:03.824Z</time>
      </trkpt>
      <trkpt lat="52.393030" lon="13.200311">
        <ele>45.153575</ele>
        <time>2022-10-22T15:05:43.782Z</time>
      </trkpt>
      <trkpt lat="52.393002" lon="13.198905">
        <ele>45.865609</ele>
        <time>2022-10-22T15:07:12.587Z</time>
      </trkpt>
      <trkpt lat="52.393021" lon="13.198687">
        <ele>45.977070</ele>
        <time>2022-10-22T15:07:26.091Z</time>
      </trkpt>
      <trkpt lat="52.392633" lon="13.196879">
        <ele>45.733242</ele>
        <time>2022-10-22T15:09:24.843Z</time>
      </trkpt>
      <trkpt lat="52.392619" lon="13.196824">
        <ele>45.715622</ele>
        <time>2022-10-22T15:09:28.515Z</time>
      </trkpt>
      <trkpt lat="52.392527" lon="13.196446">
        <ele>45.595299</ele>
        <time>2022-10-22T15:09:53.775Z</time>
      </trkpt>
      <trkpt lat="52.392290" lon="13.195475">
        <ele>45.329921</ele>
        <time>2022-10-22T15:10:58.320Z</time>
      </trkpt>
      <trkpt lat="52.392197" lon="13.195093">
        <ele>45.436909</ele>
        <time>2022-10-22T15:11:23.544Z</time>
      </trkpt>
      <trkpt lat="52.391832" lon="13.193528">
        <ele>45.872745</ele>
        <time>2022-10-22T15:13:07.592Z</time>
      </trkpt>
      <trkpt lat="52.391724" lon="13.192742">
        <ele>46.093343</ele>
        <time>2022-10-22T15:13:58.502Z</time>
      </trkpt>
      <trkpt lat="52.391724" lon="13.191023">
        <ele>47.334140</ele>
        <time>2022-10-22T15:15:47.576Z</time>
      </trkpt>
      <trkpt lat="52.391715" lon="13.190606">
        <ele>47.635324</ele>
        <time>2022-10-22T15:16:14.194Z</time>
      </trkpt>
      <trkpt lat="52.391711" lon="13.190440">
        <ele>47.755238</ele>
        <time>2022-10-22T15:16:24.791Z</time>
      </trkpt>
      <trkpt lat="52.391711" lon="13.190311">
        <ele>47.848352</ele>
        <time>2022-10-22T15:16:33.072Z</time>
      </trkpt>
      <trkpt lat="52.391712" lon="13.189445">
        <ele>48.438962</ele>
        <time>2022-10-22T15:17:28.643Z</time>
      </trkpt>
      <trkpt lat="52.391712" lon="13.189387">
        <ele>48.475478</ele>
        <time>2022-10-22T15:17:32.391Z</time>
      </trkpt>
      <trkpt lat="52.391722" lon="13.188670">
        <ele>48.927013</ele>
        <time>2022-10-22T15:18:18.328Z</time>
      </trkpt>
      <trkpt lat="52.391695" lon="13.187007">
        <ele>49.974395</ele>
        <time>2022-10-22T15:20:03.076Z</time>
      </trkpt>
      <trkpt lat="52.391653" lon="13.186930">
        <ele>50.039415</ele>
        <time>2022-10-22T15:20:09.528Z</time>
      </trkpt>
      <trkpt lat="52.391583" lon="13.186896">
        <ele>50.056185</ele>
        <time>2022-10-22T15:20:17.049Z</time>
      </trkpt>
      <trkpt lat="52.391135" lon="13.187237">
        <ele>50.028718</ele>
        <time>2022-10-22T15:21:07.422Z</time>
      </trkpt>
      <trkpt lat="52.390764" lon="13.187565">
        <ele>50.005278</ele>
        <time>2022-10-22T15:21:49.939Z</time>
      </trkpt>
      <trkpt lat="52.390511" lon="13.187789">
        <ele>49.989288</ele>
        <time>2022-10-22T15:22:18.862Z</time>
      </trkpt>
      <trkpt lat="52.389694" lon="13.188512">
        <ele>49.603346</ele>
        <time>2022-10-22T15:23:53.317Z</time>
      </trkpt>
      <trkpt lat="52.389159" lon="13.188979">
        <ele>49.045776</ele>
        <time>2022-10-22T15:24:55.228Z</time>
      </trkpt>
      <trkpt lat="52.388793" lon="13.189296">
        <ele>48.664987</ele>
        <time>2022-10-22T15:25:37.496Z</time>
      </trkpt>
      <trkpt lat="52.388574" lon="13.189482">
        <ele>48.438096</ele>
        <time>2022-10-22T15:26:02.657Z</time>
      </trkpt>
      <trkpt lat="52.387541" lon="13.190408">
        <ele>47.156306</ele>
        <time>2022-10-22T15:28:03.256Z</time>
      </trkpt>
      <trkpt lat="52.386550" lon="13.191297">
        <ele>45.844611</ele>
        <time>2022-10-22T15:29:58.947Z</time>
      </trkpt>
      <trkpt lat="52.386087" lon="13.191711">
        <ele>45.178111</ele>
        <time>2022-10-22T15:30:53.149Z</time>
      </trkpt>
      <trkpt lat="52.384741" lon="13.192963">
        <ele>43.359321</ele>
        <time>2022-10-22T15:33:32.195Z</time>
      </trkpt>
      <trkpt lat="52.384718" lon="13.192880">
        <ele>43.300922</ele>
        <time>2022-10-22T15:33:37.904Z</time>
      </trkpt>
      <trkpt lat="52.384659" lon="13.192858">
        <ele>43.237409</ele>
        <time>2022-10-22T15:33:44.109Z</time>
      </trkpt>
      <trkpt lat="52.384625" lon="13.192789">
        <ele>43.180596</ele>
        <time>2022-10-22T15:33:49.666Z</time>
      </trkpt>
      <trkpt lat="52.384583" lon="13.192817">
        <ele>43.133001</ele>
        <time>2022-10-22T15:33:54.272Z</time>
      </trkpt>
      <trkpt lat="52.384520" lon="13.192859">
        <ele>43.061608</ele>
        <time>2022-10-22T15:34:01.310Z</time>
      </trkpt>
      <trkpt lat="52.384463" lon="13.192896">
        <ele>42.997254</ele>
        <time>2022-10-22T15:34:07.520Z</time>
      </trkpt>
      <trkpt lat="52.384474" lon="13.193045">
        <ele>42.901099</ele>
        <time>2022-10-22T15:34:16.867Z</time>
      </trkpt>
      <trkpt lat="52.384493" lon="13.193138">
        <ele>42.838268</ele>
        <time>2022-10-22T15:34:22.972Z</time>
      </trkpt>
      <trkpt lat="52.384227" lon="13.193365">
        <ele>42.523457</ele>
        <time>2022-10-22T15:34:53.664Z</time>
      </trkpt>
      <trkpt lat="52.383941" lon="13.193605">
        <ele>42.186171</ele>
        <time>2022-10-22T15:35:26.367Z</time>
      </trkpt>
      <trkpt lat="52.383170" lon="13.194326">
        <ele>41.709826</ele>
        <time>2022-10-22T15:36:56.267Z</time>
      </trkpt>
      <trkpt lat="52.382517" lon="13.195127">
        <ele>41.292219</ele>
        <time>2022-10-22T15:38:18.556Z</time>
      </trkpt>
      <trkpt lat="52.382252" lon="13.195513">
        <ele>41.171474</ele>
        <time>2022-10-22T15:38:54.302Z</time>
      </trkpt>
      <trkpt lat="52.382211" lon="13.195569">
        <ele>41.158978</ele>
        <time>2022-10-22T15:38:59.721Z</time>
      </trkpt>
      <trkpt lat="52.382013" lon="13.195507">
        <ele>41.111787</ele>
        <time>2022-10-22T15:39:20.032Z</time>
      </trkpt>
      <trkpt lat="52.381197" lon="13.195346">
        <ele>40.919382</ele>
        <time>2022-10-22T15:40:42.861Z</time>
      </trkpt>
      <trkpt lat="52.380410" lon="13.195187">
        <ele>40.847799</ele>
        <time>2022-10-22T15:42:02.289Z</time>
      </trkpt>
      <trkpt lat="52.379757" lon="13.195031">
        <ele>40.952880</ele>
        <time>2022-10-22T15:43:09.343Z</time>
      </trkpt>
      <trkpt lat="52.379469" lon="13.194971">
        <ele>40.999110</ele>
        <time>2022-10-22T15:43:38.611Z</time>
      </trkpt>
      <trkpt lat="52.379207" lon="13.194909">
        <ele>41.041263</ele>
        <time>2022-10-22T15:44:05.422Z</time>
      </trkpt>
      <trkpt lat="52.378642" lon="13.194777">
        <ele>40.899003</ele>
        <time>2022-10-22T15:45:02.576Z</time>
      </trkpt>
      <trkpt lat="52.378519" lon="13.194755">
        <ele>40.814557</ele>
        <time>2022-10-22T15:45:15.090Z</time>
      </trkpt>
      <trkpt lat="52.378467" lon="13.194533">
        <ele>40.715490</ele>
        <time>2022-10-22T15:45:29.866Z</time>
      </trkpt>
      <trkpt lat="52.378551" lon="13.193969">
        <ele>40.473619</ele>
        <time>2022-10-22T15:46:05.831Z</time>
      </trkpt>
      <trkpt lat="52.378356" lon="13.193346">
        <ele>40.181928</ele>
        <time>2022-10-22T15:46:49.386Z</time>
      </trkpt>
      <trkpt lat="52.378030" lon="13.193657">
        <ele>39.924453</ele>
        <time>2022-10-22T15:47:28.003Z</time>
      </trkpt>
      <trkpt lat="52.377664" lon="13.193740">
        <ele>39.646974</ele>
        <time>2022-10-22T15:48:05.954Z</time>
      </trkpt>
      <trkpt lat="52.377519" lon="13.193783">
        <ele>39.532882</ele>
        <time>2022-10-22T15:48:21.051Z</time>
      </trkpt>
      <trkpt lat="52.376890" lon="13.193957">
        <ele>39.038975</ele>
        <time>2022-10-22T15:49:26.296Z</time>
      </trkpt>
      <trkpt lat="52.375776" lon="13.194004">
        <ele>38.427154</ele>
        <time>2022-10-22T15:51:18.751Z</time>
      </trkpt>
      <trkpt lat="52.374841" lon="13.193959">
        <ele>38.326133</ele>
        <time>2022-10-22T15:52:52.413Z</time>
      </trkpt>
      <trkpt lat="52.374215" lon="13.193838">
        <ele>38.282103</ele>
        <time>2022-10-22T15:53:55.597Z</time>
      </trkpt>
      <trkpt lat="52.373675" lon="13.193589">
        <ele>38.315310</ele>
        <time>2022-10-22T15:54:51.878Z</time>
      </trkpt>
      <trkpt lat="52.372886" lon="13.193515">
        <ele>38.362089</ele>
        <time>2022-10-22T15:56:11.032Z</time>
      </trkpt>
      <trkpt lat="52.371773" lon="13.193290">
        <ele>38.762857</ele>
        <time>2022-10-22T15:58:04.984Z</time>
      </trkpt>
      <trkpt lat="52.371655" lon="13.193267">
        <ele>38.818474</ele>
        <time>2022-10-22T15:58:17.261Z</time>
      </trkpt>
      <trkpt lat="52.371151" lon="13.192411">
        <ele>39.158285</ele>
        <time>2022-10-22T15:59:30.965Z</time>
      </trkpt>
      <trkpt lat="52.371069" lon="13.192344">
        <ele>39.201173</ele>
        <time>2022-10-22T15:59:40.203Z</time>
      </trkpt>
      <trkpt lat="52.370849" lon="13.192364">
        <ele>39.349042</ele>
        <time>2022-10-22T16:00:02.716Z</time>
      </trkpt>
      <trkpt lat="52.370393" lon="13.192437">
        <ele>39.679879</ele>
        <time>2022-10-22T16:00:49.701Z</time>
      </trkpt>
      <trkpt lat="52.370276" lon="13.192489">
        <ele>39.767418</ele>
        <time>2022-10-22T16:01:02.158Z</time>
      </trkpt>
      <trkpt lat="52.370061" lon="13.192604">
        <ele>39.930734</ele>
        <time>2022-10-22T16:01:25.450Z</time>
      </trkpt>
      <trkpt lat="52.369952" lon="13.192734">
        <ele>40.028097</ele>
        <time>2022-10-22T16:01:39.197Z</time>
      </trkpt>
      <trkpt lat="52.369923" lon="13.192899">
        <ele>40.103796</ele>
        <time>2022-10-22T16:01:50.008Z</time>
      </trkpt>
      <trkpt lat="52.369883" lon="13.192889">
        <ele>40.133013</ele>
        <time>2022-10-22T16:01:54.146Z</time>
      </trkpt>
      <trkpt lat="52.369178" lon="13.196501">
        <ele>42.107402</ele>
        <time>2022-10-22T16:05:53.297Z</time>
      </trkpt>
      <trkpt lat="52.369026" lon="13.197008">
        <ele>42.289695</ele>
        <time>2022-10-22T16:06:28.645Z</time>
      </trkpt>
      <trkpt lat="52.368913" lon="13.197302">
        <ele>42.397033</ele>
        <time>2022-10-22T16:06:50.358Z</time>
      </trkpt>
      <trkpt lat="52.368872" lon="13.197406">
        <ele>42.435283</ele>
        <time>2022-10-22T16:06:58.073Z</time>
      </trkpt>
      <trkpt lat="52.368913" lon="13.197302">
        <ele>42.473532</ele>
        <time>2022-10-22T16:07:05.786Z</time>
      </trkpt>
      <trkpt lat="52.368446" lon="13.196778">
        <ele>42.759994</ele>
        <time>2022-10-22T16:08:03.412Z</time>
      </trkpt>
      <trkpt lat="52.368418" lon="13.196840">
        <ele>42.783821</ele>
        <time>2022-10-22T16:08:08.204Z</time>
      </trkpt>
      <trkpt lat="52.368189" lon="13.196584">
        <ele>42.924126</ele>
        <time>2022-10-22T16:08:36.412Z</time>
      </trkpt>
      <trkpt lat="52.367523" lon="13.195818">
        <ele>43.393832</ele>
        <time>2022-10-22T16:09:58.368Z</time>
      </trkpt>
      <trkpt lat="52.367486" lon="13.195779">
        <ele>43.420389</ele>
        <time>2022-10-22T16:10:02.807Z</time>
      </trkpt>
      <trkpt lat="52.367423" lon="13.195711">
        <ele>43.465927</ele>
        <time>2022-10-22T16:10:10.457Z</time>
      </trkpt>
      <trkpt lat="52.367363" lon="13.195705">
        <ele>43.502207</ele>
        <time>2022-10-22T16:10:16.575Z</time>
      </trkpt>
      <trkpt lat="52.367292" lon="13.195627">
        <ele>43.553806</ele>
        <time>2022-10-22T16:10:25.258Z</time>
      </trkpt>
      <trkpt lat="52.367020" lon="13.195311">
        <ele>43.755079</ele>
        <time>2022-10-22T16:10:59.493Z</time>
      </trkpt>
      <trkpt lat="52.366676" lon="13.194952">
        <ele>44.001267</ele>
        <time>2022-10-22T16:11:41.705Z</time>
      </trkpt>
      <trkpt lat="52.366557" lon="13.194918">
        <ele>44.074174</ele>
        <time>2022-10-22T16:11:54.359Z</time>
      </trkpt>
      <trkpt lat="52.366309" lon="13.194885">
        <ele>44.232712</ele>
        <time>2022-10-22T16:12:20.004Z</time>
      </trkpt>
      <trkpt lat="52.366089" lon="13.194869">
        <ele>44.376394</ele>
        <time>2022-10-22T16:12:43.012Z</time>
      </trkpt>
      <trkpt lat="52.366051" lon="13.195547">
        <ele>44.647645</ele>
        <time>2022-10-22T16:13:25.934Z</time>
      </trkpt>
      <trkpt lat="52.366020" lon="13.195647">
        <ele>44.692325</ele>
        <time>2022-10-22T16:13:32.878Z</time>
      </trkpt>
      <trkpt lat="52.365984" lon="13.195750">
        <ele>44.739607</ele>
        <time>2022-10-22T16:13:40.389Z</time>
      </trkpt>
      <trkpt lat="52.365767" lon="13.195751">
        <ele>44.881191</ele>
        <time>2022-10-22T16:14:02.517Z</time>
      </trkpt>
      <trkpt lat="52.365702" lon="13.195686">
        <ele>44.930882</ele>
        <time>2022-10-22T16:14:10.140Z</time>
      </trkpt>
      <trkpt lat="52.365618" lon="13.195517">
        <ele>45.017698</ele>
        <time>2022-10-22T16:14:23.946Z</time>
      </trkpt>
      <trkpt lat="52.365564" lon="13.195340">
        <ele>45.096528</ele>
        <time>2022-10-22T16:14:36.238Z</time>
      </trkpt>
      <trkpt lat="52.365557" lon="13.195192">
        <ele>45.155668</ele>
        <time>2022-10-22T16:14:45.308Z</time>
      </trkpt>
      <trkpt lat="52.365483" lon="13.195177">
        <ele>45.204318</ele>
        <time>2022-10-22T16:14:52.942Z</time>
      </trkpt>
      <trkpt lat="52.365313" lon="13.195063">
        <ele>45.249601</ele>
        <time>2022-10-22T16:15:11.673Z</time>
      </trkpt>
      <trkpt lat="52.365180" lon="13.194874">
        <ele>45.074281</ele>
        <time>2022-10-22T16:15:29.364Z</time>
      </trkpt>
      <trkpt lat="52.365133" lon="13.194714">
        <ele>44.966339</ele>
        <time>2022-10-22T16:15:40.147Z</time>
      </trkpt>
      <trkpt lat="52.365045" lon="13.193984">
        <ele>44.513969</ele>
        <time>2022-10-22T16:16:26.325Z</time>
      </trkpt>
      <trkpt lat="52.364888" lon="13.193505">
        <ele>44.183459</ele>
        <time>2022-10-22T16:17:00.442Z</time>
      </trkpt>
      <trkpt lat="52.364647" lon="13.192888">
        <ele>43.738173</ele>
        <time>2022-10-22T16:17:46.836Z</time>
      </trkpt>
      <trkpt lat="52.364416" lon="13.192339">
        <ele>43.399589</ele>
        <time>2022-10-22T16:18:29.182Z</time>
      </trkpt>
      <trkpt lat="52.364211" lon="13.191941">
        <ele>43.206566</ele>
        <time>2022-10-22T16:19:02.084Z</time>
      </trkpt>
      <trkpt lat="52.363974" lon="13.191605">
        <ele>43.016258</ele>
        <time>2022-10-22T16:19:34.461Z</time>
      </trkpt>
      <trkpt lat="52.363782" lon="13.191411">
        <ele>42.879294</ele>
        <time>2022-10-22T16:19:57.560Z</time>
      </trkpt>
      <trkpt lat="52.363548" lon="13.191220">
        <ele>42.720566</ele>
        <time>2022-10-22T16:20:23.991Z</time>
      </trkpt>
      <trkpt lat="52.362901" lon="13.190691">
        <ele>42.867975</ele>
        <time>2022-10-22T16:21:38.244Z</time>
      </trkpt>
      <trkpt lat="52.362929" lon="13.190587">
        <ele>43.015323</ele>
        <time>2022-10-22T16:21:45.566Z</time>
      </trkpt>
      <trkpt lat="52.362363" lon="13.190277">
        <ele>44.282343</ele>
        <time>2022-10-22T16:22:50.455Z</time>
      </trkpt>
      <trkpt lat="52.362259" lon="13.190187">
        <ele>44.532065</ele>
        <time>2022-10-22T16:23:03.250Z</time>
      </trkpt>
      <trkpt lat="52.362132" lon="13.190090">
        <ele>44.829565</ele>
        <time>2022-10-22T16:23:18.837Z</time>
      </trkpt>
      <trkpt lat="52.361869" lon="13.189870">
        <ele>45.456533</ele>
        <time>2022-10-22T16:23:51.329Z</time>
      </trkpt>
      <trkpt lat="52.361823" lon="13.189832">
        <ele>45.565911</ele>
        <time>2022-10-22T16:23:57.038Z</time>
      </trkpt>
      <trkpt lat="52.361736" lon="13.189876">
        <ele>45.759217</ele>
        <time>2022-10-22T16:24:07.107Z</time>
      </trkpt>
      <trkpt lat="52.361544" lon="13.189762">
        <ele>46.192792</ele>
        <time>2022-10-22T16:24:29.488Z</time>
      </trkpt>
      <trkpt lat="52.361431" lon="13.189740">
        <ele>46.309955</ele>
        <time>2022-10-22T16:24:41.960Z</time>
      </trkpt>
      <trkpt lat="52.360594" lon="13.189751">
        <ele>47.003054</ele>
        <time>2022-10-22T16:26:10.319Z</time>
      </trkpt>
      <trkpt lat="52.360109" lon="13.189644">
        <ele>47.408286</ele>
        <time>2022-10-22T16:26:59.684Z</time>
      </trkpt>
      <trkpt lat="52.360128" lon="13.189494">
        <ele>47.485753</ele>
        <time>2022-10-22T16:27:09.117Z</time>
      </trkpt>
      <trkpt lat="52.360149" lon="13.189326">
        <ele>47.572470</ele>
        <time>2022-10-22T16:27:19.776Z</time>
      </trkpt>
      <trkpt lat="52.360067" lon="13.189135">
        <ele>47.690534</ele>
        <time>2022-10-22T16:27:34.336Z</time>
      </trkpt>
      <trkpt lat="52.359799" lon="13.188896">
        <ele>47.476463</ele>
        <time>2022-10-22T16:28:05.543Z</time>
      </trkpt>
      <trkpt lat="52.359588" lon="13.188419">
        <ele>47.152204</ele>
        <time>2022-10-22T16:28:42.309Z</time>
      </trkpt>
      <trkpt lat="52.359725" lon="13.188300">
        <ele>47.012399</ele>
        <time>2022-10-22T16:28:58.157Z</time>
      </trkpt>
      <trkpt lat="52.359683" lon="13.187087">
        <ele>46.343520</ele>
        <time>2022-10-22T16:30:14.207Z</time>
      </trkpt>
      <trkpt lat="52.359679" lon="13.186958">
        <ele>46.272409</ele>
        <time>2022-10-22T16:30:22.305Z</time>
      </trkpt>
      <trkpt lat="52.360222" lon="13.186776">
        <ele>45.935722</ele>
        <time>2022-10-22T16:31:18.478Z</time>
      </trkpt>
      <trkpt lat="52.360290" lon="13.186694">
        <ele>45.897703</ele>
        <time>2022-10-22T16:31:27.003Z</time>
      </trkpt>
      <trkpt lat="52.360333" lon="13.186565">
        <ele>45.857297</ele>
        <time>2022-10-22T16:31:36.090Z</time>
      </trkpt>
      <trkpt lat="52.361135" lon="13.186023">
        <ele>45.466697</ele>
        <time>2022-10-22T16:33:03.664Z</time>
      </trkpt>
      <trkpt lat="52.361534" lon="13.185791">
        <ele>45.278510</ele>
        <time>2022-10-22T16:33:46.183Z</time>
      </trkpt>
      <trkpt lat="52.361732" lon="13.185675">
        <ele>45.202291</ele>
        <time>2022-10-22T16:34:07.343Z</time>
      </trkpt>
      <trkpt lat="52.361981" lon="13.185555">
        <ele>45.108215</ele>
        <time>2022-10-22T16:34:33.467Z</time>
      </trkpt>
      <trkpt lat="52.362204" lon="13.185541">
        <ele>45.027330</ele>
        <time>2022-10-22T16:34:55.860Z</time>
      </trkpt>
      <trkpt lat="52.363754" lon="13.185453">
        <ele>44.049698</ele>
        <time>2022-10-22T16:37:32.396Z</time>
      </trkpt>
      <trkpt lat="52.364214" lon="13.185443">
        <ele>43.478844</ele>
        <time>2022-10-22T16:38:19.634Z</time>
      </trkpt>
      <trkpt lat="52.364439" lon="13.185280">
        <ele>43.173548</ele>
        <time>2022-10-22T16:38:45.197Z</time>
      </trkpt>
      <trkpt lat="52.364911" lon="13.185409">
        <ele>42.579754</ele>
        <time>2022-10-22T16:39:34.800Z</time>
      </trkpt>
      <trkpt lat="52.365336" lon="13.185443">
        <ele>42.010040</ele>
        <time>2022-10-22T16:40:18.814Z</time>
      </trkpt>
      <trkpt lat="52.365771" lon="13.185555">
        <ele>41.399060</ele>
        <time>2022-10-22T16:41:04.349Z</time>
      </trkpt>
      <trkpt lat="52.365886" lon="13.185525">
        <ele>41.237485</ele>
        <time>2022-10-22T16:41:16.411Z</time>
      </trkpt>
      <trkpt lat="52.366001" lon="13.185495">
        <ele>41.075909</ele>
        <time>2022-10-22T16:41:28.450Z</time>
      </trkpt>
      <trkpt lat="52.366394" lon="13.185149">
        <ele>40.456818</ele>
        <time>2022-10-22T16:42:14.174Z</time>
      </trkpt>
      <trkpt lat="52.367573" lon="13.184310">
        <ele>39.133459</ele>
        <time>2022-10-22T16:44:25.593Z</time>
      </trkpt>
      <trkpt lat="52.367823" lon="13.184087">
        <ele>38.885567</ele>
        <time>2022-10-22T16:44:54.460Z</time>
      </trkpt>
      <trkpt lat="52.368047" lon="13.184049">
        <ele>38.689468</ele>
        <time>2022-10-22T16:45:17.419Z</time>
      </trkpt>
      <trkpt lat="52.368307" lon="13.184156">
        <ele>38.456025</ele>
        <time>2022-10-22T16:45:44.710Z</time>
      </trkpt>
      <trkpt lat="52.369060" lon="13.184074">
        <ele>38.218934</ele>
        <time>2022-10-22T16:47:01.181Z</time>
      </trkpt>
      <trkpt lat="52.369510" lon="13.184034">
        <ele>38.129523</ele>
        <time>2022-10-22T16:47:46.667Z</time>
      </trkpt>
      <trkpt lat="52.369523" lon="13.184034">
        <ele>38.126944</ele>
        <time>2022-10-22T16:47:47.921Z</time>
      </trkpt>
      <trkpt lat="52.369851" lon="13.182942">
        <ele>38.004038</ele>
        <time>2022-10-22T16:49:02.901Z</time>
      </trkpt>
      <trkpt lat="52.370098" lon="13.182015">
        <ele>38.343109</ele>
        <time>2022-10-22T16:50:06.194Z</time>
      </trkpt>
      <trkpt lat="52.370292" lon="13.181151">
        <ele>38.651720</ele>
        <time>2022-10-22T16:51:03.854Z</time>
      </trkpt>
      <trkpt lat="52.370441" lon="13.180132">
        <ele>39.019193</ele>
        <time>2022-10-22T16:52:08.800Z</time>
      </trkpt>
      <trkpt lat="52.370585" lon="13.179149">
        <ele>39.545059</ele>
        <time>2022-10-22T16:53:11.646Z</time>
      </trkpt>
      <trkpt lat="52.370669" lon="13.178365">
        <ele>39.959124</ele>
        <time>2022-10-22T16:54:01.297Z</time>
      </trkpt>
      <trkpt lat="52.370705" lon="13.177695">
        <ele>40.309002</ele>
        <time>2022-10-22T16:54:43.396Z</time>
      </trkpt>
      <trkpt lat="52.370595" lon="13.177670">
        <ele>40.403621</ele>
        <time>2022-10-22T16:54:54.915Z</time>
      </trkpt>
      <trkpt lat="52.369877" lon="13.175509">
        <ele>43.043016</ele>
        <time>2022-10-22T16:57:36.828Z</time>
      </trkpt>
      <trkpt lat="52.369778" lon="13.175201">
        <ele>43.433176</ele>
        <time>2022-10-22T16:57:59.715Z</time>
      </trkpt>
      <trkpt lat="52.369557" lon="13.174508">
        <ele>43.873852</ele>
        <time>2022-10-22T16:58:49.914Z</time>
      </trkpt>
      <trkpt lat="52.369116" lon="13.173083">
        <ele>44.108539</ele>
        <time>2022-10-22T17:00:28.956Z</time>
      </trkpt>
      <trkpt lat="52.369089" lon="13.171849">
        <ele>44.118179</ele>
        <time>2022-10-22T17:01:45.809Z</time>
      </trkpt>
      <trkpt lat="52.369085" lon="13.171572">
        <ele>44.016340</ele>
        <time>2022-10-22T17:02:03.220Z</time>
      </trkpt>
      <trkpt lat="52.369059" lon="13.170099">
        <ele>43.474719</ele>
        <time>2022-10-22T17:03:34.780Z</time>
      </trkpt>
      <trkpt lat="52.369058" lon="13.169986">
        <ele>43.433181</ele>
        <time>2022-10-22T17:03:41.740Z</time>
      </trkpt>
      <trkpt lat="52.369016" lon="13.167661">
        <ele>42.949463</ele>
        <time>2022-10-22T17:06:04.327Z</time>
      </trkpt>
      <trkpt lat="52.369000" lon="13.166654">
        <ele>42.816218</ele>
        <time>2022-10-22T17:07:06.318Z</time>
      </trkpt>
      <trkpt lat="52.368976" lon="13.165146">
        <ele>42.904763</ele>
        <time>2022-10-22T17:08:38.770Z</time>
      </trkpt>
      <trkpt lat="52.368973" lon="13.164910">
        <ele>42.932786</ele>
        <time>2022-10-22T17:08:53.357Z</time>
      </trkpt>
      <trkpt lat="52.368969" lon="13.163614">
        <ele>43.086645</ele>
        <time>2022-10-22T17:10:13.737Z</time>
      </trkpt>
      <trkpt lat="52.368969" lon="13.163217">
        <ele>43.187067</ele>
        <time>2022-10-22T17:10:38.715Z</time>
      </trkpt>
      <trkpt lat="52.368875" lon="13.159285">
        <ele>45.045075</ele>
        <time>2022-10-22T17:14:47.072Z</time>
      </trkpt>
      <trkpt lat="52.368852" lon="13.156272">
        <ele>45.857645</ele>
        <time>2022-10-22T17:17:53.251Z</time>
      </trkpt>
      <trkpt lat="52.368768" lon="13.153387">
        <ele>46.288335</ele>
        <time>2022-10-22T17:20:51.455Z</time>
      </trkpt>
      <trkpt lat="52.368739" lon="13.152309">
        <ele>46.423978</ele>
        <time>2022-10-22T17:21:58.097Z</time>
      </trkpt>
      <trkpt lat="52.368597" lon="13.151934">
        <ele>46.479447</ele>
        <time>2022-10-22T17:22:25.341Z</time>
      </trkpt>
      <trkpt lat="52.367003" lon="13.149354">
        <ele>45.951214</ele>
        <time>2022-10-22T17:26:10.542Z</time>
      </trkpt>
      <trkpt lat="52.366553" lon="13.148580">
        <ele>45.466603</ele>
        <time>2022-10-22T17:27:17.247Z</time>
      </trkpt>
      <trkpt lat="52.365539" lon="13.146966">
        <ele>44.348833</ele>
        <time>2022-10-22T17:29:41.081Z</time>
      </trkpt>
      <trkpt lat="52.365299" lon="13.146976">
        <ele>44.139885</ele>
        <time>2022-10-22T17:30:05.502Z</time>
      </trkpt>
      <trkpt lat="52.364599" lon="13.146989">
        <ele>43.530611</ele>
        <time>2022-10-22T17:31:16.916Z</time>
      </trkpt>
      <trkpt lat="52.362760" lon="13.147035">
        <ele>41.761567</ele>
        <time>2022-10-22T17:34:24.921Z</time>
      </trkpt>
      <trkpt lat="52.361567" lon="13.147038">
        <ele>41.037643</ele>
        <time>2022-10-22T17:36:26.486Z</time>
      </trkpt>
      <trkpt lat="52.357921" lon="13.147171">
        <ele>40.454528</ele>
        <time>2022-10-22T17:42:32.076Z</time>
      </trkpt>
      <trkpt lat="52.356653" lon="13.147263">
        <ele>40.605661</ele>
        <time>2022-10-22T17:44:40.118Z</time>
      </trkpt>
      <trkpt lat="52.356193" lon="13.147236">
        <ele>40.721570</ele>
        <time>2022-10-22T17:45:26.403Z</time>
      </trkpt>
      <trkpt lat="52.355565" lon="13.147265">
        <ele>40.879772</ele>
        <time>2022-10-22T17:46:29.517Z</time>
      </trkpt>
      <trkpt lat="52.354477" lon="13.147349">
        <ele>41.612617</ele>
        <time>2022-10-22T17:48:20.760Z</time>
      </trkpt>
      <trkpt lat="52.353130" lon="13.147334">
        <ele>42.778562</ele>
        <time>2022-10-22T17:50:40.618Z</time>
      </trkpt>
      <trkpt lat="52.352428" lon="13.147383">
        <ele>43.473259</ele>
        <time>2022-10-22T17:51:53.650Z</time>
      </trkpt>
      <trkpt lat="52.350964" lon="13.147445">
        <ele>44.785641</ele>
        <time>2022-10-22T17:54:25.033Z</time>
      </trkpt>
      <trkpt lat="52.350822" lon="13.147450">
        <ele>44.899375</ele>
        <time>2022-10-22T17:54:39.669Z</time>
      </trkpt>
      <trkpt lat="52.350716" lon="13.147416">
        <ele>44.985870</ele>
        <time>2022-10-22T17:54:50.731Z</time>
      </trkpt>
      <trkpt lat="52.350376" lon="13.146696">
        <ele>45.431011</ele>
        <time>2022-10-22T17:55:47.765Z</time>
      </trkpt>
      <trkpt lat="52.349890" lon="13.146003">
        <ele>45.471215</ele>
        <time>2022-10-22T17:56:54.065Z</time>
      </trkpt>
      <trkpt lat="52.349100" lon="13.145228">
        <ele>45.033988</ele>
        <time>2022-10-22T17:58:26.443Z</time>
      </trkpt>
      <trkpt lat="52.348914" lon="13.145080">
        <ele>44.935808</ele>
        <time>2022-10-22T17:58:47.670Z</time>
      </trkpt>
      <trkpt lat="52.348584" lon="13.144904">
        <ele>44.643200</ele>
        <time>2022-10-22T17:59:23.730Z</time>
      </trkpt>
      <trkpt lat="52.347901" lon="13.144665">
        <ele>42.501273</ele>
        <time>2022-10-22T18:00:37.528Z</time>
      </trkpt>
      <trkpt lat="52.347692" lon="13.144537">
        <ele>41.816929</ele>
        <time>2022-10-22T18:01:01.418Z</time>
      </trkpt>
      <trkpt lat="52.347403" lon="13.144240">
        <ele>40.770455</ele>
        <time>2022-10-22T18:01:38.117Z</time>
      </trkpt>
      <trkpt lat="52.347048" lon="13.144125">
        <ele>39.660637</ele>
        <time>2022-10-22T18:02:17.238Z</time>
      </trkpt>
      <trkpt lat="52.346027" lon="13.143694">
        <ele>36.862923</ele>
        <time>2022-10-22T18:04:10.343Z</time>
      </trkpt>
      <trkpt lat="52.345855" lon="13.143690">
        <ele>36.416031</ele>
        <time>2022-10-22T18:04:28.352Z</time>
      </trkpt>
      <trkpt lat="52.345311" lon="13.143531">
        <ele>34.980394</ele>
        <time>2022-10-22T18:05:25.833Z</time>
      </trkpt>
      <trkpt lat="52.345027" lon="13.143563">
        <ele>34.601865</ele>
        <time>2022-10-22T18:05:54.989Z</time>
      </trkpt>
      <trkpt lat="52.344868" lon="13.143717">
        <ele>34.596910</ele>
        <time>2022-10-22T18:06:13.700Z</time>
      </trkpt>
      <trkpt lat="52.344284" lon="13.144485">
        <ele>34.576816</ele>
        <time>2022-10-22T18:07:28.716Z</time>
      </trkpt>
      <trkpt lat="52.343649" lon="13.145234">
        <ele>34.595836</ele>
        <time>2022-10-22T18:08:48.688Z</time>
      </trkpt>
      <trkpt lat="52.343432" lon="13.145240">
        <ele>34.738879</ele>
        <time>2022-10-22T18:09:11.073Z</time>
      </trkpt>
      <trkpt lat="52.341169" lon="13.148264">
        <ele>36.137401</ele>
        <time>2022-10-22T18:14:10.439Z</time>
      </trkpt>
      <trkpt lat="52.341097" lon="13.145208">
        <ele>34.919178</ele>
        <time>2022-10-22T18:17:20.721Z</time>
      </trkpt>
      <trkpt lat="52.341093" lon="13.145141">
        <ele>34.881877</ele>
        <time>2022-10-22T18:17:25.060Z</time>
      </trkpt>
      <trkpt lat="52.341066" lon="13.144575">
        <ele>34.573805</ele>
        <time>2022-10-22T18:18:00.735Z</time>
      </trkpt>
      <trkpt lat="52.340900" lon="13.143368">
        <ele>33.973970</ele>
        <time>2022-10-22T18:19:18.219Z</time>
      </trkpt>
      <trkpt lat="52.340792" lon="13.142816">
        <ele>33.692954</ele>
        <time>2022-10-22T18:19:54.244Z</time>
      </trkpt>
      <trkpt lat="52.340637" lon="13.141609">
        <ele>33.144205</ele>
        <time>2022-10-22T18:21:10.303Z</time>
      </trkpt>
      <trkpt lat="52.340500" lon="13.140742">
        <ele>32.930500</ele>
        <time>2022-10-22T18:22:05.200Z</time>
      </trkpt>
      <trkpt lat="52.340445" lon="13.140217">
        <ele>32.803387</ele>
        <time>2022-10-22T18:22:37.935Z</time>
      </trkpt>
      <trkpt lat="52.340387" lon="13.140095">
        <ele>32.766498</ele>
        <time>2022-10-22T18:22:47.413Z</time>
      </trkpt>
      <trkpt lat="52.340294" lon="13.140011">
        <ele>32.725010</ele>
        <time>2022-10-22T18:22:58.146Z</time>
      </trkpt>
      <trkpt lat="52.338945" lon="13.140189">
        <ele>32.307732</ele>
        <time>2022-10-22T18:25:15.169Z</time>
      </trkpt>
      <trkpt lat="52.338414" lon="13.140268">
        <ele>32.178608</ele>
        <time>2022-10-22T18:26:09.276Z</time>
      </trkpt>
      <trkpt lat="52.337338" lon="13.140279">
        <ele>32.498516</ele>
        <time>2022-10-22T18:27:58.343Z</time>
      </trkpt>
      <trkpt lat="52.337312" lon="13.140279">
        <ele>32.519137</ele>
        <time>2022-10-22T18:28:01.088Z</time>
      </trkpt>
      <trkpt lat="52.337217" lon="13.140312">
        <ele>32.596158</ele>
        <time>2022-10-22T18:28:11.248Z</time>
      </trkpt>
      <trkpt lat="52.337119" lon="13.140388">
        <ele>32.682164</ele>
        <time>2022-10-22T18:28:22.615Z</time>
      </trkpt>
      <trkpt lat="52.336845" lon="13.140863">
        <ele>32.998712</ele>
        <time>2022-10-22T18:29:04.138Z</time>
      </trkpt>
      <trkpt lat="52.336187" lon="13.142221">
        <ele>33.598546</ele>
        <time>2022-10-22T18:30:53.995Z</time>
      </trkpt>
      <trkpt lat="52.336134" lon="13.142402">
        <ele>33.630648</ele>
        <time>2022-10-22T18:31:06.396Z</time>
      </trkpt>
      <trkpt lat="52.335552" lon="13.143524">
        <ele>33.866051</ele>
        <time>2022-10-22T18:32:37.129Z</time>
      </trkpt>
      <trkpt lat="52.335359" lon="13.143967">
        <ele>33.946155</ele>
        <time>2022-10-22T18:33:10.714Z</time>
      </trkpt>
      <trkpt lat="52.335221" lon="13.144139">
        <ele>33.832050</ele>
        <time>2022-10-22T18:33:28.297Z</time>
      </trkpt>
      <trkpt lat="52.335036" lon="13.144304">
        <ele>33.693459</ele>
        <time>2022-10-22T18:33:49.749Z</time>
      </trkpt>
      <trkpt lat="52.334003" lon="13.146117">
        <ele>32.728088</ele>
        <time>2022-10-22T18:36:23.821Z</time>
      </trkpt>
      <trkpt lat="52.332566" lon="13.144117">
        <ele>32.086938</ele>
        <time>2022-10-22T18:39:33.918Z</time>
      </trkpt>
      <trkpt lat="52.329641" lon="13.139782">
        <ele>31.834171</ele>
        <time>2022-10-22T18:46:09.111Z</time>
      </trkpt>
      <trkpt lat="52.329590" lon="13.140095">
        <ele>31.805481</ele>
        <time>2022-10-22T18:46:29.001Z</time>
      </trkpt>
      <trkpt lat="52.329505" lon="13.141493">
        <ele>31.681052</ele>
        <time>2022-10-22T18:47:55.279Z</time>
      </trkpt>
      <trkpt lat="52.329405" lon="13.142202">
        <ele>31.613617</ele>
        <time>2022-10-22T18:48:39.951Z</time>
      </trkpt>
      <trkpt lat="52.329253" lon="13.142738">
        <ele>31.556913</ele>
        <time>2022-10-22T18:49:16.268Z</time>
      </trkpt>
      <trkpt lat="52.329006" lon="13.143467">
        <ele>31.476923</ele>
        <time>2022-10-22T18:50:07.496Z</time>
      </trkpt>
      <trkpt lat="52.327684" lon="13.146197">
        <ele>31.493211</ele>
        <time>2022-10-22T18:53:40.739Z</time>
      </trkpt>
      <trkpt lat="52.327095" lon="13.147128">
        <ele>31.794878</ele>
        <time>2022-10-22T18:55:04.156Z</time>
      </trkpt>
      <trkpt lat="52.325843" lon="13.147612">
        <ele>32.542074</ele>
        <time>2022-10-22T18:57:15.904Z</time>
      </trkpt>
      <trkpt lat="52.325260" lon="13.147765">
        <ele>32.778515</ele>
        <time>2022-10-22T18:58:16.572Z</time>
      </trkpt>
      <trkpt lat="52.325038" lon="13.147858">
        <ele>32.866934</ele>
        <time>2022-10-22T18:58:40.015Z</time>
      </trkpt>
      <trkpt lat="52.322620" lon="13.149079">
        <ele>33.395511</ele>
        <time>2022-10-22T19:02:54.498Z</time>
      </trkpt>
      <trkpt lat="52.322488" lon="13.149139">
        <ele>33.407669</ele>
        <time>2022-10-22T19:03:08.257Z</time>
      </trkpt>
      <trkpt lat="52.322376" lon="13.149196">
        <ele>33.418078</ele>
        <time>2022-10-22T19:03:20.104Z</time>
      </trkpt>
      <trkpt lat="52.322395" lon="13.146860">
        <ele>33.452472</ele>
        <time>2022-10-22T19:05:43.086Z</time>
      </trkpt>
      <trkpt lat="52.322687" lon="13.146171">
        <ele>33.482269</ele>
        <time>2022-10-22T19:06:34.488Z</time>
      </trkpt>
      <trkpt lat="52.322715" lon="13.146031">
        <ele>33.500053</ele>
        <time>2022-10-22T19:06:43.483Z</time>
      </trkpt>
      <trkpt lat="52.322797" lon="13.144905">
        <ele>33.636955</ele>
        <time>2022-10-22T19:07:53.482Z</time>
      </trkpt>
      <trkpt lat="52.323062" lon="13.142713">
        <ele>33.997710</ele>
        <time>2022-10-22T19:10:11.265Z</time>
      </trkpt>
      <trkpt lat="52.323091" lon="13.142399">
        <ele>34.074873</ele>
        <time>2022-10-22T19:10:31.014Z</time>
      </trkpt>
      <trkpt lat="52.323231" lon="13.140621">
        <ele>34.510468</ele>
        <time>2022-10-22T19:12:22.788Z</time>
      </trkpt>
      <trkpt lat="52.323345" lon="13.139606">
        <ele>34.590751</ele>
        <time>2022-10-22T19:13:26.273Z</time>
      </trkpt>
      <trkpt lat="52.323439" lon="13.138716">
        <ele>34.647061</ele>
        <time>2022-10-22T19:14:21.603Z</time>
      </trkpt>
      <trkpt lat="52.323583" lon="13.137627">
        <ele>34.711468</ele>
        <time>2022-10-22T19:15:29.884Z</time>
      </trkpt>
      <trkpt lat="52.323860" lon="13.134155">
        <ele>33.830836</ele>
        <time>2022-10-22T19:19:05.720Z</time>
      </trkpt>
      <trkpt lat="52.323878" lon="13.133980">
        <ele>33.752003</ele>
        <time>2022-10-22T19:19:16.677Z</time>
      </trkpt>
      <trkpt lat="52.323860" lon="13.134155">
        <ele>33.673171</ele>
        <time>2022-10-22T19:19:27.713Z</time>
      </trkpt>
      <trkpt lat="52.323311" lon="13.133978">
        <ele>33.266479</ele>
        <time>2022-10-22T19:20:24.896Z</time>
      </trkpt>
      <trkpt lat="52.323153" lon="13.133868">
        <ele>33.141679</ele>
        <time>2022-10-22T19:20:42.477Z</time>
      </trkpt>
      <trkpt lat="52.323018" lon="13.133709">
        <ele>33.020780</ele>
        <time>2022-10-22T19:20:59.487Z</time>
      </trkpt>
      <trkpt lat="52.323143" lon="13.133575">
        <ele>32.912164</ele>
        <time>2022-10-22T19:21:14.726Z</time>
      </trkpt>
      <trkpt lat="52.323050" lon="13.133388">
        <ele>32.805067</ele>
        <time>2022-10-22T19:21:29.808Z</time>
      </trkpt>
      <trkpt lat="52.323034" lon="13.133357">
        <ele>32.787043</ele>
        <time>2022-10-22T19:21:32.322Z</time>
      </trkpt>
      <trkpt lat="52.322953" lon="13.133119">
        <ele>32.790592</ele>
        <time>2022-10-22T19:21:49.237Z</time>
      </trkpt>
      <trkpt lat="52.322642" lon="13.131875">
        <ele>32.846799</ele>
        <time>2022-10-22T19:23:11.482Z</time>
      </trkpt>
      <trkpt lat="52.322381" lon="13.131103">
        <ele>32.883693</ele>
        <time>2022-10-22T19:24:06.310Z</time>
      </trkpt>
      <trkpt lat="52.322252" lon="13.130769">
        <ele>32.900216</ele>
        <time>2022-10-22T19:24:30.999Z</time>
      </trkpt>
      <trkpt lat="52.322241" lon="13.130735">
        <ele>32.901825</ele>
        <time>2022-10-22T19:24:33.463Z</time>
      </trkpt>
      <trkpt lat="52.322129" lon="13.130406">
        <ele>33.072319</ele>
        <time>2022-10-22T19:24:56.952Z</time>
      </trkpt>
      <trkpt lat="52.322118" lon="13.130373">
        <ele>33.090512</ele>
        <time>2022-10-22T19:24:59.331Z</time>
      </trkpt>
      <trkpt lat="52.321842" lon="13.129547">
        <ele>33.546146</ele>
        <time>2022-10-22T19:25:58.346Z</time>
      </trkpt>
      <trkpt lat="52.321766" lon="13.129383">
        <ele>33.645760</ele>
        <time>2022-10-22T19:26:11.480Z</time>
      </trkpt>
      <trkpt lat="52.321695" lon="13.129257">
        <ele>33.728707</ele>
        <time>2022-10-22T19:26:22.321Z</time>
      </trkpt>
      <trkpt lat="52.321533" lon="13.128982">
        <ele>33.913568</ele>
        <time>2022-10-22T19:26:46.705Z</time>
      </trkpt>
      <trkpt lat="52.321411" lon="13.128773">
        <ele>34.053448</ele>
        <time>2022-10-22T19:27:05.091Z</time>
      </trkpt>
      <trkpt lat="52.321300" lon="13.128595">
        <ele>34.176529</ele>
        <time>2022-10-22T19:27:21.234Z</time>
      </trkpt>
      <trkpt lat="52.321136" lon="13.128341">
        <ele>34.339941</ele>
        <time>2022-10-22T19:27:44.369Z</time>
      </trkpt>
      <trkpt lat="52.320979" lon="13.128162">
        <ele>34.408395</ele>
        <time>2022-10-22T19:28:03.826Z</time>
      </trkpt>
      <trkpt lat="52.320750" lon="13.127964">
        <ele>34.501050</ele>
        <time>2022-10-22T19:28:30.082Z</time>
      </trkpt>
      <trkpt lat="52.320364" lon="13.127791">
        <ele>34.644218</ele>
        <time>2022-10-22T19:29:10.396Z</time>
      </trkpt>
      <trkpt lat="52.320174" lon="13.127757">
        <ele>34.712591</ele>
        <time>2022-10-22T19:29:29.751Z</time>
      </trkpt>
      <trkpt lat="52.320089" lon="13.127746">
        <ele>34.743092</ele>
        <time>2022-10-22T19:29:38.265Z</time>
      </trkpt>
      <trkpt lat="52.319863" lon="13.127729">
        <ele>34.824022</ele>
        <time>2022-10-22T19:30:01.223Z</time>
      </trkpt>
      <trkpt lat="52.319121" lon="13.127679">
        <ele>34.935071</ele>
        <time>2022-10-22T19:31:16.525Z</time>
      </trkpt>
      <trkpt lat="52.318907" lon="13.127659">
        <ele>34.912151</ele>
        <time>2022-10-22T19:31:38.033Z</time>
      </trkpt>
      <trkpt lat="52.318395" lon="13.127604">
        <ele>34.857285</ele>
        <time>2022-10-22T19:32:29.589Z</time>
      </trkpt>
      <trkpt lat="52.318251" lon="13.127588">
        <ele>34.841852</ele>
        <time>2022-10-22T19:32:44.152Z</time>
      </trkpt>
      <trkpt lat="52.317701" lon="13.127540">
        <ele>34.782957</ele>
        <time>2022-10-22T19:33:39.649Z</time>
      </trkpt>
      <trkpt lat="52.317441" lon="13.127499">
        <ele>34.700996</ele>
        <time>2022-10-22T19:34:06.114Z</time>
      </trkpt>
      <trkpt lat="52.317285" lon="13.127414">
        <ele>34.642635</ele>
        <time>2022-10-22T19:34:22.689Z</time>
      </trkpt>
      <trkpt lat="52.317003" lon="13.127083">
        <ele>34.519445</ele>
        <time>2022-10-22T19:34:57.754Z</time>
      </trkpt>
      <trkpt lat="52.316048" lon="13.125581">
        <ele>34.131574</ele>
        <time>2022-10-22T19:37:11.225Z</time>
      </trkpt>
      <trkpt lat="52.315849" lon="13.125323">
        <ele>34.123278</ele>
        <time>2022-10-22T19:37:36.654Z</time>
      </trkpt>
      <trkpt lat="52.315505" lon="13.124925">
        <ele>34.109513</ele>
        <time>2022-10-22T19:38:18.848Z</time>
      </trkpt>
      <trkpt lat="52.315219" lon="13.124540">
        <ele>34.097412</ele>
        <time>2022-10-22T19:38:55.992Z</time>
      </trkpt>
      <trkpt lat="52.314665" lon="13.123585">
        <ele>34.124662</ele>
        <time>2022-10-22T19:40:16.828Z</time>
      </trkpt>
      <trkpt lat="52.314412" lon="13.123226">
        <ele>34.172067</ele>
        <time>2022-10-22T19:40:50.476Z</time>
      </trkpt>
      <trkpt lat="52.313726" lon="13.122528">
        <ele>34.286414</ele>
        <time>2022-10-22T19:42:11.676Z</time>
      </trkpt>
      <trkpt lat="52.313532" lon="13.122371">
        <ele>34.317049</ele>
        <time>2022-10-22T19:42:33.326Z</time>
      </trkpt>
      <trkpt lat="52.313232" lon="13.122234">
        <ele>34.431222</ele>
        <time>2022-10-22T19:43:04.544Z</time>
      </trkpt>
      <trkpt lat="52.312896" lon="13.122142">
        <ele>34.612507</ele>
        <time>2022-10-22T19:43:38.924Z</time>
      </trkpt>
      <trkpt lat="52.312139" lon="13.121935">
        <ele>35.020925</ele>
        <time>2022-10-22T19:44:56.825Z</time>
      </trkpt>
      <trkpt lat="52.311511" lon="13.121779">
        <ele>35.549734</ele>
        <time>2022-10-22T19:46:02.665Z</time>
      </trkpt>
      <trkpt lat="52.311194" lon="13.121686">
        <ele>36.215963</ele>
        <time>2022-10-22T19:46:36.504Z</time>
      </trkpt>
      <trkpt lat="52.310920" lon="13.121558">
        <ele>36.805439</ele>
        <time>2022-10-22T19:47:06.706Z</time>
      </trkpt>
      <trkpt lat="52.310888" lon="13.121545">
        <ele>36.873647</ele>
        <time>2022-10-22T19:47:10.203Z</time>
      </trkpt>
      <trkpt lat="52.309344" lon="13.120888">
        <ele>39.926431</ele>
        <time>2022-10-22T19:50:04.909Z</time>
      </trkpt>
      <trkpt lat="52.309009" lon="13.120762">
        <ele>40.485819</ele>
        <time>2022-10-22T19:50:41.913Z</time>
      </trkpt>
      <trkpt lat="52.308674" lon="13.120636">
        <ele>41.045207</ele>
        <time>2022-10-22T19:51:17.913Z</time>
      </trkpt>
      <trkpt lat="52.308535" lon="13.120581">
        <ele>41.277932</ele>
        <time>2022-10-22T19:51:32.705Z</time>
      </trkpt>
      <trkpt lat="52.308124" lon="13.120395">
        <ele>41.934234</ele>
        <time>2022-10-22T19:52:16.371Z</time>
      </trkpt>
      <trkpt lat="52.307653" lon="13.120192">
        <ele>41.771782</ele>
        <time>2022-10-22T19:53:05.331Z</time>
      </trkpt>
      <trkpt lat="52.307240" lon="13.120011">
        <ele>41.629178</ele>
        <time>2022-10-22T19:53:48.705Z</time>
      </trkpt>
      <trkpt lat="52.306641" lon="13.119705">
        <ele>41.419879</ele>
        <time>2022-10-22T19:54:53.003Z</time>
      </trkpt>
      <trkpt lat="52.305725" lon="13.119047">
        <ele>41.619794</ele>
        <time>2022-10-22T19:56:33.171Z</time>
      </trkpt>
      <trkpt lat="52.305060" lon="13.118571">
        <ele>41.885193</ele>
        <time>2022-10-22T19:57:48.285Z</time>
      </trkpt>
      <trkpt lat="52.304280" lon="13.118003">
        <ele>42.299609</ele>
        <time>2022-10-22T19:59:15.162Z</time>
      </trkpt>
      <trkpt lat="52.302830" lon="13.116968">
        <ele>43.473696</ele>
        <time>2022-10-22T20:01:56.686Z</time>
      </trkpt>
      <trkpt lat="52.302200" lon="13.116513">
        <ele>44.481996</ele>
        <time>2022-10-22T20:03:08.219Z</time>
      </trkpt>
      <trkpt lat="52.302081" lon="13.115955">
        <ele>45.011064</ele>
        <time>2022-10-22T20:03:46.384Z</time>
      </trkpt>
      <trkpt lat="52.302284" lon="13.114611">
        <ele>46.987331</ele>
        <time>2022-10-22T20:05:18.993Z</time>
      </trkpt>
      <trkpt lat="52.302336" lon="13.113641">
        <ele>48.889610</ele>
        <time>2022-10-22T20:06:24.472Z</time>
      </trkpt>
      <trkpt lat="52.301305" lon="13.111230">
        <ele>55.461317</ele>
        <time>2022-10-22T20:09:49.120Z</time>
      </trkpt>
      <trkpt lat="52.300644" lon="13.109684">
        <ele>59.079537</ele>
        <time>2022-10-22T20:12:02.436Z</time>
      </trkpt>
      <trkpt lat="52.297812" lon="13.103061">
        <ele>64.689588</ele>
        <time>2022-10-22T20:20:32.995Z</time>
      </trkpt>
      <trkpt lat="52.295986" lon="13.098769">
        <ele>64.421586</ele>
        <time>2022-10-22T20:25:55.004Z</time>
      </trkpt>
      <trkpt lat="52.295738" lon="13.098211">
        <ele>64.424229</ele>
        <time>2022-10-22T20:26:37.871Z</time>
      </trkpt>
      <trkpt lat="52.295432" lon="13.097464">
        <ele>65.215924</ele>
        <time>2022-10-22T20:27:34.606Z</time>
      </trkpt>
      <trkpt lat="52.294449" lon="13.095382">
        <ele>67.646304</ele>
        <time>2022-10-22T20:30:26.760Z</time>
      </trkpt>
      <trkpt lat="52.294287" lon="13.095039">
        <ele>67.945792</ele>
        <time>2022-10-22T20:30:55.503Z</time>
      </trkpt>
      <trkpt lat="52.294130" lon="13.094283">
        <ele>68.497540</ele>
        <time>2022-10-22T20:31:47.375Z</time>
      </trkpt>
      <trkpt lat="52.293456" lon="13.092693">
        <ele>68.980096</ele>
        <time>2022-10-22T20:33:46.659Z</time>
      </trkpt>
      <trkpt lat="52.292894" lon="13.091371">
        <ele>68.191694</ele>
        <time>2022-10-22T20:35:27.855Z</time>
      </trkpt>
      <trkpt lat="52.292124" lon="13.088558">
        <ele>66.866497</ele>
        <time>2022-10-22T20:38:40.640Z</time>
      </trkpt>
      <trkpt lat="52.290921" lon="13.085353">
        <ele>67.985073</ele>
        <time>2022-10-22T20:42:38.301Z</time>
      </trkpt>
      <trkpt lat="52.290478" lon="13.084152">
        <ele>67.868964</ele>
        <time>2022-10-22T20:44:04.613Z</time>
      </trkpt>
      <trkpt lat="52.290099" lon="13.082798">
        <ele>67.408668</ele>
        <time>2022-10-22T20:45:37.306Z</time>
      </trkpt>
      <trkpt lat="52.289932" lon="13.082203">
        <ele>66.629962</ele>
        <time>2022-10-22T20:46:18.500Z</time>
      </trkpt>
      <trkpt lat="52.289453" lon="13.079721">
        <ele>63.156140</ele>
        <time>2022-10-22T20:49:05.593Z</time>
      </trkpt>
      <trkpt lat="52.289079" lon="13.078814">
        <ele>61.189403</ele>
        <time>2022-10-22T20:50:16.547Z</time>
      </trkpt>
      <trkpt lat="52.287950" lon="13.075939">
        <ele>54.577521</ele>
        <time>2022-10-22T20:54:00.071Z</time>
      </trkpt>
      <trkpt lat="52.287580" lon="13.074693">
        <ele>51.960033</ele>
        <time>2022-10-22T20:55:30.317Z</time>
      </trkpt>
      <trkpt lat="52.287219" lon="13.073532">
        <ele>49.686549</ele>
        <time>2022-10-22T20:56:54.737Z</time>
      </trkpt>
      <trkpt lat="52.287058" lon="13.073158">
        <ele>48.888217</ele>
        <time>2022-10-22T20:57:24.393Z</time>
      </trkpt>
      <trkpt lat="52.286662" lon="13.071670">
        <ele>46.462139</ele>
        <time>2022-10-22T20:59:08.670Z</time>
      </trkpt>
      <trkpt lat="52.286398" lon="13.070906">
        <ele>45.261456</ele>
        <time>2022-10-22T21:00:04.826Z</time>
      </trkpt>
      <trkpt lat="52.286077" lon="13.069854">
        <ele>43.776402</ele>
        <time>2022-10-22T21:01:19.951Z</time>
      </trkpt>
      <trkpt lat="52.285673" lon="13.068566">
        <ele>42.735234</ele>
        <time>2022-10-22T21:02:51.711Z</time>
      </trkpt>
      <trkpt lat="52.285660" lon="13.068538">
        <ele>42.709949</ele>
        <time>2022-10-22T21:02:53.879Z</time>
      </trkpt>
      <trkpt lat="52.285601" lon="13.068412">
        <ele>42.595810</ele>
        <time>2022-10-22T21:03:03.845Z</time>
      </trkpt>
      <trkpt lat="52.285492" lon="13.068322">
        <ele>42.452217</ele>
        <time>2022-10-22T21:03:16.344Z</time>
      </trkpt>
      <trkpt lat="52.285396" lon="13.068307">
        <ele>42.338818</ele>
        <time>2022-10-22T21:03:26.073Z</time>
      </trkpt>
      <trkpt lat="52.285078" lon="13.068334">
        <ele>41.964384</ele>
        <time>2022-10-22T21:03:58.243Z</time>
      </trkpt>
      <trkpt lat="52.284749" lon="13.068375">
        <ele>41.894396</ele>
        <time>2022-10-22T21:04:31.315Z</time>
      </trkpt>
      <trkpt lat="52.284648" lon="13.068336">
        <ele>41.947166</ele>
        <time>2022-10-22T21:04:41.940Z</time>
      </trkpt>
      <trkpt lat="52.284704" lon="13.068167">
        <ele>42.006952</ele>
        <time>2022-10-22T21:04:53.923Z</time>
      </trkpt>
      <trkpt lat="52.284723" lon="13.068038">
        <ele>42.048226</ele>
        <time>2022-10-22T21:05:02.153Z</time>
      </trkpt>
      <trkpt lat="52.284710" lon="13.067944">
        <ele>42.078204</ele>
        <time>2022-10-22T21:05:08.074Z</time>
      </trkpt>
      <trkpt lat="52.284378" lon="13.068175">
        <ele>42.261678</ele>
        <time>2022-10-22T21:05:44.999Z</time>
      </trkpt>
      <trkpt lat="52.283474" lon="13.068689">
        <ele>42.797962</ele>
        <time>2022-10-22T21:07:23.011Z</time>
      </trkpt>
      <trkpt lat="52.283253" lon="13.068791">
        <ele>43.078428</ele>
        <time>2022-10-22T21:07:46.776Z</time>
      </trkpt>
      <trkpt lat="52.282541" lon="13.069011">
        <ele>43.963413</ele>
        <time>2022-10-22T21:09:02.565Z</time>
      </trkpt>
      <trkpt lat="52.282529" lon="13.068925">
        <ele>44.029320</ele>
        <time>2022-10-22T21:09:08.257Z</time>
      </trkpt>
      <trkpt lat="52.282492" lon="13.068938">
        <ele>44.075541</ele>
        <time>2022-10-22T21:09:12.219Z</time>
      </trkpt>
      <trkpt lat="52.282433" lon="13.068746">
        <ele>44.236079</ele>
        <time>2022-10-22T21:09:25.959Z</time>
      </trkpt>
      <trkpt lat="52.281722" lon="13.067362">
        <ele>45.515874</ele>
        <time>2022-10-22T21:11:22.337Z</time>
      </trkpt>
      <trkpt lat="52.281197" lon="13.066442">
        <ele>46.357919</ele>
        <time>2022-10-22T21:12:44.094Z</time>
      </trkpt>
      <trkpt lat="52.280222" lon="13.064839">
        <ele>46.033554</ele>
        <time>2022-10-22T21:15:02.759Z</time>
      </trkpt>
      <trkpt lat="52.279863" lon="13.064192">
        <ele>45.536894</ele>
        <time>2022-10-22T21:15:58.258Z</time>
      </trkpt>
      <trkpt lat="52.279567" lon="13.063750">
        <ele>45.131126</ele>
        <time>2022-10-22T21:16:40.052Z</time>
      </trkpt>
      <trkpt lat="52.279256" lon="13.063380">
        <ele>44.488233</ele>
        <time>2022-10-22T21:17:20.131Z</time>
      </trkpt>
      <trkpt lat="52.278614" lon="13.062430">
        <ele>43.040837</ele>
        <time>2022-10-22T21:18:50.311Z</time>
      </trkpt>
      <trkpt lat="52.277672" lon="13.060737">
        <ele>41.275949</ele>
        <time>2022-10-22T21:21:13.570Z</time>
      </trkpt>
      <trkpt lat="52.276178" lon="13.058542">
        <ele>39.613129</ele>
        <time>2022-10-22T21:24:38.491Z</time>
      </trkpt>
      <trkpt lat="52.275829" lon="13.057972">
        <ele>39.286037</ele>
        <time>2022-10-22T21:25:28.660Z</time>
      </trkpt>
      <trkpt lat="52.274865" lon="13.056285">
        <ele>40.063507</ele>
        <time>2022-10-22T21:27:51.902Z</time>
      </trkpt>
      <trkpt lat="52.273908" lon="13.055372">
        <ele>41.343922</ele>
        <time>2022-10-22T21:29:49.220Z</time>
      </trkpt>
      <trkpt lat="52.273784" lon="13.055316">
        <ele>41.551003</ele>
        <time>2022-10-22T21:30:03.024Z</time>
      </trkpt>
      <trkpt lat="52.273375" lon="13.055021">
        <ele>42.270628</ele>
        <time>2022-10-22T21:30:50.840Z</time>
      </trkpt>
      <trkpt lat="52.272784" lon="13.054304">
        <ele>43.406759</ele>
        <time>2022-10-22T21:32:09.041Z</time>
      </trkpt>
      <trkpt lat="52.272771" lon="13.054289">
        <ele>43.411318</ele>
        <time>2022-10-22T21:32:10.693Z</time>
      </trkpt>
      <trkpt lat="52.272771" lon="13.054289">
        <ele>43.411318</ele>
        <time>2022-10-22T21:32:10.766Z</time>
      </trkpt>
      <trkpt lat="52.272771" lon="13.054289">
        <ele>43.411318</ele>
        <time>2022-10-22T21:32:10.766Z</time>
      </trkpt>
      <trkpt lat="52.272308" lon="13.054010">
        <ele>43.552697</ele>
        <time>2022-10-22T21:33:00.152Z</time>
      </trkpt>
      <trkpt lat="52.271845" lon="13.053732">
        <ele>43.694015</ele>
        <time>2022-10-22T21:33:49.514Z</time>
      </trkpt>
      <trkpt lat="52.271696" lon="13.053567">
        <ele>43.745581</ele>
        <time>2022-10-22T21:34:07.732Z</time>
      </trkpt>
      <trkpt lat="52.271461" lon="13.053232">
        <ele>43.834924</ele>
        <time>2022-10-22T21:34:39.084Z</time>
      </trkpt>
      <trkpt lat="52.271381" lon="13.053055">
        <ele>43.873501</ele>
        <time>2022-10-22T21:34:52.582Z</time>
      </trkpt>
      <trkpt lat="52.271245" lon="13.052050">
        <ele>43.469666</ele>
        <time>2022-10-22T21:35:56.111Z</time>
      </trkpt>
      <trkpt lat="52.271196" lon="13.051428">
        <ele>43.128559</ele>
        <time>2022-10-22T21:36:35.265Z</time>
      </trkpt>
      <trkpt lat="52.271246" lon="13.050999">
        <ele>42.891025</ele>
        <time>2022-10-22T21:37:02.721Z</time>
      </trkpt>
      <trkpt lat="52.271240" lon="13.050834">
        <ele>42.801120</ele>
        <time>2022-10-22T21:37:13.128Z</time>
      </trkpt>
      <trkpt lat="52.271159" lon="13.050060">
        <ele>42.374018</ele>
        <time>2022-10-22T21:38:02.395Z</time>
      </trkpt>
      <trkpt lat="52.271084" lon="13.049565">
        <ele>42.073908</ele>
        <time>2022-10-22T21:38:34.365Z</time>
      </trkpt>
      <trkpt lat="52.271009" lon="13.049241">
        <ele>41.865667</ele>
        <time>2022-10-22T21:38:56.080Z</time>
      </trkpt>
      <trkpt lat="52.270979" lon="13.048819">
        <ele>41.610277</ele>
        <time>2022-10-22T21:39:22.606Z</time>
      </trkpt>
      <trkpt lat="52.270984" lon="13.048341">
        <ele>41.322887</ele>
        <time>2022-10-22T21:39:52.498Z</time>
      </trkpt>
      <trkpt lat="52.271026" lon="13.047960">
        <ele>41.090163</ele>
        <time>2022-10-22T21:40:16.863Z</time>
      </trkpt>
      <trkpt lat="52.271005" lon="13.047754">
        <ele>40.964621</ele>
        <time>2022-10-22T21:40:29.916Z</time>
      </trkpt>
      <trkpt lat="52.270950" lon="13.047541">
        <ele>40.825643</ele>
        <time>2022-10-22T21:40:44.381Z</time>
      </trkpt>
      <trkpt lat="52.270549" lon="13.046481">
        <ele>40.583557</ele>
        <time>2022-10-22T21:42:01.664Z</time>
      </trkpt>
      <trkpt lat="52.270203" lon="13.045261">
        <ele>40.648530</ele>
        <time>2022-10-22T21:43:24.251Z</time>
      </trkpt>
      <trkpt lat="52.270029" lon="13.043992">
        <ele>40.852320</ele>
        <time>2022-10-22T21:44:46.143Z</time>
      </trkpt>
      <trkpt lat="52.269806" lon="13.042713">
        <ele>41.301812</ele>
        <time>2022-10-22T21:46:10.634Z</time>
      </trkpt>
      <trkpt lat="52.269792" lon="13.042623">
        <ele>41.333199</ele>
        <time>2022-10-22T21:46:16.370Z</time>
      </trkpt>
      <trkpt lat="52.269903" lon="13.041551">
        <ele>41.643421</ele>
        <time>2022-10-22T21:47:23.334Z</time>
      </trkpt>
      <trkpt lat="52.269930" lon="13.041032">
        <ele>41.299567</ele>
        <time>2022-10-22T21:47:55.573Z</time>
      </trkpt>
      <trkpt lat="52.269968" lon="13.040035">
        <ele>40.640124</ele>
        <time>2022-10-22T21:48:58.057Z</time>
      </trkpt>
      <trkpt lat="52.269988" lon="13.039144">
        <ele>40.051536</ele>
        <time>2022-10-22T21:49:54.505Z</time>
      </trkpt>
      <trkpt lat="52.269915" lon="13.038793">
        <ele>39.806807</ele>
        <time>2022-10-22T21:50:18.169Z</time>
      </trkpt>
      <trkpt lat="52.269755" lon="13.038466">
        <ele>39.992525</ele>
        <time>2022-10-22T21:50:44.754Z</time>
      </trkpt>
      <trkpt lat="52.269647" lon="13.038334">
        <ele>40.166373</ele>
        <time>2022-10-22T21:50:58.683Z</time>
      </trkpt>
      <trkpt lat="52.269520" lon="13.038192">
        <ele>40.364735</ele>
        <time>2022-10-22T21:51:14.502Z</time>
      </trkpt>
      <trkpt lat="52.269372" lon="13.038089">
        <ele>40.572094</ele>
        <time>2022-10-22T21:51:30.641Z</time>
      </trkpt>
      <trkpt lat="52.269020" lon="13.037942">
        <ele>41.040421</ele>
        <time>2022-10-22T21:52:08.008Z</time>
      </trkpt>
      <trkpt lat="52.268826" lon="13.037817">
        <ele>41.309233</ele>
        <time>2022-10-22T21:52:30.122Z</time>
      </trkpt>
      <trkpt lat="52.268638" lon="13.037631">
        <ele>41.592529</ele>
        <time>2022-10-22T21:52:54.754Z</time>
      </trkpt>
      <trkpt lat="52.268236" lon="13.037191">
        <ele>42.598802</ele>
        <time>2022-10-22T21:53:50.510Z</time>
      </trkpt>
      <trkpt lat="52.267608" lon="13.036522">
        <ele>45.923759</ele>
        <time>2022-10-22T21:55:19.436Z</time>
      </trkpt>
      <trkpt lat="52.267482" lon="13.036328">
        <ele>46.691599</ele>
        <time>2022-10-22T21:55:40.207Z</time>
      </trkpt>
      <trkpt lat="52.267392" lon="13.036410">
        <ele>47.148628</ele>
        <time>2022-10-22T21:55:52.231Z</time>
      </trkpt>
      <trkpt lat="52.267268" lon="13.036386">
        <ele>47.702444</ele>
        <time>2022-10-22T21:56:06.949Z</time>
      </trkpt>
      <trkpt lat="52.267086" lon="13.036421">
        <ele>48.515231</ele>
        <time>2022-10-22T21:56:28.310Z</time>
      </trkpt>
      <trkpt lat="52.266493" lon="13.036008">
        <ele>50.051393</ele>
        <time>2022-10-22T21:57:40.373Z</time>
      </trkpt>
      <trkpt lat="52.266000" lon="13.035555">
        <ele>50.078546</ele>
        <time>2022-10-22T21:58:38.466Z</time>
      </trkpt>
      <trkpt lat="52.265666" lon="13.035327">
        <ele>50.095924</ele>
        <time>2022-10-22T21:59:15.654Z</time>
      </trkpt>
      <trkpt lat="52.265372" lon="13.035205">
        <ele>50.110486</ele>
        <time>2022-10-22T21:59:47.412Z</time>
      </trkpt>
      <trkpt lat="52.264805" lon="13.035024">
        <ele>49.702363</ele>
        <time>2022-10-22T22:00:48.137Z</time>
      </trkpt>
      <trkpt lat="52.264241" lon="13.034765">
        <ele>48.910795</ele>
        <time>2022-10-22T22:01:49.243Z</time>
      </trkpt>
      <trkpt lat="52.262313" lon="13.034230">
        <ele>47.712121</ele>
        <time>2022-10-22T22:05:07.275Z</time>
      </trkpt>
      <trkpt lat="52.262129" lon="13.034099">
        <ele>47.715753</ele>
        <time>2022-10-22T22:05:27.561Z</time>
      </trkpt>
      <trkpt lat="52.261392" lon="13.033902">
        <ele>48.077176</ele>
        <time>2022-10-22T22:06:44.470Z</time>
      </trkpt>
      <trkpt lat="52.259647" lon="13.033338">
        <ele>51.105476</ele>
        <time>2022-10-22T22:09:54.742Z</time>
      </trkpt>
      <trkpt lat="52.258992" lon="13.033167">
        <ele>52.073924</ele>
        <time>2022-10-22T22:11:05.728Z</time>
      </trkpt>
      <trkpt lat="52.258862" lon="13.033126">
        <ele>52.267231</ele>
        <time>2022-10-22T22:11:19.648Z</time>
      </trkpt>
      <trkpt lat="52.257829" lon="13.032780">
        <ele>53.728275</ele>
        <time>2022-10-22T22:13:08.317Z</time>
      </trkpt>
      <trkpt lat="52.257178" lon="13.032274">
        <ele>54.539853</ele>
        <time>2022-10-22T22:14:24.130Z</time>
      </trkpt>
      <trkpt lat="52.256752" lon="13.031793">
        <ele>55.122816</ele>
        <time>2022-10-22T22:15:18.776Z</time>
      </trkpt>
      <trkpt lat="52.256285" lon="13.031321">
        <ele>55.273560</ele>
        <time>2022-10-22T22:16:15.343Z</time>
      </trkpt>
      <trkpt lat="52.255767" lon="13.030709">
        <ele>54.660356</ele>
        <time>2022-10-22T22:17:19.467Z</time>
      </trkpt>
      <trkpt lat="52.254408" lon="13.029631">
        <ele>52.634608</ele>
        <time>2022-10-22T22:19:57.516Z</time>
      </trkpt>
      <trkpt lat="52.253853" lon="13.029155">
        <ele>51.405356</ele>
        <time>2022-10-22T22:21:04.672Z</time>
      </trkpt>
      <trkpt lat="52.252562" lon="13.027921">
        <ele>50.508388</ele>
        <time>2022-10-22T22:23:35.589Z</time>
      </trkpt>
      <trkpt lat="52.251442" lon="13.026794">
        <ele>50.437265</ele>
        <time>2022-10-22T22:25:53.389Z</time>
      </trkpt>
      <trkpt lat="52.250047" lon="13.025132">
        <ele>48.565390</ele>
        <time>2022-10-22T22:28:51.620Z</time>
      </trkpt>
      <trkpt lat="52.249576" lon="13.024571">
        <ele>47.325617</ele>
        <time>2022-10-22T22:29:53.391Z</time>
      </trkpt>
      <trkpt lat="52.249424" lon="13.024374">
        <ele>46.912937</ele>
        <time>2022-10-22T22:30:13.698Z</time>
      </trkpt>
      <trkpt lat="52.248650" lon="13.023549">
        <ele>45.159715</ele>
        <time>2022-10-22T22:31:50.301Z</time>
      </trkpt>
      <trkpt lat="52.247832" lon="13.022571">
        <ele>43.875875</ele>
        <time>2022-10-22T22:33:33.922Z</time>
      </trkpt>
      <trkpt lat="52.247122" lon="13.021888">
        <ele>42.809502</ele>
        <time>2022-10-22T22:34:58.138Z</time>
      </trkpt>
      <trkpt lat="52.247097" lon="13.021853">
        <ele>42.765173</ele>
        <time>2022-10-22T22:35:01.549Z</time>
      </trkpt>
      <trkpt lat="52.247074" lon="13.021829">
        <ele>42.728429</ele>
        <time>2022-10-22T22:35:04.300Z</time>
      </trkpt>
      <trkpt lat="52.245873" lon="13.020677">
        <ele>40.853347</ele>
        <time>2022-10-22T22:37:27.952Z</time>
      </trkpt>
      <trkpt lat="52.245713" lon="13.020528">
        <ele>40.659347</ele>
        <time>2022-10-22T22:37:46.942Z</time>
      </trkpt>
      <trkpt lat="52.245701" lon="13.020517">
        <ele>40.646783</ele>
        <time>2022-10-22T22:37:48.396Z</time>
      </trkpt>
      <trkpt lat="52.245409" lon="13.020191">
        <ele>40.323838</ele>
        <time>2022-10-22T22:38:24.685Z</time>
      </trkpt>
      <trkpt lat="52.245135" lon="13.019751">
        <ele>39.972993</ele>
        <time>2022-10-22T22:39:03.914Z</time>
      </trkpt>
      <trkpt lat="52.245013" lon="13.019640">
        <ele>39.845484</ele>
        <time>2022-10-22T22:39:18.166Z</time>
      </trkpt>
      <trkpt lat="52.244520" lon="13.019402">
        <ele>39.376102</ele>
        <time>2022-10-22T22:40:10.388Z</time>
      </trkpt>
      <trkpt lat="52.244498" lon="13.019392">
        <ele>39.355251</ele>
        <time>2022-10-22T22:40:12.644Z</time>
      </trkpt>
      <trkpt lat="52.243366" lon="13.018871">
        <ele>38.847128</ele>
        <time>2022-10-22T22:42:11.400Z</time>
      </trkpt>
      <trkpt lat="52.243302" lon="13.018840">
        <ele>38.826770</ele>
        <time>2022-10-22T22:42:18.126Z</time>
      </trkpt>
      <trkpt lat="52.243186" lon="13.018764">
        <ele>38.788655</ele>
        <time>2022-10-22T22:42:30.646Z</time>
      </trkpt>
      <trkpt lat="52.242453" lon="13.018287">
        <ele>38.540975</ele>
        <time>2022-10-22T22:43:49.708Z</time>
      </trkpt>
      <trkpt lat="52.242435" lon="13.018175">
        <ele>38.514905</ele>
        <time>2022-10-22T22:43:56.888Z</time>
      </trkpt>
      <trkpt lat="52.242414" lon="13.018051">
        <ele>38.485939</ele>
        <time>2022-10-22T22:44:04.770Z</time>
      </trkpt>
      <trkpt lat="52.242355" lon="13.017689">
        <ele>38.401599</ele>
        <time>2022-10-22T22:44:27.911Z</time>
      </trkpt>
      <trkpt lat="52.242491" lon="13.017073">
        <ele>38.254171</ele>
        <time>2022-10-22T22:45:08.427Z</time>
      </trkpt>
      <trkpt lat="52.242671" lon="13.015995">
        <ele>38.002604</ele>
        <time>2022-10-22T22:46:17.484Z</time>
      </trkpt>
      <trkpt lat="52.242710" lon="13.015774">
        <ele>37.950822</ele>
        <time>2022-10-22T22:46:31.657Z</time>
      </trkpt>
      <trkpt lat="52.242705" lon="13.015372">
        <ele>37.841712</ele>
        <time>2022-10-22T22:46:56.631Z</time>
      </trkpt>
      <trkpt lat="52.242581" lon="13.014886">
        <ele>37.686869</ele>
        <time>2022-10-22T22:47:29.181Z</time>
      </trkpt>
      <trkpt lat="52.242540" lon="13.014761">
        <ele>37.645164</ele>
        <time>2022-10-22T22:47:37.999Z</time>
      </trkpt>
      <trkpt lat="52.242331" lon="13.014254">
        <ele>37.465415</ele>
        <time>2022-10-22T22:48:15.903Z</time>
      </trkpt>
      <trkpt lat="52.241940" lon="13.013573">
        <ele>37.190859</ele>
        <time>2022-10-22T22:49:13.796Z</time>
      </trkpt>
      <trkpt lat="52.241501" lon="13.012402">
        <ele>36.844855</ele>
        <time>2022-10-22T22:50:38.433Z</time>
      </trkpt>
      <trkpt lat="52.241370" lon="13.012121">
        <ele>36.763223</ele>
        <time>2022-10-22T22:51:00.263Z</time>
      </trkpt>
      <trkpt lat="52.241042" lon="13.011475">
        <ele>36.569249</ele>
        <time>2022-10-22T22:51:52.260Z</time>
      </trkpt>
      <trkpt lat="52.240958" lon="13.011249">
        <ele>36.508141</ele>
        <time>2022-10-22T22:52:08.588Z</time>
      </trkpt>
      <trkpt lat="52.240713" lon="13.010338">
        <ele>36.333870</ele>
        <time>2022-10-22T22:53:09.938Z</time>
      </trkpt>
      <trkpt lat="52.240600" lon="13.009523">
        <ele>36.248349</ele>
        <time>2022-10-22T22:54:01.327Z</time>
      </trkpt>
      <trkpt lat="52.240552" lon="13.009354">
        <ele>36.229283</ele>
        <time>2022-10-22T22:54:12.786Z</time>
      </trkpt>
      <trkpt lat="52.240493" lon="13.009244">
        <ele>36.214317</ele>
        <time>2022-10-22T22:54:21.787Z</time>
      </trkpt>
      <trkpt lat="52.240391" lon="13.009195">
        <ele>36.196548</ele>
        <time>2022-10-22T22:54:32.418Z</time>
      </trkpt>
      <trkpt lat="52.237448" lon="13.009421">
        <ele>36.088639</ele>
        <time>2022-10-22T22:59:27.575Z</time>
      </trkpt>
      <trkpt lat="52.237279" lon="13.009387">
        <ele>36.107241</ele>
        <time>2022-10-22T22:59:44.701Z</time>
      </trkpt>
      <trkpt lat="52.237290" lon="13.009278">
        <ele>36.114632</ele>
        <time>2022-10-22T22:59:51.515Z</time>
      </trkpt>
      <trkpt lat="52.237358" lon="13.008562">
        <ele>36.163108</ele>
        <time>2022-10-22T23:00:36.265Z</time>
      </trkpt>
      <trkpt lat="52.237354" lon="13.008068">
        <ele>36.196161</ele>
        <time>2022-10-22T23:01:06.790Z</time>
      </trkpt>
      <trkpt lat="52.237184" lon="13.006296">
        <ele>36.214168</ele>
        <time>2022-10-22T23:02:56.993Z</time>
      </trkpt>
      <trkpt lat="52.237069" lon="13.005956">
        <ele>36.206433</ele>
        <time>2022-10-22T23:03:20.857Z</time>
      </trkpt>
      <trkpt lat="52.236959" lon="13.005515">
        <ele>36.196950</ele>
        <time>2022-10-22T23:03:50.060Z</time>
      </trkpt>
      <trkpt lat="52.236887" lon="13.004386">
        <ele>36.140073</ele>
        <time>2022-10-22T23:04:59.930Z</time>
      </trkpt>
      <trkpt lat="52.237029" lon="13.003110">
        <ele>35.927032</ele>
        <time>2022-10-22T23:06:19.974Z</time>
      </trkpt>
      <trkpt lat="52.237102" lon="13.002711">
        <ele>35.858626</ele>
        <time>2022-10-22T23:06:45.648Z</time>
      </trkpt>
      <trkpt lat="52.237478" lon="13.001922">
        <ele>35.696861</ele>
        <time>2022-10-22T23:07:47.280Z</time>
      </trkpt>
      <trkpt lat="52.237671" lon="13.001461">
        <ele>35.707556</ele>
        <time>2022-10-22T23:08:21.643Z</time>
      </trkpt>
      <trkpt lat="52.237753" lon="13.001203">
        <ele>35.713123</ele>
        <time>2022-10-22T23:08:39.502Z</time>
      </trkpt>
      <trkpt lat="52.237868" lon="13.000228">
        <ele>35.732139</ele>
        <time>2022-10-22T23:09:40.461Z</time>
      </trkpt>
      <trkpt lat="52.237916" lon="12.999207">
        <ele>35.751750</ele>
        <time>2022-10-22T23:10:43.643Z</time>
      </trkpt>
      <trkpt lat="52.237722" lon="12.996375">
        <ele>36.839729</ele>
        <time>2022-10-22T23:13:42.716Z</time>
      </trkpt>
      <trkpt lat="52.237769" lon="12.995072">
        <ele>37.059452</ele>
        <time>2022-10-22T23:15:04.375Z</time>
      </trkpt>
      <trkpt lat="52.237678" lon="12.993889">
        <ele>37.227215</ele>
        <time>2022-10-22T23:16:17.772Z</time>
      </trkpt>
      <trkpt lat="52.237851" lon="12.992100">
        <ele>37.288270</ele>
        <time>2022-10-22T23:18:09.221Z</time>
      </trkpt>
      <trkpt lat="52.237906" lon="12.991288">
        <ele>37.274144</ele>
        <time>2022-10-22T23:18:59.542Z</time>
      </trkpt>
      <trkpt lat="52.237928" lon="12.989646">
        <ele>37.565701</ele>
        <time>2022-10-22T23:20:40.959Z</time>
      </trkpt>
      <trkpt lat="52.233933" lon="12.988743">
        <ele>40.337452</ele>
        <time>2022-10-22T23:27:36.815Z</time>
      </trkpt>
      <trkpt lat="52.233809" lon="12.988603">
        <ele>40.390312</ele>
        <time>2022-10-22T23:27:51.968Z</time>
      </trkpt>
      <trkpt lat="52.233768" lon="12.988564">
        <ele>40.406950</ele>
        <time>2022-10-22T23:27:56.715Z</time>
      </trkpt>
      <trkpt lat="52.233937" lon="12.987996">
        <ele>40.542554</ele>
        <time>2022-10-22T23:28:35.465Z</time>
      </trkpt>
      <trkpt lat="52.234024" lon="12.987626">
        <ele>40.627663</ele>
        <time>2022-10-22T23:28:59.875Z</time>
      </trkpt>
      <trkpt lat="52.234029" lon="12.987488">
        <ele>40.653537</ele>
        <time>2022-10-22T23:29:08.349Z</time>
      </trkpt>
      <trkpt lat="52.234105" lon="12.987262">
        <ele>40.634014</ele>
        <time>2022-10-22T23:29:24.147Z</time>
      </trkpt>
      <trkpt lat="52.234141" lon="12.987125">
        <ele>40.622726</ele>
        <time>2022-10-22T23:29:33.361Z</time>
      </trkpt>
      <trkpt lat="52.234223" lon="12.986989">
        <ele>40.608275</ele>
        <time>2022-10-22T23:29:45.092Z</time>
      </trkpt>
      <trkpt lat="52.234589" lon="12.986008">
        <ele>40.521297</ele>
        <time>2022-10-22T23:30:55.996Z</time>
      </trkpt>
      <trkpt lat="52.234646" lon="12.986014">
        <ele>40.514235</ele>
        <time>2022-10-22T23:31:01.748Z</time>
      </trkpt>
      <trkpt lat="52.234714" lon="12.985741">
        <ele>40.491919</ele>
        <time>2022-10-22T23:31:19.847Z</time>
      </trkpt>
      <trkpt lat="52.234768" lon="12.985470">
        <ele>40.470341</ele>
        <time>2022-10-22T23:31:37.324Z</time>
      </trkpt>
      <trkpt lat="52.234853" lon="12.984968">
        <ele>40.431736</ele>
        <time>2022-10-22T23:32:09.328Z</time>
      </trkpt>
      <trkpt lat="52.234921" lon="12.984982">
        <ele>40.428908</ele>
        <time>2022-10-22T23:32:16.321Z</time>
      </trkpt>
      <trkpt lat="52.235063" lon="12.984072">
        <ele>40.405183</ele>
        <time>2022-10-22T23:33:14.191Z</time>
      </trkpt>
      <trkpt lat="52.235009" lon="12.984060">
        <ele>40.402935</ele>
        <time>2022-10-22T23:33:19.691Z</time>
      </trkpt>
      <trkpt lat="52.235071" lon="12.983642">
        <ele>40.392068</ele>
        <time>2022-10-22T23:33:46.122Z</time>
      </trkpt>
      <trkpt lat="52.235101" lon="12.983276">
        <ele>40.382739</ele>
        <time>2022-10-22T23:34:08.795Z</time>
      </trkpt>
      <trkpt lat="52.235144" lon="12.982737">
        <ele>40.369006</ele>
        <time>2022-10-22T23:34:42.341Z</time>
      </trkpt>
      <trkpt lat="52.235360" lon="12.980027">
        <ele>40.311426</ele>
        <time>2022-10-22T23:37:30.484Z</time>
      </trkpt>
      <trkpt lat="52.235401" lon="12.980037">
        <ele>40.310054</ele>
        <time>2022-10-22T23:37:34.710Z</time>
      </trkpt>
      <trkpt lat="52.235436" lon="12.979442">
        <ele>40.308900</ele>
        <time>2022-10-22T23:38:11.706Z</time>
      </trkpt>
      <trkpt lat="52.235452" lon="12.979078">
        <ele>40.469758</ele>
        <time>2022-10-22T23:38:34.509Z</time>
      </trkpt>
      <trkpt lat="52.235423" lon="12.978619">
        <ele>40.673151</ele>
        <time>2022-10-22T23:39:03.506Z</time>
      </trkpt>
      <trkpt lat="52.235349" lon="12.978635">
        <ele>40.726877</ele>
        <time>2022-10-22T23:39:11.165Z</time>
      </trkpt>
      <trkpt lat="52.235296" lon="12.978644">
        <ele>40.765229</ele>
        <time>2022-10-22T23:39:16.504Z</time>
      </trkpt>
      <trkpt lat="52.235264" lon="12.978556">
        <ele>40.810341</ele>
        <time>2022-10-22T23:39:22.961Z</time>
      </trkpt>
      <trkpt lat="52.235185" lon="12.978517">
        <ele>40.869742</ele>
        <time>2022-10-22T23:39:31.574Z</time>
      </trkpt>
      <trkpt lat="52.235198" lon="12.978441">
        <ele>40.904524</ele>
        <time>2022-10-22T23:39:36.649Z</time>
      </trkpt>
      <trkpt lat="52.235049" lon="12.978390">
        <ele>41.014097</ele>
        <time>2022-10-22T23:39:52.349Z</time>
      </trkpt>
      <trkpt lat="52.235030" lon="12.978381">
        <ele>41.028336</ele>
        <time>2022-10-22T23:39:54.388Z</time>
      </trkpt>
      <trkpt lat="52.234977" lon="12.978353">
        <ele>41.068429</ele>
        <time>2022-10-22T23:40:00.135Z</time>
      </trkpt>
      <trkpt lat="52.234342" lon="12.978150">
        <ele>41.534143</ele>
        <time>2022-10-22T23:41:07.750Z</time>
      </trkpt>
      <trkpt lat="52.233158" lon="12.977835">
        <ele>41.643469</ele>
        <time>2022-10-22T23:43:08.333Z</time>
      </trkpt>
      <trkpt lat="52.233118" lon="12.977827">
        <ele>41.645289</ele>
        <time>2022-10-22T23:43:12.380Z</time>
      </trkpt>
      <trkpt lat="52.232756" lon="12.977793">
        <ele>41.661665</ele>
        <time>2022-10-22T23:43:48.760Z</time>
      </trkpt>
      <trkpt lat="52.232692" lon="12.977789">
        <ele>41.664558</ele>
        <time>2022-10-22T23:43:55.321Z</time>
      </trkpt>
      <trkpt lat="52.232551" lon="12.977779">
        <ele>41.670932</ele>
        <time>2022-10-22T23:44:09.467Z</time>
      </trkpt>
      <trkpt lat="52.232348" lon="12.977763">
        <ele>41.566438</ele>
        <time>2022-10-22T23:44:29.993Z</time>
      </trkpt>
      <trkpt lat="52.232330" lon="12.977561">
        <ele>41.463216</ele>
        <time>2022-10-22T23:44:42.593Z</time>
      </trkpt>
      <trkpt lat="52.232260" lon="12.976767">
        <ele>41.057568</ele>
        <time>2022-10-22T23:45:32.509Z</time>
      </trkpt>
      <trkpt lat="52.232026" lon="12.974830">
        <ele>40.032469</ele>
        <time>2022-10-22T23:47:36.282Z</time>
      </trkpt>
      <trkpt lat="52.231816" lon="12.974675">
        <ele>39.803067</ele>
        <time>2022-10-22T23:47:59.714Z</time>
      </trkpt>
      <trkpt lat="52.231635" lon="12.974560">
        <ele>39.609737</ele>
        <time>2022-10-22T23:48:19.552Z</time>
      </trkpt>
      <trkpt lat="52.231347" lon="12.974475">
        <ele>39.318414</ele>
        <time>2022-10-22T23:48:49.501Z</time>
      </trkpt>
      <trkpt lat="52.231294" lon="12.974471">
        <ele>39.265601</ele>
        <time>2022-10-22T23:48:54.840Z</time>
      </trkpt>
      <trkpt lat="52.231035" lon="12.974455">
        <ele>39.007605</ele>
        <time>2022-10-22T23:49:21.414Z</time>
      </trkpt>
      <trkpt lat="52.230372" lon="12.974376">
        <ele>38.380607</ele>
        <time>2022-10-22T23:50:29.370Z</time>
      </trkpt>
      <trkpt lat="52.230341" lon="12.974371">
        <ele>38.369951</ele>
        <time>2022-10-22T23:50:32.586Z</time>
      </trkpt>
      <trkpt lat="52.230330" lon="12.974370">
        <ele>38.366182</ele>
        <time>2022-10-22T23:50:33.659Z</time>
      </trkpt>
      <trkpt lat="52.229735" lon="12.974311">
        <ele>38.162276</ele>
        <time>2022-10-22T23:51:34.185Z</time>
      </trkpt>
      <trkpt lat="52.229084" lon="12.974224">
        <ele>37.938844</ele>
        <time>2022-10-22T23:52:39.897Z</time>
      </trkpt>
      <trkpt lat="52.228616" lon="12.974171">
        <ele>37.789515</ele>
        <time>2022-10-22T23:53:26.961Z</time>
      </trkpt>
      <trkpt lat="52.228589" lon="12.974168">
        <ele>37.800291</ele>
        <time>2022-10-22T23:53:29.745Z</time>
      </trkpt>
      <trkpt lat="52.228312" lon="12.974145">
        <ele>37.910735</ele>
        <time>2022-10-22T23:53:57.707Z</time>
      </trkpt>
      <trkpt lat="52.228248" lon="12.974127">
        <ele>37.936595</ele>
        <time>2022-10-22T23:54:04.317Z</time>
      </trkpt>
      <trkpt lat="52.228052" lon="12.974030">
        <ele>38.018149</ele>
        <time>2022-10-22T23:54:25.248Z</time>
      </trkpt>
      <trkpt lat="52.227851" lon="12.973882">
        <ele>38.105951</ele>
        <time>2022-10-22T23:54:47.708Z</time>
      </trkpt>
      <trkpt lat="52.227093" lon="12.973377">
        <ele>38.431952</ele>
        <time>2022-10-22T23:56:11.097Z</time>
      </trkpt>
      <trkpt lat="52.226422" lon="12.972911">
        <ele>38.815155</ele>
        <time>2022-10-22T23:57:25.158Z</time>
      </trkpt>
      <trkpt lat="52.225832" lon="12.972518">
        <ele>39.174736</ele>
        <time>2022-10-22T23:58:30.218Z</time>
      </trkpt>
      <trkpt lat="52.225397" lon="12.972239">
        <ele>39.438469</ele>
        <time>2022-10-22T23:59:18.088Z</time>
      </trkpt>
      <trkpt lat="52.225054" lon="12.972034">
        <ele>39.663219</ele>
        <time>2022-10-22T23:59:55.552Z</time>
      </trkpt>
      <trkpt lat="52.224964" lon="12.971974">
        <ele>39.725948</ele>
        <time>2022-10-23T00:00:05.495Z</time>
      </trkpt>
      <trkpt lat="52.224153" lon="12.971433">
        <ele>40.291251</ele>
        <time>2022-10-23T00:01:35.659Z</time>
      </trkpt>
      <trkpt lat="52.223584" lon="12.971032">
        <ele>40.682080</ele>
        <time>2022-10-23T00:02:39.024Z</time>
      </trkpt>
      <trkpt lat="52.223037" lon="12.970693">
        <ele>40.843791</ele>
        <time>2022-10-23T00:03:37.995Z</time>
      </trkpt>
      <trkpt lat="52.222905" lon="12.970673">
        <ele>40.880431</ele>
        <time>2022-10-23T00:03:51.346Z</time>
      </trkpt>
      <trkpt lat="52.222854" lon="12.970682">
        <ele>40.894609</ele>
        <time>2022-10-23T00:03:56.473Z</time>
      </trkpt>
      <trkpt lat="52.222758" lon="12.970698">
        <ele>40.921280</ele>
        <time>2022-10-23T00:04:06.195Z</time>
      </trkpt>
      <trkpt lat="52.222637" lon="12.970759">
        <ele>40.956281</ele>
        <time>2022-10-23T00:04:18.855Z</time>
      </trkpt>
      <trkpt lat="52.222411" lon="12.970993">
        <ele>41.030249</ele>
        <time>2022-10-23T00:04:45.832Z</time>
      </trkpt>
      <trkpt lat="52.222238" lon="12.971308">
        <ele>41.101878</ele>
        <time>2022-10-23T00:05:11.906Z</time>
      </trkpt>
      <trkpt lat="52.222203" lon="12.971478">
        <ele>41.132243</ele>
        <time>2022-10-23T00:05:23.001Z</time>
      </trkpt>
      <trkpt lat="52.222183" lon="12.971846">
        <ele>41.267352</ele>
        <time>2022-10-23T00:05:45.829Z</time>
      </trkpt>
      <trkpt lat="52.221605" lon="12.971774">
        <ele>41.946648</ele>
        <time>2022-10-23T00:06:44.833Z</time>
      </trkpt>
      <trkpt lat="52.218640" lon="12.971670">
        <ele>46.164015</ele>
        <time>2022-10-23T00:11:59.137Z</time>
      </trkpt>
      <trkpt lat="52.217662" lon="12.971679">
        <ele>46.941984</ele>
        <time>2022-10-23T00:13:40.887Z</time>
      </trkpt>
      <trkpt lat="52.215849" lon="12.971576">
        <ele>47.964255</ele>
        <time>2022-10-23T00:16:43.926Z</time>
      </trkpt>
      <trkpt lat="52.213491" lon="12.971498">
        <ele>49.222008</ele>
        <time>2022-10-23T00:20:44.938Z</time>
      </trkpt>
      <trkpt lat="52.209584" lon="12.971350">
        <ele>51.939336</ele>
        <time>2022-10-23T00:27:25.407Z</time>
      </trkpt>
      <trkpt lat="52.208309" lon="12.971334">
        <ele>53.235200</ele>
        <time>2022-10-23T00:29:38.526Z</time>
      </trkpt>
      <trkpt lat="52.207555" lon="12.971117">
        <ele>53.386973</ele>
        <time>2022-10-23T00:30:57.654Z</time>
      </trkpt>
      <trkpt lat="52.207068" lon="12.971094">
        <ele>52.975432</ele>
        <time>2022-10-23T00:31:46.573Z</time>
      </trkpt>
      <trkpt lat="52.206577" lon="12.971362">
        <ele>52.538097</ele>
        <time>2022-10-23T00:32:39.643Z</time>
      </trkpt>
      <trkpt lat="52.205942" lon="12.971783">
        <ele>51.604158</ele>
        <time>2022-10-23T00:33:51.702Z</time>
      </trkpt>
      <trkpt lat="52.204630" lon="12.972499">
        <ele>48.284363</ele>
        <time>2022-10-23T00:36:18.214Z</time>
      </trkpt>
      <trkpt lat="52.204466" lon="12.972690">
        <ele>47.823746</ele>
        <time>2022-10-23T00:36:39.288Z</time>
      </trkpt>
      <trkpt lat="52.202905" lon="12.973689">
        <ele>46.436930</ele>
        <time>2022-10-23T00:39:29.251Z</time>
      </trkpt>
      <trkpt lat="52.201906" lon="12.968381">
        <ele>45.407055</ele>
        <time>2022-10-23T00:45:11.659Z</time>
      </trkpt>
      <trkpt lat="52.201716" lon="12.967611">
        <ele>45.237712</ele>
        <time>2022-10-23T00:46:03.137Z</time>
      </trkpt>
      <trkpt lat="52.201110" lon="12.964603">
        <ele>44.504998</ele>
        <time>2022-10-23T00:49:18.762Z</time>
      </trkpt>
      <trkpt lat="52.200933" lon="12.963767">
        <ele>44.318295</ele>
        <time>2022-10-23T00:50:13.401Z</time>
      </trkpt>
      <trkpt lat="52.200774" lon="12.963281">
        <ele>44.202004</ele>
        <time>2022-10-23T00:50:47.421Z</time>
      </trkpt>
      <trkpt lat="52.200721" lon="12.963216">
        <ele>44.179168</ele>
        <time>2022-10-23T00:50:54.099Z</time>
      </trkpt>
      <trkpt lat="52.200446" lon="12.962934">
        <ele>44.067301</ele>
        <time>2022-10-23T00:51:26.843Z</time>
      </trkpt>
      <trkpt lat="52.200217" lon="12.962823">
        <ele>43.979726</ele>
        <time>2022-10-23T00:51:50.851Z</time>
      </trkpt>
      <trkpt lat="52.200019" lon="12.962673">
        <ele>43.885351</ele>
        <time>2022-10-23T00:52:12.887Z</time>
      </trkpt>
      <trkpt lat="52.199969" lon="12.962604">
        <ele>43.857040</ele>
        <time>2022-10-23T00:52:19.478Z</time>
      </trkpt>
      <trkpt lat="52.199920" lon="12.962269">
        <ele>43.765783</ele>
        <time>2022-10-23T00:52:40.781Z</time>
      </trkpt>
      <trkpt lat="52.198459" lon="12.962850">
        <ele>43.131104</ele>
        <time>2022-10-23T00:55:12.797Z</time>
      </trkpt>
      <trkpt lat="52.197498" lon="12.963248">
        <ele>42.761230</ele>
        <time>2022-10-23T00:56:52.774Z</time>
      </trkpt>
      <trkpt lat="52.196827" lon="12.963441">
        <ele>42.511776</ele>
        <time>2022-10-23T00:58:01.418Z</time>
      </trkpt>
      <trkpt lat="52.196638" lon="12.963486">
        <ele>42.447236</ele>
        <time>2022-10-23T00:58:20.593Z</time>
      </trkpt>
      <trkpt lat="52.195830" lon="12.963630">
        <ele>42.172584</ele>
        <time>2022-10-23T00:59:42.498Z</time>
      </trkpt>
      <trkpt lat="52.195077" lon="12.963690">
        <ele>41.922900</ele>
        <time>2022-10-23T01:00:58.575Z</time>
      </trkpt>
      <trkpt lat="52.194746" lon="12.963707">
        <ele>41.828927</ele>
        <time>2022-10-23T01:01:31.947Z</time>
      </trkpt>
      <trkpt lat="52.193949" lon="12.963650">
        <ele>41.602547</ele>
        <time>2022-10-23T01:02:52.451Z</time>
      </trkpt>
      <trkpt lat="52.193847" lon="12.963674">
        <ele>41.573303</ele>
        <time>2022-10-23T01:03:02.849Z</time>
      </trkpt>
      <trkpt lat="52.193780" lon="12.963509">
        <ele>41.538876</ele>
        <time>2022-10-23T01:03:15.041Z</time>
      </trkpt>
      <trkpt lat="52.193666" lon="12.962972">
        <ele>41.440023</ele>
        <time>2022-10-23T01:03:50.030Z</time>
      </trkpt>
      <trkpt lat="52.193492" lon="12.961790">
        <ele>41.982777</ele>
        <time>2022-10-23T01:05:05.147Z</time>
      </trkpt>
      <trkpt lat="52.192771" lon="12.958425">
        <ele>43.601991</ele>
        <time>2022-10-23T01:08:52.972Z</time>
      </trkpt>
      <trkpt lat="52.192046" lon="12.957332">
        <ele>43.870213</ele>
        <time>2022-10-23T01:10:32.782Z</time>
      </trkpt>
      <trkpt lat="52.191241" lon="12.955995">
        <ele>43.023028</ele>
        <time>2022-10-23T01:12:30.348Z</time>
      </trkpt>
      <trkpt lat="52.190510" lon="12.954638">
        <ele>42.400353</ele>
        <time>2022-10-23T01:14:23.394Z</time>
      </trkpt>
      <trkpt lat="52.190068" lon="12.953778">
        <ele>42.065358</ele>
        <time>2022-10-23T01:15:32.530Z</time>
      </trkpt>
      <trkpt lat="52.189969" lon="12.953475">
        <ele>41.962867</ele>
        <time>2022-10-23T01:15:53.618Z</time>
      </trkpt>
      <trkpt lat="52.189904" lon="12.953197">
        <ele>41.894255</ele>
        <time>2022-10-23T01:16:11.897Z</time>
      </trkpt>
      <trkpt lat="52.189830" lon="12.952680">
        <ele>41.852016</ele>
        <time>2022-10-23T01:16:44.774Z</time>
      </trkpt>
      <trkpt lat="52.189161" lon="12.949622">
        <ele>41.490442</ele>
        <time>2022-10-23T01:20:04.730Z</time>
      </trkpt>
      <trkpt lat="52.189113" lon="12.949236">
        <ele>41.415665</ele>
        <time>2022-10-23T01:20:29.202Z</time>
      </trkpt>
      <trkpt lat="52.189086" lon="12.949072">
        <ele>41.383425</ele>
        <time>2022-10-23T01:20:39.703Z</time>
      </trkpt>
      <trkpt lat="52.188992" lon="12.948635">
        <ele>41.295499</ele>
        <time>2022-10-23T01:21:08.442Z</time>
      </trkpt>
      <trkpt lat="52.187744" lon="12.942839">
        <ele>40.242209</ele>
        <time>2022-10-23T01:27:27.644Z</time>
      </trkpt>
      <trkpt lat="52.186708" lon="12.937934">
        <ele>40.522414</ele>
        <time>2022-10-23T01:32:46.644Z</time>
      </trkpt>
      <trkpt lat="52.185512" lon="12.932744">
        <ele>41.905696</ele>
        <time>2022-10-23T01:38:33.334Z</time>
      </trkpt>
      <trkpt lat="52.185456" lon="12.932441">
        <ele>41.939571</ele>
        <time>2022-10-23T01:38:52.765Z</time>
      </trkpt>
      <trkpt lat="52.185446" lon="12.932388">
        <ele>41.945506</ele>
        <time>2022-10-23T01:38:56.206Z</time>
      </trkpt>
      <trkpt lat="52.185305" lon="12.931649">
        <ele>42.028351</ele>
        <time>2022-10-23T01:39:43.770Z</time>
      </trkpt>
      <trkpt lat="52.185227" lon="12.931230">
        <ele>42.075223</ele>
        <time>2022-10-23T01:40:10.627Z</time>
      </trkpt>
      <trkpt lat="52.185236" lon="12.930913">
        <ele>42.098213</ele>
        <time>2022-10-23T01:40:30.189Z</time>
      </trkpt>
      <trkpt lat="52.185250" lon="12.930654">
        <ele>42.111991</ele>
        <time>2022-10-23T01:40:46.168Z</time>
      </trkpt>
      <trkpt lat="52.185251" lon="12.930551">
        <ele>42.117450</ele>
        <time>2022-10-23T01:40:52.513Z</time>
      </trkpt>
      <trkpt lat="52.185176" lon="12.929980">
        <ele>42.148395</ele>
        <time>2022-10-23T01:41:28.425Z</time>
      </trkpt>
      <trkpt lat="52.184903" lon="12.928252">
        <ele>42.243022</ele>
        <time>2022-10-23T01:43:18.730Z</time>
      </trkpt>
      <trkpt lat="52.184706" lon="12.927005">
        <ele>42.400456</ele>
        <time>2022-10-23T01:44:38.704Z</time>
      </trkpt>
      <trkpt lat="52.183430" lon="12.927563">
        <ele>42.917659</ele>
        <time>2022-10-23T01:46:50.996Z</time>
      </trkpt>
      <trkpt lat="52.182157" lon="12.928129">
        <ele>44.252200</ele>
        <time>2022-10-23T01:49:08.151Z</time>
      </trkpt>
      <trkpt lat="52.181836" lon="12.928225">
        <ele>44.698979</ele>
        <time>2022-10-23T01:49:43.134Z</time>
      </trkpt>
      <trkpt lat="52.181339" lon="12.928227">
        <ele>45.564855</ele>
        <time>2022-10-23T01:50:37.127Z</time>
      </trkpt>
      <trkpt lat="52.181149" lon="12.928231">
        <ele>45.895901</ele>
        <time>2022-10-23T01:50:57.917Z</time>
      </trkpt>
      <trkpt lat="52.179421" lon="12.928377">
        <ele>47.350095</ele>
        <time>2022-10-23T01:53:59.488Z</time>
      </trkpt>
      <trkpt lat="52.178401" lon="12.928422">
        <ele>47.082220</ele>
        <time>2022-10-23T01:55:44.555Z</time>
      </trkpt>
      <trkpt lat="52.178192" lon="12.928362">
        <ele>46.832062</ele>
        <time>2022-10-23T01:56:06.594Z</time>
      </trkpt>
      <trkpt lat="52.178119" lon="12.928344">
        <ele>46.745031</ele>
        <time>2022-10-23T01:56:14.221Z</time>
      </trkpt>
      <trkpt lat="52.177845" lon="12.928284">
        <ele>46.419139</ele>
        <time>2022-10-23T01:56:42.995Z</time>
      </trkpt>
      <trkpt lat="52.177389" lon="12.928313">
        <ele>45.881195</ele>
        <time>2022-10-23T01:57:30.302Z</time>
      </trkpt>
      <trkpt lat="52.176671" lon="12.928276">
        <ele>45.034390</ele>
        <time>2022-10-23T01:58:43.601Z</time>
      </trkpt>
      <trkpt lat="52.175599" lon="12.928132">
        <ele>45.108123</ele>
        <time>2022-10-23T02:00:32.796Z</time>
      </trkpt>
      <trkpt lat="52.175176" lon="12.928136">
        <ele>45.169021</ele>
        <time>2022-10-23T02:01:15.648Z</time>
      </trkpt>
      <trkpt lat="52.174712" lon="12.928181">
        <ele>45.181970</ele>
        <time>2022-10-23T02:02:02.323Z</time>
      </trkpt>
      <trkpt lat="52.174284" lon="12.928313">
        <ele>45.017531</ele>
        <time>2022-10-23T02:02:45.959Z</time>
      </trkpt>
      <trkpt lat="52.173890" lon="12.928331">
        <ele>44.868734</ele>
        <time>2022-10-23T02:03:25.720Z</time>
      </trkpt>
      <trkpt lat="52.173637" lon="12.928407">
        <ele>44.771617</ele>
        <time>2022-10-23T02:03:51.641Z</time>
      </trkpt>
      <trkpt lat="52.173341" lon="12.928539">
        <ele>44.655770</ele>
        <time>2022-10-23T02:04:22.647Z</time>
      </trkpt>
      <trkpt lat="52.173242" lon="12.928522">
        <ele>44.618190</ele>
        <time>2022-10-23T02:04:32.834Z</time>
      </trkpt>
      <trkpt lat="52.173069" lon="12.928397">
        <ele>44.546756</ele>
        <time>2022-10-23T02:04:52.114Z</time>
      </trkpt>
      <trkpt lat="52.172888" lon="12.928209">
        <ele>44.389639</ele>
        <time>2022-10-23T02:05:13.978Z</time>
      </trkpt>
      <trkpt lat="52.172718" lon="12.928159">
        <ele>44.259375</ele>
        <time>2022-10-23T02:05:31.645Z</time>
      </trkpt>
      <trkpt lat="52.172578" lon="12.928163">
        <ele>44.153787</ele>
        <time>2022-10-23T02:05:45.984Z</time>
      </trkpt>
      <trkpt lat="52.172464" lon="12.928674">
        <ele>43.902315</ele>
        <time>2022-10-23T02:06:20.079Z</time>
      </trkpt>
      <trkpt lat="52.172320" lon="12.929314">
        <ele>43.587042</ele>
        <time>2022-10-23T02:07:02.683Z</time>
      </trkpt>
      <trkpt lat="52.172299" lon="12.929399">
        <ele>43.544662</ele>
        <time>2022-10-23T02:07:08.383Z</time>
      </trkpt>
      <trkpt lat="52.171441" lon="12.928804">
        <ele>43.074399</ele>
        <time>2022-10-23T02:08:42.319Z</time>
      </trkpt>
      <trkpt lat="52.170515" lon="12.928475">
        <ele>42.843252</ele>
        <time>2022-10-23T02:10:17.622Z</time>
      </trkpt>
      <trkpt lat="52.170537" lon="12.928316">
        <ele>42.818871</ele>
        <time>2022-10-23T02:10:27.617Z</time>
      </trkpt>
      <trkpt lat="52.170639" lon="12.927565">
        <ele>42.749839</ele>
        <time>2022-10-23T02:11:15.039Z</time>
      </trkpt>
      <trkpt lat="52.170690" lon="12.927170">
        <ele>42.753778</ele>
        <time>2022-10-23T02:11:39.885Z</time>
      </trkpt>
      <trkpt lat="52.170654" lon="12.926974">
        <ele>42.755774</ele>
        <time>2022-10-23T02:11:52.467Z</time>
      </trkpt>
      <trkpt lat="52.170555" lon="12.926747">
        <ele>42.758491</ele>
        <time>2022-10-23T02:12:09.702Z</time>
      </trkpt>
      <trkpt lat="52.169902" lon="12.926041">
        <ele>42.770955</ele>
        <time>2022-10-23T02:13:28.135Z</time>
      </trkpt>
      <trkpt lat="52.169469" lon="12.925527">
        <ele>43.146503</ele>
        <time>2022-10-23T02:14:22.196Z</time>
      </trkpt>
      <trkpt lat="52.169290" lon="12.925158">
        <ele>43.589578</ele>
        <time>2022-10-23T02:14:51.613Z</time>
      </trkpt>
      <trkpt lat="52.169013" lon="12.924823">
        <ele>44.119156</ele>
        <time>2022-10-23T02:15:27.469Z</time>
      </trkpt>
      <trkpt lat="52.167966" lon="12.923699">
        <ele>46.316414</ele>
        <time>2022-10-23T02:17:43.497Z</time>
      </trkpt>
      <trkpt lat="52.166888" lon="12.922627">
        <ele>49.297734</ele>
        <time>2022-10-23T02:20:01.765Z</time>
      </trkpt>
      <trkpt lat="52.165892" lon="12.921467">
        <ele>50.044050</ele>
        <time>2022-10-23T02:22:10.003Z</time>
      </trkpt>
      <trkpt lat="52.165509" lon="12.921136">
        <ele>50.154698</ele>
        <time>2022-10-23T02:22:53.997Z</time>
      </trkpt>
      <trkpt lat="52.164510" lon="12.921532">
        <ele>48.745214</ele>
        <time>2022-10-23T02:24:40.861Z</time>
      </trkpt>
      <trkpt lat="52.164401" lon="12.921598">
        <ele>48.489405</ele>
        <time>2022-10-23T02:24:53.141Z</time>
      </trkpt>
      <trkpt lat="52.164287" lon="12.921672">
        <ele>48.219452</ele>
        <time>2022-10-23T02:25:06.029Z</time>
      </trkpt>
      <trkpt lat="52.163079" lon="12.922314">
        <ele>45.686127</ele>
        <time>2022-10-23T02:27:19.961Z</time>
      </trkpt>
      <trkpt lat="52.162210" lon="12.922779">
        <ele>44.285389</ele>
        <time>2022-10-23T02:28:54.516Z</time>
      </trkpt>
      <trkpt lat="52.161843" lon="12.922918">
        <ele>43.708357</ele>
        <time>2022-10-23T02:29:32.844Z</time>
      </trkpt>
      <trkpt lat="52.161413" lon="12.923079">
        <ele>43.549987</ele>
        <time>2022-10-23T02:30:17.326Z</time>
      </trkpt>
      <trkpt lat="52.161329" lon="12.923204">
        <ele>43.556399</ele>
        <time>2022-10-23T02:30:28.697Z</time>
      </trkpt>
      <trkpt lat="52.160995" lon="12.923389">
        <ele>43.576283</ele>
        <time>2022-10-23T02:31:04.242Z</time>
      </trkpt>
      <trkpt lat="52.160290" lon="12.923718">
        <ele>43.617620</ele>
        <time>2022-10-23T02:32:18.400Z</time>
      </trkpt>
      <trkpt lat="52.160206" lon="12.923769">
        <ele>43.622673</ele>
        <time>2022-10-23T02:32:27.488Z</time>
      </trkpt>
      <trkpt lat="52.160167" lon="12.923841">
        <ele>43.625994</ele>
        <time>2022-10-23T02:32:33.453Z</time>
      </trkpt>
      <trkpt lat="52.159843" lon="12.924675">
        <ele>43.854699</ele>
        <time>2022-10-23T02:33:34.830Z</time>
      </trkpt>
      <trkpt lat="52.159367" lon="12.924857">
        <ele>44.079986</ele>
        <time>2022-10-23T02:34:24.601Z</time>
      </trkpt>
      <trkpt lat="52.158841" lon="12.925113">
        <ele>44.332931</ele>
        <time>2022-10-23T02:35:20.995Z</time>
      </trkpt>
      <trkpt lat="52.158622" lon="12.925254">
        <ele>44.441429</ele>
        <time>2022-10-23T02:35:45.044Z</time>
      </trkpt>
      <trkpt lat="52.157550" lon="12.926024">
        <ele>44.560283</ele>
        <time>2022-10-23T02:37:42.790Z</time>
      </trkpt>
      <trkpt lat="52.157103" lon="12.926301">
        <ele>44.602063</ele>
        <time>2022-10-23T02:38:30.709Z</time>
      </trkpt>
      <trkpt lat="52.156657" lon="12.926578">
        <ele>44.662856</ele>
        <time>2022-10-23T02:39:18.606Z</time>
      </trkpt>
      <trkpt lat="52.156491" lon="12.926629">
        <ele>44.688968</ele>
        <time>2022-10-23T02:39:35.615Z</time>
      </trkpt>
      <trkpt lat="52.156225" lon="12.926712">
        <ele>44.730832</ele>
        <time>2022-10-23T02:40:02.941Z</time>
      </trkpt>
      <trkpt lat="52.155925" lon="12.926680">
        <ele>44.777304</ele>
        <time>2022-10-23T02:40:33.170Z</time>
      </trkpt>
      <trkpt lat="52.155922" lon="12.926585">
        <ele>44.786325</ele>
        <time>2022-10-23T02:40:39.053Z</time>
      </trkpt>
      <trkpt lat="52.153329" lon="12.926442">
        <ele>46.856660</ele>
        <time>2022-10-23T02:45:05.936Z</time>
      </trkpt>
      <trkpt lat="52.152563" lon="12.926176">
        <ele>48.772891</ele>
        <time>2022-10-23T02:46:31.463Z</time>
      </trkpt>
      <trkpt lat="52.152523" lon="12.926389">
        <ele>49.107287</ele>
        <time>2022-10-23T02:46:46.469Z</time>
      </trkpt>
      <trkpt lat="52.152341" lon="12.926751">
        <ele>49.809861</ele>
        <time>2022-10-23T02:47:18.444Z</time>
      </trkpt>
      <trkpt lat="52.151019" lon="12.928603">
        <ele>53.636778</ele>
        <time>2022-10-23T02:50:29.440Z</time>
      </trkpt>
      <trkpt lat="52.150470" lon="12.929479">
        <ele>54.806483</ele>
        <time>2022-10-23T02:51:49.482Z</time>
      </trkpt>
      <trkpt lat="52.149770" lon="12.930890">
        <ele>54.719715</ele>
        <time>2022-10-23T02:53:41.439Z</time>
      </trkpt>
      <trkpt lat="52.149284" lon="12.932034">
        <ele>54.602318</ele>
        <time>2022-10-23T02:55:08.110Z</time>
      </trkpt>
      <trkpt lat="52.146684" lon="12.938184">
        <ele>53.763470</ele>
        <time>2022-10-23T03:02:48.223Z</time>
      </trkpt>
      <trkpt lat="52.146603" lon="12.938431">
        <ele>53.745267</ele>
        <time>2022-10-23T03:03:05.421Z</time>
      </trkpt>
      <trkpt lat="52.146374" lon="12.939135">
        <ele>53.804252</ele>
        <time>2022-10-23T03:03:54.423Z</time>
      </trkpt>
      <trkpt lat="52.146225" lon="12.939876">
        <ele>53.997291</ele>
        <time>2022-10-23T03:04:42.422Z</time>
      </trkpt>
      <trkpt lat="52.145893" lon="12.942252">
        <ele>54.674109</ele>
        <time>2022-10-23T03:07:15.374Z</time>
      </trkpt>
      <trkpt lat="52.145460" lon="12.944118">
        <ele>55.397301</ele>
        <time>2022-10-23T03:09:21.112Z</time>
      </trkpt>
      <trkpt lat="52.145388" lon="12.944545">
        <ele>55.488613</ele>
        <time>2022-10-23T03:09:48.728Z</time>
      </trkpt>
      <trkpt lat="52.144997" lon="12.947964">
        <ele>54.297046</ele>
        <time>2022-10-23T03:13:23.375Z</time>
      </trkpt>
      <trkpt lat="52.144754" lon="12.948138">
        <ele>53.743863</ele>
        <time>2022-10-23T03:13:50.879Z</time>
      </trkpt>
      <trkpt lat="52.144131" lon="12.948707">
        <ele>52.255410</ele>
        <time>2022-10-23T03:15:06.694Z</time>
      </trkpt>
      <trkpt lat="52.143680" lon="12.949289">
        <ele>50.956848</ele>
        <time>2022-10-23T03:16:07.812Z</time>
      </trkpt>
      <trkpt lat="52.143166" lon="12.950085">
        <ele>49.090775</ele>
        <time>2022-10-23T03:17:23.027Z</time>
      </trkpt>
      <trkpt lat="52.142903" lon="12.949943">
        <ele>48.361658</ele>
        <time>2022-10-23T03:17:52.525Z</time>
      </trkpt>
      <trkpt lat="52.142807" lon="12.949806">
        <ele>48.025834</ele>
        <time>2022-10-23T03:18:05.994Z</time>
      </trkpt>
      <trkpt lat="52.142592" lon="12.949119">
        <ele>46.780387</ele>
        <time>2022-10-23T03:18:55.834Z</time>
      </trkpt>
      <trkpt lat="52.142485" lon="12.948918">
        <ele>46.597533</ele>
        <time>2022-10-23T03:19:12.929Z</time>
      </trkpt>
      <trkpt lat="52.142411" lon="12.948861">
        <ele>46.533432</ele>
        <time>2022-10-23T03:19:21.333Z</time>
      </trkpt>
      <trkpt lat="52.141304" lon="12.948932">
        <ele>45.665827</ele>
        <time>2022-10-23T03:21:13.391Z</time>
      </trkpt>
      <trkpt lat="52.141063" lon="12.948862">
        <ele>45.474116</ele>
        <time>2022-10-23T03:21:38.141Z</time>
      </trkpt>
      <trkpt lat="52.140975" lon="12.948765">
        <ele>45.390912</ele>
        <time>2022-10-23T03:21:48.793Z</time>
      </trkpt>
      <trkpt lat="52.140313" lon="12.947777">
        <ele>45.317133</ele>
        <time>2022-10-23T03:23:18.947Z</time>
      </trkpt>
      <trkpt lat="52.140251" lon="12.947628">
        <ele>45.320504</ele>
        <time>2022-10-23T03:23:30.089Z</time>
      </trkpt>
      <trkpt lat="52.140116" lon="12.947152">
        <ele>45.330321</ele>
        <time>2022-10-23T03:24:02.663Z</time>
      </trkpt>
      <trkpt lat="52.139737" lon="12.945457">
        <ele>45.320519</ele>
        <time>2022-10-23T03:25:54.471Z</time>
      </trkpt>
      <trkpt lat="52.139668" lon="12.944883">
        <ele>45.301048</ele>
        <time>2022-10-23T03:26:30.431Z</time>
      </trkpt>
      <trkpt lat="52.139678" lon="12.944218">
        <ele>45.278904</ele>
        <time>2022-10-23T03:27:11.542Z</time>
      </trkpt>
      <trkpt lat="52.139550" lon="12.941943">
        <ele>45.416048</ele>
        <time>2022-10-23T03:29:32.629Z</time>
      </trkpt>
      <trkpt lat="52.139551" lon="12.941416">
        <ele>45.476428</ele>
        <time>2022-10-23T03:30:05.200Z</time>
      </trkpt>
      <trkpt lat="52.139595" lon="12.940819">
        <ele>45.545318</ele>
        <time>2022-10-23T03:30:42.768Z</time>
      </trkpt>
      <trkpt lat="52.139668" lon="12.940259">
        <ele>45.757806</ele>
        <time>2022-10-23T03:31:18.986Z</time>
      </trkpt>
      <trkpt lat="52.139731" lon="12.939953">
        <ele>46.018403</ele>
        <time>2022-10-23T03:31:39.560Z</time>
      </trkpt>
      <trkpt lat="52.140496" lon="12.936502">
        <ele>48.512044</ele>
        <time>2022-10-23T03:35:36.993Z</time>
      </trkpt>
      <trkpt lat="52.140586" lon="12.936013">
        <ele>48.736245</ele>
        <time>2022-10-23T03:36:09.116Z</time>
      </trkpt>
      <trkpt lat="52.139899" lon="12.933116">
        <ele>49.016833</ele>
        <time>2022-10-23T03:39:20.623Z</time>
      </trkpt>
      <trkpt lat="52.139499" lon="12.931789">
        <ele>48.937425</ele>
        <time>2022-10-23T03:40:51.840Z</time>
      </trkpt>
      <trkpt lat="52.139320" lon="12.930896">
        <ele>48.995361</ele>
        <time>2022-10-23T03:41:49.903Z</time>
      </trkpt>
      <trkpt lat="52.139199" lon="12.929858">
        <ele>49.060520</ele>
        <time>2022-10-23T03:42:55.600Z</time>
      </trkpt>
      <trkpt lat="52.139172" lon="12.928891">
        <ele>49.051071</ele>
        <time>2022-10-23T03:43:55.177Z</time>
      </trkpt>
      <trkpt lat="52.139182" lon="12.928537">
        <ele>49.027550</ele>
        <time>2022-10-23T03:44:16.965Z</time>
      </trkpt>
      <trkpt lat="52.139250" lon="12.928144">
        <ele>49.000448</ele>
        <time>2022-10-23T03:44:42.177Z</time>
      </trkpt>
      <trkpt lat="52.139428" lon="12.927178">
        <ele>48.933505</ele>
        <time>2022-10-23T03:45:44.497Z</time>
      </trkpt>
      <trkpt lat="52.139408" lon="12.926890">
        <ele>48.914268</ele>
        <time>2022-10-23T03:46:02.431Z</time>
      </trkpt>
      <trkpt lat="52.139008" lon="12.925301">
        <ele>48.891025</ele>
        <time>2022-10-23T03:47:47.962Z</time>
      </trkpt>
      <trkpt lat="52.138520" lon="12.923902">
        <ele>48.876785</ele>
        <time>2022-10-23T03:49:27.507Z</time>
      </trkpt>
      <trkpt lat="52.138334" lon="12.923254">
        <ele>48.740236</ele>
        <time>2022-10-23T03:50:11.771Z</time>
      </trkpt>
      <trkpt lat="52.138266" lon="12.922940">
        <ele>48.676678</ele>
        <time>2022-10-23T03:50:32.468Z</time>
      </trkpt>
      <trkpt lat="52.138204" lon="12.922397">
        <ele>48.571251</ele>
        <time>2022-10-23T03:51:06.639Z</time>
      </trkpt>
      <trkpt lat="52.137801" lon="12.922486">
        <ele>48.444771</ele>
        <time>2022-10-23T03:51:47.595Z</time>
      </trkpt>
      <trkpt lat="52.137670" lon="12.922462">
        <ele>48.403772</ele>
        <time>2022-10-23T03:52:00.938Z</time>
      </trkpt>
      <trkpt lat="52.137417" lon="12.922329">
        <ele>48.322372</ele>
        <time>2022-10-23T03:52:27.703Z</time>
      </trkpt>
      <trkpt lat="52.136999" lon="12.922206">
        <ele>48.208982</ele>
        <time>2022-10-23T03:53:10.631Z</time>
      </trkpt>
      <trkpt lat="52.136908" lon="12.922176">
        <ele>48.184198</ele>
        <time>2022-10-23T03:53:20.035Z</time>
      </trkpt>
      <trkpt lat="52.136800" lon="12.922157">
        <ele>48.155200</ele>
        <time>2022-10-23T03:53:30.989Z</time>
      </trkpt>
      <trkpt lat="52.136691" lon="12.922184">
        <ele>48.125768</ele>
        <time>2022-10-23T03:53:42.192Z</time>
      </trkpt>
      <trkpt lat="52.136416" lon="12.922289">
        <ele>48.050369</ele>
        <time>2022-10-23T03:54:10.796Z</time>
      </trkpt>
      <trkpt lat="52.136105" lon="12.922306">
        <ele>47.967302</ele>
        <time>2022-10-23T03:54:41.961Z</time>
      </trkpt>
      <trkpt lat="52.133936" lon="12.921883">
        <ele>47.777826</ele>
        <time>2022-10-23T03:58:21.375Z</time>
      </trkpt>
      <trkpt lat="52.132670" lon="12.920000">
        <ele>46.673917</ele>
        <time>2022-10-23T04:01:15.829Z</time>
      </trkpt>
      <trkpt lat="52.132157" lon="12.919148">
        <ele>46.455946</ele>
        <time>2022-10-23T04:02:30.108Z</time>
      </trkpt>
      <trkpt lat="52.130374" lon="12.917521">
        <ele>46.286429</ele>
        <time>2022-10-23T04:05:54.827Z</time>
      </trkpt>
      <trkpt lat="52.130205" lon="12.917297">
        <ele>46.308858</ele>
        <time>2022-10-23T04:06:16.698Z</time>
      </trkpt>
      <trkpt lat="52.130071" lon="12.916941">
        <ele>46.335249</ele>
        <time>2022-10-23T04:06:42.361Z</time>
      </trkpt>
      <trkpt lat="52.129431" lon="12.914330">
        <ele>46.878929</ele>
        <time>2022-10-23T04:09:37.029Z</time>
      </trkpt>
      <trkpt lat="52.129341" lon="12.913767">
        <ele>47.021026</ele>
        <time>2022-10-23T04:10:13.530Z</time>
      </trkpt>
      <trkpt lat="52.129293" lon="12.913008">
        <ele>47.183038</ele>
        <time>2022-10-23T04:11:01.583Z</time>
      </trkpt>
      <trkpt lat="52.129037" lon="12.906663">
        <ele>48.150214</ele>
        <time>2022-10-23T04:17:35.356Z</time>
      </trkpt>
      <trkpt lat="52.128954" lon="12.905004">
        <ele>48.304141</ele>
        <time>2022-10-23T04:19:17.824Z</time>
      </trkpt>
      <trkpt lat="52.128908" lon="12.904486">
        <ele>48.381603</ele>
        <time>2022-10-23T04:19:50.129Z</time>
      </trkpt>
      <trkpt lat="52.128914" lon="12.904204">
        <ele>48.450147</ele>
        <time>2022-10-23T04:20:07.567Z</time>
      </trkpt>
      <trkpt lat="52.128937" lon="12.904074">
        <ele>48.483012</ele>
        <time>2022-10-23T04:20:15.925Z</time>
      </trkpt>
      <trkpt lat="52.128983" lon="12.903941">
        <ele>48.520095</ele>
        <time>2022-10-23T04:20:25.330Z</time>
      </trkpt>
      <trkpt lat="52.129356" lon="12.902487">
        <ele>48.902898</ele>
        <time>2022-10-23T04:22:03.829Z</time>
      </trkpt>
      <trkpt lat="52.129745" lon="12.900815">
        <ele>49.369284</ele>
        <time>2022-10-23T04:23:55.985Z</time>
      </trkpt>
      <trkpt lat="52.129487" lon="12.900353">
        <ele>49.537714</ele>
        <time>2022-10-23T04:24:34.930Z</time>
      </trkpt>
      <trkpt lat="52.129092" lon="12.899897">
        <ele>49.750395</ele>
        <time>2022-10-23T04:25:24.039Z</time>
      </trkpt>
      <trkpt lat="52.128529" lon="12.899285">
        <ele>49.858701</ele>
        <time>2022-10-23T04:26:32.392Z</time>
      </trkpt>
      <trkpt lat="52.127929" lon="12.898754">
        <ele>49.890151</ele>
        <time>2022-10-23T04:27:41.069Z</time>
      </trkpt>
      <trkpt lat="52.127337" lon="12.898173">
        <ele>49.914363</ele>
        <time>2022-10-23T04:28:50.644Z</time>
      </trkpt>
      <trkpt lat="52.127192" lon="12.897966">
        <ele>49.897023</ele>
        <time>2022-10-23T04:29:10.038Z</time>
      </trkpt>
      <trkpt lat="52.126831" lon="12.897447">
        <ele>49.853719</ele>
        <time>2022-10-23T04:29:58.546Z</time>
      </trkpt>
      <trkpt lat="52.126701" lon="12.897129">
        <ele>49.832625</ele>
        <time>2022-10-23T04:30:22.088Z</time>
      </trkpt>
      <trkpt lat="52.126306" lon="12.896898">
        <ele>49.794881</ele>
        <time>2022-10-23T04:31:04.224Z</time>
      </trkpt>
      <trkpt lat="52.125562" lon="12.896094">
        <ele>50.179064</ele>
        <time>2022-10-23T04:32:34.182Z</time>
      </trkpt>
      <trkpt lat="52.124759" lon="12.895227">
        <ele>51.027049</ele>
        <time>2022-10-23T04:34:13.912Z</time>
      </trkpt>
      <trkpt lat="52.124667" lon="12.895116">
        <ele>51.127824</ele>
        <time>2022-10-23T04:34:25.937Z</time>
      </trkpt>
      <trkpt lat="52.124585" lon="12.894918">
        <ele>51.256891</ele>
        <time>2022-10-23T04:34:41.693Z</time>
      </trkpt>
      <trkpt lat="52.124729" lon="12.895027">
        <ele>51.424437</ele>
        <time>2022-10-23T04:34:58.192Z</time>
      </trkpt>
      <trkpt lat="52.124585" lon="12.894918">
        <ele>51.633728</ele>
        <time>2022-10-23T04:35:15.314Z</time>
      </trkpt>
      <trkpt lat="52.123395" lon="12.893237">
        <ele>53.709889</ele>
        <time>2022-10-23T04:38:00.760Z</time>
      </trkpt>
      <trkpt lat="52.123197" lon="12.892762">
        <ele>53.763537</ele>
        <time>2022-10-23T04:38:36.897Z</time>
      </trkpt>
      <trkpt lat="52.123164" lon="12.892681">
        <ele>53.772382</ele>
        <time>2022-10-23T04:38:42.953Z</time>
      </trkpt>
      <trkpt lat="52.123253" lon="12.892043">
        <ele>53.831906</ele>
        <time>2022-10-23T04:39:23.556Z</time>
      </trkpt>
      <trkpt lat="52.124050" lon="12.887746">
        <ele>53.643181</ele>
        <time>2022-10-23T04:44:01.253Z</time>
      </trkpt>
      <trkpt lat="52.124067" lon="12.887655">
        <ele>53.657139</ele>
        <time>2022-10-23T04:44:07.111Z</time>
      </trkpt>
      <trkpt lat="52.123821" lon="12.887492">
        <ele>53.830340</ele>
        <time>2022-10-23T04:44:34.321Z</time>
      </trkpt>
      <trkpt lat="52.122513" lon="12.886246">
        <ele>54.814899</ele>
        <time>2022-10-23T04:47:10.799Z</time>
      </trkpt>
      <trkpt lat="52.122054" lon="12.885825">
        <ele>54.996739</ele>
        <time>2022-10-23T04:48:04.521Z</time>
      </trkpt>
      <trkpt lat="52.121999" lon="12.885798">
        <ele>55.016568</ele>
        <time>2022-10-23T04:48:10.318Z</time>
      </trkpt>
      <trkpt lat="52.120453" lon="12.885035">
        <ele>55.547814</ele>
        <time>2022-10-23T04:50:53.215Z</time>
      </trkpt>
      <trkpt lat="52.118609" lon="12.884167">
        <ele>56.206544</ele>
        <time>2022-10-23T04:54:07.351Z</time>
      </trkpt>
      <trkpt lat="52.118154" lon="12.884033">
        <ele>56.439511</ele>
        <time>2022-10-23T04:54:54.169Z</time>
      </trkpt>
      <trkpt lat="52.117684" lon="12.883779">
        <ele>56.689015</ele>
        <time>2022-10-23T04:55:44.730Z</time>
      </trkpt>
      <trkpt lat="52.117322" lon="12.883583">
        <ele>56.921127</ele>
        <time>2022-10-23T04:56:23.688Z</time>
      </trkpt>
      <trkpt lat="52.115622" lon="12.882779">
        <ele>58.750490</ele>
        <time>2022-10-23T04:59:28.137Z</time>
      </trkpt>
      <trkpt lat="52.114157" lon="12.882036">
        <ele>59.857998</ele>
        <time>2022-10-23T05:02:07.179Z</time>
      </trkpt>
      <trkpt lat="52.113359" lon="12.881781">
        <ele>59.401326</ele>
        <time>2022-10-23T05:03:29.284Z</time>
      </trkpt>
      <trkpt lat="52.112198" lon="12.879644">
        <ele>57.614928</ele>
        <time>2022-10-23T05:06:30.156Z</time>
      </trkpt>
      <trkpt lat="52.111748" lon="12.878798">
        <ele>56.934382</ele>
        <time>2022-10-23T05:07:40.637Z</time>
      </trkpt>
      <trkpt lat="52.111239" lon="12.877994">
        <ele>56.344670</ele>
        <time>2022-10-23T05:08:52.194Z</time>
      </trkpt>
      <trkpt lat="52.111063" lon="12.877716">
        <ele>56.290504</ele>
        <time>2022-10-23T05:09:16.913Z</time>
      </trkpt>
      <trkpt lat="52.109862" lon="12.876413">
        <ele>55.957287</ele>
        <time>2022-10-23T05:11:41.690Z</time>
      </trkpt>
      <trkpt lat="52.108286" lon="12.875179">
        <ele>54.868513</ele>
        <time>2022-10-23T05:14:39.515Z</time>
      </trkpt>
      <trkpt lat="52.107861" lon="12.874821">
        <ele>54.899126</ele>
        <time>2022-10-23T05:15:27.895Z</time>
      </trkpt>
      <trkpt lat="52.107769" lon="12.874746">
        <ele>54.907836</ele>
        <time>2022-10-23T05:15:38.231Z</time>
      </trkpt>
      <trkpt lat="52.106441" lon="12.873634">
        <ele>55.269733</ele>
        <time>2022-10-23T05:18:09.593Z</time>
      </trkpt>
      <trkpt lat="52.106416" lon="12.873787">
        <ele>55.365330</ele>
        <time>2022-10-23T05:18:19.752Z</time>
      </trkpt>
      <trkpt lat="52.106239" lon="12.874882">
        <ele>56.049019</ele>
        <time>2022-10-23T05:19:32.443Z</time>
      </trkpt>
      <trkpt lat="52.106185" lon="12.875255">
        <ele>56.280413</ele>
        <time>2022-10-23T05:19:56.908Z</time>
      </trkpt>
      <trkpt lat="52.106144" lon="12.875319">
        <ele>56.336252</ele>
        <time>2022-10-23T05:20:02.809Z</time>
      </trkpt>
      <trkpt lat="52.106144" lon="12.875319">
        <ele>56.336252</ele>
        <time>2022-10-23T05:20:02.856Z</time>
      </trkpt>
      <trkpt lat="52.105550" lon="12.875759">
        <ele>56.944911</ele>
        <time>2022-10-23T05:21:10.506Z</time>
      </trkpt>
      <trkpt lat="52.105345" lon="12.875817">
        <ele>57.115396</ele>
        <time>2022-10-23T05:21:32.230Z</time>
      </trkpt>
      <trkpt lat="52.105190" lon="12.875921">
        <ele>57.252758</ele>
        <time>2022-10-23T05:21:49.401Z</time>
      </trkpt>
      <trkpt lat="52.104424" lon="12.876435">
        <ele>57.931600</ele>
        <time>2022-10-23T05:23:14.746Z</time>
      </trkpt>
      <trkpt lat="52.102744" lon="12.877147">
        <ele>58.988636</ele>
        <time>2022-10-23T05:26:11.581Z</time>
      </trkpt>
      <trkpt lat="52.102727" lon="12.877014">
        <ele>59.034297</ele>
        <time>2022-10-23T05:26:20.145Z</time>
      </trkpt>
      <trkpt lat="52.102723" lon="12.876946">
        <ele>59.057258</ele>
        <time>2022-10-23T05:26:24.407Z</time>
      </trkpt>
      <trkpt lat="52.102724" lon="12.876885">
        <ele>59.077768</ele>
        <time>2022-10-23T05:26:28.233Z</time>
      </trkpt>
      <trkpt lat="52.102252" lon="12.876951">
        <ele>59.313842</ele>
        <time>2022-10-23T05:27:16.913Z</time>
      </trkpt>
      <trkpt lat="52.101922" lon="12.876984">
        <ele>59.452332</ele>
        <time>2022-10-23T05:27:50.789Z</time>
      </trkpt>
      <trkpt lat="52.101407" lon="12.876994">
        <ele>59.668068</ele>
        <time>2022-10-23T05:28:42.937Z</time>
      </trkpt>
      <trkpt lat="52.101320" lon="12.876932">
        <ele>59.707848</ele>
        <time>2022-10-23T05:28:52.552Z</time>
      </trkpt>
      <trkpt lat="52.101216" lon="12.876769">
        <ele>59.768319</ele>
        <time>2022-10-23T05:29:07.174Z</time>
      </trkpt>
      <trkpt lat="52.101152" lon="12.876458">
        <ele>59.852711</ele>
        <time>2022-10-23T05:29:27.624Z</time>
      </trkpt>
      <trkpt lat="52.101123" lon="12.876124">
        <ele>59.939504</ele>
        <time>2022-10-23T05:29:48.673Z</time>
      </trkpt>
      <trkpt lat="52.101177" lon="12.875553">
        <ele>60.014624</ele>
        <time>2022-10-23T05:30:24.331Z</time>
      </trkpt>
      <trkpt lat="52.101263" lon="12.875047">
        <ele>60.046771</ele>
        <time>2022-10-23T05:30:56.933Z</time>
      </trkpt>
      <trkpt lat="52.101190" lon="12.874671">
        <ele>60.070916</ele>
        <time>2022-10-23T05:31:21.211Z</time>
      </trkpt>
      <trkpt lat="52.101134" lon="12.874702">
        <ele>60.076812</ele>
        <time>2022-10-23T05:31:27.233Z</time>
      </trkpt>
      <trkpt lat="52.101074" lon="12.874734">
        <ele>60.083105</ele>
        <time>2022-10-23T05:31:33.686Z</time>
      </trkpt>
      <trkpt lat="52.100846" lon="12.874858">
        <ele>60.107067</ele>
        <time>2022-10-23T05:31:57.968Z</time>
      </trkpt>
      <trkpt lat="52.100593" lon="12.875124">
        <ele>60.137088</ele>
        <time>2022-10-23T05:32:28.231Z</time>
      </trkpt>
      <trkpt lat="52.100445" lon="12.875279">
        <ele>60.154630</ele>
        <time>2022-10-23T05:32:45.900Z</time>
      </trkpt>
      <trkpt lat="52.100445" lon="12.875279">
        <ele>60.154630</ele>
        <time>2022-10-23T05:32:45.993Z</time>
      </trkpt>
      <trkpt lat="52.100445" lon="12.875279">
        <ele>60.154630</ele>
        <time>2022-10-23T05:32:45.993Z</time>
      </trkpt>
      <trkpt lat="52.099904" lon="12.875270">
        <ele>60.316261</ele>
        <time>2022-10-23T05:33:40.137Z</time>
      </trkpt>
      <trkpt lat="52.099362" lon="12.875262">
        <ele>60.525010</ele>
        <time>2022-10-23T05:34:34.411Z</time>
      </trkpt>
      <trkpt lat="52.099257" lon="12.875015">
        <ele>60.596073</ele>
        <time>2022-10-23T05:34:53.183Z</time>
      </trkpt>
      <trkpt lat="52.099153" lon="12.874768">
        <ele>60.666919</ele>
        <time>2022-10-23T05:35:11.638Z</time>
      </trkpt>
      <trkpt lat="52.099093" lon="12.874630">
        <ele>60.706918</ele>
        <time>2022-10-23T05:35:22.087Z</time>
      </trkpt>
      <trkpt lat="52.098940" lon="12.874292">
        <ele>60.806249</ele>
        <time>2022-10-23T05:35:48.394Z</time>
      </trkpt>
      <trkpt lat="52.098787" lon="12.873953">
        <ele>60.928668</ele>
        <time>2022-10-23T05:36:14.789Z</time>
      </trkpt>
      <trkpt lat="52.098643" lon="12.873639">
        <ele>61.071784</ele>
        <time>2022-10-23T05:36:39.262Z</time>
      </trkpt>
      <trkpt lat="52.098549" lon="12.873433">
        <ele>61.165509</ele>
        <time>2022-10-23T05:36:55.381Z</time>
      </trkpt>
      <trkpt lat="52.098455" lon="12.873227">
        <ele>61.259233</ele>
        <time>2022-10-23T05:37:11.356Z</time>
      </trkpt>
      <trkpt lat="52.098328" lon="12.872949">
        <ele>61.385767</ele>
        <time>2022-10-23T05:37:33.242Z</time>
      </trkpt>
      <trkpt lat="52.098231" lon="12.872729">
        <ele>61.484674</ele>
        <time>2022-10-23T05:37:50.243Z</time>
      </trkpt>
      <trkpt lat="52.098024" lon="12.872273">
        <ele>61.691761</ele>
        <time>2022-10-23T05:38:26.376Z</time>
      </trkpt>
      <trkpt lat="52.097818" lon="12.871818">
        <ele>61.898202</ele>
        <time>2022-10-23T05:39:01.802Z</time>
      </trkpt>
      <trkpt lat="52.097699" lon="12.871573">
        <ele>62.011567</ele>
        <time>2022-10-23T05:39:21.120Z</time>
      </trkpt>
      <trkpt lat="52.097409" lon="12.871043">
        <ele>62.268475</ele>
        <time>2022-10-23T05:40:05.400Z</time>
      </trkpt>
      <trkpt lat="52.097118" lon="12.870514">
        <ele>62.525506</ele>
        <time>2022-10-23T05:40:50.185Z</time>
      </trkpt>
      <trkpt lat="52.096773" lon="12.869816">
        <ele>62.849788</ele>
        <time>2022-10-23T05:41:46.593Z</time>
      </trkpt>
      <trkpt lat="52.096530" lon="12.869226">
        <ele>62.997211</ele>
        <time>2022-10-23T05:42:31.269Z</time>
      </trkpt>
      <trkpt lat="52.096303" lon="12.868525">
        <ele>63.008207</ele>
        <time>2022-10-23T05:43:20.617Z</time>
      </trkpt>
      <trkpt lat="52.096076" lon="12.867824">
        <ele>63.019202</ele>
        <time>2022-10-23T05:44:09.475Z</time>
      </trkpt>
      <trkpt lat="52.096065" lon="12.867787">
        <ele>63.019772</ele>
        <time>2022-10-23T05:44:12.095Z</time>
      </trkpt>
      <trkpt lat="52.095931" lon="12.867504">
        <ele>63.024730</ele>
        <time>2022-10-23T05:44:34.159Z</time>
      </trkpt>
      <trkpt lat="52.095651" lon="12.866804">
        <ele>62.959793</ele>
        <time>2022-10-23T05:45:25.794Z</time>
      </trkpt>
      <trkpt lat="52.095589" lon="12.866710">
        <ele>62.910449</ele>
        <time>2022-10-23T05:45:34.377Z</time>
      </trkpt>
      <trkpt lat="52.095527" lon="12.866616">
        <ele>62.861104</ele>
        <time>2022-10-23T05:45:42.920Z</time>
      </trkpt>
      <trkpt lat="52.095074" lon="12.865980">
        <ele>62.512707</ele>
        <time>2022-10-23T05:46:43.564Z</time>
      </trkpt>
      <trkpt lat="52.094968" lon="12.865828">
        <ele>62.430436</ele>
        <time>2022-10-23T05:46:57.933Z</time>
      </trkpt>
      <trkpt lat="52.094391" lon="12.865017">
        <ele>61.986457</ele>
        <time>2022-10-23T05:48:15.362Z</time>
      </trkpt>
      <trkpt lat="52.094260" lon="12.864820">
        <ele>61.940438</ele>
        <time>2022-10-23T05:48:33.446Z</time>
      </trkpt>
      <trkpt lat="52.094129" lon="12.864624">
        <ele>61.894801</ele>
        <time>2022-10-23T05:48:51.452Z</time>
      </trkpt>
      <trkpt lat="52.093631" lon="12.863554">
        <ele>61.683279</ele>
        <time>2022-10-23T05:50:14.237Z</time>
      </trkpt>
      <trkpt lat="52.093604" lon="12.863500">
        <ele>61.672308</ele>
        <time>2022-10-23T05:50:18.457Z</time>
      </trkpt>
      <trkpt lat="52.093560" lon="12.863307">
        <ele>61.639870</ele>
        <time>2022-10-23T05:50:31.182Z</time>
      </trkpt>
      <trkpt lat="52.093596" lon="12.863197">
        <ele>61.620231</ele>
        <time>2022-10-23T05:50:38.876Z</time>
      </trkpt>
      <trkpt lat="52.093567" lon="12.862873">
        <ele>61.568638</ele>
        <time>2022-10-23T05:50:59.036Z</time>
      </trkpt>
      <trkpt lat="52.093528" lon="12.862799">
        <ele>61.553275</ele>
        <time>2022-10-23T05:51:05.051Z</time>
      </trkpt>
      <trkpt lat="52.093522" lon="12.862639">
        <ele>61.528016</ele>
        <time>2022-10-23T05:51:14.949Z</time>
      </trkpt>
      <trkpt lat="52.093480" lon="12.862428">
        <ele>61.539989</ele>
        <time>2022-10-23T05:51:28.690Z</time>
      </trkpt>
      <trkpt lat="52.093425" lon="12.861726">
        <ele>61.594154</ele>
        <time>2022-10-23T05:52:12.416Z</time>
      </trkpt>
      <trkpt lat="52.093466" lon="12.861205">
        <ele>61.634357</ele>
        <time>2022-10-23T05:52:44.834Z</time>
      </trkpt>
      <trkpt lat="52.093586" lon="12.860699">
        <ele>61.675871</ele>
        <time>2022-10-23T05:53:18.225Z</time>
      </trkpt>
      <trkpt lat="52.093655" lon="12.860530">
        <ele>61.691402</ele>
        <time>2022-10-23T05:53:30.861Z</time>
      </trkpt>
      <trkpt lat="52.093883" lon="12.860171">
        <ele>61.730922</ele>
        <time>2022-10-23T05:54:03.008Z</time>
      </trkpt>
      <trkpt lat="52.093967" lon="12.860031">
        <ele>61.745900</ele>
        <time>2022-10-23T05:54:15.288Z</time>
      </trkpt>
      <trkpt lat="52.094210" lon="12.859686">
        <ele>62.150619</ele>
        <time>2022-10-23T05:54:48.498Z</time>
      </trkpt>
      <trkpt lat="52.094292" lon="12.859516">
        <ele>62.328638</ele>
        <time>2022-10-23T05:55:02.192Z</time>
      </trkpt>
      <trkpt lat="52.094347" lon="12.859072">
        <ele>62.701695</ele>
        <time>2022-10-23T05:55:31.185Z</time>
      </trkpt>
      <trkpt lat="52.094316" lon="12.857682">
        <ele>63.847313</ele>
        <time>2022-10-23T05:57:01.700Z</time>
      </trkpt>
      <trkpt lat="52.094532" lon="12.856155">
        <ele>64.886972</ele>
        <time>2022-10-23T05:58:44.420Z</time>
      </trkpt>
      <trkpt lat="52.094580" lon="12.855528">
        <ele>65.273832</ele>
        <time>2022-10-23T05:59:24.837Z</time>
      </trkpt>
      <trkpt lat="52.094646" lon="12.854667">
        <ele>65.805081</ele>
        <time>2022-10-23T06:00:18.864Z</time>
      </trkpt>
      <trkpt lat="52.094673" lon="12.854073">
        <ele>65.778546</ele>
        <time>2022-10-23T06:00:55.678Z</time>
      </trkpt>
      <trkpt lat="52.094676" lon="12.854014">
        <ele>65.749500</ele>
        <time>2022-10-23T06:00:59.333Z</time>
      </trkpt>
      <trkpt lat="52.094652" lon="12.853473">
        <ele>65.483374</ele>
        <time>2022-10-23T06:01:33.228Z</time>
      </trkpt>
      <trkpt lat="52.094514" lon="12.853441">
        <ele>65.372052</ele>
        <time>2022-10-23T06:01:47.552Z</time>
      </trkpt>
      <trkpt lat="52.094411" lon="12.853278">
        <ele>65.257326</ele>
        <time>2022-10-23T06:02:02.293Z</time>
      </trkpt>
      <trkpt lat="52.094149" lon="12.850831">
        <ele>64.387022</ele>
        <time>2022-10-23T06:04:38.269Z</time>
      </trkpt>
      <trkpt lat="52.093827" lon="12.848600">
        <ele>64.222058</ele>
        <time>2022-10-23T06:06:59.855Z</time>
      </trkpt>
      <trkpt lat="52.093774" lon="12.848377">
        <ele>64.288921</ele>
        <time>2022-10-23T06:07:14.961Z</time>
      </trkpt>
      <trkpt lat="52.093718" lon="12.848260">
        <ele>64.330396</ele>
        <time>2022-10-23T06:07:24.331Z</time>
      </trkpt>
      <trkpt lat="52.093615" lon="12.848166">
        <ele>64.384145</ele>
        <time>2022-10-23T06:07:36.461Z</time>
      </trkpt>
      <trkpt lat="52.093157" lon="12.847947">
        <ele>64.601422</ele>
        <time>2022-10-23T06:08:25.234Z</time>
      </trkpt>
      <trkpt lat="52.092825" lon="12.847364">
        <ele>64.823719</ele>
        <time>2022-10-23T06:09:15.034Z</time>
      </trkpt>
      <trkpt lat="52.092833" lon="12.847196">
        <ele>64.870841</ele>
        <time>2022-10-23T06:09:25.485Z</time>
      </trkpt>
      <trkpt lat="52.092717" lon="12.847096">
        <ele>64.930589</ele>
        <time>2022-10-23T06:09:38.732Z</time>
      </trkpt>
      <trkpt lat="52.092458" lon="12.846689">
        <ele>65.070290</ele>
        <time>2022-10-23T06:10:15.242Z</time>
      </trkpt>
      <trkpt lat="52.091832" lon="12.845625">
        <ele>65.415023</ele>
        <time>2022-10-23T06:11:46.864Z</time>
      </trkpt>
      <trkpt lat="52.091747" lon="12.845485">
        <ele>65.461082</ele>
        <time>2022-10-23T06:11:59.034Z</time>
      </trkpt>
      <trkpt lat="52.091498" lon="12.845057">
        <ele>65.599015</ele>
        <time>2022-10-23T06:12:35.874Z</time>
      </trkpt>
      <trkpt lat="52.091348" lon="12.844802">
        <ele>65.680893</ele>
        <time>2022-10-23T06:12:57.984Z</time>
      </trkpt>
      <trkpt lat="52.091041" lon="12.844247">
        <ele>65.853092</ele>
        <time>2022-10-23T06:13:44.827Z</time>
      </trkpt>
      <trkpt lat="52.090910" lon="12.844126">
        <ele>65.909621</ele>
        <time>2022-10-23T06:14:00.310Z</time>
      </trkpt>
      <trkpt lat="52.090883" lon="12.843984">
        <ele>65.943897</ele>
        <time>2022-10-23T06:14:09.690Z</time>
      </trkpt>
      <trkpt lat="52.089586" lon="12.841788">
        <ele>66.446390</ele>
        <time>2022-10-23T06:17:18.640Z</time>
      </trkpt>
      <trkpt lat="52.089018" lon="12.840809">
        <ele>66.574225</ele>
        <time>2022-10-23T06:18:41.510Z</time>
      </trkpt>
      <trkpt lat="52.088870" lon="12.840504">
        <ele>66.744007</ele>
        <time>2022-10-23T06:19:05.513Z</time>
      </trkpt>
      <trkpt lat="52.088575" lon="12.840003">
        <ele>67.137591</ele>
        <time>2022-10-23T06:19:48.639Z</time>
      </trkpt>
      <trkpt lat="52.088350" lon="12.839718">
        <ele>67.400786</ele>
        <time>2022-10-23T06:20:17.543Z</time>
      </trkpt>
      <trkpt lat="52.087612" lon="12.838324">
        <ele>68.595338</ele>
        <time>2022-10-23T06:22:16.855Z</time>
      </trkpt>
      <trkpt lat="52.087449" lon="12.838136">
        <ele>68.919064</ele>
        <time>2022-10-23T06:22:38.234Z</time>
      </trkpt>
      <trkpt lat="52.087000" lon="12.837324">
        <ele>70.006705</ele>
        <time>2022-10-23T06:23:50.286Z</time>
      </trkpt>
      <trkpt lat="52.084383" lon="12.832019">
        <ele>74.912109</ele>
        <time>2022-10-23T06:31:06.641Z</time>
      </trkpt>
      <trkpt lat="52.082727" lon="12.828689">
        <ele>74.723023</ele>
        <time>2022-10-23T06:35:33.097Z</time>
      </trkpt>
      <trkpt lat="52.082117" lon="12.827552">
        <ele>75.252353</ele>
        <time>2022-10-23T06:37:09.813Z</time>
      </trkpt>
      <trkpt lat="52.081950" lon="12.827122">
        <ele>75.526294</ele>
        <time>2022-10-23T06:37:42.894Z</time>
      </trkpt>
      <trkpt lat="52.081517" lon="12.825684">
        <ele>76.727319</ele>
        <time>2022-10-23T06:39:27.192Z</time>
      </trkpt>
      <trkpt lat="52.080801" lon="12.823229">
        <ele>77.722272</ele>
        <time>2022-10-23T06:42:17.693Z</time>
      </trkpt>
      <trkpt lat="52.079611" lon="12.819205">
        <ele>77.518775</ele>
        <time>2022-10-23T06:46:54.143Z</time>
      </trkpt>
      <trkpt lat="52.079341" lon="12.818278">
        <ele>77.847082</ele>
        <time>2022-10-23T06:47:58.095Z</time>
      </trkpt>
      <trkpt lat="52.078467" lon="12.815190">
        <ele>79.031414</ele>
        <time>2022-10-23T06:51:33.506Z</time>
      </trkpt>
      <trkpt lat="52.078004" lon="12.813637">
        <ele>79.538558</ele>
        <time>2022-10-23T06:53:20.892Z</time>
      </trkpt>
      <trkpt lat="52.077660" lon="12.812361">
        <ele>79.699730</ele>
        <time>2022-10-23T06:54:46.627Z</time>
      </trkpt>
      <trkpt lat="52.076816" lon="12.810389">
        <ele>80.474666</ele>
        <time>2022-10-23T06:57:16.328Z</time>
      </trkpt>
      <trkpt lat="52.076396" lon="12.809416">
        <ele>81.030804</ele>
        <time>2022-10-23T06:58:32.109Z</time>
      </trkpt>
      <trkpt lat="52.075983" lon="12.808962">
        <ele>81.571674</ele>
        <time>2022-10-23T06:59:24.329Z</time>
      </trkpt>
      <trkpt lat="52.075837" lon="12.808865">
        <ele>81.777149</ele>
        <time>2022-10-23T06:59:40.889Z</time>
      </trkpt>
      <trkpt lat="52.075699" lon="12.808835">
        <ele>81.958550</ele>
        <time>2022-10-23T06:59:55.452Z</time>
      </trkpt>
      <trkpt lat="52.075610" lon="12.808958">
        <ele>82.110697</ele>
        <time>2022-10-23T07:00:07.674Z</time>
      </trkpt>
      <trkpt lat="52.075268" lon="12.808308">
        <ele>82.795902</ele>
        <time>2022-10-23T07:01:02.877Z</time>
      </trkpt>
      <trkpt lat="52.075061" lon="12.807949">
        <ele>83.190100</ele>
        <time>2022-10-23T07:01:34.848Z</time>
      </trkpt>
      <trkpt lat="52.074851" lon="12.807646">
        <ele>83.545548</ele>
        <time>2022-10-23T07:02:04.182Z</time>
      </trkpt>
      <trkpt lat="52.074376" lon="12.807350">
        <ele>83.974407</ele>
        <time>2022-10-23T07:02:57.109Z</time>
      </trkpt>
      <trkpt lat="52.073981" lon="12.807193">
        <ele>84.317239</ele>
        <time>2022-10-23T07:03:38.926Z</time>
      </trkpt>
      <trkpt lat="52.073099" lon="12.806910">
        <ele>85.079113</ele>
        <time>2022-10-23T07:05:10.702Z</time>
      </trkpt>
      <trkpt lat="52.072865" lon="12.806802">
        <ele>85.309243</ele>
        <time>2022-10-23T07:05:35.737Z</time>
      </trkpt>
      <trkpt lat="52.072812" lon="12.806743">
        <ele>85.370003</ele>
        <time>2022-10-23T07:05:42.213Z</time>
      </trkpt>
      <trkpt lat="52.072782" lon="12.806649">
        <ele>85.431598</ele>
        <time>2022-10-23T07:05:48.847Z</time>
      </trkpt>
      <trkpt lat="52.072560" lon="12.804288">
        <ele>86.829831</ele>
        <time>2022-10-23T07:08:21.080Z</time>
      </trkpt>
      <trkpt lat="52.072312" lon="12.804228">
        <ele>87.095983</ele>
        <time>2022-10-23T07:08:47.483Z</time>
      </trkpt>
      <trkpt lat="52.071782" lon="12.804282">
        <ele>87.659690</ele>
        <time>2022-10-23T07:09:42.845Z</time>
      </trkpt>
      <trkpt lat="52.071622" lon="12.804370">
        <ele>87.838976</ele>
        <time>2022-10-23T07:10:00.196Z</time>
      </trkpt>
      <trkpt lat="52.071353" lon="12.804716">
        <ele>88.202990</ele>
        <time>2022-10-23T07:10:35.583Z</time>
      </trkpt>
      <trkpt lat="52.071231" lon="12.804955">
        <ele>88.405699</ele>
        <time>2022-10-23T07:10:55.288Z</time>
      </trkpt>
      <trkpt lat="52.071117" lon="12.805283">
        <ele>88.651561</ele>
        <time>2022-10-23T07:11:19.308Z</time>
      </trkpt>
      <trkpt lat="52.071070" lon="12.806818">
        <ele>90.171402</ele>
        <time>2022-10-23T07:12:58.177Z</time>
      </trkpt>
      <trkpt lat="52.071042" lon="12.807729">
        <ele>91.074245</ele>
        <time>2022-10-23T07:13:57.431Z</time>
      </trkpt>
      <trkpt lat="52.068698" lon="12.807415">
        <ele>96.068705</ele>
        <time>2022-10-23T07:18:14.048Z</time>
      </trkpt>
      <trkpt lat="52.067874" lon="12.807249">
        <ele>96.870842</ele>
        <time>2022-10-23T07:19:39.120Z</time>
      </trkpt>
      <trkpt lat="52.067370" lon="12.807115">
        <ele>97.364210</ele>
        <time>2022-10-23T07:20:30.700Z</time>
      </trkpt>
      <trkpt lat="52.066866" lon="12.806981">
        <ele>98.103115</ele>
        <time>2022-10-23T07:21:21.873Z</time>
      </trkpt>
      <trkpt lat="52.064664" lon="12.806545">
        <ele>104.231885</ele>
        <time>2022-10-23T07:25:21.314Z</time>
      </trkpt>
      <trkpt lat="52.064532" lon="12.806565">
        <ele>104.870004</ele>
        <time>2022-10-23T07:25:37.118Z</time>
      </trkpt>
      <trkpt lat="52.064223" lon="12.806476">
        <ele>106.380481</ele>
        <time>2022-10-23T07:26:14.922Z</time>
      </trkpt>
      <trkpt lat="52.063583" lon="12.806413">
        <ele>109.511941</ele>
        <time>2022-10-23T07:27:34.005Z</time>
      </trkpt>
      <trkpt lat="52.062102" lon="12.806113">
        <ele>120.246016</ele>
        <time>2022-10-23T07:30:42.561Z</time>
      </trkpt>
      <trkpt lat="52.061417" lon="12.806047">
        <ele>124.149816</ele>
        <time>2022-10-23T07:32:06.031Z</time>
      </trkpt>
      <trkpt lat="52.060239" lon="12.805757">
        <ele>129.638741</ele>
        <time>2022-10-23T07:34:22.890Z</time>
      </trkpt>
      <trkpt lat="52.059403" lon="12.805607">
        <ele>132.295342</ele>
        <time>2022-10-23T07:35:55.545Z</time>
      </trkpt>
      <trkpt lat="52.059085" lon="12.805607">
        <ele>133.148236</ele>
        <time>2022-10-23T07:36:30.279Z</time>
      </trkpt>
      <trkpt lat="52.058301" lon="12.805451">
        <ele>135.266647</ele>
        <time>2022-10-23T07:37:56.180Z</time>
      </trkpt>
      <trkpt lat="52.055963" lon="12.805025">
        <ele>140.466061</ele>
        <time>2022-10-23T07:42:10.781Z</time>
      </trkpt>
      <trkpt lat="52.055117" lon="12.804717">
        <ele>141.957188</ele>
        <time>2022-10-23T07:43:42.867Z</time>
      </trkpt>
      <trkpt lat="52.055156" lon="12.804273">
        <ele>142.431542</ele>
        <time>2022-10-23T07:44:11.753Z</time>
      </trkpt>
      <trkpt lat="52.053102" lon="12.803481">
        <ele>144.558076</ele>
        <time>2022-10-23T07:47:50.533Z</time>
      </trkpt>
      <trkpt lat="52.052442" lon="12.805774">
        <ele>145.419115</ele>
        <time>2022-10-23T07:50:29.116Z</time>
      </trkpt>
      <trkpt lat="52.052442" lon="12.805774">
        <ele>145.419115</ele>
        <time>2022-10-23T07:50:29.158Z</time>
      </trkpt>
      <trkpt lat="52.052423" lon="12.805762">
        <ele>145.430388</ele>
        <time>2022-10-23T07:50:31.198Z</time>
      </trkpt>
      <trkpt lat="52.051606" lon="12.805747">
        <ele>145.563389</ele>
        <time>2022-10-23T07:51:52.965Z</time>
      </trkpt>
      <trkpt lat="52.050789" lon="12.805732">
        <ele>145.666998</ele>
        <time>2022-10-23T07:53:14.732Z</time>
      </trkpt>
      <trkpt lat="52.049972" lon="12.805717">
        <ele>145.630839</ele>
        <time>2022-10-23T07:54:36.499Z</time>
      </trkpt>
      <trkpt lat="52.049155" lon="12.805702">
        <ele>145.538755</ele>
        <time>2022-10-23T07:55:58.266Z</time>
      </trkpt>
      <trkpt lat="52.048339" lon="12.805688">
        <ele>145.359688</ele>
        <time>2022-10-23T07:57:19.932Z</time>
      </trkpt>
      <trkpt lat="52.047522" lon="12.805673">
        <ele>145.097364</ele>
        <time>2022-10-23T07:58:41.699Z</time>
      </trkpt>
      <trkpt lat="52.046705" lon="12.805658">
        <ele>144.783611</ele>
        <time>2022-10-23T08:00:03.467Z</time>
      </trkpt>
      <trkpt lat="52.045888" lon="12.805643">
        <ele>144.355512</ele>
        <time>2022-10-23T08:01:25.234Z</time>
      </trkpt>
      <trkpt lat="52.045156" lon="12.805772">
        <ele>143.968468</ele>
        <time>2022-10-23T08:02:38.920Z</time>
      </trkpt>
      <trkpt lat="52.044424" lon="12.805901">
        <ele>143.468953</ele>
        <time>2022-10-23T08:03:52.605Z</time>
      </trkpt>
      <trkpt lat="52.043693" lon="12.806029">
        <ele>142.970158</ele>
        <time>2022-10-23T08:05:06.184Z</time>
      </trkpt>
      <trkpt lat="52.042961" lon="12.806158">
        <ele>142.557501</ele>
        <time>2022-10-23T08:06:19.870Z</time>
      </trkpt>
      <trkpt lat="52.042229" lon="12.806287">
        <ele>142.211230</ele>
        <time>2022-10-23T08:07:33.555Z</time>
      </trkpt>
      <trkpt lat="52.042231" lon="12.806287">
        <ele>142.210290</ele>
        <time>2022-10-23T08:07:33.789Z</time>
      </trkpt>
      <trkpt lat="52.042530" lon="12.810040">
        <ele>141.336903</ele>
        <time>2022-10-23T08:11:27.597Z</time>
      </trkpt>
      <trkpt lat="52.042472" lon="12.810234">
        <ele>141.269464</ele>
        <time>2022-10-23T08:11:41.058Z</time>
      </trkpt>
      <trkpt lat="52.041896" lon="12.810265">
        <ele>140.380703</ele>
        <time>2022-10-23T08:12:40.328Z</time>
      </trkpt>
      <trkpt lat="52.041628" lon="12.810245">
        <ele>139.966974</ele>
        <time>2022-10-23T08:13:07.965Z</time>
      </trkpt>
      <trkpt lat="52.041535" lon="12.810344">
        <ele>139.795545</ele>
        <time>2022-10-23T08:13:19.540Z</time>
      </trkpt>
      <trkpt lat="52.039143" lon="12.810776">
        <ele>135.552880</ele>
        <time>2022-10-23T08:17:30.100Z</time>
      </trkpt>
      <trkpt lat="52.038451" lon="12.810841">
        <ele>134.289663</ele>
        <time>2022-10-23T08:18:41.870Z</time>
      </trkpt>
      <trkpt lat="52.037757" lon="12.808538">
        <ele>131.405566</ele>
        <time>2022-10-23T08:21:25.534Z</time>
      </trkpt>
      <trkpt lat="52.037757" lon="12.808538">
        <ele>131.405566</ele>
        <time>2022-10-23T08:21:25.563Z</time>
      </trkpt>
      <trkpt lat="52.037758" lon="12.808538">
        <ele>131.403578</ele>
        <time>2022-10-23T08:21:25.663Z</time>
      </trkpt>
      <trkpt lat="52.037360" lon="12.809186">
        <ele>130.283788</ele>
        <time>2022-10-23T08:22:22.045Z</time>
      </trkpt>
      <trkpt lat="52.036581" lon="12.809458">
        <ele>128.699862</ele>
        <time>2022-10-23T08:23:41.795Z</time>
      </trkpt>
      <trkpt lat="52.035802" lon="12.809729">
        <ele>127.427363</ele>
        <time>2022-10-23T08:25:01.533Z</time>
      </trkpt>
      <trkpt lat="52.035599" lon="12.808913">
        <ele>126.624941</ele>
        <time>2022-10-23T08:25:55.727Z</time>
      </trkpt>
      <trkpt lat="52.035388" lon="12.808733">
        <ele>126.271811</ele>
        <time>2022-10-23T08:26:19.575Z</time>
      </trkpt>
      <trkpt lat="52.035387" lon="12.808763">
        <ele>126.244422</ele>
        <time>2022-10-23T08:26:21.431Z</time>
      </trkpt>
      <trkpt lat="52.034635" lon="12.808805">
        <ele>125.493906</ele>
        <time>2022-10-23T08:27:37.563Z</time>
      </trkpt>
      <trkpt lat="52.034864" lon="12.811469">
        <ele>124.558213</ele>
        <time>2022-10-23T08:30:24.267Z</time>
      </trkpt>
      <trkpt lat="52.033625" lon="12.811692">
        <ele>123.238468</ele>
        <time>2022-10-23T08:32:31.932Z</time>
      </trkpt>
      <trkpt lat="52.032697" lon="12.811850">
        <ele>122.161776</ele>
        <time>2022-10-23T08:34:08.444Z</time>
      </trkpt>
      <trkpt lat="52.032595" lon="12.811871">
        <ele>122.037806</ele>
        <time>2022-10-23T08:34:19.062Z</time>
      </trkpt>
      <trkpt lat="52.031806" lon="12.812029">
        <ele>121.079267</ele>
        <time>2022-10-23T08:35:40.727Z</time>
      </trkpt>
      <trkpt lat="52.031025" lon="12.812329">
        <ele>121.053161</ele>
        <time>2022-10-23T08:37:01.965Z</time>
      </trkpt>
      <trkpt lat="52.030475" lon="12.812181">
        <ele>121.418759</ele>
        <time>2022-10-23T08:37:58.306Z</time>
      </trkpt>
      <trkpt lat="52.030177" lon="12.812190">
        <ele>121.614221</ele>
        <time>2022-10-23T08:38:28.876Z</time>
      </trkpt>
      <trkpt lat="52.027794" lon="12.813088">
        <ele>126.798155</ele>
        <time>2022-10-23T08:42:55.318Z</time>
      </trkpt>
      <trkpt lat="52.027741" lon="12.813106">
        <ele>126.925657</ele>
        <time>2022-10-23T08:43:01.328Z</time>
      </trkpt>
      <trkpt lat="52.027520" lon="12.813184">
        <ele>127.458202</ele>
        <time>2022-10-23T08:43:26.331Z</time>
      </trkpt>
      <trkpt lat="52.026388" lon="12.813538">
        <ele>130.172757</ele>
        <time>2022-10-23T08:45:31.146Z</time>
      </trkpt>
      <trkpt lat="52.026206" lon="12.813545">
        <ele>130.596906</ele>
        <time>2022-10-23T08:45:50.806Z</time>
      </trkpt>
      <trkpt lat="52.025762" lon="12.813508">
        <ele>131.568102</ele>
        <time>2022-10-23T08:46:37.983Z</time>
      </trkpt>
      <trkpt lat="52.025681" lon="12.813544">
        <ele>131.751544</ele>
        <time>2022-10-23T08:46:46.863Z</time>
      </trkpt>
      <trkpt lat="52.025552" lon="12.813261">
        <ele>132.224948</ele>
        <time>2022-10-23T08:47:10.143Z</time>
      </trkpt>
      <trkpt lat="52.025472" lon="12.813144">
        <ele>132.460052</ele>
        <time>2022-10-23T08:47:21.669Z</time>
      </trkpt>
      <trkpt lat="52.025382" lon="12.813112">
        <ele>132.661308</ele>
        <time>2022-10-23T08:47:31.604Z</time>
      </trkpt>
      <trkpt lat="52.025325" lon="12.813118">
        <ele>132.786086</ele>
        <time>2022-10-23T08:47:37.715Z</time>
      </trkpt>
      <trkpt lat="52.024775" lon="12.813435">
        <ele>134.060885</ele>
        <time>2022-10-23T08:48:41.060Z</time>
      </trkpt>
      <trkpt lat="52.024637" lon="12.813430">
        <ele>134.362422</ele>
        <time>2022-10-23T08:48:55.982Z</time>
      </trkpt>
      <trkpt lat="52.024577" lon="12.813570">
        <ele>134.597077</ele>
        <time>2022-10-23T08:49:07.408Z</time>
      </trkpt>
      <trkpt lat="52.024399" lon="12.813806">
        <ele>135.120438</ele>
        <time>2022-10-23T08:49:32.494Z</time>
      </trkpt>
      <trkpt lat="52.024181" lon="12.813959">
        <ele>135.661431</ele>
        <time>2022-10-23T08:49:58.472Z</time>
      </trkpt>
      <trkpt lat="52.023521" lon="12.814472">
        <ele>137.328206</ele>
        <time>2022-10-23T08:51:17.921Z</time>
      </trkpt>
      <trkpt lat="52.022245" lon="12.815451">
        <ele>140.007587</ele>
        <time>2022-10-23T08:53:48.862Z</time>
      </trkpt>
      <trkpt lat="52.022171" lon="12.815499">
        <ele>140.139967</ele>
        <time>2022-10-23T08:53:57.166Z</time>
      </trkpt>
      <trkpt lat="52.018029" lon="12.818648">
        <ele>146.544711</ele>
        <time>2022-10-23T09:01:57.106Z</time>
      </trkpt>
      <trkpt lat="52.016740" lon="12.819249">
        <ele>148.060030</ele>
        <time>2022-10-23T09:04:16.844Z</time>
      </trkpt>
      <trkpt lat="52.016608" lon="12.818194">
        <ele>148.578778</ele>
        <time>2022-10-23T09:05:25.166Z</time>
      </trkpt>
      <trkpt lat="52.016562" lon="12.818102">
        <ele>148.610314</ele>
        <time>2022-10-23T09:05:32.632Z</time>
      </trkpt>
      <trkpt lat="52.016490" lon="12.818082">
        <ele>148.641891</ele>
        <time>2022-10-23T09:05:40.181Z</time>
      </trkpt>
      <trkpt lat="52.015299" lon="12.818415">
        <ele>149.164321</ele>
        <time>2022-10-23T09:07:42.799Z</time>
      </trkpt>
      <trkpt lat="52.015065" lon="12.818286">
        <ele>149.106665</ele>
        <time>2022-10-23T09:08:07.601Z</time>
      </trkpt>
      <trkpt lat="52.014784" lon="12.818009">
        <ele>148.840835</ele>
        <time>2022-10-23T09:08:40.623Z</time>
      </trkpt>
      <trkpt lat="52.014629" lon="12.817806">
        <ele>148.679816</ele>
        <time>2022-10-23T09:09:00.596Z</time>
      </trkpt>
      <trkpt lat="52.014667" lon="12.817560">
        <ele>148.553563</ele>
        <time>2022-10-23T09:09:16.381Z</time>
      </trkpt>
      <trkpt lat="52.014044" lon="12.804885">
        <ele>142.172330</ele>
        <time>2022-10-23T09:22:34.247Z</time>
      </trkpt>
      <trkpt lat="52.013882" lon="12.802062">
        <ele>141.078818</ele>
        <time>2022-10-23T09:25:31.334Z</time>
      </trkpt>
      <trkpt lat="52.013768" lon="12.800487">
        <ele>140.879981</ele>
        <time>2022-10-23T09:27:09.615Z</time>
      </trkpt>
      <trkpt lat="52.013754" lon="12.799923">
        <ele>140.899759</ele>
        <time>2022-10-23T09:27:44.388Z</time>
      </trkpt>
      <trkpt lat="52.013782" lon="12.799697">
        <ele>140.907836</ele>
        <time>2022-10-23T09:27:58.653Z</time>
      </trkpt>
      <trkpt lat="52.015137" lon="12.793869">
        <ele>142.251213</ele>
        <time>2022-10-23T09:34:28.499Z</time>
      </trkpt>
      <trkpt lat="52.015195" lon="12.793576">
        <ele>142.318420</ele>
        <time>2022-10-23T09:34:47.567Z</time>
      </trkpt>
      <trkpt lat="52.015200" lon="12.793521">
        <ele>142.330561</ele>
        <time>2022-10-23T09:34:51.044Z</time>
      </trkpt>
      <trkpt lat="52.015200" lon="12.793521">
        <ele>142.330561</ele>
        <time>2022-10-23T09:34:51.077Z</time>
      </trkpt>
      <trkpt lat="52.015238" lon="12.793537">
        <ele>142.344488</ele>
        <time>2022-10-23T09:34:55.006Z</time>
      </trkpt>
      <trkpt lat="52.015264" lon="12.792744">
        <ele>142.402332</ele>
        <time>2022-10-23T09:35:43.917Z</time>
      </trkpt>
      <trkpt lat="52.015289" lon="12.791951">
        <ele>142.350495</ele>
        <time>2022-10-23T09:36:32.823Z</time>
      </trkpt>
      <trkpt lat="52.014700" lon="12.791569">
        <ele>142.283226</ele>
        <time>2022-10-23T09:37:36.290Z</time>
      </trkpt>
      <trkpt lat="52.014110" lon="12.791187">
        <ele>142.012479</ele>
        <time>2022-10-23T09:38:39.850Z</time>
      </trkpt>
      <trkpt lat="52.014138" lon="12.791021">
        <ele>141.898697</ele>
        <time>2022-10-23T09:38:50.449Z</time>
      </trkpt>
      <trkpt lat="52.013681" lon="12.790669">
        <ele>141.355483</ele>
        <time>2022-10-23T09:39:42.129Z</time>
      </trkpt>
      <trkpt lat="52.012981" lon="12.790382">
        <ele>140.580062</ele>
        <time>2022-10-23T09:40:56.251Z</time>
      </trkpt>
      <trkpt lat="52.012499" lon="12.790163">
        <ele>139.886476</ele>
        <time>2022-10-23T09:41:48.121Z</time>
      </trkpt>
      <trkpt lat="52.012499" lon="12.790163">
        <ele>139.886476</ele>
        <time>2022-10-23T09:41:48.214Z</time>
      </trkpt>
      <trkpt lat="52.012499" lon="12.790163">
        <ele>139.886476</ele>
        <time>2022-10-23T09:41:48.214Z</time>
      </trkpt>
      <trkpt lat="52.012507" lon="12.790117">
        <ele>139.836184</ele>
        <time>2022-10-23T09:41:51.159Z</time>
      </trkpt>
      <trkpt lat="52.011785" lon="12.790325">
        <ele>138.582756</ele>
        <time>2022-10-23T09:43:04.552Z</time>
      </trkpt>
      <trkpt lat="52.011062" lon="12.790532">
        <ele>137.327827</ele>
        <time>2022-10-23T09:44:18.030Z</time>
      </trkpt>
      <trkpt lat="52.010238" lon="12.790289">
        <ele>136.220796</ele>
        <time>2022-10-23T09:45:41.847Z</time>
      </trkpt>
      <trkpt lat="52.009415" lon="12.790046">
        <ele>135.138399</ele>
        <time>2022-10-23T09:47:05.563Z</time>
      </trkpt>
      <trkpt lat="52.008591" lon="12.789803">
        <ele>134.471554</ele>
        <time>2022-10-23T09:48:29.375Z</time>
      </trkpt>
      <trkpt lat="52.007767" lon="12.789560">
        <ele>133.919584</ele>
        <time>2022-10-23T09:49:53.186Z</time>
      </trkpt>
      <trkpt lat="52.006943" lon="12.789317">
        <ele>133.569108</ele>
        <time>2022-10-23T09:51:16.997Z</time>
      </trkpt>
      <trkpt lat="52.006120" lon="12.789074">
        <ele>133.334115</ele>
        <time>2022-10-23T09:52:40.708Z</time>
      </trkpt>
      <trkpt lat="52.005296" lon="12.788831">
        <ele>133.174878</ele>
        <time>2022-10-23T09:54:04.518Z</time>
      </trkpt>
      <trkpt lat="52.005298" lon="12.788830">
        <ele>133.174680</ele>
        <time>2022-10-23T09:54:04.760Z</time>
      </trkpt>
      <trkpt lat="52.004863" lon="12.786837">
        <ele>133.051494</ele>
        <time>2022-10-23T09:56:15.125Z</time>
      </trkpt>
      <trkpt lat="52.004681" lon="12.785990">
        <ele>132.880903</ele>
        <time>2022-10-23T09:57:10.448Z</time>
      </trkpt>
      <trkpt lat="52.004378" lon="12.784596">
        <ele>132.563469</ele>
        <time>2022-10-23T09:58:42.269Z</time>
      </trkpt>
      <trkpt lat="52.004144" lon="12.783526">
        <ele>132.172064</ele>
        <time>2022-10-23T09:59:53.064Z</time>
      </trkpt>
      <trkpt lat="52.003981" lon="12.782792">
        <ele>131.747654</ele>
        <time>2022-10-23T10:00:41.960Z</time>
      </trkpt>
      <trkpt lat="52.003923" lon="12.782530">
        <ele>131.596216</ele>
        <time>2022-10-23T10:00:59.363Z</time>
      </trkpt>
      <trkpt lat="52.003832" lon="12.782086">
        <ele>131.341688</ele>
        <time>2022-10-23T10:01:28.838Z</time>
      </trkpt>
      <trkpt lat="52.003738" lon="12.781611">
        <ele>131.070309</ele>
        <time>2022-10-23T10:02:00.250Z</time>
      </trkpt>
      <trkpt lat="52.003767" lon="12.781424">
        <ele>130.965420</ele>
        <time>2022-10-23T10:02:12.385Z</time>
      </trkpt>
      <trkpt lat="52.003800" lon="12.781321">
        <ele>130.902264</ele>
        <time>2022-10-23T10:02:19.710Z</time>
      </trkpt>
      <trkpt lat="52.003745" lon="12.781289">
        <ele>130.850647</ele>
        <time>2022-10-23T10:02:25.692Z</time>
      </trkpt>
      <trkpt lat="52.003529" lon="12.781051">
        <ele>130.599938</ele>
        <time>2022-10-23T10:02:52.535Z</time>
      </trkpt>
      <trkpt lat="52.003249" lon="12.780592">
        <ele>130.214287</ele>
        <time>2022-10-23T10:03:33.303Z</time>
      </trkpt>
      <trkpt lat="52.002982" lon="12.780069">
        <ele>129.808788</ele>
        <time>2022-10-23T10:04:15.905Z</time>
      </trkpt>
      <trkpt lat="52.002852" lon="12.779749">
        <ele>129.579969</ele>
        <time>2022-10-23T10:04:39.917Z</time>
      </trkpt>
      <trkpt lat="52.002332" lon="12.778481">
        <ele>128.828274</ele>
        <time>2022-10-23T10:06:15.416Z</time>
      </trkpt>
      <trkpt lat="52.002170" lon="12.778648">
        <ele>128.713358</ele>
        <time>2022-10-23T10:06:34.879Z</time>
      </trkpt>
      <trkpt lat="52.001999" lon="12.778746">
        <ele>128.604754</ele>
        <time>2022-10-23T10:06:53.378Z</time>
      </trkpt>
      <trkpt lat="52.001699" lon="12.778869">
        <ele>128.419441</ele>
        <time>2022-10-23T10:07:24.683Z</time>
      </trkpt>
      <trkpt lat="52.001274" lon="12.778940">
        <ele>128.163554</ele>
        <time>2022-10-23T10:08:07.932Z</time>
      </trkpt>
      <trkpt lat="52.001236" lon="12.778980">
        <ele>128.136433</ele>
        <time>2022-10-23T10:08:12.436Z</time>
      </trkpt>
      <trkpt lat="52.000838" lon="12.779407">
        <ele>127.846580</ele>
        <time>2022-10-23T10:09:00.493Z</time>
      </trkpt>
      <trkpt lat="52.000285" lon="12.780014">
        <ele>127.436067</ele>
        <time>2022-10-23T10:10:07.988Z</time>
      </trkpt>
      <trkpt lat="51.999812" lon="12.780616">
        <ele>127.066468</ele>
        <time>2022-10-23T10:11:08.976Z</time>
      </trkpt>
      <trkpt lat="51.999385" lon="12.781176">
        <ele>126.640534</ele>
        <time>2022-10-23T10:12:04.848Z</time>
      </trkpt>
      <trkpt lat="51.998939" lon="12.781787">
        <ele>126.095753</ele>
        <time>2022-10-23T10:13:04.378Z</time>
      </trkpt>
      <trkpt lat="51.998249" lon="12.782736">
        <ele>125.251542</ele>
        <time>2022-10-23T10:14:36.945Z</time>
      </trkpt>
      <trkpt lat="51.995960" lon="12.785865">
        <ele>123.013124</ele>
        <time>2022-10-23T10:19:41.767Z</time>
      </trkpt>
      <trkpt lat="51.994518" lon="12.787888">
        <ele>122.340516</ele>
        <time>2022-10-23T10:22:53.291Z</time>
      </trkpt>
      <trkpt lat="51.988050" lon="12.783867">
        <ele>115.759936</ele>
        <time>2022-10-23T10:34:41.545Z</time>
      </trkpt>
      <trkpt lat="51.987792" lon="12.783732">
        <ele>115.544858</ele>
        <time>2022-10-23T10:35:09.021Z</time>
      </trkpt>
      <trkpt lat="51.985022" lon="12.783415">
        <ele>114.159486</ele>
        <time>2022-10-23T10:39:49.301Z</time>
      </trkpt>
      <trkpt lat="51.984815" lon="12.783431">
        <ele>114.024580</ele>
        <time>2022-10-23T10:40:10.159Z</time>
      </trkpt>
      <trkpt lat="51.977275" lon="12.786794">
        <ele>108.750668</ele>
        <time>2022-10-23T10:53:23.578Z</time>
      </trkpt>
      <trkpt lat="51.977229" lon="12.786814">
        <ele>108.712835</ele>
        <time>2022-10-23T10:53:28.598Z</time>
      </trkpt>
      <trkpt lat="51.975356" lon="12.787636">
        <ele>107.662443</ele>
        <time>2022-10-23T10:56:46.788Z</time>
      </trkpt>
      <trkpt lat="51.975187" lon="12.787723">
        <ele>107.580839</ele>
        <time>2022-10-23T10:57:05.144Z</time>
      </trkpt>
      <trkpt lat="51.975086" lon="12.787769">
        <ele>107.532556</ele>
        <time>2022-10-23T10:57:15.972Z</time>
      </trkpt>
      <trkpt lat="51.974638" lon="12.787989">
        <ele>108.147613</ele>
        <time>2022-10-23T10:58:05.065Z</time>
      </trkpt>
      <trkpt lat="51.974597" lon="12.787985">
        <ele>108.209735</ele>
        <time>2022-10-23T10:58:09.486Z</time>
      </trkpt>
      <trkpt lat="51.972484" lon="12.788130">
        <ele>110.163779</ele>
        <time>2022-10-23T11:01:54.368Z</time>
      </trkpt>
      <trkpt lat="51.972351" lon="12.788140">
        <ele>110.152241</ele>
        <time>2022-10-23T11:02:07.801Z</time>
      </trkpt>
      <trkpt lat="51.972193" lon="12.787604">
        <ele>110.120518</ele>
        <time>2022-10-23T11:02:45.040Z</time>
      </trkpt>
      <trkpt lat="51.972205" lon="12.787161">
        <ele>110.096845</ele>
        <time>2022-10-23T11:03:13.253Z</time>
      </trkpt>
      <trkpt lat="51.972219" lon="12.785727">
        <ele>108.372916</ele>
        <time>2022-10-23T11:04:46.297Z</time>
      </trkpt>
      <trkpt lat="51.972131" lon="12.785443">
        <ele>107.848316</ele>
        <time>2022-10-23T11:05:07.324Z</time>
      </trkpt>
      <trkpt lat="51.972031" lon="12.785308">
        <ele>107.499915</ele>
        <time>2022-10-23T11:05:21.369Z</time>
      </trkpt>
      <trkpt lat="51.971849" lon="12.785203">
        <ele>106.982516</ele>
        <time>2022-10-23T11:05:42.176Z</time>
      </trkpt>
      <trkpt lat="51.970953" lon="12.785094">
        <ele>105.580701</ele>
        <time>2022-10-23T11:07:17.204Z</time>
      </trkpt>
      <trkpt lat="51.970836" lon="12.785024">
        <ele>105.739152</ele>
        <time>2022-10-23T11:07:29.848Z</time>
      </trkpt>
      <trkpt lat="51.970729" lon="12.784908">
        <ele>105.902655</ele>
        <time>2022-10-23T11:07:42.808Z</time>
      </trkpt>
      <trkpt lat="51.970601" lon="12.784679">
        <ele>106.144716</ele>
        <time>2022-10-23T11:08:02.538Z</time>
      </trkpt>
      <trkpt lat="51.970496" lon="12.784415">
        <ele>106.390714</ele>
        <time>2022-10-23T11:08:22.786Z</time>
      </trkpt>
      <trkpt lat="51.970341" lon="12.783946">
        <ele>106.807363</ele>
        <time>2022-10-23T11:08:58.335Z</time>
      </trkpt>
      <trkpt lat="51.970102" lon="12.783178">
        <ele>107.480943</ele>
        <time>2022-10-23T11:09:57.859Z</time>
      </trkpt>
      <trkpt lat="51.970068" lon="12.783027">
        <ele>107.710871</ele>
        <time>2022-10-23T11:10:09.136Z</time>
      </trkpt>
      <trkpt lat="51.970020" lon="12.782602">
        <ele>108.599977</ele>
        <time>2022-10-23T11:10:39.636Z</time>
      </trkpt>
      <trkpt lat="51.970001" lon="12.782426">
        <ele>108.967655</ele>
        <time>2022-10-23T11:10:52.383Z</time>
      </trkpt>
      <trkpt lat="51.970024" lon="12.782046">
        <ele>109.753355</ele>
        <time>2022-10-23T11:11:19.858Z</time>
      </trkpt>
      <trkpt lat="51.970172" lon="12.781223">
        <ele>111.517532</ele>
        <time>2022-10-23T11:12:21.785Z</time>
      </trkpt>
      <trkpt lat="51.971129" lon="12.776517">
        <ele>115.838310</ele>
        <time>2022-10-23T11:17:40.661Z</time>
      </trkpt>
      <trkpt lat="51.971161" lon="12.776099">
        <ele>115.855417</ele>
        <time>2022-10-23T11:18:06.730Z</time>
      </trkpt>
      <trkpt lat="51.971072" lon="12.771660">
        <ele>113.760374</ele>
        <time>2022-10-23T11:22:44.925Z</time>
      </trkpt>
      <trkpt lat="51.970956" lon="12.766877">
        <ele>104.140265</ele>
        <time>2022-10-23T11:28:03.144Z</time>
      </trkpt>
      <trkpt lat="51.970933" lon="12.766656">
        <ele>103.719859</ele>
        <time>2022-10-23T11:28:17.636Z</time>
      </trkpt>
      <trkpt lat="51.970900" lon="12.766476">
        <ele>103.367598</ele>
        <time>2022-10-23T11:28:29.819Z</time>
      </trkpt>
      <trkpt lat="51.970562" lon="12.765424">
        <ele>102.233954</ele>
        <time>2022-10-23T11:29:45.077Z</time>
      </trkpt>
      <trkpt lat="51.969982" lon="12.763806">
        <ele>102.032466</ele>
        <time>2022-10-23T11:31:41.161Z</time>
      </trkpt>
      <trkpt lat="51.969575" lon="12.762585">
        <ele>102.383971</ele>
        <time>2022-10-23T11:33:09.122Z</time>
      </trkpt>
      <trkpt lat="51.969337" lon="12.761759">
        <ele>102.762529</ele>
        <time>2022-10-23T11:34:06.718Z</time>
      </trkpt>
      <trkpt lat="51.967994" lon="12.756697">
        <ele>104.573230</ele>
        <time>2022-10-23T11:39:54.168Z</time>
      </trkpt>
      <trkpt lat="51.967629" lon="12.755538">
        <ele>104.793465</ele>
        <time>2022-10-23T11:41:14.450Z</time>
      </trkpt>
      <trkpt lat="51.968017" lon="12.755711">
        <ele>104.716794</ele>
        <time>2022-10-23T11:41:54.959Z</time>
      </trkpt>
      <trkpt lat="51.968037" lon="12.755565">
        <ele>104.693659</ele>
        <time>2022-10-23T11:42:04.277Z</time>
      </trkpt>
      <trkpt lat="51.968087" lon="12.755218">
        <ele>104.638535</ele>
        <time>2022-10-23T11:42:26.454Z</time>
      </trkpt>
      <trkpt lat="51.968106" lon="12.754767">
        <ele>104.568609</ele>
        <time>2022-10-23T11:42:54.577Z</time>
      </trkpt>
      <trkpt lat="51.968230" lon="12.753542">
        <ele>104.376580</ele>
        <time>2022-10-23T11:44:11.513Z</time>
      </trkpt>
      <trkpt lat="51.968298" lon="12.752410">
        <ele>104.485412</ele>
        <time>2022-10-23T11:45:21.618Z</time>
      </trkpt>
      <trkpt lat="51.968370" lon="12.751866">
        <ele>104.558542</ele>
        <time>2022-10-23T11:45:56.323Z</time>
      </trkpt>
      <trkpt lat="51.968420" lon="12.751597">
        <ele>104.595471</ele>
        <time>2022-10-23T11:46:13.908Z</time>
      </trkpt>
      <trkpt lat="51.968536" lon="12.751297">
        <ele>104.642022</ele>
        <time>2022-10-23T11:46:35.991Z</time>
      </trkpt>
      <trkpt lat="51.968792" lon="12.750882">
        <ele>104.719207</ele>
        <time>2022-10-23T11:47:12.716Z</time>
      </trkpt>
      <trkpt lat="51.968854" lon="12.750698">
        <ele>104.762028</ele>
        <time>2022-10-23T11:47:25.765Z</time>
      </trkpt>
      <trkpt lat="51.968891" lon="12.750490">
        <ele>104.841754</ele>
        <time>2022-10-23T11:47:39.152Z</time>
      </trkpt>
      <trkpt lat="51.968881" lon="12.749595">
        <ele>105.171397</ele>
        <time>2022-10-23T11:48:35.143Z</time>
      </trkpt>
      <trkpt lat="51.968683" lon="12.748061">
        <ele>105.748567</ele>
        <time>2022-10-23T11:50:14.397Z</time>
      </trkpt>
      <trkpt lat="51.968637" lon="12.747263">
        <ele>106.048924</ele>
        <time>2022-10-23T11:51:05.416Z</time>
      </trkpt>
      <trkpt lat="51.968634" lon="12.746803">
        <ele>106.222161</ele>
        <time>2022-10-23T11:51:34.348Z</time>
      </trkpt>
      <trkpt lat="51.968662" lon="12.745808">
        <ele>106.597249</ele>
        <time>2022-10-23T11:52:36.919Z</time>
      </trkpt>
      <trkpt lat="51.968597" lon="12.745557">
        <ele>106.699781</ele>
        <time>2022-10-23T11:52:54.103Z</time>
      </trkpt>
      <trkpt lat="51.968463" lon="12.745345">
        <ele>106.814159</ele>
        <time>2022-10-23T11:53:13.201Z</time>
      </trkpt>
      <trkpt lat="51.967776" lon="12.745057">
        <ele>106.960112</ele>
        <time>2022-10-23T11:54:25.556Z</time>
      </trkpt>
      <trkpt lat="51.967581" lon="12.745017">
        <ele>106.977073</ele>
        <time>2022-10-23T11:54:45.422Z</time>
      </trkpt>
      <trkpt lat="51.967121" lon="12.745025">
        <ele>107.016770</ele>
        <time>2022-10-23T11:55:31.651Z</time>
      </trkpt>
      <trkpt lat="51.967074" lon="12.745042">
        <ele>107.020926</ele>
        <time>2022-10-23T11:55:36.520Z</time>
      </trkpt>
      <trkpt lat="51.966998" lon="12.744985">
        <ele>107.028150</ele>
        <time>2022-10-23T11:55:44.930Z</time>
      </trkpt>
      <trkpt lat="51.966906" lon="12.745103">
        <ele>107.038269</ele>
        <time>2022-10-23T11:55:56.830Z</time>
      </trkpt>
      <trkpt lat="51.966539" lon="12.745241">
        <ele>107.078075</ele>
        <time>2022-10-23T11:56:34.837Z</time>
      </trkpt>
      <trkpt lat="51.966031" lon="12.745305">
        <ele>107.238465</ele>
        <time>2022-10-23T11:57:26.093Z</time>
      </trkpt>
      <trkpt lat="51.965901" lon="12.745348">
        <ele>107.280228</ele>
        <time>2022-10-23T11:57:39.665Z</time>
      </trkpt>
      <trkpt lat="51.965725" lon="12.745406">
        <ele>107.336760</ele>
        <time>2022-10-23T11:57:57.927Z</time>
      </trkpt>
      <trkpt lat="51.965617" lon="12.745483">
        <ele>107.373892</ele>
        <time>2022-10-23T11:58:10.011Z</time>
      </trkpt>
      <trkpt lat="51.965095" lon="12.745845">
        <ele>107.552580</ele>
        <time>2022-10-23T11:59:07.886Z</time>
      </trkpt>
      <trkpt lat="51.964729" lon="12.746113">
        <ele>107.706010</ele>
        <time>2022-10-23T11:59:48.789Z</time>
      </trkpt>
      <trkpt lat="51.964544" lon="12.746136">
        <ele>107.799686</ele>
        <time>2022-10-23T12:00:07.598Z</time>
      </trkpt>
      <trkpt lat="51.964453" lon="12.746111">
        <ele>107.846284</ele>
        <time>2022-10-23T12:00:17.054Z</time>
      </trkpt>
      <trkpt lat="51.964388" lon="12.746085">
        <ele>107.880083</ele>
        <time>2022-10-23T12:00:23.740Z</time>
      </trkpt>
      <trkpt lat="51.963944" lon="12.745957">
        <ele>108.107758</ele>
        <time>2022-10-23T12:01:09.796Z</time>
      </trkpt>
      <trkpt lat="51.963957" lon="12.745712">
        <ele>108.184256</ele>
        <time>2022-10-23T12:01:25.349Z</time>
      </trkpt>
      <trkpt lat="51.963901" lon="12.744987">
        <ele>108.411558</ele>
        <time>2022-10-23T12:02:11.134Z</time>
      </trkpt>
      <trkpt lat="51.964059" lon="12.744738">
        <ele>108.522749</ele>
        <time>2022-10-23T12:02:33.362Z</time>
      </trkpt>
      <trkpt lat="51.964005" lon="12.743640">
        <ele>109.647594</ele>
        <time>2022-10-23T12:03:42.527Z</time>
      </trkpt>
      <trkpt lat="51.963894" lon="12.742253">
        <ele>111.135999</ele>
        <time>2022-10-23T12:05:14.779Z</time>
      </trkpt>
      <trkpt lat="51.963857" lon="12.742124">
        <ele>111.287422</ele>
        <time>2022-10-23T12:05:24.362Z</time>
      </trkpt>
      <trkpt lat="51.963723" lon="12.741983">
        <ele>111.563240</ele>
        <time>2022-10-23T12:05:42.100Z</time>
      </trkpt>
      <trkpt lat="51.963417" lon="12.741692">
        <ele>112.726718</ele>
        <time>2022-10-23T12:06:21.615Z</time>
      </trkpt>
      <trkpt lat="51.962489" lon="12.740747">
        <ele>116.596846</ele>
        <time>2022-10-23T12:08:27.489Z</time>
      </trkpt>
      <trkpt lat="51.960548" lon="12.738939">
        <ele>122.441123</ele>
        <time>2022-10-23T12:12:33.025Z</time>
      </trkpt>
      <trkpt lat="51.960207" lon="12.738710">
        <ele>122.478984</ele>
        <time>2022-10-23T12:13:10.071Z</time>
      </trkpt>
      <trkpt lat="51.960077" lon="12.738623">
        <ele>122.493411</ele>
        <time>2022-10-23T12:13:24.399Z</time>
      </trkpt>
      <trkpt lat="51.959772" lon="12.738445">
        <ele>122.526664</ele>
        <time>2022-10-23T12:13:57.197Z</time>
      </trkpt>
      <trkpt lat="51.959689" lon="12.738376">
        <ele>122.536232</ele>
        <time>2022-10-23T12:14:06.692Z</time>
      </trkpt>
      <trkpt lat="51.959634" lon="12.738330">
        <ele>122.542580</ele>
        <time>2022-10-23T12:14:12.927Z</time>
      </trkpt>
      <trkpt lat="51.959407" lon="12.737887">
        <ele>122.579004</ele>
        <time>2022-10-23T12:14:49.089Z</time>
      </trkpt>
      <trkpt lat="51.959101" lon="12.737319">
        <ele>122.759759</ele>
        <time>2022-10-23T12:15:35.954Z</time>
      </trkpt>
      <trkpt lat="51.958952" lon="12.737079">
        <ele>123.322245</ele>
        <time>2022-10-23T12:15:57.454Z</time>
      </trkpt>
      <trkpt lat="51.958834" lon="12.736962">
        <ele>123.692747</ele>
        <time>2022-10-23T12:16:11.922Z</time>
      </trkpt>
      <trkpt lat="51.958558" lon="12.736675">
        <ele>124.571031</ele>
        <time>2022-10-23T12:16:47.352Z</time>
      </trkpt>
      <trkpt lat="51.958487" lon="12.736663">
        <ele>124.762291</ele>
        <time>2022-10-23T12:16:55.312Z</time>
      </trkpt>
      <trkpt lat="51.958438" lon="12.736219">
        <ele>125.507031</ele>
        <time>2022-10-23T12:17:26.501Z</time>
      </trkpt>
      <trkpt lat="51.958068" lon="12.734158">
        <ele>129.227849</ele>
        <time>2022-10-23T12:19:57.890Z</time>
      </trkpt>
      <trkpt lat="51.958006" lon="12.733463">
        <ele>130.514343</ele>
        <time>2022-10-23T12:20:46.494Z</time>
      </trkpt>
      <trkpt lat="51.957960" lon="12.732964">
        <ele>131.438671</ele>
        <time>2022-10-23T12:21:20.848Z</time>
      </trkpt>
      <trkpt lat="51.957508" lon="12.729292">
        <ele>134.905461</ele>
        <time>2022-10-23T12:25:20.739Z</time>
      </trkpt>
      <trkpt lat="51.956810" lon="12.726321">
        <ele>136.723099</ele>
        <time>2022-10-23T12:28:44.753Z</time>
      </trkpt>
      <trkpt lat="51.956289" lon="12.724036">
        <ele>136.741615</ele>
        <time>2022-10-23T12:31:15.292Z</time>
      </trkpt>
      <trkpt lat="51.955600" lon="12.723250">
        <ele>135.668971</ele>
        <time>2022-10-23T12:32:42.337Z</time>
      </trkpt>
      <trkpt lat="51.954575" lon="12.722146">
        <ele>134.155274</ele>
        <time>2022-10-23T12:34:50.012Z</time>
      </trkpt>
      <trkpt lat="51.951732" lon="12.719099">
        <ele>134.212317</ele>
        <time>2022-10-23T12:40:31.857Z</time>
      </trkpt>
      <trkpt lat="51.950060" lon="12.717208">
        <ele>136.603385</ele>
        <time>2022-10-23T12:44:06.661Z</time>
      </trkpt>
      <trkpt lat="51.948949" lon="12.716017">
        <ele>137.407753</ele>
        <time>2022-10-23T12:46:23.531Z</time>
      </trkpt>
      <trkpt lat="51.946306" lon="12.713014">
        <ele>134.722723</ele>
        <time>2022-10-23T12:51:51.527Z</time>
      </trkpt>
      <trkpt lat="51.946062" lon="12.712739">
        <ele>134.309781</ele>
        <time>2022-10-23T12:52:22.425Z</time>
      </trkpt>
      <trkpt lat="51.942519" lon="12.708855">
        <ele>122.362627</ele>
        <time>2022-10-23T12:59:57.776Z</time>
      </trkpt>
      <trkpt lat="51.942505" lon="12.708480">
        <ele>122.053189</ele>
        <time>2022-10-23T13:00:21.940Z</time>
      </trkpt>
      <trkpt lat="51.942568" lon="12.707977">
        <ele>121.630424</ele>
        <time>2022-10-23T13:00:54.867Z</time>
      </trkpt>
      <trkpt lat="51.942682" lon="12.707525">
        <ele>121.228177</ele>
        <time>2022-10-23T13:01:26.000Z</time>
      </trkpt>
      <trkpt lat="51.942931" lon="12.707091">
        <ele>120.739845</ele>
        <time>2022-10-23T13:02:02.882Z</time>
      </trkpt>
      <trkpt lat="51.942974" lon="12.706779">
        <ele>120.476522</ele>
        <time>2022-10-23T13:02:23.263Z</time>
      </trkpt>
      <trkpt lat="51.942965" lon="12.706515">
        <ele>120.572723</ele>
        <time>2022-10-23T13:02:40.215Z</time>
      </trkpt>
      <trkpt lat="51.942779" lon="12.706526">
        <ele>120.698025</ele>
        <time>2022-10-23T13:03:00.402Z</time>
      </trkpt>
      <trkpt lat="51.942423" lon="12.706462">
        <ele>120.939157</ele>
        <time>2022-10-23T13:03:38.522Z</time>
      </trkpt>
      <trkpt lat="51.942286" lon="12.706437">
        <ele>121.031970</ele>
        <time>2022-10-23T13:03:52.868Z</time>
      </trkpt>
      <trkpt lat="51.941471" lon="12.706249">
        <ele>121.586162</ele>
        <time>2022-10-23T13:05:16.262Z</time>
      </trkpt>
      <trkpt lat="51.941323" lon="12.706252">
        <ele>121.671005</ele>
        <time>2022-10-23T13:05:31.103Z</time>
      </trkpt>
      <trkpt lat="51.941205" lon="12.706329">
        <ele>121.585367</ele>
        <time>2022-10-23T13:05:43.839Z</time>
      </trkpt>
      <trkpt lat="51.941089" lon="12.706522">
        <ele>121.473484</ele>
        <time>2022-10-23T13:06:00.459Z</time>
      </trkpt>
      <trkpt lat="51.940867" lon="12.707229">
        <ele>121.144150</ele>
        <time>2022-10-23T13:06:49.719Z</time>
      </trkpt>
      <trkpt lat="51.940718" lon="12.707726">
        <ele>120.914756</ele>
        <time>2022-10-23T13:07:24.263Z</time>
      </trkpt>
      <trkpt lat="51.940572" lon="12.708202">
        <ele>120.694074</ele>
        <time>2022-10-23T13:07:57.971Z</time>
      </trkpt>
      <trkpt lat="51.940123" lon="12.709634">
        <ele>120.125818</ele>
        <time>2022-10-23T13:09:40.939Z</time>
      </trkpt>
      <trkpt lat="51.940059" lon="12.709741">
        <ele>120.077799</ele>
        <time>2022-10-23T13:09:50.251Z</time>
      </trkpt>
      <trkpt lat="51.939989" lon="12.709789">
        <ele>120.038092</ele>
        <time>2022-10-23T13:09:57.869Z</time>
      </trkpt>
      <trkpt lat="51.939841" lon="12.709707">
        <ele>119.956380</ele>
        <time>2022-10-23T13:10:13.601Z</time>
      </trkpt>
      <trkpt lat="51.939652" lon="12.709511">
        <ele>119.839177</ele>
        <time>2022-10-23T13:10:36.155Z</time>
      </trkpt>
      <trkpt lat="51.939578" lon="12.709422">
        <ele>119.791046</ele>
        <time>2022-10-23T13:10:45.395Z</time>
      </trkpt>
      <trkpt lat="51.939505" lon="12.709333">
        <ele>119.743334</ele>
        <time>2022-10-23T13:10:54.614Z</time>
      </trkpt>
      <trkpt lat="51.939235" lon="12.709154">
        <ele>119.590939</ele>
        <time>2022-10-23T13:11:24.212Z</time>
      </trkpt>
      <trkpt lat="51.939185" lon="12.708864">
        <ele>119.640784</ele>
        <time>2022-10-23T13:11:43.227Z</time>
      </trkpt>
      <trkpt lat="51.939095" lon="12.708591">
        <ele>119.975799</ele>
        <time>2022-10-23T13:12:02.878Z</time>
      </trkpt>
      <trkpt lat="51.939042" lon="12.708498">
        <ele>120.112852</ele>
        <time>2022-10-23T13:12:10.951Z</time>
      </trkpt>
      <trkpt lat="51.939033" lon="12.708482">
        <ele>120.136291</ele>
        <time>2022-10-23T13:12:12.321Z</time>
      </trkpt>
      <trkpt lat="51.938943" lon="12.708414">
        <ele>120.310568</ele>
        <time>2022-10-23T13:12:22.672Z</time>
      </trkpt>
      <trkpt lat="51.938821" lon="12.708378">
        <ele>120.528232</ele>
        <time>2022-10-23T13:12:35.636Z</time>
      </trkpt>
      <trkpt lat="51.938625" lon="12.708376">
        <ele>120.872283</ele>
        <time>2022-10-23T13:12:56.313Z</time>
      </trkpt>
      <trkpt lat="51.938488" lon="12.708422">
        <ele>121.117861</ele>
        <time>2022-10-23T13:13:11.076Z</time>
      </trkpt>
      <trkpt lat="51.937393" lon="12.709043">
        <ele>123.543974</ele>
        <time>2022-10-23T13:15:17.062Z</time>
      </trkpt>
      <trkpt lat="51.936746" lon="12.709335">
        <ele>125.702480</ele>
        <time>2022-10-23T13:16:31.600Z</time>
      </trkpt>
      <trkpt lat="51.935613" lon="12.709954">
        <ele>129.690673</ele>
        <time>2022-10-23T13:18:46.313Z</time>
      </trkpt>
      <trkpt lat="51.935036" lon="12.708315">
        <ele>133.935349</ele>
        <time>2022-10-23T13:20:57.898Z</time>
      </trkpt>
      <trkpt lat="51.933829" lon="12.705164">
        <ele>141.503661</ele>
        <time>2022-10-23T13:25:14.829Z</time>
      </trkpt>
      <trkpt lat="51.932630" lon="12.701747">
        <ele>145.677210</ele>
        <time>2022-10-23T13:29:33.280Z</time>
      </trkpt>
      <trkpt lat="51.932008" lon="12.700051">
        <ele>146.473985</ele>
        <time>2022-10-23T13:31:36.462Z</time>
      </trkpt>
      <trkpt lat="51.930767" lon="12.696802">
        <ele>144.531013</ele>
        <time>2022-10-23T13:35:35.886Z</time>
      </trkpt>
      <trkpt lat="51.930461" lon="12.696676">
        <ele>144.076847</ele>
        <time>2022-10-23T13:36:08.336Z</time>
      </trkpt>
      <trkpt lat="51.930209" lon="12.696500">
        <ele>143.682143</ele>
        <time>2022-10-23T13:36:36.695Z</time>
      </trkpt>
      <trkpt lat="51.929940" lon="12.696044">
        <ele>143.122355</ele>
        <time>2022-10-23T13:37:17.384Z</time>
      </trkpt>
      <trkpt lat="51.929744" lon="12.695466">
        <ele>141.871978</ele>
        <time>2022-10-23T13:38:00.697Z</time>
      </trkpt>
      <trkpt lat="51.929411" lon="12.694607">
        <ele>139.871415</ele>
        <time>2022-10-23T13:39:07.729Z</time>
      </trkpt>
      <trkpt lat="51.929828" lon="12.693158">
        <ele>136.992374</ele>
        <time>2022-10-23T13:40:54.112Z</time>
      </trkpt>
      <trkpt lat="51.930531" lon="12.690365">
        <ele>134.198795</ele>
        <time>2022-10-23T13:44:05.972Z</time>
      </trkpt>
      <trkpt lat="51.930897" lon="12.688742">
        <ele>134.389542</ele>
        <time>2022-10-23T13:45:55.949Z</time>
      </trkpt>
      <trkpt lat="51.931005" lon="12.688517">
        <ele>134.421014</ele>
        <time>2022-10-23T13:46:14.123Z</time>
      </trkpt>
      <trkpt lat="51.931015" lon="12.688407">
        <ele>134.433287</ele>
        <time>2022-10-23T13:46:21.067Z</time>
      </trkpt>
      <trkpt lat="51.931155" lon="12.686907">
        <ele>133.437464</ele>
        <time>2022-10-23T13:47:54.739Z</time>
      </trkpt>
      <trkpt lat="51.931260" lon="12.685041">
        <ele>131.646744</ele>
        <time>2022-10-23T13:49:56.250Z</time>
      </trkpt>
      <trkpt lat="51.931290" lon="12.682146">
        <ele>126.637660</ele>
        <time>2022-10-23T13:53:06.162Z</time>
      </trkpt>
      <trkpt lat="51.931345" lon="12.682028">
        <ele>126.506611</ele>
        <time>2022-10-23T13:53:15.716Z</time>
      </trkpt>
      <trkpt lat="51.931169" lon="12.681339">
        <ele>125.845888</ele>
        <time>2022-10-23T13:54:03.434Z</time>
      </trkpt>
      <trkpt lat="51.930905" lon="12.680131">
        <ele>124.710428</ele>
        <time>2022-10-23T13:55:24.432Z</time>
      </trkpt>
      <trkpt lat="51.930647" lon="12.678983">
        <ele>123.829300</ele>
        <time>2022-10-23T13:56:40.714Z</time>
      </trkpt>
      <trkpt lat="51.930467" lon="12.678316">
        <ele>123.450908</ele>
        <time>2022-10-23T13:57:26.313Z</time>
      </trkpt>
      <trkpt lat="51.930079" lon="12.677105">
        <ele>122.741645</ele>
        <time>2022-10-23T13:58:52.244Z</time>
      </trkpt>
      <trkpt lat="51.930039" lon="12.676504">
        <ele>122.447225</ele>
        <time>2022-10-23T13:59:30.378Z</time>
      </trkpt>
      <trkpt lat="51.929981" lon="12.676080">
        <ele>122.247474</ele>
        <time>2022-10-23T13:59:57.812Z</time>
      </trkpt>
      <trkpt lat="51.929866" lon="12.675645">
        <ele>122.029791</ele>
        <time>2022-10-23T14:00:27.653Z</time>
      </trkpt>
      <trkpt lat="51.929562" lon="12.674752">
        <ele>121.560635</ele>
        <time>2022-10-23T14:01:31.693Z</time>
      </trkpt>
      <trkpt lat="51.929442" lon="12.674469">
        <ele>121.402669</ele>
        <time>2022-10-23T14:01:53.036Z</time>
      </trkpt>
      <trkpt lat="51.928999" lon="12.673647">
        <ele>121.713896</ele>
        <time>2022-10-23T14:03:00.478Z</time>
      </trkpt>
      <trkpt lat="51.928950" lon="12.673697">
        <ele>121.769101</ele>
        <time>2022-10-23T14:03:06.457Z</time>
      </trkpt>
      <trkpt lat="51.928869" lon="12.673711">
        <ele>121.846777</ele>
        <time>2022-10-23T14:03:14.653Z</time>
      </trkpt>
      <trkpt lat="51.928675" lon="12.673687">
        <ele>122.032306</ele>
        <time>2022-10-23T14:03:34.672Z</time>
      </trkpt>
      <trkpt lat="51.927714" lon="12.674063">
        <ele>122.977585</ele>
        <time>2022-10-23T14:05:18.835Z</time>
      </trkpt>
      <trkpt lat="51.927527" lon="12.674062">
        <ele>123.355950</ele>
        <time>2022-10-23T14:05:39.073Z</time>
      </trkpt>
      <trkpt lat="51.927310" lon="12.673996">
        <ele>123.802668</ele>
        <time>2022-10-23T14:06:03.102Z</time>
      </trkpt>
      <trkpt lat="51.925380" lon="12.673209">
        <ele>126.982595</ele>
        <time>2022-10-23T14:09:36.773Z</time>
      </trkpt>
      <trkpt lat="51.924287" lon="12.672819">
        <ele>127.672119</ele>
        <time>2022-10-23T14:11:29.310Z</time>
      </trkpt>
      <trkpt lat="51.924141" lon="12.672767">
        <ele>127.636157</ele>
        <time>2022-10-23T14:11:44.437Z</time>
      </trkpt>
      <trkpt lat="51.923999" lon="12.672801">
        <ele>127.468047</ele>
        <time>2022-10-23T14:11:59.174Z</time>
      </trkpt>
      <trkpt lat="51.923353" lon="12.673170">
        <ele>126.665899</ele>
        <time>2022-10-23T14:13:09.481Z</time>
      </trkpt>
      <trkpt lat="51.919684" lon="12.675368">
        <ele>121.622991</ele>
        <time>2022-10-23T14:19:52.559Z</time>
      </trkpt>
      <trkpt lat="51.919089" lon="12.675652">
        <ele>120.962985</ele>
        <time>2022-10-23T14:20:56.046Z</time>
      </trkpt>
      <trkpt lat="51.919039" lon="12.675676">
        <ele>120.993892</ele>
        <time>2022-10-23T14:21:01.351Z</time>
      </trkpt>
      <trkpt lat="51.918116" lon="12.675862">
        <ele>121.545177</ele>
        <time>2022-10-23T14:22:35.388Z</time>
      </trkpt>
      <trkpt lat="51.917895" lon="12.675836">
        <ele>121.676511</ele>
        <time>2022-10-23T14:22:58.207Z</time>
      </trkpt>
      <trkpt lat="51.917686" lon="12.675854">
        <ele>121.800563</ele>
        <time>2022-10-23T14:23:20.114Z</time>
      </trkpt>
      <trkpt lat="51.917531" lon="12.675937">
        <ele>121.897315</ele>
        <time>2022-10-23T14:23:37.181Z</time>
      </trkpt>
      <trkpt lat="51.917058" lon="12.676084">
        <ele>122.573488</ele>
        <time>2022-10-23T14:24:28.407Z</time>
      </trkpt>
      <trkpt lat="51.916933" lon="12.676161">
        <ele>122.829751</ele>
        <time>2022-10-23T14:24:42.748Z</time>
      </trkpt>
      <trkpt lat="51.916340" lon="12.676745">
        <ele>124.159436</ele>
        <time>2022-10-23T14:25:58.014Z</time>
      </trkpt>
      <trkpt lat="51.916242" lon="12.676875">
        <ele>124.402104</ele>
        <time>2022-10-23T14:26:11.741Z</time>
      </trkpt>
      <trkpt lat="51.916107" lon="12.677054">
        <ele>124.736329</ele>
        <time>2022-10-23T14:26:30.503Z</time>
      </trkpt>
      <trkpt lat="51.915967" lon="12.677290">
        <ele>125.123384</ele>
        <time>2022-10-23T14:26:52.025Z</time>
      </trkpt>
      <trkpt lat="51.915870" lon="12.677519">
        <ele>125.451765</ele>
        <time>2022-10-23T14:27:10.149Z</time>
      </trkpt>
      <trkpt lat="51.915796" lon="12.677784">
        <ele>125.541208</ele>
        <time>2022-10-23T14:27:28.979Z</time>
      </trkpt>
      <trkpt lat="51.915776" lon="12.678024">
        <ele>125.613783</ele>
        <time>2022-10-23T14:27:44.509Z</time>
      </trkpt>
      <trkpt lat="51.915485" lon="12.678102">
        <ele>125.757082</ele>
        <time>2022-10-23T14:28:15.068Z</time>
      </trkpt>
      <trkpt lat="51.915175" lon="12.677898">
        <ele>125.919626</ele>
        <time>2022-10-23T14:28:49.481Z</time>
      </trkpt>
      <trkpt lat="51.911520" lon="12.675069">
        <ele>125.033375</ele>
        <time>2022-10-23T14:35:37.495Z</time>
      </trkpt>
      <trkpt lat="51.911362" lon="12.674972">
        <ele>124.947192</ele>
        <time>2022-10-23T14:35:54.695Z</time>
      </trkpt>
      <trkpt lat="51.911246" lon="12.674941">
        <ele>124.887220</ele>
        <time>2022-10-23T14:36:06.731Z</time>
      </trkpt>
      <trkpt lat="51.910677" lon="12.674961">
        <ele>124.295872</ele>
        <time>2022-10-23T14:37:05.013Z</time>
      </trkpt>
      <trkpt lat="51.908160" lon="12.675982">
        <ele>121.536480</ele>
        <time>2022-10-23T14:41:31.385Z</time>
      </trkpt>
      <trkpt lat="51.907810" lon="12.676041">
        <ele>121.196262</ele>
        <time>2022-10-23T14:42:07.195Z</time>
      </trkpt>
      <trkpt lat="51.905887" lon="12.675866">
        <ele>120.900185</ele>
        <time>2022-10-23T14:45:20.204Z</time>
      </trkpt>
      <trkpt lat="51.903526" lon="12.675853">
        <ele>120.765827</ele>
        <time>2022-10-23T14:49:19.348Z</time>
      </trkpt>
      <trkpt lat="51.902956" lon="12.675915">
        <ele>120.101609</ele>
        <time>2022-10-23T14:50:18.277Z</time>
      </trkpt>
      <trkpt lat="51.903155" lon="12.674897">
        <ele>119.335553</ele>
        <time>2022-10-23T14:51:26.824Z</time>
      </trkpt>
      <trkpt lat="51.903213" lon="12.674495">
        <ele>118.900147</ele>
        <time>2022-10-23T14:51:53.516Z</time>
      </trkpt>
      <trkpt lat="51.903196" lon="12.674109">
        <ele>118.449274</ele>
        <time>2022-10-23T14:52:18.583Z</time>
      </trkpt>
      <trkpt lat="51.903135" lon="12.673702">
        <ele>117.961287</ele>
        <time>2022-10-23T14:52:45.688Z</time>
      </trkpt>
      <trkpt lat="51.902887" lon="12.672962">
        <ele>116.980130</ele>
        <time>2022-10-23T14:53:40.277Z</time>
      </trkpt>
      <trkpt lat="51.900898" lon="12.668203">
        <ele>112.298676</ele>
        <time>2022-10-23T14:59:43.491Z</time>
      </trkpt>
      <trkpt lat="51.900477" lon="12.667245">
        <ele>111.300362</ele>
        <time>2022-10-23T15:00:58.458Z</time>
      </trkpt>
      <trkpt lat="51.900102" lon="12.666364">
        <ele>110.023924</ele>
        <time>2022-10-23T15:02:06.940Z</time>
      </trkpt>
      <trkpt lat="51.899625" lon="12.665350">
        <ele>108.503248</ele>
        <time>2022-10-23T15:03:29.066Z</time>
      </trkpt>
      <trkpt lat="51.899570" lon="12.665318">
        <ele>108.390300</ele>
        <time>2022-10-23T15:03:35.249Z</time>
      </trkpt>
      <trkpt lat="51.899570" lon="12.665318">
        <ele>108.390300</ele>
        <time>2022-10-23T15:03:35.296Z</time>
      </trkpt>
      <trkpt lat="51.899573" lon="12.665304">
        <ele>108.372625</ele>
        <time>2022-10-23T15:03:36.211Z</time>
      </trkpt>
      <trkpt lat="51.899179" lon="12.665218">
        <ele>107.548028</ele>
        <time>2022-10-23T15:04:16.005Z</time>
      </trkpt>
      <trkpt lat="51.898942" lon="12.664496">
        <ele>106.429958</ele>
        <time>2022-10-23T15:05:06.517Z</time>
      </trkpt>
      <trkpt lat="51.898488" lon="12.663716">
        <ele>104.964001</ele>
        <time>2022-10-23T15:06:12.744Z</time>
      </trkpt>
      <trkpt lat="51.898035" lon="12.662937">
        <ele>103.560100</ele>
        <time>2022-10-23T15:07:18.857Z</time>
      </trkpt>
      <trkpt lat="51.897520" lon="12.664022">
        <ele>101.910370</ele>
        <time>2022-10-23T15:08:43.402Z</time>
      </trkpt>
      <trkpt lat="51.897006" lon="12.665106">
        <ele>100.275359</ele>
        <time>2022-10-23T15:10:07.835Z</time>
      </trkpt>
      <trkpt lat="51.896577" lon="12.664603">
        <ele>99.298409</ele>
        <time>2022-10-23T15:11:00.834Z</time>
      </trkpt>
      <trkpt lat="51.896148" lon="12.664099">
        <ele>98.320789</ele>
        <time>2022-10-23T15:11:53.869Z</time>
      </trkpt>
      <trkpt lat="51.895796" lon="12.664272">
        <ele>97.642139</ele>
        <time>2022-10-23T15:12:30.684Z</time>
      </trkpt>
      <trkpt lat="51.895247" lon="12.663633">
        <ele>96.430903</ele>
        <time>2022-10-23T15:13:38.338Z</time>
      </trkpt>
      <trkpt lat="51.894699" lon="12.662995">
        <ele>95.243454</ele>
        <time>2022-10-23T15:14:45.879Z</time>
      </trkpt>
      <trkpt lat="51.894729" lon="12.663057">
        <ele>95.157894</ele>
        <time>2022-10-23T15:14:50.745Z</time>
      </trkpt>
      <trkpt lat="51.894685" lon="12.663015">
        <ele>95.068028</ele>
        <time>2022-10-23T15:14:56.102Z</time>
      </trkpt>
      <trkpt lat="51.894512" lon="12.663120">
        <ele>94.742931</ele>
        <time>2022-10-23T15:15:15.361Z</time>
      </trkpt>
      <trkpt lat="51.893800" lon="12.663086">
        <ele>93.606427</ele>
        <time>2022-10-23T15:16:28.592Z</time>
      </trkpt>
      <trkpt lat="51.893697" lon="12.663129">
        <ele>93.461609</ele>
        <time>2022-10-23T15:16:39.530Z</time>
      </trkpt>
      <trkpt lat="51.893281" lon="12.663938">
        <ele>92.576808</ele>
        <time>2022-10-23T15:17:46.186Z</time>
      </trkpt>
      <trkpt lat="51.893002" lon="12.664169">
        <ele>92.150224</ele>
        <time>2022-10-23T15:18:18.473Z</time>
      </trkpt>
      <trkpt lat="51.892654" lon="12.664259">
        <ele>91.670412</ele>
        <time>2022-10-23T15:18:54.851Z</time>
      </trkpt>
      <trkpt lat="51.892539" lon="12.663393">
        <ele>90.830597</ele>
        <time>2022-10-23T15:19:51.314Z</time>
      </trkpt>
      <trkpt lat="51.892430" lon="12.663088">
        <ele>90.489660</ele>
        <time>2022-10-23T15:20:13.678Z</time>
      </trkpt>
      <trkpt lat="51.891859" lon="12.661802">
        <ele>88.957144</ele>
        <time>2022-10-23T15:21:54.776Z</time>
      </trkpt>
      <trkpt lat="51.891748" lon="12.661443">
        <ele>88.592616</ele>
        <time>2022-10-23T15:22:20.556Z</time>
      </trkpt>
      <trkpt lat="51.891523" lon="12.662058">
        <ele>87.998511</ele>
        <time>2022-10-23T15:23:06.239Z</time>
      </trkpt>
      <trkpt lat="51.890943" lon="12.661619">
        <ele>87.136548</ele>
        <time>2022-10-23T15:24:12.150Z</time>
      </trkpt>
      <trkpt lat="51.890096" lon="12.661252">
        <ele>85.993948</ele>
        <time>2022-10-23T15:25:41.558Z</time>
      </trkpt>
      <trkpt lat="51.889879" lon="12.661087">
        <ele>85.705170</ele>
        <time>2022-10-23T15:26:06.202Z</time>
      </trkpt>
      <trkpt lat="51.889488" lon="12.660682">
        <ele>85.146098</ele>
        <time>2022-10-23T15:26:53.750Z</time>
      </trkpt>
      <trkpt lat="51.889229" lon="12.660326">
        <ele>84.736926</ele>
        <time>2022-10-23T15:27:28.534Z</time>
      </trkpt>
      <trkpt lat="51.889019" lon="12.659932">
        <ele>84.349853</ele>
        <time>2022-10-23T15:28:01.549Z</time>
      </trkpt>
      <trkpt lat="51.888944" lon="12.659747">
        <ele>84.185278</ele>
        <time>2022-10-23T15:28:15.628Z</time>
      </trkpt>
      <trkpt lat="51.888793" lon="12.659487">
        <ele>83.877045</ele>
        <time>2022-10-23T15:28:38.322Z</time>
      </trkpt>
      <trkpt lat="51.888476" lon="12.659144">
        <ele>83.332295</ele>
        <time>2022-10-23T15:29:17.776Z</time>
      </trkpt>
      <trkpt lat="51.888283" lon="12.658982">
        <ele>83.021667</ele>
        <time>2022-10-23T15:29:40.310Z</time>
      </trkpt>
      <trkpt lat="51.888085" lon="12.658902">
        <ele>82.730043</ele>
        <time>2022-10-23T15:30:01.314Z</time>
      </trkpt>
      <trkpt lat="51.887707" lon="12.658619">
        <ele>82.134966</ele>
        <time>2022-10-23T15:30:44.088Z</time>
      </trkpt>
      <trkpt lat="51.887210" lon="12.658171">
        <ele>81.397487</ele>
        <time>2022-10-23T15:31:42.643Z</time>
      </trkpt>
      <trkpt lat="51.886579" lon="12.657594">
        <ele>80.665483</ele>
        <time>2022-10-23T15:32:57.130Z</time>
      </trkpt>
      <trkpt lat="51.886260" lon="12.657341">
        <ele>80.306665</ele>
        <time>2022-10-23T15:33:33.424Z</time>
      </trkpt>
      <trkpt lat="51.885743" lon="12.657098">
        <ele>79.762821</ele>
        <time>2022-10-23T15:34:28.021Z</time>
      </trkpt>
      <trkpt lat="51.882754" lon="12.654138">
        <ele>78.363128</ele>
        <time>2022-10-23T15:40:21.272Z</time>
      </trkpt>
      <trkpt lat="51.882582" lon="12.654287">
        <ele>78.282127</ele>
        <time>2022-10-23T15:40:40.992Z</time>
      </trkpt>
      <trkpt lat="51.882545" lon="12.654045">
        <ele>78.214925</ele>
        <time>2022-10-23T15:40:56.557Z</time>
      </trkpt>
      <trkpt lat="51.882449" lon="12.653335">
        <ele>78.019009</ele>
        <time>2022-10-23T15:41:41.911Z</time>
      </trkpt>
      <trkpt lat="51.882280" lon="12.652084">
        <ele>77.673822</ele>
        <time>2022-10-23T15:43:01.673Z</time>
      </trkpt>
      <trkpt lat="51.882247" lon="12.651841">
        <ele>77.606756</ele>
        <time>2022-10-23T15:43:17.176Z</time>
      </trkpt>
      <trkpt lat="51.881127" lon="12.652232">
        <ele>77.405314</ele>
        <time>2022-10-23T15:45:12.890Z</time>
      </trkpt>
      <trkpt lat="51.880311" lon="12.652535">
        <ele>77.305221</ele>
        <time>2022-10-23T15:46:37.154Z</time>
      </trkpt>
      <trkpt lat="51.880093" lon="12.652630">
        <ele>77.370298</ele>
        <time>2022-10-23T15:47:00.192Z</time>
      </trkpt>
      <trkpt lat="51.879962" lon="12.652679">
        <ele>77.409055</ele>
        <time>2022-10-23T15:47:13.896Z</time>
      </trkpt>
      <trkpt lat="51.879793" lon="12.652734">
        <ele>77.458746</ele>
        <time>2022-10-23T15:47:31.481Z</time>
      </trkpt>
      <trkpt lat="51.879715" lon="12.652970">
        <ele>77.506384</ele>
        <time>2022-10-23T15:47:48.287Z</time>
      </trkpt>
      <trkpt lat="51.879638" lon="12.652906">
        <ele>77.531332</ele>
        <time>2022-10-23T15:47:57.060Z</time>
      </trkpt>
      <trkpt lat="51.879558" lon="12.652839">
        <ele>77.557293</ele>
        <time>2022-10-23T15:48:06.174Z</time>
      </trkpt>
      <trkpt lat="51.879369" lon="12.652682">
        <ele>77.618522</ele>
        <time>2022-10-23T15:48:27.717Z</time>
      </trkpt>
      <trkpt lat="51.879321" lon="12.652643">
        <ele>77.634002</ele>
        <time>2022-10-23T15:48:33.188Z</time>
      </trkpt>
      <trkpt lat="51.878826" lon="12.652197">
        <ele>77.797284</ele>
        <time>2022-10-23T15:49:30.289Z</time>
      </trkpt>
      <trkpt lat="51.878789" lon="12.652305">
        <ele>77.804619</ele>
        <time>2022-10-23T15:49:37.972Z</time>
      </trkpt>
      <trkpt lat="51.878759" lon="12.652392">
        <ele>77.769093</ele>
        <time>2022-10-23T15:49:44.093Z</time>
      </trkpt>
      <trkpt lat="51.878655" lon="12.652562">
        <ele>77.683770</ele>
        <time>2022-10-23T15:49:58.905Z</time>
      </trkpt>
      <trkpt lat="51.878506" lon="12.652664">
        <ele>77.590356</ele>
        <time>2022-10-23T15:50:15.078Z</time>
      </trkpt>
      <trkpt lat="51.878295" lon="12.652694">
        <ele>77.468037</ele>
        <time>2022-10-23T15:50:36.393Z</time>
      </trkpt>
      <trkpt lat="51.877348" lon="12.652820">
        <ele>76.919312</ele>
        <time>2022-10-23T15:52:12.969Z</time>
      </trkpt>
      <trkpt lat="51.877127" lon="12.652850">
        <ele>76.791240</ele>
        <time>2022-10-23T15:52:35.764Z</time>
      </trkpt>
      <trkpt lat="51.876162" lon="12.652972">
        <ele>75.836029</ele>
        <time>2022-10-23T15:54:15.059Z</time>
      </trkpt>
      <trkpt lat="51.875632" lon="12.653039">
        <ele>75.305178</ele>
        <time>2022-10-23T15:55:09.444Z</time>
      </trkpt>
      <trkpt lat="51.875490" lon="12.653064">
        <ele>75.162546</ele>
        <time>2022-10-23T15:55:23.966Z</time>
      </trkpt>
      <trkpt lat="51.875471" lon="12.653002">
        <ele>75.119874</ele>
        <time>2022-10-23T15:55:28.338Z</time>
      </trkpt>
      <trkpt lat="51.875416" lon="12.652961">
        <ele>75.059415</ele>
        <time>2022-10-23T15:55:34.402Z</time>
      </trkpt>
      <trkpt lat="51.875357" lon="12.653001">
        <ele>74.995547</ele>
        <time>2022-10-23T15:55:40.915Z</time>
      </trkpt>
      <trkpt lat="51.875337" lon="12.653102">
        <ele>74.969102</ele>
        <time>2022-10-23T15:55:47.586Z</time>
      </trkpt>
      <trkpt lat="51.874615" lon="12.653202">
        <ele>74.815210</ele>
        <time>2022-10-23T15:57:00.536Z</time>
      </trkpt>
      <trkpt lat="51.874144" lon="12.653258">
        <ele>74.714914</ele>
        <time>2022-10-23T15:57:47.845Z</time>
      </trkpt>
      <trkpt lat="51.873941" lon="12.653288">
        <ele>74.671624</ele>
        <time>2022-10-23T15:58:08.251Z</time>
      </trkpt>
      <trkpt lat="51.873030" lon="12.653337">
        <ele>74.524322</ele>
        <time>2022-10-23T15:59:39.589Z</time>
      </trkpt>
      <trkpt lat="51.872961" lon="12.653342">
        <ele>74.515329</ele>
        <time>2022-10-23T15:59:46.502Z</time>
      </trkpt>
      <trkpt lat="51.872121" lon="12.653420">
        <ele>74.405783</ele>
        <time>2022-10-23T16:01:11.015Z</time>
      </trkpt>
      <trkpt lat="51.871283" lon="12.653495">
        <ele>74.247862</ele>
        <time>2022-10-23T16:02:35.437Z</time>
      </trkpt>
      <trkpt lat="51.870973" lon="12.653506">
        <ele>74.178157</ele>
        <time>2022-10-23T16:03:06.764Z</time>
      </trkpt>
      <trkpt lat="51.870227" lon="12.653559">
        <ele>74.010293</ele>
        <time>2022-10-23T16:04:21.917Z</time>
      </trkpt>
      <trkpt lat="51.870202" lon="12.653681">
        <ele>73.992451</ele>
        <time>2022-10-23T16:04:29.892Z</time>
      </trkpt>
      <trkpt lat="51.870153" lon="12.653718">
        <ele>73.980297</ele>
        <time>2022-10-23T16:04:35.324Z</time>
      </trkpt>
      <trkpt lat="51.870083" lon="12.653679">
        <ele>73.963656</ele>
        <time>2022-10-23T16:04:42.765Z</time>
      </trkpt>
      <trkpt lat="51.870059" lon="12.653607">
        <ele>73.958057</ele>
        <time>2022-10-23T16:04:47.823Z</time>
      </trkpt>
      <trkpt lat="51.869242" lon="12.653639">
        <ele>73.929408</ele>
        <time>2022-10-23T16:06:09.831Z</time>
      </trkpt>
      <trkpt lat="51.868090" lon="12.653705">
        <ele>73.901342</ele>
        <time>2022-10-23T16:08:05.309Z</time>
      </trkpt>
      <trkpt lat="51.867888" lon="12.653722">
        <ele>73.906633</ele>
        <time>2022-10-23T16:08:25.729Z</time>
      </trkpt>
      <trkpt lat="51.867249" lon="12.653780">
        <ele>73.923374</ele>
        <time>2022-10-23T16:09:29.924Z</time>
      </trkpt>
      <trkpt lat="51.866679" lon="12.653817">
        <ele>73.938296</ele>
        <time>2022-10-23T16:10:27.001Z</time>
      </trkpt>
      <trkpt lat="51.866582" lon="12.653779">
        <ele>73.940906</ele>
        <time>2022-10-23T16:10:37.149Z</time>
      </trkpt>
      <trkpt lat="51.866479" lon="12.653739">
        <ele>73.949469</ele>
        <time>2022-10-23T16:10:47.885Z</time>
      </trkpt>
      <trkpt lat="51.866039" lon="12.653434">
        <ele>74.091066</ele>
        <time>2022-10-23T16:11:36.963Z</time>
      </trkpt>
      <trkpt lat="51.865705" lon="12.653211">
        <ele>74.197948</ele>
        <time>2022-10-23T16:12:13.845Z</time>
      </trkpt>
      <trkpt lat="51.865462" lon="12.653047">
        <ele>74.275832</ele>
        <time>2022-10-23T16:12:40.621Z</time>
      </trkpt>
      <trkpt lat="51.865394" lon="12.652998">
        <ele>74.297851</ele>
        <time>2022-10-23T16:12:48.069Z</time>
      </trkpt>
      <trkpt lat="51.865321" lon="12.652951">
        <ele>74.321093</ele>
        <time>2022-10-23T16:12:56.004Z</time>
      </trkpt>
      <trkpt lat="51.865099" lon="12.652812">
        <ele>74.391509</ele>
        <time>2022-10-23T16:13:19.926Z</time>
      </trkpt>
      <trkpt lat="51.864765" lon="12.652615">
        <ele>74.449260</ele>
        <time>2022-10-23T16:13:55.482Z</time>
      </trkpt>
      <trkpt lat="51.864653" lon="12.652755">
        <ele>74.398517</ele>
        <time>2022-10-23T16:14:09.661Z</time>
      </trkpt>
      <trkpt lat="51.864623" lon="12.652500">
        <ele>74.341027</ele>
        <time>2022-10-23T16:14:25.732Z</time>
      </trkpt>
      <trkpt lat="51.864724" lon="12.651887">
        <ele>74.200518</ele>
        <time>2022-10-23T16:15:05.115Z</time>
      </trkpt>
      <trkpt lat="51.864841" lon="12.651182">
        <ele>74.038844</ele>
        <time>2022-10-23T16:15:50.453Z</time>
      </trkpt>
      <trkpt lat="51.865033" lon="12.650130">
        <ele>73.793200</ele>
        <time>2022-10-23T16:16:59.322Z</time>
      </trkpt>
      <trkpt lat="51.865103" lon="12.649776">
        <ele>73.704399</ele>
        <time>2022-10-23T16:17:22.919Z</time>
      </trkpt>
      <trkpt lat="51.865367" lon="12.648481">
        <ele>73.378599</ele>
        <time>2022-10-23T16:18:48.032Z</time>
      </trkpt>
      <trkpt lat="51.865572" lon="12.647548">
        <ele>73.142017</ele>
        <time>2022-10-23T16:19:49.433Z</time>
      </trkpt>
      <trkpt lat="51.865652" lon="12.647548">
        <ele>73.177422</ele>
        <time>2022-10-23T16:19:57.431Z</time>
      </trkpt>
      <trkpt lat="51.865794" lon="12.647613">
        <ele>73.283207</ele>
        <time>2022-10-23T16:20:12.600Z</time>
      </trkpt>
      <trkpt lat="51.865652" lon="12.647548">
        <ele>73.388993</ele>
        <time>2022-10-23T16:20:27.464Z</time>
      </trkpt>
      <trkpt lat="51.865572" lon="12.647548">
        <ele>73.446343</ele>
        <time>2022-10-23T16:20:35.525Z</time>
      </trkpt>
      <trkpt lat="51.865726" lon="12.646619">
        <ele>73.872152</ele>
        <time>2022-10-23T16:21:36.744Z</time>
      </trkpt>
      <trkpt lat="51.865866" lon="12.645768">
        <ele>74.262011</ele>
        <time>2022-10-23T16:22:33.166Z</time>
      </trkpt>
      <trkpt lat="51.865966" lon="12.645792">
        <ele>74.334482</ele>
        <time>2022-10-23T16:22:43.662Z</time>
      </trkpt>
      <trkpt lat="51.866068" lon="12.645821">
        <ele>74.408722</ele>
        <time>2022-10-23T16:22:54.353Z</time>
      </trkpt>
      <trkpt lat="51.866081" lon="12.645716">
        <ele>74.431403</ele>
        <time>2022-10-23T16:23:01.115Z</time>
      </trkpt>
      <trkpt lat="51.866248" lon="12.645447">
        <ele>74.471369</ele>
        <time>2022-10-23T16:23:25.652Z</time>
      </trkpt>
      <trkpt lat="51.866271" lon="12.645357">
        <ele>74.481575</ele>
        <time>2022-10-23T16:23:31.934Z</time>
      </trkpt>
      <trkpt lat="51.866333" lon="12.645032">
        <ele>74.517215</ele>
        <time>2022-10-23T16:23:53.932Z</time>
      </trkpt>
      <trkpt lat="51.866352" lon="12.644805">
        <ele>74.541217</ele>
        <time>2022-10-23T16:24:08.702Z</time>
      </trkpt>
      <trkpt lat="51.866380" lon="12.644461">
        <ele>74.577572</ele>
        <time>2022-10-23T16:24:30.693Z</time>
      </trkpt>
      <trkpt lat="51.866350" lon="12.644071">
        <ele>74.618750</ele>
        <time>2022-10-23T16:24:55.215Z</time>
      </trkpt>
      <trkpt lat="51.866168" lon="12.644101">
        <ele>74.649791</ele>
        <time>2022-10-23T16:25:13.620Z</time>
      </trkpt>
      <trkpt lat="51.866316" lon="12.642822">
        <ele>74.044119</ele>
        <time>2022-10-23T16:26:35.894Z</time>
      </trkpt>
      <trkpt lat="51.866253" lon="12.642808">
        <ele>73.914954</ele>
        <time>2022-10-23T16:26:42.367Z</time>
      </trkpt>
      <trkpt lat="51.866194" lon="12.642756">
        <ele>73.778513</ele>
        <time>2022-10-23T16:26:49.371Z</time>
      </trkpt>
      <trkpt lat="51.865448" lon="12.642448">
        <ele>72.214759</ele>
        <time>2022-10-23T16:28:09.857Z</time>
      </trkpt>
      <trkpt lat="51.865296" lon="12.642419">
        <ele>71.903879</ele>
        <time>2022-10-23T16:28:25.874Z</time>
      </trkpt>
      <trkpt lat="51.864953" lon="12.642383">
        <ele>71.205712</ele>
        <time>2022-10-23T16:29:02.129Z</time>
      </trkpt>
      <trkpt lat="51.864373" lon="12.642295">
        <ele>70.054067</ele>
        <time>2022-10-23T16:30:03.976Z</time>
      </trkpt>
      <trkpt lat="51.864073" lon="12.642242">
        <ele>69.459492</ele>
        <time>2022-10-23T16:30:35.451Z</time>
      </trkpt>
      <trkpt lat="51.863847" lon="12.642101">
        <ele>68.982316</ele>
        <time>2022-10-23T16:31:00.432Z</time>
      </trkpt>
      <trkpt lat="51.863775" lon="12.642045">
        <ele>68.824946</ele>
        <time>2022-10-23T16:31:08.736Z</time>
      </trkpt>
      <trkpt lat="51.863724" lon="12.642006">
        <ele>68.713824</ele>
        <time>2022-10-23T16:31:14.561Z</time>
      </trkpt>
      <trkpt lat="51.863630" lon="12.642376">
        <ele>68.227044</ele>
        <time>2022-10-23T16:31:39.961Z</time>
      </trkpt>
      <trkpt lat="51.863464" lon="12.642292">
        <ele>67.884390</ele>
        <time>2022-10-23T16:31:58.071Z</time>
      </trkpt>
      <trkpt lat="51.863439" lon="12.642315">
        <ele>67.827740</ele>
        <time>2022-10-23T16:32:00.961Z</time>
      </trkpt>
      <trkpt lat="51.863392" lon="12.642520">
        <ele>67.561684</ele>
        <time>2022-10-23T16:32:14.783Z</time>
      </trkpt>
      <trkpt lat="51.863322" lon="12.642491">
        <ele>67.481913</ele>
        <time>2022-10-23T16:32:22.357Z</time>
      </trkpt>
      <trkpt lat="51.863239" lon="12.642448">
        <ele>67.405788</ele>
        <time>2022-10-23T16:32:31.439Z</time>
      </trkpt>
      <trkpt lat="51.863159" lon="12.642409">
        <ele>67.332805</ele>
        <time>2022-10-23T16:32:40.052Z</time>
      </trkpt>
      <trkpt lat="51.863091" lon="12.642776">
        <ele>67.126104</ele>
        <time>2022-10-23T16:33:04.413Z</time>
      </trkpt>
      <trkpt lat="51.863052" lon="12.642770">
        <ele>67.091882</ele>
        <time>2022-10-23T16:33:08.480Z</time>
      </trkpt>
      <trkpt lat="51.862941" lon="12.642996">
        <ele>66.936106</ele>
        <time>2022-10-23T16:33:26.703Z</time>
      </trkpt>
      <trkpt lat="51.862731" lon="12.643232">
        <ele>66.712809</ele>
        <time>2022-10-23T16:33:52.944Z</time>
      </trkpt>
      <trkpt lat="51.862502" lon="12.643492">
        <ele>66.468492</ele>
        <time>2022-10-23T16:34:21.298Z</time>
      </trkpt>
      <trkpt lat="51.861912" lon="12.644067">
        <ele>65.998830</ele>
        <time>2022-10-23T16:35:30.876Z</time>
      </trkpt>
      <trkpt lat="51.860823" lon="12.645254">
        <ele>66.467817</ele>
        <time>2022-10-23T16:37:44.645Z</time>
      </trkpt>
      <trkpt lat="51.860293" lon="12.646193">
        <ele>66.578195</ele>
        <time>2022-10-23T16:39:04.887Z</time>
      </trkpt>
      <trkpt lat="51.860110" lon="12.646580">
        <ele>66.559748</ele>
        <time>2022-10-23T16:39:35.088Z</time>
      </trkpt>
      <trkpt lat="51.859864" lon="12.647016">
        <ele>66.537397</ele>
        <time>2022-10-23T16:40:11.736Z</time>
      </trkpt>
      <trkpt lat="51.859814" lon="12.647407">
        <ele>66.522284</ele>
        <time>2022-10-23T16:40:36.577Z</time>
      </trkpt>
      <trkpt lat="51.859842" lon="12.647777">
        <ele>66.508176</ele>
        <time>2022-10-23T16:40:59.741Z</time>
      </trkpt>
      <trkpt lat="51.860094" lon="12.648448">
        <ele>66.461725</ele>
        <time>2022-10-23T16:41:48.830Z</time>
      </trkpt>
      <trkpt lat="51.860224" lon="12.649193">
        <ele>66.398503</ele>
        <time>2022-10-23T16:42:37.200Z</time>
      </trkpt>
      <trkpt lat="51.860219" lon="12.649376">
        <ele>66.383543</ele>
        <time>2022-10-23T16:42:48.617Z</time>
      </trkpt>
      <trkpt lat="51.860061" lon="12.650272">
        <ele>66.307447</ele>
        <time>2022-10-23T16:43:46.564Z</time>
      </trkpt>
      <trkpt lat="51.860036" lon="12.650598">
        <ele>66.280620</ele>
        <time>2022-10-23T16:44:06.973Z</time>
      </trkpt>
      <trkpt lat="51.860044" lon="12.650824">
        <ele>66.262134</ele>
        <time>2022-10-23T16:44:21.186Z</time>
      </trkpt>
      <trkpt lat="51.860079" lon="12.651045">
        <ele>66.351636</ele>
        <time>2022-10-23T16:44:35.634Z</time>
      </trkpt>
      <trkpt lat="51.860073" lon="12.651363">
        <ele>66.568666</ele>
        <time>2022-10-23T16:44:55.907Z</time>
      </trkpt>
      <trkpt lat="51.860001" lon="12.651633">
        <ele>66.769287</ele>
        <time>2022-10-23T16:45:14.768Z</time>
      </trkpt>
      <trkpt lat="51.859920" lon="12.651781">
        <ele>66.904186</ele>
        <time>2022-10-23T16:45:27.588Z</time>
      </trkpt>
      <trkpt lat="51.859913" lon="12.651873">
        <ele>66.967420</ele>
        <time>2022-10-23T16:45:33.612Z</time>
      </trkpt>
      <trkpt lat="51.860075" lon="12.651951">
        <ele>67.154104</ele>
        <time>2022-10-23T16:45:51.356Z</time>
      </trkpt>
      <trkpt lat="51.860076" lon="12.651983">
        <ele>67.175961</ele>
        <time>2022-10-23T16:45:53.439Z</time>
      </trkpt>
      <trkpt lat="51.859992" lon="12.651960">
        <ele>67.270062</ele>
        <time>2022-10-23T16:46:02.355Z</time>
      </trkpt>
      <trkpt lat="51.855962" lon="12.650892">
        <ele>71.630357</ele>
        <time>2022-10-23T16:53:09.753Z</time>
      </trkpt>
      <trkpt lat="51.855864" lon="12.650866">
        <ele>71.704855</ele>
        <time>2022-10-23T16:53:19.819Z</time>
      </trkpt>
      <trkpt lat="51.854032" lon="12.650303">
        <ele>70.657778</ele>
        <time>2022-10-23T16:56:29.948Z</time>
      </trkpt>
      <trkpt lat="51.853498" lon="12.650109">
        <ele>70.283675</ele>
        <time>2022-10-23T16:57:25.625Z</time>
      </trkpt>
      <trkpt lat="51.852717" lon="12.649728">
        <ele>69.798083</ele>
        <time>2022-10-23T16:58:48.269Z</time>
      </trkpt>
      <trkpt lat="51.852592" lon="12.649639">
        <ele>69.716790</ele>
        <time>2022-10-23T16:59:02.020Z</time>
      </trkpt>
      <trkpt lat="51.852464" lon="12.649581">
        <ele>69.637661</ele>
        <time>2022-10-23T16:59:15.442Z</time>
      </trkpt>
      <trkpt lat="51.852234" lon="12.649523">
        <ele>69.499087</ele>
        <time>2022-10-23T16:59:38.938Z</time>
      </trkpt>
      <trkpt lat="51.851810" lon="12.649285">
        <ele>69.197846</ele>
        <time>2022-10-23T17:00:24.334Z</time>
      </trkpt>
      <trkpt lat="51.851014" lon="12.648747">
        <ele>68.582004</ele>
        <time>2022-10-23T17:01:51.987Z</time>
      </trkpt>
      <trkpt lat="51.850075" lon="12.647931">
        <ele>67.975641</ele>
        <time>2022-10-23T17:03:40.567Z</time>
      </trkpt>
      <trkpt lat="51.849527" lon="12.647302">
        <ele>67.744959</ele>
        <time>2022-10-23T17:04:48.572Z</time>
      </trkpt>
      <trkpt lat="51.848769" lon="12.646243">
        <ele>67.577351</ele>
        <time>2022-10-23T17:06:29.100Z</time>
      </trkpt>
      <trkpt lat="51.847975" lon="12.644850">
        <ele>67.883406</ele>
        <time>2022-10-23T17:08:27.863Z</time>
      </trkpt>
      <trkpt lat="51.846678" lon="12.642192">
        <ele>68.305690</ele>
        <time>2022-10-23T17:11:59.146Z</time>
      </trkpt>
      <trkpt lat="51.846213" lon="12.641206">
        <ele>67.986277</ele>
        <time>2022-10-23T17:13:16.081Z</time>
      </trkpt>
      <trkpt lat="51.844845" lon="12.638246">
        <ele>66.627967</ele>
        <time>2022-10-23T17:17:08.120Z</time>
      </trkpt>
      <trkpt lat="51.844823" lon="12.638151">
        <ele>66.582759</ele>
        <time>2022-10-23T17:17:14.480Z</time>
      </trkpt>
      <trkpt lat="51.844835" lon="12.637905">
        <ele>66.472802</ele>
        <time>2022-10-23T17:17:29.979Z</time>
      </trkpt>
      <trkpt lat="51.844814" lon="12.637854">
        <ele>66.445492</ele>
        <time>2022-10-23T17:17:33.757Z</time>
      </trkpt>
      <trkpt lat="51.844886" lon="12.637752">
        <ele>66.376480</ele>
        <time>2022-10-23T17:17:43.482Z</time>
      </trkpt>
      <trkpt lat="51.844921" lon="12.637701">
        <ele>66.342514</ele>
        <time>2022-10-23T17:17:48.240Z</time>
      </trkpt>
      <trkpt lat="51.845538" lon="12.636755">
        <ele>65.736809</ele>
        <time>2022-10-23T17:19:14.758Z</time>
      </trkpt>
      <trkpt lat="51.845661" lon="12.636483">
        <ele>65.588916</ele>
        <time>2022-10-23T17:19:35.974Z</time>
      </trkpt>
      <trkpt lat="51.845683" lon="12.636373">
        <ele>65.538188</ele>
        <time>2022-10-23T17:19:43.238Z</time>
      </trkpt>
      <trkpt lat="51.845342" lon="12.636068">
        <ele>65.261501</ele>
        <time>2022-10-23T17:20:22.966Z</time>
      </trkpt>
      <trkpt lat="51.845301" lon="12.636003">
        <ele>65.220743</ele>
        <time>2022-10-23T17:20:28.863Z</time>
      </trkpt>
      <trkpt lat="51.845261" lon="12.635925">
        <ele>65.176267</ele>
        <time>2022-10-23T17:20:35.197Z</time>
      </trkpt>
      <trkpt lat="51.845231" lon="12.635878">
        <ele>65.146616</ele>
        <time>2022-10-23T17:20:39.412Z</time>
      </trkpt>
      <trkpt lat="51.845236" lon="12.635626">
        <ele>65.035995</ele>
        <time>2022-10-23T17:20:55.149Z</time>
      </trkpt>
      <trkpt lat="51.845260" lon="12.635575">
        <ele>65.007866</ele>
        <time>2022-10-23T17:20:59.125Z</time>
      </trkpt>
      <trkpt lat="51.845301" lon="12.635491">
        <ele>64.960897</ele>
        <time>2022-10-23T17:21:05.822Z</time>
      </trkpt>
      <trkpt lat="51.845396" lon="12.635413">
        <ele>64.925316</ele>
        <time>2022-10-23T17:21:16.579Z</time>
      </trkpt>
      <trkpt lat="51.845536" lon="12.635398">
        <ele>64.925710</ele>
        <time>2022-10-23T17:21:30.645Z</time>
      </trkpt>
      <trkpt lat="51.845615" lon="12.635240">
        <ele>64.926063</ele>
        <time>2022-10-23T17:21:43.257Z</time>
      </trkpt>
      <trkpt lat="51.845768" lon="12.634741">
        <ele>64.927029</ele>
        <time>2022-10-23T17:22:17.911Z</time>
      </trkpt>
      <trkpt lat="51.845861" lon="12.634064">
        <ele>64.928232</ele>
        <time>2022-10-23T17:23:00.787Z</time>
      </trkpt>
      <trkpt lat="51.845985" lon="12.632423">
        <ele>65.157610</ele>
        <time>2022-10-23T17:24:43.398Z</time>
      </trkpt>
      <trkpt lat="51.846044" lon="12.632371">
        <ele>65.205745</ele>
        <time>2022-10-23T17:24:50.211Z</time>
      </trkpt>
      <trkpt lat="51.845302" lon="12.632407">
        <ele>65.737638</ele>
        <time>2022-10-23T17:26:06.679Z</time>
      </trkpt>
      <trkpt lat="51.845223" lon="12.629249">
        <ele>67.242471</ele>
        <time>2022-10-23T17:29:28.584Z</time>
      </trkpt>
      <trkpt lat="51.845211" lon="12.628523">
        <ele>67.601010</ele>
        <time>2022-10-23T17:30:14.740Z</time>
      </trkpt>
      <trkpt lat="51.845171" lon="12.627327">
        <ele>67.628418</ele>
        <time>2022-10-23T17:31:29.718Z</time>
      </trkpt>
      <trkpt lat="51.845109" lon="12.625073">
        <ele>67.464692</ele>
        <time>2022-10-23T17:33:50.101Z</time>
      </trkpt>
      <trkpt lat="51.845004" lon="12.623069">
        <ele>66.918758</ele>
        <time>2022-10-23T17:35:55.767Z</time>
      </trkpt>
      <trkpt lat="51.844988" lon="12.622376">
        <ele>66.774040</ele>
        <time>2022-10-23T17:36:39.020Z</time>
      </trkpt>
      <trkpt lat="51.844984" lon="12.622295">
        <ele>66.767781</ele>
        <time>2022-10-23T17:36:44.046Z</time>
      </trkpt>
      <trkpt lat="51.844933" lon="12.620936">
        <ele>66.662904</ele>
        <time>2022-10-23T17:38:08.984Z</time>
      </trkpt>
      <trkpt lat="51.844501" lon="12.620862">
        <ele>66.608739</ele>
        <time>2022-10-23T17:38:52.444Z</time>
      </trkpt>
      <trkpt lat="51.843620" lon="12.621064">
        <ele>66.802000</ele>
        <time>2022-10-23T17:40:22.858Z</time>
      </trkpt>
      <trkpt lat="51.843544" lon="12.621028">
        <ele>66.835514</ele>
        <time>2022-10-23T17:40:30.985Z</time>
      </trkpt>
      <trkpt lat="51.843497" lon="12.620905">
        <ele>66.873330</ele>
        <time>2022-10-23T17:40:40.099Z</time>
      </trkpt>
      <trkpt lat="51.843483" lon="12.620297">
        <ele>67.032418</ele>
        <time>2022-10-23T17:41:18.699Z</time>
      </trkpt>
      <trkpt lat="51.843435" lon="12.619697">
        <ele>67.190614</ele>
        <time>2022-10-23T17:41:57.224Z</time>
      </trkpt>
      <trkpt lat="51.843244" lon="12.617176">
        <ele>66.670706</ele>
        <time>2022-10-23T17:44:34.817Z</time>
      </trkpt>
      <trkpt lat="51.843116" lon="12.615871">
        <ele>66.076941</ele>
        <time>2022-10-23T17:45:58.861Z</time>
      </trkpt>
      <trkpt lat="51.843124" lon="12.615667">
        <ele>65.931877</ele>
        <time>2022-10-23T17:46:11.911Z</time>
      </trkpt>
      <trkpt lat="51.842821" lon="12.615479">
        <ele>65.559135</ele>
        <time>2022-10-23T17:46:45.480Z</time>
      </trkpt>
      <trkpt lat="51.841022" lon="12.614698">
        <ele>63.973740</ele>
        <time>2022-10-23T17:49:55.565Z</time>
      </trkpt>
      <trkpt lat="51.840642" lon="12.614408">
        <ele>63.790997</ele>
        <time>2022-10-23T17:50:37.698Z</time>
      </trkpt>
      <trkpt lat="51.840452" lon="12.614340">
        <ele>63.706356</ele>
        <time>2022-10-23T17:50:57.217Z</time>
      </trkpt>
      <trkpt lat="51.838425" lon="12.613930">
        <ele>63.617350</ele>
        <time>2022-10-23T17:54:21.849Z</time>
      </trkpt>
      <trkpt lat="51.834722" lon="12.613034">
        <ele>63.975317</ele>
        <time>2022-10-23T18:00:38.124Z</time>
      </trkpt>
      <trkpt lat="51.833576" lon="12.612812">
        <ele>63.991494</ele>
        <time>2022-10-23T18:02:33.757Z</time>
      </trkpt>
      <trkpt lat="51.833374" lon="12.612827">
        <ele>63.994096</ele>
        <time>2022-10-23T18:02:53.992Z</time>
      </trkpt>
      <trkpt lat="51.833120" lon="12.612915">
        <ele>63.997438</ele>
        <time>2022-10-23T18:03:19.978Z</time>
      </trkpt>
      <trkpt lat="51.832929" lon="12.612982">
        <ele>63.999953</ele>
        <time>2022-10-23T18:03:39.520Z</time>
      </trkpt>
      <trkpt lat="51.832787" lon="12.613089">
        <ele>63.999999</ele>
        <time>2022-10-23T18:03:55.244Z</time>
      </trkpt>
      <trkpt lat="51.830652" lon="12.615409">
        <ele>64.112333</ele>
        <time>2022-10-23T18:08:12.851Z</time>
      </trkpt>
      <trkpt lat="51.830595" lon="12.615455">
        <ele>64.120059</ele>
        <time>2022-10-23T18:08:19.293Z</time>
      </trkpt>
      <trkpt lat="51.830424" lon="12.615269">
        <ele>64.145051</ele>
        <time>2022-10-23T18:08:40.058Z</time>
      </trkpt>
      <trkpt lat="51.830266" lon="12.615139">
        <ele>64.166551</ele>
        <time>2022-10-23T18:08:57.931Z</time>
      </trkpt>
      <trkpt lat="51.829930" lon="12.614637">
        <ele>64.228644</ele>
        <time>2022-10-23T18:09:44.090Z</time>
      </trkpt>
      <trkpt lat="51.828699" lon="12.612671">
        <ele>64.798902</ele>
        <time>2022-10-23T18:12:39.004Z</time>
      </trkpt>
      <trkpt lat="51.828403" lon="12.612306">
        <ele>65.197566</ele>
        <time>2022-10-23T18:13:16.943Z</time>
      </trkpt>
      <trkpt lat="51.827963" lon="12.611908">
        <ele>65.779130</ele>
        <time>2022-10-23T18:14:08.879Z</time>
      </trkpt>
      <trkpt lat="51.827844" lon="12.611727">
        <ele>65.967556</ele>
        <time>2022-10-23T18:14:25.841Z</time>
      </trkpt>
      <trkpt lat="51.827784" lon="12.611600">
        <ele>66.081536</ele>
        <time>2022-10-23T18:14:36.136Z</time>
      </trkpt>
      <trkpt lat="51.827675" lon="12.611424">
        <ele>66.259193</ele>
        <time>2022-10-23T18:14:52.278Z</time>
      </trkpt>
      <trkpt lat="51.827533" lon="12.611195">
        <ele>66.490493</ele>
        <time>2022-10-23T18:15:13.419Z</time>
      </trkpt>
      <trkpt lat="51.827116" lon="12.610346">
        <ele>67.555321</ele>
        <time>2022-10-23T18:16:24.924Z</time>
      </trkpt>
      <trkpt lat="51.826120" lon="12.608944">
        <ele>70.254942</ele>
        <time>2022-10-23T18:18:47.494Z</time>
      </trkpt>
      <trkpt lat="51.825771" lon="12.608410">
        <ele>70.901494</ele>
        <time>2022-10-23T18:19:38.981Z</time>
      </trkpt>
      <trkpt lat="51.824889" lon="12.607274">
        <ele>72.056619</ele>
        <time>2022-10-23T18:21:36.872Z</time>
      </trkpt>
      <trkpt lat="51.823677" lon="12.605543">
        <ele>71.347535</ele>
        <time>2022-10-23T18:24:20.247Z</time>
      </trkpt>
      <trkpt lat="51.822065" lon="12.603141">
        <ele>67.961862</ele>
        <time>2022-10-23T18:28:08.344Z</time>
      </trkpt>
      <trkpt lat="51.821704" lon="12.602486">
        <ele>67.515824</ele>
        <time>2022-10-23T18:29:03.936Z</time>
      </trkpt>
      <trkpt lat="51.821680" lon="12.602378">
        <ele>67.478958</ele>
        <time>2022-10-23T18:29:11.087Z</time>
      </trkpt>
      <trkpt lat="51.821687" lon="12.602068">
        <ele>67.379313</ele>
        <time>2022-10-23T18:29:30.580Z</time>
      </trkpt>
      <trkpt lat="51.821783" lon="12.600616">
        <ele>66.910238</ele>
        <time>2022-10-23T18:31:01.394Z</time>
      </trkpt>
      <trkpt lat="51.821914" lon="12.598072">
        <ele>67.084173</ele>
        <time>2022-10-23T18:33:40.311Z</time>
      </trkpt>
      <trkpt lat="51.821893" lon="12.597011">
        <ele>67.369852</ele>
        <time>2022-10-23T18:34:46.842Z</time>
      </trkpt>
      <trkpt lat="51.821906" lon="12.596449">
        <ele>67.681509</ele>
        <time>2022-10-23T18:35:22.350Z</time>
      </trkpt>
      <trkpt lat="51.821958" lon="12.595939">
        <ele>67.967950</ele>
        <time>2022-10-23T18:35:55.115Z</time>
      </trkpt>
      <trkpt lat="51.822311" lon="12.593399">
        <ele>69.310245</ele>
        <time>2022-10-23T18:38:43.520Z</time>
      </trkpt>
      <trkpt lat="51.822540" lon="12.591850">
        <ele>70.049750</ele>
        <time>2022-10-23T18:40:24.566Z</time>
      </trkpt>
      <trkpt lat="51.822660" lon="12.590472">
        <ele>69.680432</ele>
        <time>2022-10-23T18:41:51.371Z</time>
      </trkpt>
      <trkpt lat="51.822756" lon="12.588893">
        <ele>69.065434</ele>
        <time>2022-10-23T18:43:31.406Z</time>
      </trkpt>
      <trkpt lat="51.822896" lon="12.587395">
        <ele>68.716999</ele>
        <time>2022-10-23T18:45:06.971Z</time>
      </trkpt>
      <trkpt lat="51.823289" lon="12.581772">
        <ele>69.240027</ele>
        <time>2022-10-23T18:50:59.379Z</time>
      </trkpt>
      <trkpt lat="51.823554" lon="12.578633">
        <ele>70.836789</ele>
        <time>2022-10-23T18:54:21.988Z</time>
      </trkpt>
      <trkpt lat="51.823729" lon="12.576248">
        <ele>71.672660</ele>
        <time>2022-10-23T18:56:56.530Z</time>
      </trkpt>
      <trkpt lat="51.823750" lon="12.575238">
        <ele>71.613543</ele>
        <time>2022-10-23T18:57:59.183Z</time>
      </trkpt>
      <trkpt lat="51.823758" lon="12.574945">
        <ele>71.596386</ele>
        <time>2022-10-23T18:58:17.609Z</time>
      </trkpt>
      <trkpt lat="51.823146" lon="12.575098">
        <ele>71.022211</ele>
        <time>2022-10-23T18:59:21.301Z</time>
      </trkpt>
      <trkpt lat="51.821700" lon="12.575300">
        <ele>67.595765</ele>
        <time>2022-10-23T19:01:54.633Z</time>
      </trkpt>
      <trkpt lat="51.821444" lon="12.575294">
        <ele>67.141138</ele>
        <time>2022-10-23T19:02:21.678Z</time>
      </trkpt>
      <trkpt lat="51.821333" lon="12.575270">
        <ele>66.999869</ele>
        <time>2022-10-23T19:02:33.442Z</time>
      </trkpt>
      <trkpt lat="51.820932" lon="12.575160">
        <ele>66.486797</ele>
        <time>2022-10-23T19:03:15.901Z</time>
      </trkpt>
      <trkpt lat="51.819717" lon="12.574738">
        <ele>65.086036</ele>
        <time>2022-10-23T19:05:22.466Z</time>
      </trkpt>
      <trkpt lat="51.819160" lon="12.574421">
        <ele>65.336143</ele>
        <time>2022-10-23T19:06:22.975Z</time>
      </trkpt>
      <trkpt lat="51.818104" lon="12.573862">
        <ele>65.805337</ele>
        <time>2022-10-23T19:08:17.048Z</time>
      </trkpt>
      <trkpt lat="51.817940" lon="12.573726">
        <ele>65.746211</ele>
        <time>2022-10-23T19:08:35.851Z</time>
      </trkpt>
      <trkpt lat="51.817685" lon="12.573409">
        <ele>65.643035</ele>
        <time>2022-10-23T19:09:08.337Z</time>
      </trkpt>
      <trkpt lat="51.817540" lon="12.573120">
        <ele>65.569217</ele>
        <time>2022-10-23T19:09:31.408Z</time>
      </trkpt>
      <trkpt lat="51.817514" lon="12.572971">
        <ele>65.538512</ele>
        <time>2022-10-23T19:09:41.021Z</time>
      </trkpt>
      <trkpt lat="51.817432" lon="12.572363">
        <ele>65.415095</ele>
        <time>2022-10-23T19:10:19.924Z</time>
      </trkpt>
      <trkpt lat="51.817336" lon="12.572228">
        <ele>65.374285</ele>
        <time>2022-10-23T19:10:32.866Z</time>
      </trkpt>
      <trkpt lat="51.817262" lon="12.572169">
        <ele>65.347817</ele>
        <time>2022-10-23T19:10:41.357Z</time>
      </trkpt>
      <trkpt lat="51.817075" lon="12.572148">
        <ele>65.287679</ele>
        <time>2022-10-23T19:11:00.446Z</time>
      </trkpt>
      <trkpt lat="51.816570" lon="12.572126">
        <ele>64.996988</ele>
        <time>2022-10-23T19:11:52.283Z</time>
      </trkpt>
      <trkpt lat="51.815891" lon="12.571816">
        <ele>64.488835</ele>
        <time>2022-10-23T19:13:04.330Z</time>
      </trkpt>
      <trkpt lat="51.815682" lon="12.571767">
        <ele>64.336730</ele>
        <time>2022-10-23T19:13:25.738Z</time>
      </trkpt>
      <trkpt lat="51.815619" lon="12.571772">
        <ele>64.291300</ele>
        <time>2022-10-23T19:13:32.173Z</time>
      </trkpt>
      <trkpt lat="51.815562" lon="12.571778">
        <ele>64.250159</ele>
        <time>2022-10-23T19:13:38.056Z</time>
      </trkpt>
      <trkpt lat="51.815304" lon="12.571884">
        <ele>64.058435</ele>
        <time>2022-10-23T19:14:04.997Z</time>
      </trkpt>
      <trkpt lat="51.813431" lon="12.573373">
        <ele>64.063232</ele>
        <time>2022-10-23T19:17:34.913Z</time>
      </trkpt>
      <trkpt lat="51.813199" lon="12.573471">
        <ele>64.072274</ele>
        <time>2022-10-23T19:17:58.930Z</time>
      </trkpt>
      <trkpt lat="51.813065" lon="12.573482">
        <ele>64.077334</ele>
        <time>2022-10-23T19:18:12.341Z</time>
      </trkpt>
      <trkpt lat="51.812778" lon="12.573407">
        <ele>64.088297</ele>
        <time>2022-10-23T19:18:41.553Z</time>
      </trkpt>
      <trkpt lat="51.812161" lon="12.573123">
        <ele>64.112487</ele>
        <time>2022-10-23T19:19:45.958Z</time>
      </trkpt>
      <trkpt lat="51.811968" lon="12.573039">
        <ele>64.120024</ele>
        <time>2022-10-23T19:20:05.962Z</time>
      </trkpt>
      <trkpt lat="51.810798" lon="12.572562">
        <ele>64.306446</ele>
        <time>2022-10-23T19:22:07.098Z</time>
      </trkpt>
      <trkpt lat="51.810560" lon="12.572520">
        <ele>64.348269</ele>
        <time>2022-10-23T19:22:31.214Z</time>
      </trkpt>
      <trkpt lat="51.809561" lon="12.572522">
        <ele>64.520003</ele>
        <time>2022-10-23T19:24:12.230Z</time>
      </trkpt>
      <trkpt lat="51.809149" lon="12.572525">
        <ele>64.589530</ele>
        <time>2022-10-23T19:24:53.632Z</time>
      </trkpt>
      <trkpt lat="51.808191" lon="12.572600">
        <ele>64.757349</ele>
        <time>2022-10-23T19:26:29.842Z</time>
      </trkpt>
      <trkpt lat="51.805859" lon="12.572855">
        <ele>65.571420</ele>
        <time>2022-10-23T19:30:26.781Z</time>
      </trkpt>
      <trkpt lat="51.805212" lon="12.572920">
        <ele>65.864437</ele>
        <time>2022-10-23T19:31:33.036Z</time>
      </trkpt>
      <trkpt lat="51.804973" lon="12.572903">
        <ele>65.972572</ele>
        <time>2022-10-23T19:31:57.422Z</time>
      </trkpt>
      <trkpt lat="51.804588" lon="12.572778">
        <ele>66.140781</ele>
        <time>2022-10-23T19:32:37.347Z</time>
      </trkpt>
      <trkpt lat="51.803823" lon="12.572537">
        <ele>66.374829</ele>
        <time>2022-10-23T19:33:56.152Z</time>
      </trkpt>
      <trkpt lat="51.803723" lon="12.572533">
        <ele>66.404868</ele>
        <time>2022-10-23T19:34:06.198Z</time>
      </trkpt>
      <trkpt lat="51.803643" lon="12.572570">
        <ele>66.429855</ele>
        <time>2022-10-23T19:34:14.571Z</time>
      </trkpt>
      <trkpt lat="51.803592" lon="12.572656">
        <ele>66.451982</ele>
        <time>2022-10-23T19:34:21.941Z</time>
      </trkpt>
      <trkpt lat="51.803501" lon="12.573012">
        <ele>66.523515</ele>
        <time>2022-10-23T19:34:46.050Z</time>
      </trkpt>
      <trkpt lat="51.803402" lon="12.573476">
        <ele>66.614662</ele>
        <time>2022-10-23T19:35:16.765Z</time>
      </trkpt>
      <trkpt lat="51.803230" lon="12.574084">
        <ele>66.772901</ele>
        <time>2022-10-23T19:35:58.599Z</time>
      </trkpt>
      <trkpt lat="51.803072" lon="12.574805">
        <ele>66.978404</ele>
        <time>2022-10-23T19:36:46.083Z</time>
      </trkpt>
      <trkpt lat="51.803051" lon="12.574961">
        <ele>67.021295</ele>
        <time>2022-10-23T19:36:56.107Z</time>
      </trkpt>
      <trkpt lat="51.803096" lon="12.575202">
        <ele>67.088928</ele>
        <time>2022-10-23T19:37:11.870Z</time>
      </trkpt>
      <trkpt lat="51.803139" lon="12.575304">
        <ele>67.122093</ele>
        <time>2022-10-23T19:37:19.572Z</time>
      </trkpt>
      <trkpt lat="51.803117" lon="12.575337">
        <ele>67.135130</ele>
        <time>2022-10-23T19:37:22.548Z</time>
      </trkpt>
      <trkpt lat="51.803192" lon="12.575456">
        <ele>67.180779</ele>
        <time>2022-10-23T19:37:33.219Z</time>
      </trkpt>
      <trkpt lat="51.803084" lon="12.575618">
        <ele>67.244777</ele>
        <time>2022-10-23T19:37:48.237Z</time>
      </trkpt>
      <trkpt lat="51.803295" lon="12.575943">
        <ele>67.371374</ele>
        <time>2022-10-23T19:38:17.991Z</time>
      </trkpt>
      <trkpt lat="51.803272" lon="12.575984">
        <ele>67.386246</ele>
        <time>2022-10-23T19:38:21.557Z</time>
      </trkpt>
      <trkpt lat="51.803258" lon="12.575964">
        <ele>67.394362</ele>
        <time>2022-10-23T19:38:23.425Z</time>
      </trkpt>
      <trkpt lat="51.803007" lon="12.575589">
        <ele>67.558173</ele>
        <time>2022-10-23T19:38:58.704Z</time>
      </trkpt>
      <trkpt lat="51.802988" lon="12.575564">
        <ele>67.570467</ele>
        <time>2022-10-23T19:39:01.209Z</time>
      </trkpt>
      <trkpt lat="51.802916" lon="12.575578">
        <ele>67.606865</ele>
        <time>2022-10-23T19:39:08.771Z</time>
      </trkpt>
      <trkpt lat="51.802897" lon="12.575599">
        <ele>67.618416</ele>
        <time>2022-10-23T19:39:11.202Z</time>
      </trkpt>
      <trkpt lat="51.802820" lon="12.575824">
        <ele>67.698228</ele>
        <time>2022-10-23T19:39:27.679Z</time>
      </trkpt>
      <trkpt lat="51.802683" lon="12.576310">
        <ele>67.863999</ele>
        <time>2022-10-23T19:40:01.749Z</time>
      </trkpt>
      <trkpt lat="51.802615" lon="12.576464">
        <ele>67.922729</ele>
        <time>2022-10-23T19:40:13.618Z</time>
      </trkpt>
      <trkpt lat="51.802340" lon="12.576907">
        <ele>68.117549</ele>
        <time>2022-10-23T19:40:52.812Z</time>
      </trkpt>
      <trkpt lat="51.802011" lon="12.577397">
        <ele>68.342038</ele>
        <time>2022-10-23T19:41:37.964Z</time>
      </trkpt>
      <trkpt lat="51.801947" lon="12.577500">
        <ele>68.330434</ele>
        <time>2022-10-23T19:41:47.092Z</time>
      </trkpt>
      <trkpt lat="51.801699" lon="12.577880">
        <ele>68.261761</ele>
        <time>2022-10-23T19:42:21.341Z</time>
      </trkpt>
      <trkpt lat="51.801445" lon="12.578278">
        <ele>68.190670</ele>
        <time>2022-10-23T19:42:56.877Z</time>
      </trkpt>
      <trkpt lat="51.800018" lon="12.580478">
        <ele>68.080523</ele>
        <time>2022-10-23T19:46:15.776Z</time>
      </trkpt>
      <trkpt lat="51.799712" lon="12.580165">
        <ele>68.116892</ele>
        <time>2022-10-23T19:46:52.669Z</time>
      </trkpt>
      <trkpt lat="51.799585" lon="12.580101">
        <ele>68.130253</ele>
        <time>2022-10-23T19:47:06.423Z</time>
      </trkpt>
      <trkpt lat="51.798251" lon="12.579566">
        <ele>68.815438</ele>
        <time>2022-10-23T19:49:27.222Z</time>
      </trkpt>
      <trkpt lat="51.798178" lon="12.579566">
        <ele>68.861922</ele>
        <time>2022-10-23T19:49:34.750Z</time>
      </trkpt>
      <trkpt lat="51.796669" lon="12.578957">
        <ele>69.680676</ele>
        <time>2022-10-23T19:52:13.500Z</time>
      </trkpt>
      <trkpt lat="51.796048" lon="12.578809">
        <ele>69.953621</ele>
        <time>2022-10-23T19:53:16.950Z</time>
      </trkpt>
      <trkpt lat="51.795699" lon="12.578736">
        <ele>70.083332</ele>
        <time>2022-10-23T19:53:52.670Z</time>
      </trkpt>
      <trkpt lat="51.795633" lon="12.579377">
        <ele>69.953661</ele>
        <time>2022-10-23T19:54:33.529Z</time>
      </trkpt>
      <trkpt lat="51.795617" lon="12.579553">
        <ele>69.918164</ele>
        <time>2022-10-23T19:54:44.632Z</time>
      </trkpt>
      <trkpt lat="51.795511" lon="12.579629">
        <ele>69.880751</ele>
        <time>2022-10-23T19:54:56.552Z</time>
      </trkpt>
      <trkpt lat="51.794361" lon="12.581186">
        <ele>69.139456</ele>
        <time>2022-10-23T19:57:28.874Z</time>
      </trkpt>
      <trkpt lat="51.793633" lon="12.582180">
        <ele>68.150747</ele>
        <time>2022-10-23T19:59:07.056Z</time>
      </trkpt>
      <trkpt lat="51.793376" lon="12.582434">
        <ele>67.838202</ele>
        <time>2022-10-23T19:59:37.887Z</time>
      </trkpt>
      <trkpt lat="51.793218" lon="12.582638">
        <ele>67.646215</ele>
        <time>2022-10-23T19:59:58.524Z</time>
      </trkpt>
      <trkpt lat="51.793125" lon="12.582794">
        <ele>67.643154</ele>
        <time>2022-10-23T20:00:12.206Z</time>
      </trkpt>
      <trkpt lat="51.792295" lon="12.584663">
        <ele>67.610646</ele>
        <time>2022-10-23T20:02:35.041Z</time>
      </trkpt>
      <trkpt lat="51.792001" lon="12.585550">
        <ele>67.679861</ele>
        <time>2022-10-23T20:03:38.820Z</time>
      </trkpt>
      <trkpt lat="51.792082" lon="12.585762">
        <ele>67.708612</ele>
        <time>2022-10-23T20:03:54.570Z</time>
      </trkpt>
      <trkpt lat="51.791733" lon="12.586649">
        <ele>67.829909</ele>
        <time>2022-10-23T20:05:00.191Z</time>
      </trkpt>
      <trkpt lat="51.791541" lon="12.586813">
        <ele>67.870417</ele>
        <time>2022-10-23T20:05:21.884Z</time>
      </trkpt>
      <trkpt lat="51.791217" lon="12.587061">
        <ele>67.937289</ele>
        <time>2022-10-23T20:05:57.922Z</time>
      </trkpt>
      <trkpt lat="51.790813" lon="12.587486">
        <ele>67.950292</ele>
        <time>2022-10-23T20:06:46.652Z</time>
      </trkpt>
      <trkpt lat="51.790505" lon="12.587763">
        <ele>67.957339</ele>
        <time>2022-10-23T20:07:22.097Z</time>
      </trkpt>
      <trkpt lat="51.790197" lon="12.587933">
        <ele>67.963847</ele>
        <time>2022-10-23T20:07:54.666Z</time>
      </trkpt>
      <trkpt lat="51.789647" lon="12.588099">
        <ele>67.975035</ele>
        <time>2022-10-23T20:08:51.161Z</time>
      </trkpt>
      <trkpt lat="51.788167" lon="12.588194">
        <ele>69.164857</ele>
        <time>2022-10-23T20:11:23.298Z</time>
      </trkpt>
      <trkpt lat="51.787721" lon="12.588194">
        <ele>69.577702</ele>
        <time>2022-10-23T20:12:10.006Z</time>
      </trkpt>
      <trkpt lat="51.787145" lon="12.588279">
        <ele>70.660367</ele>
        <time>2022-10-23T20:13:10.742Z</time>
      </trkpt>
      <trkpt lat="51.785881" lon="12.588930">
        <ele>73.242384</ele>
        <time>2022-10-23T20:15:33.024Z</time>
      </trkpt>
      <trkpt lat="51.785167" lon="12.589458">
        <ele>75.285066</ele>
        <time>2022-10-23T20:17:00.063Z</time>
      </trkpt>
      <trkpt lat="51.784750" lon="12.590026">
        <ele>76.703722</ele>
        <time>2022-10-23T20:18:00.312Z</time>
      </trkpt>
      <trkpt lat="51.784423" lon="12.590442">
        <ele>77.639169</ele>
        <time>2022-10-23T20:18:45.919Z</time>
      </trkpt>
      <trkpt lat="51.783471" lon="12.591786">
        <ele>78.696711</ele>
        <time>2022-10-23T20:20:57.396Z</time>
      </trkpt>
      <trkpt lat="51.782671" lon="12.592764">
        <ele>78.661879</ele>
        <time>2022-10-23T20:22:39.434Z</time>
      </trkpt>
      <trkpt lat="51.782471" lon="12.593328">
        <ele>78.361221</ele>
        <time>2022-10-23T20:23:20.329Z</time>
      </trkpt>
      <trkpt lat="51.782306" lon="12.593956">
        <ele>78.045668</ele>
        <time>2022-10-23T20:24:03.456Z</time>
      </trkpt>
      <trkpt lat="51.782096" lon="12.594995">
        <ele>77.590479</ele>
        <time>2022-10-23T20:25:12.220Z</time>
      </trkpt>
      <trkpt lat="51.781296" lon="12.598393">
        <ele>76.307973</ele>
        <time>2022-10-23T20:28:59.575Z</time>
      </trkpt>
      <trkpt lat="51.778920" lon="12.599188">
        <ele>75.321767</ele>
        <time>2022-10-23T20:33:05.973Z</time>
      </trkpt>
      <trkpt lat="51.776884" lon="12.599790">
        <ele>76.554379</ele>
        <time>2022-10-23T20:36:39.779Z</time>
      </trkpt>
      <trkpt lat="51.776565" lon="12.600072">
        <ele>76.902814</ele>
        <time>2022-10-23T20:37:17.378Z</time>
      </trkpt>
      <trkpt lat="51.776544" lon="12.600088">
        <ele>76.928340</ele>
        <time>2022-10-23T20:37:19.704Z</time>
      </trkpt>
      <trkpt lat="51.776011" lon="12.600537">
        <ele>77.589200</ele>
        <time>2022-10-23T20:38:21.132Z</time>
      </trkpt>
      <trkpt lat="51.775849" lon="12.600751">
        <ele>77.819246</ele>
        <time>2022-10-23T20:38:42.604Z</time>
      </trkpt>
      <trkpt lat="51.775796" lon="12.600795">
        <ele>77.884757</ele>
        <time>2022-10-23T20:38:48.753Z</time>
      </trkpt>
      <trkpt lat="51.775752" lon="12.600957">
        <ele>78.005117</ele>
        <time>2022-10-23T20:38:59.992Z</time>
      </trkpt>
      <trkpt lat="51.775276" lon="12.601879">
        <ele>79.000698</ele>
        <time>2022-10-23T20:40:18.220Z</time>
      </trkpt>
      <trkpt lat="51.775101" lon="12.602342">
        <ele>79.891759</ele>
        <time>2022-10-23T20:40:54.604Z</time>
      </trkpt>
      <trkpt lat="51.775031" lon="12.602574">
        <ele>80.315675</ele>
        <time>2022-10-23T20:41:12.128Z</time>
      </trkpt>
      <trkpt lat="51.774949" lon="12.603060">
        <ele>81.143008</ele>
        <time>2022-10-23T20:41:46.639Z</time>
      </trkpt>
      <trkpt lat="51.774837" lon="12.604146">
        <ele>82.951224</ele>
        <time>2022-10-23T20:43:02.242Z</time>
      </trkpt>
      <trkpt lat="51.774707" lon="12.605096">
        <ele>84.083261</ele>
        <time>2022-10-23T20:44:09.331Z</time>
      </trkpt>
      <trkpt lat="51.774640" lon="12.605154">
        <ele>84.197917</ele>
        <time>2022-10-23T20:44:17.943Z</time>
      </trkpt>
      <trkpt lat="51.774055" lon="12.610039">
        <ele>86.629357</ele>
        <time>2022-10-23T20:49:34.563Z</time>
      </trkpt>
      <trkpt lat="51.773811" lon="12.611774">
        <ele>83.744054</ele>
        <time>2022-10-23T20:51:31.365Z</time>
      </trkpt>
      <trkpt lat="51.773270" lon="12.613719">
        <ele>80.881545</ele>
        <time>2022-10-23T20:53:53.070Z</time>
      </trkpt>
      <trkpt lat="51.771291" lon="12.620492">
        <ele>74.805606</ele>
        <time>2022-10-23T21:01:47.111Z</time>
      </trkpt>
      <trkpt lat="51.771003" lon="12.621545">
        <ele>74.272915</ele>
        <time>2022-10-23T21:02:59.460Z</time>
      </trkpt>
      <trkpt lat="51.770518" lon="12.624025">
        <ele>73.366025</ele>
        <time>2022-10-23T21:05:42.647Z</time>
      </trkpt>
      <trkpt lat="51.770460" lon="12.624215">
        <ele>73.341824</ele>
        <time>2022-10-23T21:05:55.956Z</time>
      </trkpt>
      <trkpt lat="51.770278" lon="12.625570">
        <ele>73.183431</ele>
        <time>2022-10-23T21:07:22.258Z</time>
      </trkpt>
      <trkpt lat="51.770241" lon="12.626221">
        <ele>73.108751</ele>
        <time>2022-10-23T21:08:03.137Z</time>
      </trkpt>
      <trkpt lat="51.770203" lon="12.626888">
        <ele>73.249327</ele>
        <time>2022-10-23T21:08:45.325Z</time>
      </trkpt>
      <trkpt lat="51.770168" lon="12.627154">
        <ele>73.320450</ele>
        <time>2022-10-23T21:09:02.340Z</time>
      </trkpt>
      <trkpt lat="51.769878" lon="12.627203">
        <ele>73.443682</ele>
        <time>2022-10-23T21:09:32.081Z</time>
      </trkpt>
      <trkpt lat="51.769839" lon="12.627090">
        <ele>73.477521</ele>
        <time>2022-10-23T21:09:40.149Z</time>
      </trkpt>
      <trkpt lat="51.769518" lon="12.627337">
        <ele>73.627781</ele>
        <time>2022-10-23T21:10:16.383Z</time>
      </trkpt>
      <trkpt lat="51.769394" lon="12.627585">
        <ele>73.711168</ele>
        <time>2022-10-23T21:10:36.336Z</time>
      </trkpt>
      <trkpt lat="51.769217" lon="12.628482">
        <ele>74.056652</ele>
        <time>2022-10-23T21:11:35.525Z</time>
      </trkpt>
      <trkpt lat="51.769023" lon="12.629459">
        <ele>74.594011</ele>
        <time>2022-10-23T21:12:40.758Z</time>
      </trkpt>
      <trkpt lat="51.769009" lon="12.629752">
        <ele>74.747915</ele>
        <time>2022-10-23T21:12:59.486Z</time>
      </trkpt>
      <trkpt lat="51.769109" lon="12.630076">
        <ele>74.937530</ele>
        <time>2022-10-23T21:13:22.315Z</time>
      </trkpt>
      <trkpt lat="51.768933" lon="12.630041">
        <ele>75.087600</ele>
        <time>2022-10-23T21:13:40.672Z</time>
      </trkpt>
      <trkpt lat="51.768256" lon="12.629876">
        <ele>76.127446</ele>
        <time>2022-10-23T21:14:52.285Z</time>
      </trkpt>
      <trkpt lat="51.767541" lon="12.629028">
        <ele>78.084495</ele>
        <time>2022-10-23T21:16:27.873Z</time>
      </trkpt>
      <trkpt lat="51.767490" lon="12.628965">
        <ele>78.226147</ele>
        <time>2022-10-23T21:16:34.902Z</time>
      </trkpt>
      <trkpt lat="51.766407" lon="12.627614">
        <ele>82.055605</ele>
        <time>2022-10-23T21:19:06.188Z</time>
      </trkpt>
      <trkpt lat="51.766390" lon="12.627651">
        <ele>82.145438</ele>
        <time>2022-10-23T21:19:09.329Z</time>
      </trkpt>
      <trkpt lat="51.766194" lon="12.628088">
        <ele>83.197519</ele>
        <time>2022-10-23T21:19:46.481Z</time>
      </trkpt>
      <trkpt lat="51.765011" lon="12.630730">
        <ele>90.605587</ele>
        <time>2022-10-23T21:23:32.881Z</time>
      </trkpt>
      <trkpt lat="51.763481" lon="12.628934">
        <ele>99.340222</ele>
        <time>2022-10-23T21:27:15.969Z</time>
      </trkpt>
      <trkpt lat="51.762943" lon="12.628302">
        <ele>102.004303</ele>
        <time>2022-10-23T21:28:31.478Z</time>
      </trkpt>
      <trkpt lat="51.762481" lon="12.627700">
        <ele>104.072591</ele>
        <time>2022-10-23T21:29:37.893Z</time>
      </trkpt>
      <trkpt lat="51.762048" lon="12.627150">
        <ele>105.991965</ele>
        <time>2022-10-23T21:30:38.757Z</time>
      </trkpt>
      <trkpt lat="51.762040" lon="12.627036">
        <ele>106.239419</ele>
        <time>2022-10-23T21:30:46.549Z</time>
      </trkpt>
      <trkpt lat="51.762033" lon="12.626925">
        <ele>106.480066</ele>
        <time>2022-10-23T21:30:54.170Z</time>
      </trkpt>
      <trkpt lat="51.760607" lon="12.625147">
        <ele>112.651803</ele>
        <time>2022-10-23T21:34:16.787Z</time>
      </trkpt>
      <trkpt lat="51.760199" lon="12.624639">
        <ele>113.645058</ele>
        <time>2022-10-23T21:35:14.732Z</time>
      </trkpt>
      <trkpt lat="51.760033" lon="12.624432">
        <ele>113.962888</ele>
        <time>2022-10-23T21:35:37.862Z</time>
      </trkpt>
      <trkpt lat="51.757975" lon="12.622020">
        <ele>115.638404</ele>
        <time>2022-10-23T21:39:56.529Z</time>
      </trkpt>
      <trkpt lat="51.756563" lon="12.620365">
        <ele>112.705028</ele>
        <time>2022-10-23T21:42:56.594Z</time>
      </trkpt>
      <trkpt lat="51.755294" lon="12.620119">
        <ele>107.762742</ele>
        <time>2022-10-23T21:45:15.000Z</time>
      </trkpt>
      <trkpt lat="51.754444" lon="12.619291">
        <ele>102.889787</ele>
        <time>2022-10-23T21:47:06.170Z</time>
      </trkpt>
      <trkpt lat="51.753727" lon="12.619109">
        <ele>100.305486</ele>
        <time>2022-10-23T21:48:26.277Z</time>
      </trkpt>
      <trkpt lat="51.753470" lon="12.619190">
        <ele>99.385008</ele>
        <time>2022-10-23T21:48:54.694Z</time>
      </trkpt>
      <trkpt lat="51.753267" lon="12.619336">
        <ele>98.603860</ele>
        <time>2022-10-23T21:49:18.499Z</time>
      </trkpt>
      <trkpt lat="51.752662" lon="12.620014">
        <ele>96.431154</ele>
        <time>2022-10-23T21:50:35.175Z</time>
      </trkpt>
      <trkpt lat="51.751804" lon="12.621229">
        <ele>96.246925</ele>
        <time>2022-10-23T21:52:30.964Z</time>
      </trkpt>
      <trkpt lat="51.751004" lon="12.622158">
        <ele>95.986418</ele>
        <time>2022-10-23T21:54:09.680Z</time>
      </trkpt>
      <trkpt lat="51.750268" lon="12.622846">
        <ele>95.658141</ele>
        <time>2022-10-23T21:55:35.626Z</time>
      </trkpt>
      <trkpt lat="51.749975" lon="12.623222">
        <ele>95.513678</ele>
        <time>2022-10-23T21:56:13.653Z</time>
      </trkpt>
      <trkpt lat="51.748729" lon="12.625528">
        <ele>94.431064</ele>
        <time>2022-10-23T21:59:25.581Z</time>
      </trkpt>
      <trkpt lat="51.748249" lon="12.626354">
        <ele>94.328191</ele>
        <time>2022-10-23T22:00:36.843Z</time>
      </trkpt>
      <trkpt lat="51.747773" lon="12.627061">
        <ele>94.244315</ele>
        <time>2022-10-23T22:01:42.008Z</time>
      </trkpt>
      <trkpt lat="51.747672" lon="12.627083">
        <ele>94.231097</ele>
        <time>2022-10-23T22:01:52.296Z</time>
      </trkpt>
      <trkpt lat="51.747680" lon="12.626685">
        <ele>94.199119</ele>
        <time>2022-10-23T22:02:17.312Z</time>
      </trkpt>
      <trkpt lat="51.747563" lon="12.626231">
        <ele>94.573469</ele>
        <time>2022-10-23T22:02:48.736Z</time>
      </trkpt>
      <trkpt lat="51.747459" lon="12.625995">
        <ele>94.971638</ele>
        <time>2022-10-23T22:03:07.568Z</time>
      </trkpt>
      <trkpt lat="51.747393" lon="12.625869">
        <ele>95.198497</ele>
        <time>2022-10-23T22:03:18.272Z</time>
      </trkpt>
      <trkpt lat="51.747343" lon="12.625775">
        <ele>95.368839</ele>
        <time>2022-10-23T22:03:26.348Z</time>
      </trkpt>
      <trkpt lat="51.747144" lon="12.624979">
        <ele>96.548802</ele>
        <time>2022-10-23T22:04:23.212Z</time>
      </trkpt>
      <trkpt lat="51.746925" lon="12.624218">
        <ele>97.702303</ele>
        <time>2022-10-23T22:05:19.995Z</time>
      </trkpt>
      <trkpt lat="51.746095" lon="12.621327">
        <ele>105.676548</ele>
        <time>2022-10-23T22:09:07.210Z</time>
      </trkpt>
      <trkpt lat="51.745480" lon="12.619303">
        <ele>111.440459</ele>
        <time>2022-10-23T22:11:49.642Z</time>
      </trkpt>
      <trkpt lat="51.744948" lon="12.617549">
        <ele>114.305470</ele>
        <time>2022-10-23T22:14:03.016Z</time>
      </trkpt>
      <trkpt lat="51.744155" lon="12.615267">
        <ele>115.480038</ele>
        <time>2022-10-23T22:16:45.672Z</time>
      </trkpt>
      <trkpt lat="51.743048" lon="12.612277">
        <ele>114.761443</ele>
        <time>2022-10-23T22:20:24.435Z</time>
      </trkpt>
      <trkpt lat="51.742044" lon="12.609640">
        <ele>114.924156</ele>
        <time>2022-10-23T22:23:37.244Z</time>
      </trkpt>
      <trkpt lat="51.741442" lon="12.608101">
        <ele>115.714529</ele>
        <time>2022-10-23T22:25:32.483Z</time>
      </trkpt>
      <trkpt lat="51.740982" lon="12.606835">
        <ele>116.917167</ele>
        <time>2022-10-23T22:27:07.334Z</time>
      </trkpt>
      <trkpt lat="51.740886" lon="12.606605">
        <ele>117.144424</ele>
        <time>2022-10-23T22:27:25.473Z</time>
      </trkpt>
      <trkpt lat="51.740777" lon="12.606456">
        <ele>117.333378</ele>
        <time>2022-10-23T22:27:40.886Z</time>
      </trkpt>
      <trkpt lat="51.735923" lon="12.601601">
        <ele>131.708376</ele>
        <time>2022-10-23T22:38:02.583Z</time>
      </trkpt>
      <trkpt lat="51.735819" lon="12.601496">
        <ele>132.190327</ele>
        <time>2022-10-23T22:38:16.431Z</time>
      </trkpt>
      <trkpt lat="51.734962" lon="12.600734">
        <ele>136.034524</ele>
        <time>2022-10-23T22:40:08.118Z</time>
      </trkpt>
      <trkpt lat="51.734616" lon="12.600543">
        <ele>137.471322</ele>
        <time>2022-10-23T22:40:50.409Z</time>
      </trkpt>
      <trkpt lat="51.733293" lon="12.600367">
        <ele>143.284257</ele>
        <time>2022-10-23T22:43:24.626Z</time>
      </trkpt>
      <trkpt lat="51.731758" lon="12.600222">
        <ele>149.322744</ele>
        <time>2022-10-23T22:46:21.313Z</time>
      </trkpt>
      <trkpt lat="51.731086" lon="12.600158">
        <ele>151.690288</ele>
        <time>2022-10-23T22:47:37.013Z</time>
      </trkpt>
      <trkpt lat="51.729617" lon="12.599918">
        <ele>153.056344</ele>
        <time>2022-10-23T22:50:13.496Z</time>
      </trkpt>
      <trkpt lat="51.729130" lon="12.599763">
        <ele>153.243286</ele>
        <time>2022-10-23T22:51:04.521Z</time>
      </trkpt>
      <trkpt lat="51.725761" lon="12.599743">
        <ele>141.695987</ele>
        <time>2022-10-23T22:57:09.054Z</time>
      </trkpt>
      <trkpt lat="51.721746" lon="12.599901">
        <ele>136.247492</ele>
        <time>2022-10-23T23:04:01.963Z</time>
      </trkpt>
      <trkpt lat="51.718022" lon="12.599896">
        <ele>141.651357</ele>
        <time>2022-10-23T23:10:34.510Z</time>
      </trkpt>
      <trkpt lat="51.716726" lon="12.599999">
        <ele>145.637062</ele>
        <time>2022-10-23T23:12:57.992Z</time>
      </trkpt>
      <trkpt lat="51.716608" lon="12.600008">
        <ele>145.999923</ele>
        <time>2022-10-23T23:13:11.555Z</time>
      </trkpt>
      <trkpt lat="51.715249" lon="12.600051">
        <ele>152.604279</ele>
        <time>2022-10-23T23:15:50.533Z</time>
      </trkpt>
      <trkpt lat="51.713602" lon="12.600011">
        <ele>160.953295</ele>
        <time>2022-10-23T23:19:08.991Z</time>
      </trkpt>
      <trkpt lat="51.713382" lon="12.599981">
        <ele>162.071069</ele>
        <time>2022-10-23T23:19:34.822Z</time>
      </trkpt>
      <trkpt lat="51.712965" lon="12.599626">
        <ele>164.457932</ele>
        <time>2022-10-23T23:20:28.811Z</time>
      </trkpt>
      <trkpt lat="51.712707" lon="12.599461">
        <ele>165.036820</ele>
        <time>2022-10-23T23:20:59.979Z</time>
      </trkpt>
      <trkpt lat="51.712466" lon="12.599488">
        <ele>165.390819</ele>
        <time>2022-10-23T23:21:26.736Z</time>
      </trkpt>
      <trkpt lat="51.709968" lon="12.600084">
        <ele>167.517287</ele>
        <time>2022-10-23T23:25:44.410Z</time>
      </trkpt>
      <trkpt lat="51.708499" lon="12.599685">
        <ele>167.044579</ele>
        <time>2022-10-23T23:28:15.375Z</time>
      </trkpt>
      <trkpt lat="51.706801" lon="12.599224">
        <ele>166.250964</ele>
        <time>2022-10-23T23:31:10.066Z</time>
      </trkpt>
      <trkpt lat="51.705355" lon="12.597812">
        <ele>167.215593</ele>
        <time>2022-10-23T23:33:59.388Z</time>
      </trkpt>
      <trkpt lat="51.704254" lon="12.595953">
        <ele>170.739809</ele>
        <time>2022-10-23T23:36:54.776Z</time>
      </trkpt>
      <trkpt lat="51.703843" lon="12.594283">
        <ele>174.343494</ele>
        <time>2022-10-23T23:39:00.157Z</time>
      </trkpt>
      <trkpt lat="51.703330" lon="12.593195">
        <ele>176.600148</ele>
        <time>2022-10-23T23:40:33.693Z</time>
      </trkpt>
      <trkpt lat="51.701721" lon="12.589796">
        <ele>182.162919</ele>
        <time>2022-10-23T23:45:19.252Z</time>
      </trkpt>
      <trkpt lat="51.699406" lon="12.584385">
        <ele>184.399621</ele>
        <time>2022-10-23T23:52:14.680Z</time>
      </trkpt>
      <trkpt lat="51.698757" lon="12.582192">
        <ele>183.392210</ele>
        <time>2022-10-23T23:54:47.813Z</time>
      </trkpt>
      <trkpt lat="51.698495" lon="12.581620">
        <ele>182.431493</ele>
        <time>2022-10-23T23:55:33.465Z</time>
      </trkpt>
      <trkpt lat="51.698114" lon="12.581157">
        <ele>181.178486</ele>
        <time>2022-10-23T23:56:23.431Z</time>
      </trkpt>
      <trkpt lat="51.697873" lon="12.580872">
        <ele>180.393540</ele>
        <time>2022-10-23T23:56:55.042Z</time>
      </trkpt>
      <trkpt lat="51.697837" lon="12.580333">
        <ele>179.510857</ele>
        <time>2022-10-23T23:57:30.844Z</time>
      </trkpt>
      <trkpt lat="51.696958" lon="12.581349">
        <ele>176.492228</ele>
        <time>2022-10-23T23:59:27.591Z</time>
      </trkpt>
      <trkpt lat="51.696054" lon="12.582329">
        <ele>173.461173</ele>
        <time>2022-10-24T00:01:23.452Z</time>
      </trkpt>
      <trkpt lat="51.688929" lon="12.590728">
        <ele>180.754552</ele>
        <time>2022-10-24T00:16:39.152Z</time>
      </trkpt>
      <trkpt lat="51.687113" lon="12.592849">
        <ele>177.139927</ele>
        <time>2022-10-24T00:20:32.920Z</time>
      </trkpt>
      <trkpt lat="51.686545" lon="12.593407">
        <ele>175.915446</ele>
        <time>2022-10-24T00:21:42.379Z</time>
      </trkpt>
      <trkpt lat="51.686046" lon="12.594075">
        <ele>174.721501</ele>
        <time>2022-10-24T00:22:49.509Z</time>
      </trkpt>
      <trkpt lat="51.685010" lon="12.595282">
        <ele>172.326873</ele>
        <time>2022-10-24T00:25:01.209Z</time>
      </trkpt>
      <trkpt lat="51.684584" lon="12.595817">
        <ele>171.312249</ele>
        <time>2022-10-24T00:25:57.595Z</time>
      </trkpt>
      <trkpt lat="51.683640" lon="12.597001">
        <ele>167.632605</ele>
        <time>2022-10-24T00:28:04.618Z</time>
      </trkpt>
      <trkpt lat="51.682126" lon="12.598669">
        <ele>161.809427</ele>
        <time>2022-10-24T00:31:22.612Z</time>
      </trkpt>
      <trkpt lat="51.681007" lon="12.599993">
        <ele>159.340622</ele>
        <time>2022-10-24T00:33:47.435Z</time>
      </trkpt>
      <trkpt lat="51.679250" lon="12.601943">
        <ele>160.052322</ele>
        <time>2022-10-24T00:37:26.809Z</time>
      </trkpt>
      <trkpt lat="51.676278" lon="12.605417">
        <ele>163.549407</ele>
        <time>2022-10-24T00:43:52.266Z</time>
      </trkpt>
      <trkpt lat="51.676234" lon="12.605524">
        <ele>163.564033</ele>
        <time>2022-10-24T00:44:00.428Z</time>
      </trkpt>
      <trkpt lat="51.676307" lon="12.605673">
        <ele>163.585665</ele>
        <time>2022-10-24T00:44:12.419Z</time>
      </trkpt>
      <trkpt lat="51.676297" lon="12.605756">
        <ele>163.595298</ele>
        <time>2022-10-24T00:44:17.745Z</time>
      </trkpt>
      <trkpt lat="51.676292" lon="12.605798">
        <ele>163.600170</ele>
        <time>2022-10-24T00:44:20.525Z</time>
      </trkpt>
      <trkpt lat="51.676090" lon="12.605805">
        <ele>163.637288</ele>
        <time>2022-10-24T00:44:41.477Z</time>
      </trkpt>
      <trkpt lat="51.675609" lon="12.605496">
        <ele>163.214166</ele>
        <time>2022-10-24T00:45:34.947Z</time>
      </trkpt>
      <trkpt lat="51.674769" lon="12.604870">
        <ele>161.530337</ele>
        <time>2022-10-24T00:47:11.599Z</time>
      </trkpt>
      <trkpt lat="51.674554" lon="12.604679">
        <ele>161.083675</ele>
        <time>2022-10-24T00:47:37.317Z</time>
      </trkpt>
      <trkpt lat="51.674019" lon="12.604321">
        <ele>160.164916</ele>
        <time>2022-10-24T00:48:37.197Z</time>
      </trkpt>
      <trkpt lat="51.673838" lon="12.605288">
        <ele>159.428298</ele>
        <time>2022-10-24T00:49:41.093Z</time>
      </trkpt>
      <trkpt lat="51.673824" lon="12.607699">
        <ele>157.574703</ele>
        <time>2022-10-24T00:52:14.206Z</time>
      </trkpt>
      <trkpt lat="51.673638" lon="12.609064">
        <ele>156.400622</ele>
        <time>2022-10-24T00:53:43.399Z</time>
      </trkpt>
      <trkpt lat="51.673571" lon="12.610464">
        <ele>154.953784</ele>
        <time>2022-10-24T00:55:13.363Z</time>
      </trkpt>
      <trkpt lat="51.673570" lon="12.610488">
        <ele>154.925129</ele>
        <time>2022-10-24T00:55:14.923Z</time>
      </trkpt>
      <trkpt lat="51.673885" lon="12.612032">
        <ele>152.988864</ele>
        <time>2022-10-24T00:56:59.788Z</time>
      </trkpt>
      <trkpt lat="51.673536" lon="12.611570">
        <ele>151.993226</ele>
        <time>2022-10-24T00:57:47.147Z</time>
      </trkpt>
      <trkpt lat="51.672906" lon="12.610538">
        <ele>149.488159</ele>
        <time>2022-10-24T00:59:22.226Z</time>
      </trkpt>
      <trkpt lat="51.672494" lon="12.609840">
        <ele>147.821195</ele>
        <time>2022-10-24T01:00:26.007Z</time>
      </trkpt>
      <trkpt lat="51.671535" lon="12.608220">
        <ele>144.422606</ele>
        <time>2022-10-24T01:02:52.624Z</time>
      </trkpt>
      <trkpt lat="51.671060" lon="12.607241">
        <ele>142.989951</ele>
        <time>2022-10-24T01:04:12.806Z</time>
      </trkpt>
      <trkpt lat="51.670945" lon="12.606903">
        <ele>142.903628</ele>
        <time>2022-10-24T01:04:37.558Z</time>
      </trkpt>
      <trkpt lat="51.670728" lon="12.606066">
        <ele>142.700497</ele>
        <time>2022-10-24T01:05:34.915Z</time>
      </trkpt>
      <trkpt lat="51.670634" lon="12.605901">
        <ele>142.650329</ele>
        <time>2022-10-24T01:05:48.841Z</time>
      </trkpt>
      <trkpt lat="51.670403" lon="12.605620">
        <ele>142.545856</ele>
        <time>2022-10-24T01:06:18.347Z</time>
      </trkpt>
      <trkpt lat="51.670017" lon="12.605237">
        <ele>142.663452</ele>
        <time>2022-10-24T01:07:05.526Z</time>
      </trkpt>
      <trkpt lat="51.669645" lon="12.604793">
        <ele>143.935851</ele>
        <time>2022-10-24T01:07:54.439Z</time>
      </trkpt>
      <trkpt lat="51.669032" lon="12.603904">
        <ele>146.202489</ele>
        <time>2022-10-24T01:09:25.770Z</time>
      </trkpt>
      <trkpt lat="51.668739" lon="12.603535">
        <ele>147.224593</ele>
        <time>2022-10-24T01:10:08.463Z</time>
      </trkpt>
      <trkpt lat="51.668305" lon="12.603262">
        <ele>148.955368</ele>
        <time>2022-10-24T01:11:01.808Z</time>
      </trkpt>
      <trkpt lat="51.667992" lon="12.603935">
        <ele>150.953116</ele>
        <time>2022-10-24T01:12:00.154Z</time>
      </trkpt>
      <trkpt lat="51.667884" lon="12.604292">
        <ele>151.896435</ele>
        <time>2022-10-24T01:12:27.680Z</time>
      </trkpt>
      <trkpt lat="51.667465" lon="12.603111">
        <ele>154.818306</ele>
        <time>2022-10-24T01:14:04.426Z</time>
      </trkpt>
      <trkpt lat="51.667386" lon="12.602756">
        <ele>155.399418</ele>
        <time>2022-10-24T01:14:31.954Z</time>
      </trkpt>
      <trkpt lat="51.667315" lon="12.602660">
        <ele>155.629608</ele>
        <time>2022-10-24T01:14:42.214Z</time>
      </trkpt>
      <trkpt lat="51.667220" lon="12.602785">
        <ele>155.934220</ele>
        <time>2022-10-24T01:14:56.530Z</time>
      </trkpt>
      <trkpt lat="51.667127" lon="12.602702">
        <ele>156.198283</ele>
        <time>2022-10-24T01:15:08.300Z</time>
      </trkpt>
      <trkpt lat="51.667038" lon="12.602689">
        <ele>156.420282</ele>
        <time>2022-10-24T01:15:18.031Z</time>
      </trkpt>
      <trkpt lat="51.666893" lon="12.602894">
        <ele>156.899361</ele>
        <time>2022-10-24T01:15:39.337Z</time>
      </trkpt>
      <trkpt lat="51.666789" lon="12.603121">
        <ele>157.334192</ele>
        <time>2022-10-24T01:15:57.644Z</time>
      </trkpt>
      <trkpt lat="51.666729" lon="12.603381">
        <ele>157.761626</ele>
        <time>2022-10-24T01:16:16.031Z</time>
      </trkpt>
      <trkpt lat="51.666472" lon="12.603861">
        <ele>158.702033</ele>
        <time>2022-10-24T01:16:56.102Z</time>
      </trkpt>
      <trkpt lat="51.666387" lon="12.603900">
        <ele>158.580496</ele>
        <time>2022-10-24T01:17:05.022Z</time>
      </trkpt>
      <trkpt lat="51.666242" lon="12.603745">
        <ele>158.341236</ele>
        <time>2022-10-24T01:17:22.596Z</time>
      </trkpt>
      <trkpt lat="51.666162" lon="12.603752">
        <ele>158.231054</ele>
        <time>2022-10-24T01:17:30.580Z</time>
      </trkpt>
      <trkpt lat="51.666089" lon="12.603875">
        <ele>158.085842</ele>
        <time>2022-10-24T01:17:41.235Z</time>
      </trkpt>
      <trkpt lat="51.665940" lon="12.604278">
        <ele>157.685646</ele>
        <time>2022-10-24T01:18:11.132Z</time>
      </trkpt>
      <trkpt lat="51.665820" lon="12.604411">
        <ele>157.485383</ele>
        <time>2022-10-24T01:18:26.258Z</time>
      </trkpt>
      <trkpt lat="51.665662" lon="12.604413">
        <ele>157.268086</ele>
        <time>2022-10-24T01:18:42.764Z</time>
      </trkpt>
      <trkpt lat="51.665590" lon="12.604356">
        <ele>157.157775</ele>
        <time>2022-10-24T01:18:51.059Z</time>
      </trkpt>
      <trkpt lat="51.665477" lon="12.603974">
        <ele>156.796768</ele>
        <time>2022-10-24T01:19:18.826Z</time>
      </trkpt>
      <trkpt lat="51.665332" lon="12.603960">
        <ele>156.597000</ele>
        <time>2022-10-24T01:19:34.125Z</time>
      </trkpt>
      <trkpt lat="51.665185" lon="12.604083">
        <ele>156.369233</ele>
        <time>2022-10-24T01:19:51.666Z</time>
      </trkpt>
      <trkpt lat="51.665033" lon="12.604304">
        <ele>156.042338</ele>
        <time>2022-10-24T01:20:13.110Z</time>
      </trkpt>
      <trkpt lat="51.664633" lon="12.605149">
        <ele>154.867815</ele>
        <time>2022-10-24T01:21:20.839Z</time>
      </trkpt>
      <trkpt lat="51.664490" lon="12.605658">
        <ele>154.250394</ele>
        <time>2022-10-24T01:21:56.228Z</time>
      </trkpt>
      <trkpt lat="51.664305" lon="12.606138">
        <ele>153.625965</ele>
        <time>2022-10-24T01:22:32.375Z</time>
      </trkpt>
      <trkpt lat="51.664297" lon="12.606150">
        <ele>153.606500</ele>
        <time>2022-10-24T01:22:33.510Z</time>
      </trkpt>
      <trkpt lat="51.664147" lon="12.606357">
        <ele>153.254764</ele>
        <time>2022-10-24T01:22:53.950Z</time>
      </trkpt>
      <trkpt lat="51.663923" lon="12.606272">
        <ele>152.583392</ele>
        <time>2022-10-24T01:23:18.039Z</time>
      </trkpt>
      <trkpt lat="51.663932" lon="12.605931">
        <ele>151.694193</ele>
        <time>2022-10-24T01:23:40.671Z</time>
      </trkpt>
      <trkpt lat="51.664050" lon="12.605191">
        <ele>149.703610</ele>
        <time>2022-10-24T01:24:32.479Z</time>
      </trkpt>
      <trkpt lat="51.664043" lon="12.603356">
        <ele>145.220506</ele>
        <time>2022-10-24T01:26:38.149Z</time>
      </trkpt>
      <trkpt lat="51.664012" lon="12.603027">
        <ele>144.814457</ele>
        <time>2022-10-24T01:27:00.577Z</time>
      </trkpt>
      <trkpt lat="51.663950" lon="12.602690">
        <ele>144.385545</ele>
        <time>2022-10-24T01:27:24.119Z</time>
      </trkpt>
      <trkpt lat="51.663690" lon="12.602768">
        <ele>143.865296</ele>
        <time>2022-10-24T01:27:52.069Z</time>
      </trkpt>
      <trkpt lat="51.663165" lon="12.602795">
        <ele>142.831996</ele>
        <time>2022-10-24T01:28:46.430Z</time>
      </trkpt>
      <trkpt lat="51.662897" lon="12.602750">
        <ele>142.301937</ele>
        <time>2022-10-24T01:29:13.528Z</time>
      </trkpt>
      <trkpt lat="51.662628" lon="12.602640">
        <ele>142.048471</ele>
        <time>2022-10-24T01:29:42.286Z</time>
      </trkpt>
      <trkpt lat="51.662128" lon="12.602543">
        <ele>142.595409</ele>
        <time>2022-10-24T01:30:37.578Z</time>
      </trkpt>
      <trkpt lat="51.661599" lon="12.602261">
        <ele>143.200520</ele>
        <time>2022-10-24T01:31:36.839Z</time>
      </trkpt>
      <trkpt lat="51.661472" lon="12.602155">
        <ele>143.355836</ele>
        <time>2022-10-24T01:31:51.547Z</time>
      </trkpt>
      <trkpt lat="51.661306" lon="12.601912">
        <ele>143.599354</ele>
        <time>2022-10-24T01:32:14.151Z</time>
      </trkpt>
      <trkpt lat="51.661134" lon="12.601727">
        <ele>143.823913</ele>
        <time>2022-10-24T01:32:34.849Z</time>
      </trkpt>
      <trkpt lat="51.660964" lon="12.601682">
        <ele>143.887622</ele>
        <time>2022-10-24T01:32:52.189Z</time>
      </trkpt>
      <trkpt lat="51.660802" lon="12.601713">
        <ele>143.871625</ele>
        <time>2022-10-24T01:33:08.650Z</time>
      </trkpt>
      <trkpt lat="51.660653" lon="12.601274">
        <ele>143.841188</ele>
        <time>2022-10-24T01:33:39.891Z</time>
      </trkpt>
      <trkpt lat="51.660500" lon="12.600912">
        <ele>143.814544</ele>
        <time>2022-10-24T01:34:07.092Z</time>
      </trkpt>
      <trkpt lat="51.659648" lon="12.599554">
        <ele>143.472911</ele>
        <time>2022-10-24T01:36:07.296Z</time>
      </trkpt>
      <trkpt lat="51.659452" lon="12.599106">
        <ele>143.133413</ele>
        <time>2022-10-24T01:36:41.909Z</time>
      </trkpt>
      <trkpt lat="51.659385" lon="12.599074">
        <ele>143.063652</ele>
        <time>2022-10-24T01:36:48.996Z</time>
      </trkpt>
      <trkpt lat="51.659339" lon="12.598916">
        <ele>142.955565</ele>
        <time>2022-10-24T01:37:00.041Z</time>
      </trkpt>
      <trkpt lat="51.659248" lon="12.598734">
        <ele>142.810801</ele>
        <time>2022-10-24T01:37:14.858Z</time>
      </trkpt>
      <trkpt lat="51.658232" lon="12.597125">
        <ele>140.814288</ele>
        <time>2022-10-24T01:39:41.369Z</time>
      </trkpt>
      <trkpt lat="51.657925" lon="12.596404">
        <ele>139.693070</ele>
        <time>2022-10-24T01:40:38.224Z</time>
      </trkpt>
      <trkpt lat="51.657227" lon="12.595079">
        <ele>137.337795</ele>
        <time>2022-10-24T01:42:31.860Z</time>
      </trkpt>
      <trkpt lat="51.656245" lon="12.593811">
        <ele>134.295066</ele>
        <time>2022-10-24T01:44:43.917Z</time>
      </trkpt>
      <trkpt lat="51.655974" lon="12.593046">
        <ele>133.069275</ele>
        <time>2022-10-24T01:45:41.313Z</time>
      </trkpt>
      <trkpt lat="51.655892" lon="12.593206">
        <ele>132.791620</ele>
        <time>2022-10-24T01:45:54.619Z</time>
      </trkpt>
      <trkpt lat="51.655651" lon="12.593058">
        <ele>132.235454</ele>
        <time>2022-10-24T01:46:21.793Z</time>
      </trkpt>
      <trkpt lat="51.655173" lon="12.592836">
        <ele>131.162695</ele>
        <time>2022-10-24T01:47:13.721Z</time>
      </trkpt>
      <trkpt lat="51.654797" lon="12.592760">
        <ele>130.345488</ele>
        <time>2022-10-24T01:47:53.199Z</time>
      </trkpt>
      <trkpt lat="51.654138" lon="12.592937">
        <ele>128.965026</ele>
        <time>2022-10-24T01:49:02.784Z</time>
      </trkpt>
      <trkpt lat="51.653303" lon="12.593686">
        <ele>127.019797</ele>
        <time>2022-10-24T01:50:42.846Z</time>
      </trkpt>
      <trkpt lat="51.652562" lon="12.594757">
        <ele>125.477767</ele>
        <time>2022-10-24T01:52:26.091Z</time>
      </trkpt>
      <trkpt lat="51.652254" lon="12.595291">
        <ele>124.893326</ele>
        <time>2022-10-24T01:53:12.551Z</time>
      </trkpt>
      <trkpt lat="51.651903" lon="12.595992">
        <ele>124.171248</ele>
        <time>2022-10-24T01:54:09.639Z</time>
      </trkpt>
      <trkpt lat="51.651511" lon="12.596886">
        <ele>123.924561</ele>
        <time>2022-10-24T01:55:18.327Z</time>
      </trkpt>
      <trkpt lat="51.650910" lon="12.597653">
        <ele>123.825264</ele>
        <time>2022-10-24T01:56:35.074Z</time>
      </trkpt>
      <trkpt lat="51.650500" lon="12.598684">
        <ele>123.822487</ele>
        <time>2022-10-24T01:57:51.917Z</time>
      </trkpt>
      <trkpt lat="51.650353" lon="12.598918">
        <ele>123.868795</ele>
        <time>2022-10-24T01:58:12.905Z</time>
      </trkpt>
      <trkpt lat="51.649918" lon="12.599260">
        <ele>123.977271</ele>
        <time>2022-10-24T01:59:01.908Z</time>
      </trkpt>
      <trkpt lat="51.649204" lon="12.600157">
        <ele>124.151197</ele>
        <time>2022-10-24T02:00:33.093Z</time>
      </trkpt>
      <trkpt lat="51.648736" lon="12.600144">
        <ele>124.055756</ele>
        <time>2022-10-24T02:01:19.899Z</time>
      </trkpt>
      <trkpt lat="51.647591" lon="12.599411">
        <ele>123.804543</ele>
        <time>2022-10-24T02:03:23.639Z</time>
      </trkpt>
      <trkpt lat="51.646807" lon="12.598984">
        <ele>122.608196</ele>
        <time>2022-10-24T02:04:48.161Z</time>
      </trkpt>
      <trkpt lat="51.644910" lon="12.597323">
        <ele>118.570163</ele>
        <time>2022-10-24T02:08:33.587Z</time>
      </trkpt>
      <trkpt lat="51.644544" lon="12.597093">
        <ele>117.707243</ele>
        <time>2022-10-24T02:09:14.913Z</time>
      </trkpt>
      <trkpt lat="51.644283" lon="12.596808">
        <ele>117.045548</ele>
        <time>2022-10-24T02:09:48.030Z</time>
      </trkpt>
      <trkpt lat="51.643999" lon="12.596516">
        <ele>116.461886</ele>
        <time>2022-10-24T02:10:23.309Z</time>
      </trkpt>
      <trkpt lat="51.643579" lon="12.595886">
        <ele>115.467764</ele>
        <time>2022-10-24T02:11:23.110Z</time>
      </trkpt>
      <trkpt lat="51.642899" lon="12.595113">
        <ele>114.040665</ele>
        <time>2022-10-24T02:12:49.036Z</time>
      </trkpt>
      <trkpt lat="51.642640" lon="12.594897">
        <ele>113.936985</ele>
        <time>2022-10-24T02:13:18.670Z</time>
      </trkpt>
      <trkpt lat="51.642405" lon="12.594800">
        <ele>113.850741</ele>
        <time>2022-10-24T02:13:43.124Z</time>
      </trkpt>
      <trkpt lat="51.641883" lon="12.594779">
        <ele>113.665103</ele>
        <time>2022-10-24T02:14:35.543Z</time>
      </trkpt>
      <trkpt lat="51.641153" lon="12.595044">
        <ele>113.401245</ele>
        <time>2022-10-24T02:15:50.512Z</time>
      </trkpt>
      <trkpt lat="51.640939" lon="12.595059">
        <ele>113.353013</ele>
        <time>2022-10-24T02:16:12.158Z</time>
      </trkpt>
      <trkpt lat="51.637207" lon="12.594287">
        <ele>111.753649</ele>
        <time>2022-10-24T02:22:31.210Z</time>
      </trkpt>
      <trkpt lat="51.636327" lon="12.594426">
        <ele>110.557489</ele>
        <time>2022-10-24T02:24:03.850Z</time>
      </trkpt>
      <trkpt lat="51.636130" lon="12.594530">
        <ele>110.277049</ele>
        <time>2022-10-24T02:24:25.497Z</time>
      </trkpt>
      <trkpt lat="51.635963" lon="12.594677">
        <ele>110.019617</ele>
        <time>2022-10-24T02:24:45.270Z</time>
      </trkpt>
      <trkpt lat="51.635675" lon="12.594625">
        <ele>110.161224</ele>
        <time>2022-10-24T02:25:14.777Z</time>
      </trkpt>
      <trkpt lat="51.635231" lon="12.594436">
        <ele>110.988312</ele>
        <time>2022-10-24T02:26:01.567Z</time>
      </trkpt>
      <trkpt lat="51.634940" lon="12.594294">
        <ele>111.535918</ele>
        <time>2022-10-24T02:26:34.562Z</time>
      </trkpt>
      <trkpt lat="51.634834" lon="12.594282">
        <ele>111.727296</ele>
        <time>2022-10-24T02:26:46.102Z</time>
      </trkpt>
      <trkpt lat="51.634842" lon="12.594964">
        <ele>112.489798</ele>
        <time>2022-10-24T02:27:33.083Z</time>
      </trkpt>
      <trkpt lat="51.634808" lon="12.595472">
        <ele>113.060953</ele>
        <time>2022-10-24T02:28:08.698Z</time>
      </trkpt>
      <trkpt lat="51.634711" lon="12.596048">
        <ele>113.903065</ele>
        <time>2022-10-24T02:28:50.801Z</time>
      </trkpt>
      <trkpt lat="51.634618" lon="12.596445">
        <ele>114.508665</ele>
        <time>2022-10-24T02:29:20.826Z</time>
      </trkpt>
      <trkpt lat="51.634545" lon="12.596369">
        <ele>114.708516</ele>
        <time>2022-10-24T02:29:30.640Z</time>
      </trkpt>
      <trkpt lat="51.633594" lon="12.595268">
        <ele>117.173647</ele>
        <time>2022-10-24T02:31:36.068Z</time>
      </trkpt>
      <trkpt lat="51.632891" lon="12.594858">
        <ele>116.585635</ele>
        <time>2022-10-24T02:32:53.561Z</time>
      </trkpt>
      <trkpt lat="51.632680" lon="12.594820">
        <ele>116.418652</ele>
        <time>2022-10-24T02:33:15.447Z</time>
      </trkpt>
      <trkpt lat="51.631931" lon="12.594934">
        <ele>115.826950</ele>
        <time>2022-10-24T02:34:32.429Z</time>
      </trkpt>
      <trkpt lat="51.631771" lon="12.594942">
        <ele>115.844802</ele>
        <time>2022-10-24T02:34:48.629Z</time>
      </trkpt>
      <trkpt lat="51.630902" lon="12.594658">
        <ele>116.011659</ele>
        <time>2022-10-24T02:36:18.230Z</time>
      </trkpt>
      <trkpt lat="51.630699" lon="12.594535">
        <ele>116.052472</ele>
        <time>2022-10-24T02:36:40.517Z</time>
      </trkpt>
      <trkpt lat="51.630628" lon="12.594425">
        <ele>116.071008</ele>
        <time>2022-10-24T02:36:50.715Z</time>
      </trkpt>
      <trkpt lat="51.629968" lon="12.593362">
        <ele>116.770950</ele>
        <time>2022-10-24T02:38:29.218Z</time>
      </trkpt>
      <trkpt lat="51.628824" lon="12.591547">
        <ele>118.709860</ele>
        <time>2022-10-24T02:41:16.566Z</time>
      </trkpt>
      <trkpt lat="51.628482" lon="12.591106">
        <ele>119.113330</ele>
        <time>2022-10-24T02:42:02.972Z</time>
      </trkpt>
      <trkpt lat="51.628071" lon="12.590744">
        <ele>119.544755</ele>
        <time>2022-10-24T02:42:52.121Z</time>
      </trkpt>
      <trkpt lat="51.627868" lon="12.590461">
        <ele>119.792013</ele>
        <time>2022-10-24T02:43:19.699Z</time>
      </trkpt>
      <trkpt lat="51.627650" lon="12.590245">
        <ele>120.027735</ele>
        <time>2022-10-24T02:43:45.602Z</time>
      </trkpt>
      <trkpt lat="51.627282" lon="12.590056">
        <ele>119.772006</ele>
        <time>2022-10-24T02:44:24.636Z</time>
      </trkpt>
      <trkpt lat="51.626703" lon="12.589789">
        <ele>119.137564</ele>
        <time>2022-10-24T02:45:26.277Z</time>
      </trkpt>
      <trkpt lat="51.626345" lon="12.589009">
        <ele>118.503199</ele>
        <time>2022-10-24T02:46:27.916Z</time>
      </trkpt>
      <trkpt lat="51.626149" lon="12.588685">
        <ele>118.207350</ele>
        <time>2022-10-24T02:46:57.060Z</time>
      </trkpt>
      <trkpt lat="51.625682" lon="12.588462">
        <ele>117.244941</ele>
        <time>2022-10-24T02:47:48.050Z</time>
      </trkpt>
      <trkpt lat="51.625588" lon="12.588291">
        <ele>116.963788</ele>
        <time>2022-10-24T02:48:02.988Z</time>
      </trkpt>
      <trkpt lat="51.625201" lon="12.588299">
        <ele>116.196361</ele>
        <time>2022-10-24T02:48:43.626Z</time>
      </trkpt>
      <trkpt lat="51.625119" lon="12.588096">
        <ele>115.898235</ele>
        <time>2022-10-24T02:48:59.379Z</time>
      </trkpt>
      <trkpt lat="51.624318" lon="12.587260">
        <ele>114.186835</ele>
        <time>2022-10-24T02:50:38.174Z</time>
      </trkpt>
      <trkpt lat="51.623588" lon="12.586521">
        <ele>112.967680</ele>
        <time>2022-10-24T02:52:06.975Z</time>
      </trkpt>
      <trkpt lat="51.623334" lon="12.586341">
        <ele>112.575299</ele>
        <time>2022-10-24T02:52:35.481Z</time>
      </trkpt>
      <trkpt lat="51.622863" lon="12.586086">
        <ele>111.994195</ele>
        <time>2022-10-24T02:53:26.623Z</time>
      </trkpt>
      <trkpt lat="51.622468" lon="12.585913">
        <ele>111.733533</ele>
        <time>2022-10-24T02:54:08.415Z</time>
      </trkpt>
      <trkpt lat="51.622253" lon="12.585818">
        <ele>111.591567</ele>
        <time>2022-10-24T02:54:31.136Z</time>
      </trkpt>
      <trkpt lat="51.622079" lon="12.585797">
        <ele>111.480457</ele>
        <time>2022-10-24T02:54:48.726Z</time>
      </trkpt>
      <trkpt lat="51.621509" lon="12.585862">
        <ele>111.116582</ele>
        <time>2022-10-24T02:55:46.182Z</time>
      </trkpt>
      <trkpt lat="51.620844" lon="12.586030">
        <ele>110.549529</ele>
        <time>2022-10-24T02:56:53.808Z</time>
      </trkpt>
      <trkpt lat="51.620400" lon="12.586155">
        <ele>110.109979</ele>
        <time>2022-10-24T02:57:39.534Z</time>
      </trkpt>
      <trkpt lat="51.620254" lon="12.586156">
        <ele>109.967600</ele>
        <time>2022-10-24T02:57:54.359Z</time>
      </trkpt>
      <trkpt lat="51.619914" lon="12.585817">
        <ele>109.577646</ele>
        <time>2022-10-24T02:58:35.384Z</time>
      </trkpt>
      <trkpt lat="51.619736" lon="12.585624">
        <ele>109.368393</ele>
        <time>2022-10-24T02:58:57.551Z</time>
      </trkpt>
      <trkpt lat="51.619515" lon="12.585444">
        <ele>109.065227</ele>
        <time>2022-10-24T02:59:23.318Z</time>
      </trkpt>
      <trkpt lat="51.618840" lon="12.585071">
        <ele>107.733582</ele>
        <time>2022-10-24T03:00:38.037Z</time>
      </trkpt>
      <trkpt lat="51.618523" lon="12.584910">
        <ele>107.113336</ele>
        <time>2022-10-24T03:01:12.935Z</time>
      </trkpt>
      <trkpt lat="51.618119" lon="12.584706">
        <ele>106.323276</ele>
        <time>2022-10-24T03:01:57.064Z</time>
      </trkpt>
      <trkpt lat="51.617902" lon="12.584612">
        <ele>105.903956</ele>
        <time>2022-10-24T03:02:20.308Z</time>
      </trkpt>
      <trkpt lat="51.617658" lon="12.584538">
        <ele>105.848071</ele>
        <time>2022-10-24T03:02:45.644Z</time>
      </trkpt>
      <trkpt lat="51.617516" lon="12.584483">
        <ele>105.854936</ele>
        <time>2022-10-24T03:03:00.599Z</time>
      </trkpt>
      <trkpt lat="51.616898" lon="12.584459">
        <ele>105.883997</ele>
        <time>2022-10-24T03:04:02.689Z</time>
      </trkpt>
      <trkpt lat="51.616124" lon="12.584566">
        <ele>105.920516</ele>
        <time>2022-10-24T03:05:23.093Z</time>
      </trkpt>
      <trkpt lat="51.615418" lon="12.584825">
        <ele>106.496657</ele>
        <time>2022-10-24T03:06:38.571Z</time>
      </trkpt>
      <trkpt lat="51.614989" lon="12.584928">
        <ele>106.863088</ele>
        <time>2022-10-24T03:07:23.503Z</time>
      </trkpt>
      <trkpt lat="51.614519" lon="12.584907">
        <ele>107.260303</ele>
        <time>2022-10-24T03:08:11.804Z</time>
      </trkpt>
      <trkpt lat="51.614375" lon="12.584839">
        <ele>107.387079</ele>
        <time>2022-10-24T03:08:27.045Z</time>
      </trkpt>
      <trkpt lat="51.614258" lon="12.584782">
        <ele>107.415911</ele>
        <time>2022-10-24T03:08:39.449Z</time>
      </trkpt>
      <trkpt lat="51.614143" lon="12.584660">
        <ele>107.352637</ele>
        <time>2022-10-24T03:08:53.452Z</time>
      </trkpt>
      <trkpt lat="51.613697" lon="12.583794">
        <ele>107.031630</ele>
        <time>2022-10-24T03:10:03.722Z</time>
      </trkpt>
      <trkpt lat="51.613470" lon="12.583542">
        <ele>106.904947</ele>
        <time>2022-10-24T03:10:31.734Z</time>
      </trkpt>
      <trkpt lat="51.613357" lon="12.583417">
        <ele>106.841957</ele>
        <time>2022-10-24T03:10:45.617Z</time>
      </trkpt>
      <trkpt lat="51.613025" lon="12.583200">
        <ele>106.677325</ele>
        <time>2022-10-24T03:11:22.185Z</time>
      </trkpt>
      <trkpt lat="51.612755" lon="12.583088">
        <ele>106.419858</ele>
        <time>2022-10-24T03:11:50.832Z</time>
      </trkpt>
      <trkpt lat="51.612432" lon="12.583039">
        <ele>105.980733</ele>
        <time>2022-10-24T03:12:24.270Z</time>
      </trkpt>
      <trkpt lat="51.611707" lon="12.583117">
        <ele>104.997238</ele>
        <time>2022-10-24T03:13:39.457Z</time>
      </trkpt>
      <trkpt lat="51.610955" lon="12.583259">
        <ele>104.085556</ele>
        <time>2022-10-24T03:14:57.373Z</time>
      </trkpt>
      <trkpt lat="51.610570" lon="12.583366">
        <ele>103.843335</ele>
        <time>2022-10-24T03:15:37.013Z</time>
      </trkpt>
      <trkpt lat="51.610258" lon="12.583493">
        <ele>103.643816</ele>
        <time>2022-10-24T03:16:09.451Z</time>
      </trkpt>
      <trkpt lat="51.609854" lon="12.583652">
        <ele>103.385971</ele>
        <time>2022-10-24T03:16:51.128Z</time>
      </trkpt>
      <trkpt lat="51.609258" lon="12.583878">
        <ele>102.930044</ele>
        <time>2022-10-24T03:17:53.006Z</time>
      </trkpt>
      <trkpt lat="51.608591" lon="12.584128">
        <ele>101.962778</ele>
        <time>2022-10-24T03:19:02.786Z</time>
      </trkpt>
      <trkpt lat="51.608292" lon="12.584217">
        <ele>101.533311</ele>
        <time>2022-10-24T03:19:34.076Z</time>
      </trkpt>
      <trkpt lat="51.607438" lon="12.584576">
        <ele>100.089314</ele>
        <time>2022-10-24T03:21:06.133Z</time>
      </trkpt>
      <trkpt lat="51.606892" lon="12.585036">
        <ele>98.500047</ele>
        <time>2022-10-24T03:22:11.752Z</time>
      </trkpt>
      <trkpt lat="51.606355" lon="12.585631">
        <ele>96.818872</ele>
        <time>2022-10-24T03:23:20.959Z</time>
      </trkpt>
      <trkpt lat="51.606040" lon="12.585953">
        <ele>95.884838</ele>
        <time>2022-10-24T03:24:00.142Z</time>
      </trkpt>
      <trkpt lat="51.605656" lon="12.586019">
        <ele>95.818737</ele>
        <time>2022-10-24T03:24:40.225Z</time>
      </trkpt>
      <trkpt lat="51.605130" lon="12.586021">
        <ele>95.728704</ele>
        <time>2022-10-24T03:25:33.385Z</time>
      </trkpt>
      <trkpt lat="51.604961" lon="12.585950">
        <ele>95.698809</ele>
        <time>2022-10-24T03:25:51.237Z</time>
      </trkpt>
      <trkpt lat="51.604816" lon="12.585840">
        <ele>95.671373</ele>
        <time>2022-10-24T03:26:07.651Z</time>
      </trkpt>
      <trkpt lat="51.604687" lon="12.585718">
        <ele>95.645766</ele>
        <time>2022-10-24T03:26:23.013Z</time>
      </trkpt>
      <trkpt lat="51.604469" lon="12.585434">
        <ele>95.597767</ele>
        <time>2022-10-24T03:26:52.374Z</time>
      </trkpt>
      <trkpt lat="51.604411" lon="12.585516">
        <ele>95.584555</ele>
        <time>2022-10-24T03:27:00.433Z</time>
      </trkpt>
      <trkpt lat="51.604354" lon="12.585600">
        <ele>95.659653</ele>
        <time>2022-10-24T03:27:08.610Z</time>
      </trkpt>
      <trkpt lat="51.604202" lon="12.585818">
        <ele>96.026938</ele>
        <time>2022-10-24T03:27:30.079Z</time>
      </trkpt>
      <trkpt lat="51.604152" lon="12.586022">
        <ele>96.272705</ele>
        <time>2022-10-24T03:27:44.621Z</time>
      </trkpt>
      <trkpt lat="51.603947" lon="12.586027">
        <ele>96.642631</ele>
        <time>2022-10-24T03:28:06.464Z</time>
      </trkpt>
      <trkpt lat="51.603745" lon="12.586027">
        <ele>97.007102</ele>
        <time>2022-10-24T03:28:28.209Z</time>
      </trkpt>
      <trkpt lat="51.603671" lon="12.586025">
        <ele>97.140640</ele>
        <time>2022-10-24T03:28:36.090Z</time>
      </trkpt>
      <trkpt lat="51.603452" lon="12.585963">
        <ele>97.541846</ele>
        <time>2022-10-24T03:28:59.940Z</time>
      </trkpt>
      <trkpt lat="51.603367" lon="12.586116">
        <ele>97.771889</ele>
        <time>2022-10-24T03:29:13.752Z</time>
      </trkpt>
      <trkpt lat="51.603330" lon="12.586156">
        <ele>97.852302</ele>
        <time>2022-10-24T03:29:18.586Z</time>
      </trkpt>
      <trkpt lat="51.603277" lon="12.586105">
        <ele>97.963708</ele>
        <time>2022-10-24T03:29:25.209Z</time>
      </trkpt>
      <trkpt lat="51.603053" lon="12.585864">
        <ele>98.449808</ele>
        <time>2022-10-24T03:29:54.304Z</time>
      </trkpt>
      <trkpt lat="51.602264" lon="12.584728">
        <ele>100.338913</ele>
        <time>2022-10-24T03:31:46.017Z</time>
      </trkpt>
      <trkpt lat="51.602041" lon="12.584456">
        <ele>100.836895</ele>
        <time>2022-10-24T03:32:15.636Z</time>
      </trkpt>
      <trkpt lat="51.601934" lon="12.584326">
        <ele>101.075496</ele>
        <time>2022-10-24T03:32:29.788Z</time>
      </trkpt>
      <trkpt lat="51.601770" lon="12.584204">
        <ele>101.397066</ele>
        <time>2022-10-24T03:32:49.223Z</time>
      </trkpt>
      <trkpt lat="51.601791" lon="12.584132">
        <ele>101.485007</ele>
        <time>2022-10-24T03:32:54.504Z</time>
      </trkpt>
      <trkpt lat="51.601942" lon="12.583682">
        <ele>102.049019</ele>
        <time>2022-10-24T03:33:28.652Z</time>
      </trkpt>
      <trkpt lat="51.601625" lon="12.583485">
        <ele>102.618067</ele>
        <time>2022-10-24T03:34:05.298Z</time>
      </trkpt>
      <trkpt lat="51.601503" lon="12.583500">
        <ele>102.822972</ele>
        <time>2022-10-24T03:34:18.363Z</time>
      </trkpt>
      <trkpt lat="51.601236" lon="12.583263">
        <ele>103.333566</ele>
        <time>2022-10-24T03:34:51.091Z</time>
      </trkpt>
      <trkpt lat="51.600943" lon="12.583165">
        <ele>103.834723</ele>
        <time>2022-10-24T03:35:22.984Z</time>
      </trkpt>
      <trkpt lat="51.600901" lon="12.583445">
        <ele>104.134351</ele>
        <time>2022-10-24T03:35:41.795Z</time>
      </trkpt>
      <trkpt lat="51.600833" lon="12.583584">
        <ele>104.318399</ele>
        <time>2022-10-24T03:35:53.342Z</time>
      </trkpt>
      <trkpt lat="51.600701" lon="12.583673">
        <ele>104.558059</ele>
        <time>2022-10-24T03:36:08.388Z</time>
      </trkpt>
      <trkpt lat="51.600570" lon="12.583762">
        <ele>104.796175</ele>
        <time>2022-10-24T03:36:23.363Z</time>
      </trkpt>
      <trkpt lat="51.600549" lon="12.583851">
        <ele>104.895208</ele>
        <time>2022-10-24T03:36:29.513Z</time>
      </trkpt>
      <trkpt lat="51.600417" lon="12.583988">
        <ele>105.040086</ele>
        <time>2022-10-24T03:36:46.011Z</time>
      </trkpt>
      <trkpt lat="51.600107" lon="12.584201">
        <ele>105.050047</ele>
        <time>2022-10-24T03:37:20.691Z</time>
      </trkpt>
      <trkpt lat="51.600005" lon="12.584215">
        <ele>105.053073</ele>
        <time>2022-10-24T03:37:31.038Z</time>
      </trkpt>
      <trkpt lat="51.599782" lon="12.584107">
        <ele>105.059955</ele>
        <time>2022-10-24T03:37:54.634Z</time>
      </trkpt>
      <trkpt lat="51.599319" lon="12.584383">
        <ele>105.074547</ele>
        <time>2022-10-24T03:38:44.067Z</time>
      </trkpt>
      <trkpt lat="51.599263" lon="12.584417">
        <ele>105.076316</ele>
        <time>2022-10-24T03:38:50.048Z</time>
      </trkpt>
      <trkpt lat="51.599135" lon="12.584423">
        <ele>105.080100</ele>
        <time>2022-10-24T03:39:03.105Z</time>
      </trkpt>
      <trkpt lat="51.598750" lon="12.584426">
        <ele>105.075565</ele>
        <time>2022-10-24T03:39:42.305Z</time>
      </trkpt>
      <trkpt lat="51.598571" lon="12.584444">
        <ele>104.844770</ele>
        <time>2022-10-24T03:40:00.633Z</time>
      </trkpt>
      <trkpt lat="51.598008" lon="12.584502">
        <ele>104.118793</ele>
        <time>2022-10-24T03:40:58.651Z</time>
      </trkpt>
      <trkpt lat="51.597833" lon="12.584524">
        <ele>103.892908</ele>
        <time>2022-10-24T03:41:16.715Z</time>
      </trkpt>
      <trkpt lat="51.597351" lon="12.584556">
        <ele>103.272120</ele>
        <time>2022-10-24T03:42:06.247Z</time>
      </trkpt>
      <trkpt lat="51.597130" lon="12.584570">
        <ele>102.987507</ele>
        <time>2022-10-24T03:42:28.898Z</time>
      </trkpt>
      <trkpt lat="51.596690" lon="12.584599">
        <ele>102.128862</ele>
        <time>2022-10-24T03:43:14.478Z</time>
      </trkpt>
      <trkpt lat="51.595540" lon="12.584722">
        <ele>99.428442</ele>
        <time>2022-10-24T03:45:15.673Z</time>
      </trkpt>
      <trkpt lat="51.595542" lon="12.584800">
        <ele>99.314816</ele>
        <time>2022-10-24T03:45:20.773Z</time>
      </trkpt>
      <trkpt lat="51.595277" lon="12.584814">
        <ele>98.693580</ele>
        <time>2022-10-24T03:45:48.777Z</time>
      </trkpt>
      <trkpt lat="51.595012" lon="12.584827">
        <ele>97.993790</ele>
        <time>2022-10-24T03:46:16.845Z</time>
      </trkpt>
      <trkpt lat="51.594895" lon="12.584833">
        <ele>97.675512</ele>
        <time>2022-10-24T03:46:29.190Z</time>
      </trkpt>
      <trkpt lat="51.594762" lon="12.584821">
        <ele>97.313324</ele>
        <time>2022-10-24T03:46:43.322Z</time>
      </trkpt>
      <trkpt lat="51.594296" lon="12.584644">
        <ele>96.011498</ele>
        <time>2022-10-24T03:47:34.220Z</time>
      </trkpt>
      <trkpt lat="51.594229" lon="12.584607">
        <ele>95.818907</ele>
        <time>2022-10-24T03:47:41.751Z</time>
      </trkpt>
      <trkpt lat="51.594166" lon="12.584570">
        <ele>95.636568</ele>
        <time>2022-10-24T03:47:48.740Z</time>
      </trkpt>
      <trkpt lat="51.594026" lon="12.584476">
        <ele>95.224129</ele>
        <time>2022-10-24T03:48:04.924Z</time>
      </trkpt>
      <trkpt lat="51.593964" lon="12.584422">
        <ele>95.032460</ele>
        <time>2022-10-24T03:48:12.476Z</time>
      </trkpt>
      <trkpt lat="51.593839" lon="12.584317">
        <ele>94.649099</ele>
        <time>2022-10-24T03:48:27.362Z</time>
      </trkpt>
      <trkpt lat="51.593730" lon="12.584223">
        <ele>94.312881</ele>
        <time>2022-10-24T03:48:40.503Z</time>
      </trkpt>
      <trkpt lat="51.593599" lon="12.584179">
        <ele>93.949027</ele>
        <time>2022-10-24T03:48:54.653Z</time>
      </trkpt>
      <trkpt lat="51.592961" lon="12.584255">
        <ele>93.064729</ele>
        <time>2022-10-24T03:50:01.273Z</time>
      </trkpt>
      <trkpt lat="51.592851" lon="12.584220">
        <ele>92.938148</ele>
        <time>2022-10-24T03:50:12.766Z</time>
      </trkpt>
      <trkpt lat="51.592857" lon="12.584415">
        <ele>92.801222</ele>
        <time>2022-10-24T03:50:25.009Z</time>
      </trkpt>
      <trkpt lat="51.592766" lon="12.584333">
        <ele>92.683492</ele>
        <time>2022-10-24T03:50:35.632Z</time>
      </trkpt>
      <trkpt lat="51.592590" lon="12.583989">
        <ele>92.370954</ele>
        <time>2022-10-24T03:51:03.616Z</time>
      </trkpt>
      <trkpt lat="51.592394" lon="12.583991">
        <ele>92.149686</ele>
        <time>2022-10-24T03:51:23.559Z</time>
      </trkpt>
      <trkpt lat="51.592111" lon="12.584008">
        <ele>91.829987</ele>
        <time>2022-10-24T03:51:52.095Z</time>
      </trkpt>
      <trkpt lat="51.591926" lon="12.584022">
        <ele>91.625958</ele>
        <time>2022-10-24T03:52:10.839Z</time>
      </trkpt>
      <trkpt lat="51.591581" lon="12.583964">
        <ele>91.330970</ele>
        <time>2022-10-24T03:52:45.831Z</time>
      </trkpt>
      <trkpt lat="51.591461" lon="12.583937">
        <ele>91.227928</ele>
        <time>2022-10-24T03:52:58.030Z</time>
      </trkpt>
      <trkpt lat="51.591150" lon="12.583869">
        <ele>90.961021</ele>
        <time>2022-10-24T03:53:29.746Z</time>
      </trkpt>
      <trkpt lat="51.591107" lon="12.583731">
        <ele>90.879454</ele>
        <time>2022-10-24T03:53:39.512Z</time>
      </trkpt>
      <trkpt lat="51.591120" lon="12.583579">
        <ele>90.798390</ele>
        <time>2022-10-24T03:53:49.148Z</time>
      </trkpt>
      <trkpt lat="51.591252" lon="12.582632">
        <ele>90.285618</ele>
        <time>2022-10-24T03:54:50.691Z</time>
      </trkpt>
      <trkpt lat="51.591291" lon="12.582469">
        <ele>90.193334</ele>
        <time>2022-10-24T03:55:01.934Z</time>
      </trkpt>
      <trkpt lat="51.591412" lon="12.582098">
        <ele>89.850703</ele>
        <time>2022-10-24T03:55:28.901Z</time>
      </trkpt>
      <trkpt lat="51.591478" lon="12.582000">
        <ele>89.708125</ele>
        <time>2022-10-24T03:55:38.223Z</time>
      </trkpt>
      <trkpt lat="51.591426" lon="12.581929">
        <ele>89.599852</ele>
        <time>2022-10-24T03:55:45.234Z</time>
      </trkpt>
      <trkpt lat="51.591363" lon="12.581822">
        <ele>89.454427</ele>
        <time>2022-10-24T03:55:54.793Z</time>
      </trkpt>
      <trkpt lat="51.591233" lon="12.581550">
        <ele>89.115892</ele>
        <time>2022-10-24T03:56:17.136Z</time>
      </trkpt>
      <trkpt lat="51.591158" lon="12.581292">
        <ele>88.834897</ele>
        <time>2022-10-24T03:56:35.538Z</time>
      </trkpt>
      <trkpt lat="51.590987" lon="12.580856">
        <ele>88.326256</ele>
        <time>2022-10-24T03:57:08.778Z</time>
      </trkpt>
      <trkpt lat="51.590952" lon="12.580645">
        <ele>88.110816</ele>
        <time>2022-10-24T03:57:22.844Z</time>
      </trkpt>
      <trkpt lat="51.590585" lon="12.579788">
        <ele>87.252815</ele>
        <time>2022-10-24T03:58:29.432Z</time>
      </trkpt>
      <trkpt lat="51.590435" lon="12.579438">
        <ele>87.245503</ele>
        <time>2022-10-24T03:58:56.469Z</time>
      </trkpt>
      <trkpt lat="51.590336" lon="12.579202">
        <ele>87.240607</ele>
        <time>2022-10-24T03:59:14.501Z</time>
      </trkpt>
      <trkpt lat="51.589767" lon="12.577810">
        <ele>87.211954</ele>
        <time>2022-10-24T04:00:59.327Z</time>
      </trkpt>
      <trkpt lat="51.589666" lon="12.577552">
        <ele>87.206710</ele>
        <time>2022-10-24T04:01:19.085Z</time>
      </trkpt>
      <trkpt lat="51.588981" lon="12.575649">
        <ele>88.434475</ele>
        <time>2022-10-24T04:03:40.741Z</time>
      </trkpt>
      <trkpt lat="51.588907" lon="12.575596">
        <ele>88.508632</ele>
        <time>2022-10-24T04:03:49.221Z</time>
      </trkpt>
      <trkpt lat="51.588774" lon="12.575313">
        <ele>88.710482</ele>
        <time>2022-10-24T04:04:12.112Z</time>
      </trkpt>
      <trkpt lat="51.588584" lon="12.574766">
        <ele>88.924636</ele>
        <time>2022-10-24T04:04:52.144Z</time>
      </trkpt>
      <trkpt lat="51.588657" lon="12.574702">
        <ele>88.950164</ele>
        <time>2022-10-24T04:05:00.570Z</time>
      </trkpt>
      <trkpt lat="51.588584" lon="12.574766">
        <ele>88.975691</ele>
        <time>2022-10-24T04:05:09.036Z</time>
      </trkpt>
      <trkpt lat="51.588430" lon="12.574921">
        <ele>89.031469</ele>
        <time>2022-10-24T04:05:27.562Z</time>
      </trkpt>
      <trkpt lat="51.588183" lon="12.575171">
        <ele>89.121071</ele>
        <time>2022-10-24T04:05:57.398Z</time>
      </trkpt>
      <trkpt lat="51.588019" lon="12.575338">
        <ele>89.180667</ele>
        <time>2022-10-24T04:06:17.076Z</time>
      </trkpt>
      <trkpt lat="51.587932" lon="12.575426">
        <ele>89.212222</ele>
        <time>2022-10-24T04:06:27.497Z</time>
      </trkpt>
      <trkpt lat="51.587841" lon="12.575518">
        <ele>89.245223</ele>
        <time>2022-10-24T04:06:38.280Z</time>
      </trkpt>
      <trkpt lat="51.587617" lon="12.575745">
        <ele>89.326511</ele>
        <time>2022-10-24T04:07:04.883Z</time>
      </trkpt>
      <trkpt lat="51.587459" lon="12.576085">
        <ele>89.400087</ele>
        <time>2022-10-24T04:07:31.367Z</time>
      </trkpt>
      <trkpt lat="51.587360" lon="12.576168">
        <ele>89.326877</ele>
        <time>2022-10-24T04:07:42.538Z</time>
      </trkpt>
      <trkpt lat="51.587296" lon="12.576079">
        <ele>89.271405</ele>
        <time>2022-10-24T04:07:51.002Z</time>
      </trkpt>
      <trkpt lat="51.587055" lon="12.575746">
        <ele>89.063088</ele>
        <time>2022-10-24T04:08:23.172Z</time>
      </trkpt>
      <trkpt lat="51.586986" lon="12.575650">
        <ele>89.003270</ele>
        <time>2022-10-24T04:08:32.462Z</time>
      </trkpt>
      <trkpt lat="51.586318" lon="12.574696">
        <ele>88.417550</ele>
        <time>2022-10-24T04:10:03.722Z</time>
      </trkpt>
      <trkpt lat="51.586229" lon="12.574567">
        <ele>88.338998</ele>
        <time>2022-10-24T04:10:15.769Z</time>
      </trkpt>
      <trkpt lat="51.585706" lon="12.573845">
        <ele>88.048727</ele>
        <time>2022-10-24T04:11:25.480Z</time>
      </trkpt>
      <trkpt lat="51.585408" lon="12.573157">
        <ele>87.870196</ele>
        <time>2022-10-24T04:12:18.043Z</time>
      </trkpt>
      <trkpt lat="51.584912" lon="12.572365">
        <ele>87.630817</ele>
        <time>2022-10-24T04:13:28.396Z</time>
      </trkpt>
      <trkpt lat="51.584701" lon="12.572143">
        <ele>87.609534</ele>
        <time>2022-10-24T04:13:53.636Z</time>
      </trkpt>
      <trkpt lat="51.584287" lon="12.571802">
        <ele>87.610133</ele>
        <time>2022-10-24T04:14:40.530Z</time>
      </trkpt>
      <trkpt lat="51.584063" lon="12.571702">
        <ele>87.610432</ele>
        <time>2022-10-24T04:15:04.008Z</time>
      </trkpt>
      <trkpt lat="51.583962" lon="12.571734">
        <ele>87.610565</ele>
        <time>2022-10-24T04:15:14.437Z</time>
      </trkpt>
      <trkpt lat="51.583759" lon="12.571845">
        <ele>87.610841</ele>
        <time>2022-10-24T04:15:36.059Z</time>
      </trkpt>
      <trkpt lat="51.583494" lon="12.571938">
        <ele>87.611190</ele>
        <time>2022-10-24T04:16:03.190Z</time>
      </trkpt>
      <trkpt lat="51.583264" lon="12.572084">
        <ele>87.611508</ele>
        <time>2022-10-24T04:16:28.125Z</time>
      </trkpt>
      <trkpt lat="51.582622" lon="12.572431">
        <ele>87.402728</ele>
        <time>2022-10-24T04:17:36.460Z</time>
      </trkpt>
      <trkpt lat="51.582385" lon="12.572525">
        <ele>87.317921</ele>
        <time>2022-10-24T04:18:01.066Z</time>
      </trkpt>
      <trkpt lat="51.581502" lon="12.573418">
        <ele>86.979870</ele>
        <time>2022-10-24T04:19:46.237Z</time>
      </trkpt>
      <trkpt lat="51.581288" lon="12.573672">
        <ele>86.959624</ele>
        <time>2022-10-24T04:20:12.921Z</time>
      </trkpt>
      <trkpt lat="51.580969" lon="12.574186">
        <ele>86.925253</ele>
        <time>2022-10-24T04:20:58.334Z</time>
      </trkpt>
      <trkpt lat="51.579664" lon="12.576612">
        <ele>87.021396</ele>
        <time>2022-10-24T04:24:18.115Z</time>
      </trkpt>
      <trkpt lat="51.579076" lon="12.577506">
        <ele>87.159920</ele>
        <time>2022-10-24T04:25:40.189Z</time>
      </trkpt>
      <trkpt lat="51.578830" lon="12.577817">
        <ele>87.212492</ele>
        <time>2022-10-24T04:26:11.835Z</time>
      </trkpt>
      <trkpt lat="51.578504" lon="12.578131">
        <ele>87.276340</ele>
        <time>2022-10-24T04:26:50.120Z</time>
      </trkpt>
      <trkpt lat="51.578013" lon="12.578450">
        <ele>87.365324</ele>
        <time>2022-10-24T04:27:43.399Z</time>
      </trkpt>
      <trkpt lat="51.577666" lon="12.578583">
        <ele>87.425269</ele>
        <time>2022-10-24T04:28:19.228Z</time>
      </trkpt>
      <trkpt lat="51.577467" lon="12.578601">
        <ele>87.458763</ele>
        <time>2022-10-24T04:28:39.240Z</time>
      </trkpt>
      <trkpt lat="51.576949" lon="12.578497">
        <ele>87.431163</ele>
        <time>2022-10-24T04:29:31.508Z</time>
      </trkpt>
      <trkpt lat="51.576219" lon="12.578167">
        <ele>87.388501</ele>
        <time>2022-10-24T04:30:47.610Z</time>
      </trkpt>
      <trkpt lat="51.573840" lon="12.577258">
        <ele>87.152676</ele>
        <time>2022-10-24T04:34:52.664Z</time>
      </trkpt>
      <trkpt lat="51.573215" lon="12.576873">
        <ele>87.035933</ele>
        <time>2022-10-24T04:36:00.042Z</time>
      </trkpt>
      <trkpt lat="51.572708" lon="12.576368">
        <ele>86.931915</ele>
        <time>2022-10-24T04:37:00.031Z</time>
      </trkpt>
      <trkpt lat="51.572288" lon="12.575878">
        <ele>86.868070</ele>
        <time>2022-10-24T04:37:52.052Z</time>
      </trkpt>
      <trkpt lat="51.572211" lon="12.575776">
        <ele>86.875767</ele>
        <time>2022-10-24T04:38:02.088Z</time>
      </trkpt>
      <trkpt lat="51.571954" lon="12.575438">
        <ele>86.901383</ele>
        <time>2022-10-24T04:38:35.336Z</time>
      </trkpt>
      <trkpt lat="51.571226" lon="12.574374">
        <ele>86.977283</ele>
        <time>2022-10-24T04:40:14.373Z</time>
      </trkpt>
      <trkpt lat="51.570011" lon="12.572081">
        <ele>87.102259</ele>
        <time>2022-10-24T04:43:22.444Z</time>
      </trkpt>
      <trkpt lat="51.568046" lon="12.568467">
        <ele>87.244738</ele>
        <time>2022-10-24T04:48:21.494Z</time>
      </trkpt>
      <trkpt lat="51.567771" lon="12.568156">
        <ele>87.248357</ele>
        <time>2022-10-24T04:48:55.190Z</time>
      </trkpt>
      <trkpt lat="51.567291" lon="12.567761">
        <ele>87.256239</ele>
        <time>2022-10-24T04:49:49.171Z</time>
      </trkpt>
      <trkpt lat="51.564805" lon="12.566805">
        <ele>87.433165</ele>
        <time>2022-10-24T04:54:05.550Z</time>
      </trkpt>
      <trkpt lat="51.564481" lon="12.566733">
        <ele>87.472102</ele>
        <time>2022-10-24T04:54:38.352Z</time>
      </trkpt>
      <trkpt lat="51.564086" lon="12.566712">
        <ele>87.519149</ele>
        <time>2022-10-24T04:55:18.242Z</time>
      </trkpt>
      <trkpt lat="51.563965" lon="12.566908">
        <ele>87.539591</ele>
        <time>2022-10-24T04:55:35.507Z</time>
      </trkpt>
      <trkpt lat="51.563597" lon="12.567297">
        <ele>87.687154</ele>
        <time>2022-10-24T04:56:19.941Z</time>
      </trkpt>
      <trkpt lat="51.562983" lon="12.568071">
        <ele>87.990681</ele>
        <time>2022-10-24T04:57:38.877Z</time>
      </trkpt>
      <trkpt lat="51.561783" lon="12.569605">
        <ele>88.717741</ele>
        <time>2022-10-24T05:00:15.357Z</time>
      </trkpt>
      <trkpt lat="51.561694" lon="12.569714">
        <ele>88.778132</ele>
        <time>2022-10-24T05:00:26.688Z</time>
      </trkpt>
      <trkpt lat="51.561496" lon="12.569919">
        <ele>88.905257</ele>
        <time>2022-10-24T05:00:50.763Z</time>
      </trkpt>
      <trkpt lat="51.561204" lon="12.570221">
        <ele>89.092676</ele>
        <time>2022-10-24T05:01:26.266Z</time>
      </trkpt>
      <trkpt lat="51.560350" lon="12.570785">
        <ele>89.253589</ele>
        <time>2022-10-24T05:03:00.163Z</time>
      </trkpt>
      <trkpt lat="51.560214" lon="12.570910">
        <ele>89.261040</ele>
        <time>2022-10-24T05:03:15.969Z</time>
      </trkpt>
      <trkpt lat="51.560144" lon="12.571021">
        <ele>89.265715</ele>
        <time>2022-10-24T05:03:25.830Z</time>
      </trkpt>
      <trkpt lat="51.559986" lon="12.571464">
        <ele>89.280818</ele>
        <time>2022-10-24T05:03:57.699Z</time>
      </trkpt>
      <trkpt lat="51.559704" lon="12.571908">
        <ele>89.299588</ele>
        <time>2022-10-24T05:04:37.561Z</time>
      </trkpt>
      <trkpt lat="51.559635" lon="12.570992">
        <ele>89.135398</ele>
        <time>2022-10-24T05:05:35.580Z</time>
      </trkpt>
      <trkpt lat="51.559583" lon="12.570301">
        <ele>88.962199</ele>
        <time>2022-10-24T05:06:19.300Z</time>
      </trkpt>
      <trkpt lat="51.559555" lon="12.569929">
        <ele>88.868956</ele>
        <time>2022-10-24T05:06:42.980Z</time>
      </trkpt>
      <trkpt lat="51.559418" lon="12.566171">
        <ele>88.523446</ele>
        <time>2022-10-24T05:10:37.994Z</time>
      </trkpt>
      <trkpt lat="51.558961" lon="12.559879">
        <ele>90.671011</ele>
        <time>2022-10-24T05:17:20.691Z</time>
      </trkpt>
      <trkpt lat="51.558893" lon="12.559572">
        <ele>90.765658</ele>
        <time>2022-10-24T05:17:41.425Z</time>
      </trkpt>
      <trkpt lat="51.558772" lon="12.559199">
        <ele>90.887842</ele>
        <time>2022-10-24T05:18:08.078Z</time>
      </trkpt>
      <trkpt lat="51.556962" lon="12.553858">
        <ele>93.252906</ele>
        <time>2022-10-24T05:24:31.689Z</time>
      </trkpt>
      <trkpt lat="51.556023" lon="12.553514">
        <ele>94.600966</ele>
        <time>2022-10-24T05:26:14.254Z</time>
      </trkpt>
      <trkpt lat="51.555485" lon="12.553342">
        <ele>96.715195</ele>
        <time>2022-10-24T05:27:15.815Z</time>
      </trkpt>
      <trkpt lat="51.554847" lon="12.553145">
        <ele>99.246900</ele>
        <time>2022-10-24T05:28:30.618Z</time>
      </trkpt>
      <trkpt lat="51.554332" lon="12.553004">
        <ele>101.282738</ele>
        <time>2022-10-24T05:29:31.725Z</time>
      </trkpt>
      <trkpt lat="51.554059" lon="12.552800">
        <ele>102.098663</ele>
        <time>2022-10-24T05:30:06.459Z</time>
      </trkpt>
      <trkpt lat="51.553296" lon="12.552526">
        <ele>103.838013</ele>
        <time>2022-10-24T05:31:34.583Z</time>
      </trkpt>
      <trkpt lat="51.551141" lon="12.551113">
        <ele>105.662737</ele>
        <time>2022-10-24T05:35:28.147Z</time>
      </trkpt>
      <trkpt lat="51.550365" lon="12.550604">
        <ele>105.999371</ele>
        <time>2022-10-24T05:36:52.219Z</time>
      </trkpt>
      <trkpt lat="51.550160" lon="12.550470">
        <ele>106.128929</ele>
        <time>2022-10-24T05:37:14.688Z</time>
      </trkpt>
      <trkpt lat="51.548862" lon="12.549229">
        <ele>107.327003</ele>
        <time>2022-10-24T05:39:51.084Z</time>
      </trkpt>
      <trkpt lat="51.547244" lon="12.548269">
        <ele>109.245706</ele>
        <time>2022-10-24T05:42:51.916Z</time>
      </trkpt>
      <trkpt lat="51.546759" lon="12.547982">
        <ele>109.651954</ele>
        <time>2022-10-24T05:43:45.355Z</time>
      </trkpt>
      <trkpt lat="51.545762" lon="12.547609">
        <ele>110.260230</ele>
        <time>2022-10-24T05:45:29.494Z</time>
      </trkpt>
      <trkpt lat="51.545319" lon="12.547600">
        <ele>110.077571</ele>
        <time>2022-10-24T05:46:13.833Z</time>
      </trkpt>
      <trkpt lat="51.543606" lon="12.548479">
        <ele>109.473527</ele>
        <time>2022-10-24T05:49:16.599Z</time>
      </trkpt>
      <trkpt lat="51.542566" lon="12.548874">
        <ele>109.274909</ele>
        <time>2022-10-24T05:51:04.024Z</time>
      </trkpt>
      <trkpt lat="51.540025" lon="12.549972">
        <ele>111.267179</ele>
        <time>2022-10-24T05:55:37.881Z</time>
      </trkpt>
      <trkpt lat="51.537637" lon="12.551044">
        <ele>111.207934</ele>
        <time>2022-10-24T05:59:46.531Z</time>
      </trkpt>
      <trkpt lat="51.537253" lon="12.551170">
        <ele>111.078137</ele>
        <time>2022-10-24T06:00:26.359Z</time>
      </trkpt>
      <trkpt lat="51.534928" lon="12.552292">
        <ele>108.575871</ele>
        <time>2022-10-24T06:04:34.652Z</time>
      </trkpt>
      <trkpt lat="51.533723" lon="12.552810">
        <ele>107.217088</ele>
        <time>2022-10-24T06:06:42.697Z</time>
      </trkpt>
      <trkpt lat="51.528045" lon="12.553524">
        <ele>103.056206</ele>
        <time>2022-10-24T06:16:21.440Z</time>
      </trkpt>
      <trkpt lat="51.527020" lon="12.553682">
        <ele>102.640596</ele>
        <time>2022-10-24T06:18:05.125Z</time>
      </trkpt>
      <trkpt lat="51.526919" lon="12.553178">
        <ele>102.507633</ele>
        <time>2022-10-24T06:18:38.298Z</time>
      </trkpt>
      <trkpt lat="51.526892" lon="12.552820">
        <ele>102.407650</ele>
        <time>2022-10-24T06:19:00.859Z</time>
      </trkpt>
      <trkpt lat="51.526871" lon="12.551238">
        <ele>101.946148</ele>
        <time>2022-10-24T06:20:40.240Z</time>
      </trkpt>
      <trkpt lat="51.526709" lon="12.551238">
        <ele>101.870204</ele>
        <time>2022-10-24T06:20:56.629Z</time>
      </trkpt>
      <trkpt lat="51.525422" lon="12.551711">
        <ele>101.036170</ele>
        <time>2022-10-24T06:23:10.556Z</time>
      </trkpt>
      <trkpt lat="51.525285" lon="12.551697">
        <ele>100.935476</ele>
        <time>2022-10-24T06:23:24.551Z</time>
      </trkpt>
      <trkpt lat="51.525129" lon="12.551519">
        <ele>100.795147</ele>
        <time>2022-10-24T06:23:44.059Z</time>
      </trkpt>
      <trkpt lat="51.525069" lon="12.551402">
        <ele>100.725952</ele>
        <time>2022-10-24T06:23:53.728Z</time>
      </trkpt>
      <trkpt lat="51.524759" lon="12.550622">
        <ele>100.307221</ele>
        <time>2022-10-24T06:24:52.340Z</time>
      </trkpt>
      <trkpt lat="51.524099" lon="12.548632">
        <ele>99.679251</ele>
        <time>2022-10-24T06:27:14.085Z</time>
      </trkpt>
      <trkpt lat="51.523953" lon="12.547853">
        <ele>99.530965</ele>
        <time>2022-10-24T06:28:05.051Z</time>
      </trkpt>
      <trkpt lat="51.523927" lon="12.547166">
        <ele>99.610842</ele>
        <time>2022-10-24T06:28:48.035Z</time>
      </trkpt>
      <trkpt lat="51.523695" lon="12.546726">
        <ele>99.677777</ele>
        <time>2022-10-24T06:29:24.047Z</time>
      </trkpt>
      <trkpt lat="51.523393" lon="12.546285">
        <ele>99.753886</ele>
        <time>2022-10-24T06:30:05.215Z</time>
      </trkpt>
      <trkpt lat="51.522563" lon="12.545446">
        <ele>100.396268</ele>
        <time>2022-10-24T06:31:46.172Z</time>
      </trkpt>
      <trkpt lat="51.522379" lon="12.545307">
        <ele>100.620873</ele>
        <time>2022-10-24T06:32:07.425Z</time>
      </trkpt>
      <trkpt lat="51.522174" lon="12.545279">
        <ele>100.848158</ele>
        <time>2022-10-24T06:32:28.868Z</time>
      </trkpt>
      <trkpt lat="51.521944" lon="12.545385">
        <ele>101.112485</ele>
        <time>2022-10-24T06:32:53.959Z</time>
      </trkpt>
      <trkpt lat="51.520992" lon="12.545969">
        <ele>101.893628</ele>
        <time>2022-10-24T06:34:40.552Z</time>
      </trkpt>
      <trkpt lat="51.520826" lon="12.545991">
        <ele>101.922141</ele>
        <time>2022-10-24T06:34:57.964Z</time>
      </trkpt>
      <trkpt lat="51.520564" lon="12.545888">
        <ele>101.968315</ele>
        <time>2022-10-24T06:35:26.032Z</time>
      </trkpt>
      <trkpt lat="51.513428" lon="12.540498">
        <ele>103.122276</ele>
        <time>2022-10-24T06:48:35.839Z</time>
      </trkpt>
      <trkpt lat="51.513287" lon="12.540358">
        <ele>103.128949</ele>
        <time>2022-10-24T06:48:52.442Z</time>
      </trkpt>
      <trkpt lat="51.513244" lon="12.540274">
        <ele>103.131674</ele>
        <time>2022-10-24T06:48:59.220Z</time>
      </trkpt>
      <trkpt lat="51.509051" lon="12.531157">
        <ele>104.118517</ele>
        <time>2022-10-24T07:00:49.065Z</time>
      </trkpt>
      <trkpt lat="51.508473" lon="12.529907">
        <ele>104.268790</ele>
        <time>2022-10-24T07:02:26.668Z</time>
      </trkpt>
      <trkpt lat="51.508315" lon="12.529566">
        <ele>104.309936</ele>
        <time>2022-10-24T07:02:53.157Z</time>
      </trkpt>
      <trkpt lat="51.507246" lon="12.527255">
        <ele>104.538575</ele>
        <time>2022-10-24T07:05:53.498Z</time>
      </trkpt>
      <trkpt lat="51.507222" lon="12.527131">
        <ele>104.547172</ele>
        <time>2022-10-24T07:06:01.629Z</time>
      </trkpt>
      <trkpt lat="51.507167" lon="12.527118">
        <ele>104.553086</ele>
        <time>2022-10-24T07:06:07.215Z</time>
      </trkpt>
      <trkpt lat="51.506934" lon="12.527050">
        <ele>104.578275</ele>
        <time>2022-10-24T07:06:31.177Z</time>
      </trkpt>
      <trkpt lat="51.506309" lon="12.526851">
        <ele>104.550767</ele>
        <time>2022-10-24T07:07:35.097Z</time>
      </trkpt>
      <trkpt lat="51.506150" lon="12.526800">
        <ele>104.500917</ele>
        <time>2022-10-24T07:07:51.361Z</time>
      </trkpt>
      <trkpt lat="51.505929" lon="12.526745">
        <ele>104.432159</ele>
        <time>2022-10-24T07:08:13.821Z</time>
      </trkpt>
      <trkpt lat="51.505789" lon="12.526769">
        <ele>104.388871</ele>
        <time>2022-10-24T07:08:27.929Z</time>
      </trkpt>
      <trkpt lat="51.505609" lon="12.526871">
        <ele>104.330188</ele>
        <time>2022-10-24T07:08:47.061Z</time>
      </trkpt>
      <trkpt lat="51.505362" lon="12.527081">
        <ele>104.244268</ele>
        <time>2022-10-24T07:09:15.200Z</time>
      </trkpt>
      <trkpt lat="51.505150" lon="12.527197">
        <ele>104.175411</ele>
        <time>2022-10-24T07:09:37.810Z</time>
      </trkpt>
      <trkpt lat="51.505076" lon="12.527225">
        <ele>104.152037</ele>
        <time>2022-10-24T07:09:45.502Z</time>
      </trkpt>
      <trkpt lat="51.505013" lon="12.527248">
        <ele>104.132173</ele>
        <time>2022-10-24T07:09:52.057Z</time>
      </trkpt>
      <trkpt lat="51.504819" lon="12.527321">
        <ele>104.070913</ele>
        <time>2022-10-24T07:10:12.341Z</time>
      </trkpt>
      <trkpt lat="51.504784" lon="12.527335">
        <ele>104.049136</ele>
        <time>2022-10-24T07:10:16.069Z</time>
      </trkpt>
      <trkpt lat="51.504393" lon="12.527436">
        <ele>103.778361</ele>
        <time>2022-10-24T07:10:56.413Z</time>
      </trkpt>
      <trkpt lat="51.504309" lon="12.527464">
        <ele>103.719704</ele>
        <time>2022-10-24T07:11:05.223Z</time>
      </trkpt>
      <trkpt lat="51.504085" lon="12.527532">
        <ele>103.563836</ele>
        <time>2022-10-24T07:11:28.464Z</time>
      </trkpt>
      <trkpt lat="51.503983" lon="12.527564">
        <ele>103.492777</ele>
        <time>2022-10-24T07:11:38.947Z</time>
      </trkpt>
      <trkpt lat="51.503883" lon="12.527586">
        <ele>103.423765</ele>
        <time>2022-10-24T07:11:49.245Z</time>
      </trkpt>
      <trkpt lat="51.503650" lon="12.527655">
        <ele>103.261770</ele>
        <time>2022-10-24T07:12:13.293Z</time>
      </trkpt>
      <trkpt lat="51.503466" lon="12.527663">
        <ele>103.135916</ele>
        <time>2022-10-24T07:12:31.970Z</time>
      </trkpt>
      <trkpt lat="51.503236" lon="12.527672">
        <ele>102.978610</ele>
        <time>2022-10-24T07:12:55.217Z</time>
      </trkpt>
      <trkpt lat="51.503036" lon="12.527608">
        <ele>102.839176</ele>
        <time>2022-10-24T07:13:15.768Z</time>
      </trkpt>
      <trkpt lat="51.502904" lon="12.527539">
        <ele>102.783552</ele>
        <time>2022-10-24T07:13:29.821Z</time>
      </trkpt>
      <trkpt lat="51.502805" lon="12.527445">
        <ele>102.737615</ele>
        <time>2022-10-24T07:13:41.357Z</time>
      </trkpt>
      <trkpt lat="51.502617" lon="12.527134">
        <ele>102.629822</ele>
        <time>2022-10-24T07:14:08.653Z</time>
      </trkpt>
      <trkpt lat="51.502541" lon="12.526957">
        <ele>102.576356</ele>
        <time>2022-10-24T07:14:22.080Z</time>
      </trkpt>
      <trkpt lat="51.502393" lon="12.526459">
        <ele>102.439139</ele>
        <time>2022-10-24T07:14:56.849Z</time>
      </trkpt>
      <trkpt lat="51.502276" lon="12.525905">
        <ele>102.293673</ele>
        <time>2022-10-24T07:15:33.585Z</time>
      </trkpt>
      <trkpt lat="51.501925" lon="12.523980">
        <ele>101.758713</ele>
        <time>2022-10-24T07:17:39.485Z</time>
      </trkpt>
      <trkpt lat="51.501915" lon="12.523811">
        <ele>101.711805</ele>
        <time>2022-10-24T07:17:50.191Z</time>
      </trkpt>
      <trkpt lat="51.501947" lon="12.523437">
        <ele>101.607493</ele>
        <time>2022-10-24T07:18:14.012Z</time>
      </trkpt>
      <trkpt lat="51.502755" lon="12.517049">
        <ele>99.846854</ele>
        <time>2022-10-24T07:25:03.832Z</time>
      </trkpt>
      <trkpt lat="51.502786" lon="12.516663">
        <ele>99.769100</ele>
        <time>2022-10-24T07:25:28.305Z</time>
      </trkpt>
      <trkpt lat="51.502728" lon="12.516219">
        <ele>99.760152</ele>
        <time>2022-10-24T07:25:56.768Z</time>
      </trkpt>
      <trkpt lat="51.500233" lon="12.507013">
        <ele>99.651323</ele>
        <time>2022-10-24T07:36:22.413Z</time>
      </trkpt>
      <trkpt lat="51.500061" lon="12.506424">
        <ele>99.668702</ele>
        <time>2022-10-24T07:37:02.997Z</time>
      </trkpt>
      <trkpt lat="51.499692" lon="12.505457">
        <ele>99.991195</ele>
        <time>2022-10-24T07:38:14.205Z</time>
      </trkpt>
      <trkpt lat="51.497972" lon="12.499811">
        <ele>102.991671</ele>
        <time>2022-10-24T07:44:57.459Z</time>
      </trkpt>
      <trkpt lat="51.497890" lon="12.499556">
        <ele>103.140454</ele>
        <time>2022-10-24T07:45:15.912Z</time>
      </trkpt>
      <trkpt lat="51.497755" lon="12.499315">
        <ele>103.308516</ele>
        <time>2022-10-24T07:45:36.783Z</time>
      </trkpt>
      <trkpt lat="51.497450" lon="12.498862">
        <ele>103.654416</ele>
        <time>2022-10-24T07:46:19.813Z</time>
      </trkpt>
      <trkpt lat="51.496624" lon="12.497630">
        <ele>103.909140</ele>
        <time>2022-10-24T07:48:14.461Z</time>
      </trkpt>
      <trkpt lat="51.496519" lon="12.497437">
        <ele>103.926980</ele>
        <time>2022-10-24T07:48:30.479Z</time>
      </trkpt>
      <trkpt lat="51.496499" lon="12.497170">
        <ele>103.945700</ele>
        <time>2022-10-24T07:48:47.201Z</time>
      </trkpt>
      <trkpt lat="51.496577" lon="12.497134">
        <ele>103.954773</ele>
        <time>2022-10-24T07:48:55.314Z</time>
      </trkpt>
      <trkpt lat="51.496700" lon="12.496986">
        <ele>103.971956</ele>
        <time>2022-10-24T07:49:10.789Z</time>
      </trkpt>
      <trkpt lat="51.496928" lon="12.496623">
        <ele>103.978739</ele>
        <time>2022-10-24T07:49:43.191Z</time>
      </trkpt>
      <trkpt lat="51.497002" lon="12.496579">
        <ele>103.917681</ele>
        <time>2022-10-24T07:49:51.126Z</time>
      </trkpt>
      <trkpt lat="51.497232" lon="12.496589">
        <ele>103.739644</ele>
        <time>2022-10-24T07:50:14.465Z</time>
      </trkpt>
      <trkpt lat="51.497400" lon="12.496638">
        <ele>103.607522</ele>
        <time>2022-10-24T07:50:31.716Z</time>
      </trkpt>
      <trkpt lat="51.497523" lon="12.496619">
        <ele>103.511906</ele>
        <time>2022-10-24T07:50:44.216Z</time>
      </trkpt>
      <trkpt lat="51.497618" lon="12.496535">
        <ele>103.427995</ele>
        <time>2022-10-24T07:50:55.285Z</time>
      </trkpt>
      <trkpt lat="51.498634" lon="12.494589">
        <ele>102.310071</ele>
        <time>2022-10-24T07:53:36.681Z</time>
      </trkpt>
      <trkpt lat="51.498708" lon="12.494420">
        <ele>102.236293</ele>
        <time>2022-10-24T07:53:49.717Z</time>
      </trkpt>
      <trkpt lat="51.498832" lon="12.494103">
        <ele>102.102608</ele>
        <time>2022-10-24T07:54:13.300Z</time>
      </trkpt>
      <trkpt lat="51.498768" lon="12.494053">
        <ele>102.061787</ele>
        <time>2022-10-24T07:54:20.463Z</time>
      </trkpt>
      <trkpt lat="51.498208" lon="12.493170">
        <ele>101.611685</ele>
        <time>2022-10-24T07:55:39.720Z</time>
      </trkpt>
      <trkpt lat="51.497381" lon="12.491639">
        <ele>101.486052</ele>
        <time>2022-10-24T07:57:46.274Z</time>
      </trkpt>
      <trkpt lat="51.497186" lon="12.491276">
        <ele>101.462660</ele>
        <time>2022-10-24T07:58:16.254Z</time>
      </trkpt>
      <trkpt lat="51.496569" lon="12.489925">
        <ele>101.494965</ele>
        <time>2022-10-24T08:00:00.722Z</time>
      </trkpt>
      <trkpt lat="51.495791" lon="12.487854">
        <ele>101.620062</ele>
        <time>2022-10-24T08:02:31.789Z</time>
      </trkpt>
      <trkpt lat="51.492694" lon="12.480766">
        <ele>102.316089</ele>
        <time>2022-10-24T08:11:33.465Z</time>
      </trkpt>
      <trkpt lat="51.492573" lon="12.480505">
        <ele>102.391892</ele>
        <time>2022-10-24T08:11:53.894Z</time>
      </trkpt>
      <trkpt lat="51.492506" lon="12.480415">
        <ele>102.424571</ele>
        <time>2022-10-24T08:12:02.753Z</time>
      </trkpt>
      <trkpt lat="51.491089" lon="12.473323">
        <ele>104.278625</ele>
        <time>2022-10-24T08:19:54.109Z</time>
      </trkpt>
      <trkpt lat="51.489167" lon="12.468951">
        <ele>105.427164</ele>
        <time>2022-10-24T08:25:32.223Z</time>
      </trkpt>
      <trkpt lat="51.489041" lon="12.469100">
        <ele>105.476006</ele>
        <time>2022-10-24T08:25:48.060Z</time>
      </trkpt>
      <trkpt lat="51.488894" lon="12.469435">
        <ele>105.504446</ele>
        <time>2022-10-24T08:26:13.727Z</time>
      </trkpt>
      <trkpt lat="51.488822" lon="12.469534">
        <ele>105.497148</ele>
        <time>2022-10-24T08:26:23.204Z</time>
      </trkpt>
      <trkpt lat="51.488667" lon="12.469599">
        <ele>105.484812</ele>
        <time>2022-10-24T08:26:39.262Z</time>
      </trkpt>
      <trkpt lat="51.484248" lon="12.470088">
        <ele>105.507848</ele>
        <time>2022-10-24T08:34:03.617Z</time>
      </trkpt>
      <trkpt lat="51.484118" lon="12.470362">
        <ele>105.555417</ele>
        <time>2022-10-24T08:34:25.638Z</time>
      </trkpt>
      <trkpt lat="51.483988" lon="12.470495">
        <ele>105.589599</ele>
        <time>2022-10-24T08:34:41.441Z</time>
      </trkpt>
      <trkpt lat="51.483742" lon="12.470591">
        <ele>105.670291</ele>
        <time>2022-10-24T08:35:07.482Z</time>
      </trkpt>
      <trkpt lat="51.482951" lon="12.470733">
        <ele>106.312661</ele>
        <time>2022-10-24T08:36:29.971Z</time>
      </trkpt>
      <trkpt lat="51.482607" lon="12.470664">
        <ele>106.592450</ele>
        <time>2022-10-24T08:37:05.891Z</time>
      </trkpt>
      <trkpt lat="51.482541" lon="12.470399">
        <ele>106.735897</ele>
        <time>2022-10-24T08:37:24.326Z</time>
      </trkpt>
      <trkpt lat="51.482402" lon="12.470061">
        <ele>106.939476</ele>
        <time>2022-10-24T08:37:50.387Z</time>
      </trkpt>
      <trkpt lat="51.482216" lon="12.469732">
        <ele>107.103668</ele>
        <time>2022-10-24T08:38:18.812Z</time>
      </trkpt>
      <trkpt lat="51.479310" lon="12.465931">
        <ele>107.473348</ele>
        <time>2022-10-24T08:44:34.362Z</time>
      </trkpt>
      <trkpt lat="51.478465" lon="12.464783">
        <ele>107.538494</ele>
        <time>2022-10-24T08:46:25.416Z</time>
      </trkpt>
      <trkpt lat="51.478376" lon="12.464704">
        <ele>107.544479</ele>
        <time>2022-10-24T08:46:35.638Z</time>
      </trkpt>
      <trkpt lat="51.473458" lon="12.461740">
        <ele>110.573583</ele>
        <time>2022-10-24T08:55:32.495Z</time>
      </trkpt>
      <trkpt lat="51.473077" lon="12.461026">
        <ele>111.016396</ele>
        <time>2022-10-24T08:56:33.194Z</time>
      </trkpt>
      <trkpt lat="51.472979" lon="12.460719">
        <ele>111.215431</ele>
        <time>2022-10-24T08:56:55.515Z</time>
      </trkpt>
      <trkpt lat="51.472899" lon="12.460685">
        <ele>111.292086</ele>
        <time>2022-10-24T08:57:04.137Z</time>
      </trkpt>
      <trkpt lat="51.472590" lon="12.460436">
        <ele>111.612341</ele>
        <time>2022-10-24T08:57:40.072Z</time>
      </trkpt>
      <trkpt lat="51.472154" lon="12.460150">
        <ele>112.048613</ele>
        <time>2022-10-24T08:58:28.919Z</time>
      </trkpt>
      <trkpt lat="51.471974" lon="12.460033">
        <ele>112.228492</ele>
        <time>2022-10-24T08:58:49.033Z</time>
      </trkpt>
      <trkpt lat="51.471703" lon="12.459897">
        <ele>112.491494</ele>
        <time>2022-10-24T08:59:18.215Z</time>
      </trkpt>
      <trkpt lat="51.470930" lon="12.459863">
        <ele>112.910252</ele>
        <time>2022-10-24T09:00:36.998Z</time>
      </trkpt>
      <trkpt lat="51.470754" lon="12.459818">
        <ele>112.995390</ele>
        <time>2022-10-24T09:00:55.148Z</time>
      </trkpt>
      <trkpt lat="51.470555" lon="12.459695">
        <ele>113.097259</ele>
        <time>2022-10-24T09:01:16.872Z</time>
      </trkpt>
      <trkpt lat="51.470320" lon="12.459383">
        <ele>113.242941</ele>
        <time>2022-10-24T09:01:47.950Z</time>
      </trkpt>
      <trkpt lat="51.470219" lon="12.459114">
        <ele>113.336407</ele>
        <time>2022-10-24T09:02:07.808Z</time>
      </trkpt>
      <trkpt lat="51.469933" lon="12.458673">
        <ele>113.539107</ele>
        <time>2022-10-24T09:02:47.961Z</time>
      </trkpt>
      <trkpt lat="51.469286" lon="12.457787">
        <ele>114.018919</ele>
        <time>2022-10-24T09:04:13.983Z</time>
      </trkpt>
      <trkpt lat="51.468516" lon="12.456945">
        <ele>114.628324</ele>
        <time>2022-10-24T09:05:49.793Z</time>
      </trkpt>
      <trkpt lat="51.468390" lon="12.456795">
        <ele>114.812920</ele>
        <time>2022-10-24T09:06:06.154Z</time>
      </trkpt>
      <trkpt lat="51.468272" lon="12.456577">
        <ele>115.024627</ele>
        <time>2022-10-24T09:06:24.912Z</time>
      </trkpt>
      <trkpt lat="51.468119" lon="12.456061">
        <ele>115.443551</ele>
        <time>2022-10-24T09:07:02.015Z</time>
      </trkpt>
      <trkpt lat="51.468006" lon="12.455764">
        <ele>115.698667</ele>
        <time>2022-10-24T09:07:24.598Z</time>
      </trkpt>
      <trkpt lat="51.467790" lon="12.455504">
        <ele>116.016370</ele>
        <time>2022-10-24T09:07:52.978Z</time>
      </trkpt>
      <trkpt lat="51.467697" lon="12.455421">
        <ele>116.141586</ele>
        <time>2022-10-24T09:08:04.101Z</time>
      </trkpt>
      <trkpt lat="51.467628" lon="12.455352">
        <ele>116.237249</ele>
        <time>2022-10-24T09:08:12.533Z</time>
      </trkpt>
      <trkpt lat="51.467476" lon="12.455216">
        <ele>116.442026</ele>
        <time>2022-10-24T09:08:30.863Z</time>
      </trkpt>
      <trkpt lat="51.466764" lon="12.454418">
        <ele>117.398829</ele>
        <time>2022-10-24T09:10:02.108Z</time>
      </trkpt>
      <trkpt lat="51.466485" lon="12.454073">
        <ele>117.782618</ele>
        <time>2022-10-24T09:10:38.900Z</time>
      </trkpt>
      <trkpt lat="51.465418" lon="12.452660">
        <ele>118.995018</ele>
        <time>2022-10-24T09:13:00.569Z</time>
      </trkpt>
      <trkpt lat="51.465126" lon="12.452216">
        <ele>119.259999</ele>
        <time>2022-10-24T09:13:41.585Z</time>
      </trkpt>
      <trkpt lat="51.465052" lon="12.452078">
        <ele>119.334731</ele>
        <time>2022-10-24T09:13:53.233Z</time>
      </trkpt>
      <trkpt lat="51.464711" lon="12.451390">
        <ele>119.695572</ele>
        <time>2022-10-24T09:14:49.625Z</time>
      </trkpt>
      <trkpt lat="51.464643" lon="12.451150">
        <ele>119.828534</ele>
        <time>2022-10-24T09:15:06.340Z</time>
      </trkpt>
      <trkpt lat="51.464642" lon="12.450866">
        <ele>119.983685</ele>
        <time>2022-10-24T09:15:24.615Z</time>
      </trkpt>
      <trkpt lat="51.464605" lon="12.450759">
        <ele>120.050540</ele>
        <time>2022-10-24T09:15:32.450Z</time>
      </trkpt>
      <trkpt lat="51.464518" lon="12.450651">
        <ele>120.146982</ele>
        <time>2022-10-24T09:15:43.523Z</time>
      </trkpt>
      <trkpt lat="51.464342" lon="12.450546">
        <ele>120.311630</ele>
        <time>2022-10-24T09:16:02.885Z</time>
      </trkpt>
      <trkpt lat="51.464007" lon="12.450348">
        <ele>120.624670</ele>
        <time>2022-10-24T09:16:39.566Z</time>
      </trkpt>
      <trkpt lat="51.463093" lon="12.449797">
        <ele>121.547980</ele>
        <time>2022-10-24T09:18:20.918Z</time>
      </trkpt>
      <trkpt lat="51.462988" lon="12.449623">
        <ele>121.731238</ele>
        <time>2022-10-24T09:18:36.731Z</time>
      </trkpt>
      <trkpt lat="51.462892" lon="12.449733">
        <ele>121.874464</ele>
        <time>2022-10-24T09:18:49.022Z</time>
      </trkpt>
      <trkpt lat="51.462853" lon="12.449879">
        <ele>121.994640</ele>
        <time>2022-10-24T09:18:59.405Z</time>
      </trkpt>
      <trkpt lat="51.462766" lon="12.450499">
        <ele>122.475432</ele>
        <time>2022-10-24T09:19:40.471Z</time>
      </trkpt>
      <trkpt lat="51.462679" lon="12.451270">
        <ele>123.068200</ele>
        <time>2022-10-24T09:20:31.280Z</time>
      </trkpt>
      <trkpt lat="51.462578" lon="12.452195">
        <ele>123.775478</ele>
        <time>2022-10-24T09:21:33.025Z</time>
      </trkpt>
      <trkpt lat="51.462528" lon="12.452589">
        <ele>124.076324</ele>
        <time>2022-10-24T09:21:59.691Z</time>
      </trkpt>
      <trkpt lat="51.462478" lon="12.452755">
        <ele>124.214280</ele>
        <time>2022-10-24T09:22:12.030Z</time>
      </trkpt>
      <trkpt lat="51.462443" lon="12.452815">
        <ele>124.275778</ele>
        <time>2022-10-24T09:22:17.410Z</time>
      </trkpt>
      <trkpt lat="51.462301" lon="12.453078">
        <ele>124.536167</ele>
        <time>2022-10-24T09:22:40.358Z</time>
      </trkpt>
      <trkpt lat="51.461836" lon="12.453938">
        <ele>125.388158</ele>
        <time>2022-10-24T09:23:54.130Z</time>
      </trkpt>
      <trkpt lat="51.461830" lon="12.454012">
        <ele>125.443993</ele>
        <time>2022-10-24T09:23:58.914Z</time>
      </trkpt>
      <trkpt lat="51.461410" lon="12.453965">
        <ele>125.657700</ele>
        <time>2022-10-24T09:24:41.671Z</time>
      </trkpt>
      <trkpt lat="51.461058" lon="12.453942">
        <ele>125.668153</ele>
        <time>2022-10-24T09:25:16.969Z</time>
      </trkpt>
      <trkpt lat="51.460494" lon="12.454023">
        <ele>125.684955</ele>
        <time>2022-10-24T09:26:13.674Z</time>
      </trkpt>
      <trkpt lat="51.460366" lon="12.454039">
        <ele>125.688764</ele>
        <time>2022-10-24T09:26:26.507Z</time>
      </trkpt>
      <trkpt lat="51.460338" lon="12.454036">
        <ele>125.689597</ele>
        <time>2022-10-24T09:26:29.301Z</time>
      </trkpt>
      <trkpt lat="51.459705" lon="12.453800">
        <ele>125.679142</ele>
        <time>2022-10-24T09:27:34.716Z</time>
      </trkpt>
      <trkpt lat="51.459634" lon="12.453777">
        <ele>125.669013</ele>
        <time>2022-10-24T09:27:42.065Z</time>
      </trkpt>
      <trkpt lat="51.459351" lon="12.453669">
        <ele>125.628335</ele>
        <time>2022-10-24T09:28:11.635Z</time>
      </trkpt>
      <trkpt lat="51.459204" lon="12.453670">
        <ele>125.607778</ele>
        <time>2022-10-24T09:28:26.474Z</time>
      </trkpt>
      <trkpt lat="51.458890" lon="12.453876">
        <ele>125.560342</ele>
        <time>2022-10-24T09:29:00.749Z</time>
      </trkpt>
      <trkpt lat="51.458809" lon="12.454008">
        <ele>125.544199</ele>
        <time>2022-10-24T09:29:12.392Z</time>
      </trkpt>
      <trkpt lat="51.458779" lon="12.454151">
        <ele>125.531052</ele>
        <time>2022-10-24T09:29:21.786Z</time>
      </trkpt>
      <trkpt lat="51.458784" lon="12.454637">
        <ele>125.488701</ele>
        <time>2022-10-24T09:29:52.289Z</time>
      </trkpt>
      <trkpt lat="51.458706" lon="12.454759">
        <ele>125.473470</ele>
        <time>2022-10-24T09:30:03.332Z</time>
      </trkpt>
      <trkpt lat="51.458111" lon="12.455194">
        <ele>125.508518</ele>
        <time>2022-10-24T09:31:10.288Z</time>
      </trkpt>
      <trkpt lat="51.458026" lon="12.455212">
        <ele>125.518157</ele>
        <time>2022-10-24T09:31:18.881Z</time>
      </trkpt>
      <trkpt lat="51.458046" lon="12.455302">
        <ele>125.524850</ele>
        <time>2022-10-24T09:31:24.874Z</time>
      </trkpt>
      <trkpt lat="51.457855" lon="12.455428">
        <ele>125.548066</ele>
        <time>2022-10-24T09:31:45.545Z</time>
      </trkpt>
      <trkpt lat="51.457665" lon="12.455554">
        <ele>125.571178</ele>
        <time>2022-10-24T09:32:06.125Z</time>
      </trkpt>
      <trkpt lat="51.457582" lon="12.455532">
        <ele>125.580635</ele>
        <time>2022-10-24T09:32:14.662Z</time>
      </trkpt>
      <trkpt lat="51.457513" lon="12.455607">
        <ele>125.590004</ele>
        <time>2022-10-24T09:32:22.987Z</time>
      </trkpt>
      <trkpt lat="51.457233" lon="12.455871">
        <ele>125.626512</ele>
        <time>2022-10-24T09:32:55.614Z</time>
      </trkpt>
      <trkpt lat="51.457084" lon="12.456015">
        <ele>125.646066</ele>
        <time>2022-10-24T09:33:13.034Z</time>
      </trkpt>
      <trkpt lat="51.456711" lon="12.456390">
        <ele>125.701293</ele>
        <time>2022-10-24T09:33:57.194Z</time>
      </trkpt>
      <trkpt lat="51.456545" lon="12.456603">
        <ele>125.728519</ele>
        <time>2022-10-24T09:34:18.534Z</time>
      </trkpt>
      <trkpt lat="51.456493" lon="12.456717">
        <ele>125.739796</ele>
        <time>2022-10-24T09:34:27.424Z</time>
      </trkpt>
      <trkpt lat="51.456460" lon="12.456864">
        <ele>125.752268</ele>
        <time>2022-10-24T09:34:37.151Z</time>
      </trkpt>
      <trkpt lat="51.456452" lon="12.457170">
        <ele>125.776714</ele>
        <time>2022-10-24T09:34:56.379Z</time>
      </trkpt>
      <trkpt lat="51.456507" lon="12.457441">
        <ele>125.799464</ele>
        <time>2022-10-24T09:35:14.207Z</time>
      </trkpt>
      <trkpt lat="51.455796" lon="12.458349">
        <ele>126.001154</ele>
        <time>2022-10-24T09:36:45.491Z</time>
      </trkpt>
      <trkpt lat="51.455744" lon="12.458421">
        <ele>126.034084</ele>
        <time>2022-10-24T09:36:52.433Z</time>
      </trkpt>
      <trkpt lat="51.454584" lon="12.459910">
        <ele>126.746296</ele>
        <time>2022-10-24T09:39:24.509Z</time>
      </trkpt>
      <trkpt lat="51.453733" lon="12.461003">
        <ele>127.104730</ele>
        <time>2022-10-24T09:41:15.171Z</time>
      </trkpt>
      <trkpt lat="51.452148" lon="12.463043">
        <ele>127.914913</ele>
        <time>2022-10-24T09:44:39.873Z</time>
      </trkpt>
      <trkpt lat="51.450217" lon="12.465517">
        <ele>130.024806</ele>
        <time>2022-10-24T09:48:55.868Z</time>
      </trkpt>
      <trkpt lat="51.450110" lon="12.465706">
        <ele>130.143365</ele>
        <time>2022-10-24T09:49:12.412Z</time>
      </trkpt>
      <trkpt lat="51.450004" lon="12.465895">
        <ele>130.261425</ele>
        <time>2022-10-24T09:49:28.879Z</time>
      </trkpt>
      <trkpt lat="51.446563" lon="12.475115">
        <ele>135.091779</ele>
        <time>2022-10-24T10:00:56.367Z</time>
      </trkpt>
      <trkpt lat="51.445540" lon="12.478634">
        <ele>135.562961</ele>
        <time>2022-10-24T10:05:00.659Z</time>
      </trkpt>
      <trkpt lat="51.443557" lon="12.485491">
        <ele>134.883327</ele>
        <time>2022-10-24T10:12:54.023Z</time>
      </trkpt>
      <trkpt lat="51.443418" lon="12.485856">
        <ele>134.835643</ele>
        <time>2022-10-24T10:13:20.840Z</time>
      </trkpt>
      <trkpt lat="51.440721" lon="12.490503">
        <ele>134.283043</ele>
        <time>2022-10-24T10:19:58.274Z</time>
      </trkpt>
      <trkpt lat="51.439639" lon="12.492349">
        <ele>134.179389</ele>
        <time>2022-10-24T10:22:36.660Z</time>
      </trkpt>
      <trkpt lat="51.439560" lon="12.492320">
        <ele>134.161257</ele>
        <time>2022-10-24T10:22:44.783Z</time>
      </trkpt>
      <trkpt lat="51.439094" lon="12.492107">
        <ele>134.052847</ele>
        <time>2022-10-24T10:23:33.300Z</time>
      </trkpt>
      <trkpt lat="51.438922" lon="12.492107">
        <ele>134.014365</ele>
        <time>2022-10-24T10:23:50.608Z</time>
      </trkpt>
      <trkpt lat="51.438720" lon="12.492149">
        <ele>133.968792</ele>
        <time>2022-10-24T10:24:11.128Z</time>
      </trkpt>
      <trkpt lat="51.438446" lon="12.492206">
        <ele>133.906975</ele>
        <time>2022-10-24T10:24:39.099Z</time>
      </trkpt>
      <trkpt lat="51.438314" lon="12.492215">
        <ele>133.877416</ele>
        <time>2022-10-24T10:24:52.362Z</time>
      </trkpt>
      <trkpt lat="51.438088" lon="12.492044">
        <ele>133.773660</ele>
        <time>2022-10-24T10:25:17.709Z</time>
      </trkpt>
      <trkpt lat="51.437939" lon="12.491962">
        <ele>133.691719</ele>
        <time>2022-10-24T10:25:33.650Z</time>
      </trkpt>
      <trkpt lat="51.437753" lon="12.491931">
        <ele>133.594444</ele>
        <time>2022-10-24T10:25:52.502Z</time>
      </trkpt>
      <trkpt lat="51.437316" lon="12.491948">
        <ele>133.367056</ele>
        <time>2022-10-24T10:26:36.921Z</time>
      </trkpt>
      <trkpt lat="51.436623" lon="12.491752">
        <ele>133.001009</ele>
        <time>2022-10-24T10:27:48.254Z</time>
      </trkpt>
      <trkpt lat="51.435257" lon="12.491347">
        <ele>132.751365</ele>
        <time>2022-10-24T10:30:07.925Z</time>
      </trkpt>
      <trkpt lat="51.435096" lon="12.491251">
        <ele>132.727676</ele>
        <time>2022-10-24T10:30:25.228Z</time>
      </trkpt>
      <trkpt lat="51.431834" lon="12.487186">
        <ele>133.083776</ele>
        <time>2022-10-24T10:37:20.715Z</time>
      </trkpt>
      <trkpt lat="51.430482" lon="12.485506">
        <ele>132.786285</ele>
        <time>2022-10-24T10:40:13.047Z</time>
      </trkpt>
      <trkpt lat="51.427774" lon="12.482235">
        <ele>132.700146</ele>
        <time>2022-10-24T10:45:53.094Z</time>
      </trkpt>
      <trkpt lat="51.427683" lon="12.481973">
        <ele>132.674530</ele>
        <time>2022-10-24T10:46:12.064Z</time>
      </trkpt>
      <trkpt lat="51.427616" lon="12.481151">
        <ele>132.437197</ele>
        <time>2022-10-24T10:47:04.413Z</time>
      </trkpt>
      <trkpt lat="51.427546" lon="12.480717">
        <ele>132.308857</ele>
        <time>2022-10-24T10:47:32.722Z</time>
      </trkpt>
      <trkpt lat="51.427456" lon="12.480449">
        <ele>132.221710</ele>
        <time>2022-10-24T10:47:51.921Z</time>
      </trkpt>
      <trkpt lat="51.427293" lon="12.480243">
        <ele>132.126422</ele>
        <time>2022-10-24T10:48:12.836Z</time>
      </trkpt>
      <trkpt lat="51.427087" lon="12.480175">
        <ele>132.029851</ele>
        <time>2022-10-24T10:48:34.147Z</time>
      </trkpt>
      <trkpt lat="51.426349" lon="12.480040">
        <ele>131.678195</ele>
        <time>2022-10-24T10:49:49.143Z</time>
      </trkpt>
      <trkpt lat="51.426117" lon="12.479913">
        <ele>131.558858</ele>
        <time>2022-10-24T10:50:13.863Z</time>
      </trkpt>
      <trkpt lat="51.426069" lon="12.479821">
        <ele>131.522447</ele>
        <time>2022-10-24T10:50:21.398Z</time>
      </trkpt>
      <trkpt lat="51.426032" lon="12.479419">
        <ele>131.399103</ele>
        <time>2022-10-24T10:50:46.875Z</time>
      </trkpt>
      <trkpt lat="51.425956" lon="12.479301">
        <ele>131.347609</ele>
        <time>2022-10-24T10:50:57.595Z</time>
      </trkpt>
      <trkpt lat="51.425428" lon="12.479208">
        <ele>131.089030</ele>
        <time>2022-10-24T10:51:51.195Z</time>
      </trkpt>
      <trkpt lat="51.425265" lon="12.479112">
        <ele>131.004499</ele>
        <time>2022-10-24T10:52:08.868Z</time>
      </trkpt>
      <trkpt lat="51.425028" lon="12.479286">
        <ele>130.714082</ele>
        <time>2022-10-24T10:52:35.451Z</time>
      </trkpt>
      <trkpt lat="51.424684" lon="12.479373">
        <ele>130.296144</ele>
        <time>2022-10-24T10:53:11.156Z</time>
      </trkpt>
      <trkpt lat="51.424544" lon="12.479698">
        <ele>130.000548</ele>
        <time>2022-10-24T10:53:36.517Z</time>
      </trkpt>
      <trkpt lat="51.424190" lon="12.480837">
        <ele>129.048198</ele>
        <time>2022-10-24T10:54:58.200Z</time>
      </trkpt>
      <trkpt lat="51.424097" lon="12.481209">
        <ele>128.782513</ele>
        <time>2022-10-24T10:55:23.907Z</time>
      </trkpt>
      <trkpt lat="51.424074" lon="12.481907">
        <ele>128.476829</ele>
        <time>2022-10-24T10:56:08.571Z</time>
      </trkpt>
      <trkpt lat="51.424017" lon="12.482251">
        <ele>128.321166</ele>
        <time>2022-10-24T10:56:31.299Z</time>
      </trkpt>
      <trkpt lat="51.423656" lon="12.482117">
        <ele>128.061283</ele>
        <time>2022-10-24T10:57:08.936Z</time>
      </trkpt>
      <trkpt lat="51.422969" lon="12.482005">
        <ele>127.576968</ele>
        <time>2022-10-24T10:58:18.494Z</time>
      </trkpt>
      <trkpt lat="51.421538" lon="12.481936">
        <ele>127.491485</ele>
        <time>2022-10-24T11:00:41.817Z</time>
      </trkpt>
      <trkpt lat="51.421427" lon="12.481952">
        <ele>127.485390</ele>
        <time>2022-10-24T11:00:53.077Z</time>
      </trkpt>
      <trkpt lat="51.421326" lon="12.482016">
        <ele>127.479452</ele>
        <time>2022-10-24T11:01:03.894Z</time>
      </trkpt>
      <trkpt lat="51.421201" lon="12.482221">
        <ele>127.468359</ele>
        <time>2022-10-24T11:01:21.863Z</time>
      </trkpt>
      <trkpt lat="51.418691" lon="12.488037">
        <ele>126.750119</ele>
        <time>2022-10-24T11:08:44.633Z</time>
      </trkpt>
      <trkpt lat="51.418583" lon="12.488201">
        <ele>126.703273</ele>
        <time>2022-10-24T11:08:59.639Z</time>
      </trkpt>
      <trkpt lat="51.418144" lon="12.487039">
        <ele>126.428401</ele>
        <time>2022-10-24T11:10:25.238Z</time>
      </trkpt>
      <trkpt lat="51.417552" lon="12.485365">
        <ele>125.744775</ele>
        <time>2022-10-24T11:12:26.870Z</time>
      </trkpt>
      <trkpt lat="51.417261" lon="12.484801">
        <ele>125.484738</ele>
        <time>2022-10-24T11:13:13.051Z</time>
      </trkpt>
      <trkpt lat="51.417087" lon="12.484393">
        <ele>125.332015</ele>
        <time>2022-10-24T11:13:44.226Z</time>
      </trkpt>
      <trkpt lat="51.416804" lon="12.483500">
        <ele>125.048396</ele>
        <time>2022-10-24T11:14:47.451Z</time>
      </trkpt>
      <trkpt lat="51.416624" lon="12.483014">
        <ele>124.888351</ele>
        <time>2022-10-24T11:15:23.056Z</time>
      </trkpt>
      <trkpt lat="51.416292" lon="12.482349">
        <ele>124.647159</ele>
        <time>2022-10-24T11:16:16.693Z</time>
      </trkpt>
      <trkpt lat="51.416125" lon="12.482077">
        <ele>124.586664</ele>
        <time>2022-10-24T11:16:40.655Z</time>
      </trkpt>
      <trkpt lat="51.415457" lon="12.481219">
        <ele>124.477720</ele>
        <time>2022-10-24T11:18:06.614Z</time>
      </trkpt>
      <trkpt lat="51.415185" lon="12.480909">
        <ele>124.435243</ele>
        <time>2022-10-24T11:18:40.048Z</time>
      </trkpt>
      <trkpt lat="51.414563" lon="12.480293">
        <ele>124.441723</ele>
        <time>2022-10-24T11:19:53.264Z</time>
      </trkpt>
      <trkpt lat="51.414237" lon="12.480010">
        <ele>124.532388</ele>
        <time>2022-10-24T11:20:30.528Z</time>
      </trkpt>
      <trkpt lat="51.412631" lon="12.478960">
        <ele>125.206431</ele>
        <time>2022-10-24T11:23:26.332Z</time>
      </trkpt>
      <trkpt lat="51.410475" lon="12.477431">
        <ele>127.052487</ele>
        <time>2022-10-24T11:27:29.466Z</time>
      </trkpt>
      <trkpt lat="51.410295" lon="12.477256">
        <ele>127.240826</ele>
        <time>2022-10-24T11:27:51.639Z</time>
      </trkpt>
      <trkpt lat="51.408786" lon="12.475589">
        <ele>128.426221</ele>
        <time>2022-10-24T11:31:00.449Z</time>
      </trkpt>
      <trkpt lat="51.408166" lon="12.474902">
        <ele>128.335330</ele>
        <time>2022-10-24T11:32:16.059Z</time>
      </trkpt>
      <trkpt lat="51.408086" lon="12.474780">
        <ele>128.226105</ele>
        <time>2022-10-24T11:32:27.285Z</time>
      </trkpt>
      <trkpt lat="51.408020" lon="12.474649">
        <ele>128.122198</ele>
        <time>2022-10-24T11:32:37.921Z</time>
      </trkpt>
      <trkpt lat="51.407931" lon="12.474475">
        <ele>127.983350</ele>
        <time>2022-10-24T11:32:52.164Z</time>
      </trkpt>
      <trkpt lat="51.407845" lon="12.474304">
        <ele>127.847809</ele>
        <time>2022-10-24T11:33:06.319Z</time>
      </trkpt>
      <trkpt lat="51.407778" lon="12.474166">
        <ele>127.739902</ele>
        <time>2022-10-24T11:33:17.520Z</time>
      </trkpt>
      <trkpt lat="51.407693" lon="12.473992">
        <ele>127.603528</ele>
        <time>2022-10-24T11:33:31.657Z</time>
      </trkpt>
      <trkpt lat="51.407447" lon="12.473390">
        <ele>127.159447</ele>
        <time>2022-10-24T11:34:18.335Z</time>
      </trkpt>
      <trkpt lat="51.407305" lon="12.473009">
        <ele>126.885579</ele>
        <time>2022-10-24T11:34:46.918Z</time>
      </trkpt>
      <trkpt lat="51.407216" lon="12.472850">
        <ele>126.794173</ele>
        <time>2022-10-24T11:35:00.644Z</time>
      </trkpt>
      <trkpt lat="51.407131" lon="12.472695">
        <ele>126.706061</ele>
        <time>2022-10-24T11:35:13.827Z</time>
      </trkpt>
      <trkpt lat="51.407168" lon="12.472609">
        <ele>126.661459</ele>
        <time>2022-10-24T11:35:20.478Z</time>
      </trkpt>
      <trkpt lat="51.407168" lon="12.472466">
        <ele>126.600407</ele>
        <time>2022-10-24T11:35:29.652Z</time>
      </trkpt>
      <trkpt lat="51.406991" lon="12.471747">
        <ele>126.270398</ele>
        <time>2022-10-24T11:36:18.548Z</time>
      </trkpt>
      <trkpt lat="51.406821" lon="12.471248">
        <ele>126.027653</ele>
        <time>2022-10-24T11:36:54.371Z</time>
      </trkpt>
      <trkpt lat="51.406668" lon="12.470908">
        <ele>125.848663</ele>
        <time>2022-10-24T11:37:20.662Z</time>
      </trkpt>
      <trkpt lat="51.405905" lon="12.469004">
        <ele>125.174252</ele>
        <time>2022-10-24T11:39:42.543Z</time>
      </trkpt>
      <trkpt lat="51.405368" lon="12.467744">
        <ele>124.550415</ele>
        <time>2022-10-24T11:41:19.021Z</time>
      </trkpt>
      <trkpt lat="51.404571" lon="12.466131">
        <ele>123.002646</ele>
        <time>2022-10-24T11:43:31.274Z</time>
      </trkpt>
      <trkpt lat="51.404314" lon="12.465526">
        <ele>122.484698</ele>
        <time>2022-10-24T11:44:18.312Z</time>
      </trkpt>
      <trkpt lat="51.404199" lon="12.465296">
        <ele>122.290007</ele>
        <time>2022-10-24T11:44:37.160Z</time>
      </trkpt>
      <trkpt lat="51.403925" lon="12.465091">
        <ele>121.969852</ele>
        <time>2022-10-24T11:45:08.247Z</time>
      </trkpt>
      <trkpt lat="51.401821" lon="12.465091">
        <ele>120.291854</ele>
        <time>2022-10-24T11:48:42.641Z</time>
      </trkpt>
      <trkpt lat="51.401287" lon="12.465057">
        <ele>120.015867</ele>
        <time>2022-10-24T11:49:36.486Z</time>
      </trkpt>
      <trkpt lat="51.401069" lon="12.464952">
        <ele>119.898315</ele>
        <time>2022-10-24T11:49:59.325Z</time>
      </trkpt>
      <trkpt lat="51.400862" lon="12.464725">
        <ele>120.026107</ele>
        <time>2022-10-24T11:50:24.668Z</time>
      </trkpt>
      <trkpt lat="51.400655" lon="12.464375">
        <ele>120.210652</ele>
        <time>2022-10-24T11:50:55.333Z</time>
      </trkpt>
      <trkpt lat="51.400568" lon="12.463904">
        <ele>120.398616</ele>
        <time>2022-10-24T11:51:26.961Z</time>
      </trkpt>
      <trkpt lat="51.400477" lon="12.461487">
        <ele>120.981463</ele>
        <time>2022-10-24T11:54:02.684Z</time>
      </trkpt>
      <trkpt lat="51.400419" lon="12.459255">
        <ele>120.812783</ele>
        <time>2022-10-24T11:56:23.179Z</time>
      </trkpt>
      <trkpt lat="51.400431" lon="12.459084">
        <ele>120.699472</ele>
        <time>2022-10-24T11:56:34.191Z</time>
      </trkpt>
      <trkpt lat="51.400442" lon="12.458926">
        <ele>120.594786</ele>
        <time>2022-10-24T11:56:44.388Z</time>
      </trkpt>
      <trkpt lat="51.399392" lon="12.458813">
        <ele>119.484040</ele>
        <time>2022-10-24T11:58:32.574Z</time>
      </trkpt>
      <trkpt lat="51.399193" lon="12.458858">
        <ele>119.271920</ele>
        <time>2022-10-24T11:58:53.143Z</time>
      </trkpt>
      <trkpt lat="51.399011" lon="12.458839">
        <ele>119.079416</ele>
        <time>2022-10-24T11:59:11.756Z</time>
      </trkpt>
      <trkpt lat="51.398817" lon="12.458762">
        <ele>118.985779</ele>
        <time>2022-10-24T11:59:32.142Z</time>
      </trkpt>
      <trkpt lat="51.398404" lon="12.458671">
        <ele>118.809246</ele>
        <time>2022-10-24T12:00:14.509Z</time>
      </trkpt>
      <trkpt lat="51.398140" lon="12.458659">
        <ele>118.697407</ele>
        <time>2022-10-24T12:00:41.291Z</time>
      </trkpt>
      <trkpt lat="51.397418" lon="12.458761">
        <ele>118.390484</ele>
        <time>2022-10-24T12:01:53.977Z</time>
      </trkpt>
      <trkpt lat="51.397258" lon="12.458812">
        <ele>118.321404</ele>
        <time>2022-10-24T12:02:10.398Z</time>
      </trkpt>
      <trkpt lat="51.397280" lon="12.459012">
        <ele>118.274423</ele>
        <time>2022-10-24T12:02:23.076Z</time>
      </trkpt>
      <trkpt lat="51.397159" lon="12.459061">
        <ele>118.231660</ele>
        <time>2022-10-24T12:02:35.642Z</time>
      </trkpt>
      <trkpt lat="51.396943" lon="12.459125">
        <ele>118.156394</ele>
        <time>2022-10-24T12:02:57.635Z</time>
      </trkpt>
      <trkpt lat="51.396545" lon="12.459219">
        <ele>118.018547</ele>
        <time>2022-10-24T12:03:38.075Z</time>
      </trkpt>
      <trkpt lat="51.395605" lon="12.459476">
        <ele>117.691805</ele>
        <time>2022-10-24T12:05:14.455Z</time>
      </trkpt>
      <trkpt lat="51.395458" lon="12.459556">
        <ele>117.561902</ele>
        <time>2022-10-24T12:05:30.195Z</time>
      </trkpt>
      <trkpt lat="51.395335" lon="12.459703">
        <ele>117.424981</ele>
        <time>2022-10-24T12:05:45.845Z</time>
      </trkpt>
      <trkpt lat="51.395278" lon="12.459724">
        <ele>117.372789</ele>
        <time>2022-10-24T12:05:51.759Z</time>
      </trkpt>
      <trkpt lat="51.394718" lon="12.459021">
        <ele>116.738003</ele>
        <time>2022-10-24T12:07:04.325Z</time>
      </trkpt>
      <trkpt lat="51.394257" lon="12.458560">
        <ele>116.253102</ele>
        <time>2022-10-24T12:08:00.043Z</time>
      </trkpt>
      <trkpt lat="51.393931" lon="12.458404">
        <ele>116.004802</ele>
        <time>2022-10-24T12:08:34.762Z</time>
      </trkpt>
      <trkpt lat="51.393954" lon="12.458187">
        <ele>115.933653</ele>
        <time>2022-10-24T12:08:48.618Z</time>
      </trkpt>
      <trkpt lat="51.393954" lon="12.458126">
        <ele>115.913935</ele>
        <time>2022-10-24T12:08:52.442Z</time>
      </trkpt>
      <trkpt lat="51.393954" lon="12.458187">
        <ele>115.894217</ele>
        <time>2022-10-24T12:08:56.324Z</time>
      </trkpt>
      <trkpt lat="51.393931" lon="12.458404">
        <ele>115.823068</ele>
        <time>2022-10-24T12:09:10.390Z</time>
      </trkpt>
      <trkpt lat="51.393764" lon="12.458367">
        <ele>115.735730</ele>
        <time>2022-10-24T12:09:27.441Z</time>
      </trkpt>
      <trkpt lat="51.393453" lon="12.458366">
        <ele>115.574615</ele>
        <time>2022-10-24T12:09:59.033Z</time>
      </trkpt>
      <trkpt lat="51.393182" lon="12.458353">
        <ele>115.434160</ele>
        <time>2022-10-24T12:10:26.595Z</time>
      </trkpt>
      <trkpt lat="51.393022" lon="12.458331">
        <ele>115.350967</ele>
        <time>2022-10-24T12:10:42.687Z</time>
      </trkpt>
      <trkpt lat="51.392922" lon="12.458269">
        <ele>115.295420</ele>
        <time>2022-10-24T12:10:53.586Z</time>
      </trkpt>
      <trkpt lat="51.392769" lon="12.458094">
        <ele>115.198041</ele>
        <time>2022-10-24T12:11:12.420Z</time>
      </trkpt>
      <trkpt lat="51.392691" lon="12.457969">
        <ele>115.158469</ele>
        <time>2022-10-24T12:11:23.516Z</time>
      </trkpt>
      <trkpt lat="51.392612" lon="12.457771">
        <ele>115.236728</ele>
        <time>2022-10-24T12:11:38.165Z</time>
      </trkpt>
      <trkpt lat="51.392349" lon="12.457066">
        <ele>115.510243</ele>
        <time>2022-10-24T12:12:30.373Z</time>
      </trkpt>
      <trkpt lat="51.392257" lon="12.456764">
        <ele>115.622152</ele>
        <time>2022-10-24T12:12:52.069Z</time>
      </trkpt>
      <trkpt lat="51.392220" lon="12.456577">
        <ele>115.687478</ele>
        <time>2022-10-24T12:13:04.671Z</time>
      </trkpt>
      <trkpt lat="51.392183" lon="12.456149">
        <ele>115.831361</ele>
        <time>2022-10-24T12:13:32.414Z</time>
      </trkpt>
      <trkpt lat="51.392161" lon="12.455880">
        <ele>115.921702</ele>
        <time>2022-10-24T12:13:49.706Z</time>
      </trkpt>
      <trkpt lat="51.392139" lon="12.455682">
        <ele>115.988672</ele>
        <time>2022-10-24T12:14:02.600Z</time>
      </trkpt>
      <trkpt lat="51.392036" lon="12.455712">
        <ele>116.044540</ele>
        <time>2022-10-24T12:14:13.377Z</time>
      </trkpt>
      <trkpt lat="51.391653" lon="12.455718">
        <ele>116.231096</ele>
        <time>2022-10-24T12:14:52.592Z</time>
      </trkpt>
      <trkpt lat="51.391447" lon="12.455868">
        <ele>116.336404</ele>
        <time>2022-10-24T12:15:15.796Z</time>
      </trkpt>
      <trkpt lat="51.391229" lon="12.456094">
        <ele>116.457242</ele>
        <time>2022-10-24T12:15:42.251Z</time>
      </trkpt>
      <trkpt lat="51.391078" lon="12.456145">
        <ele>116.529063</ele>
        <time>2022-10-24T12:15:57.862Z</time>
      </trkpt>
      <trkpt lat="51.390892" lon="12.456169">
        <ele>116.615909</ele>
        <time>2022-10-24T12:16:16.663Z</time>
      </trkpt>
      <trkpt lat="51.390835" lon="12.456172">
        <ele>116.642452</ele>
        <time>2022-10-24T12:16:22.413Z</time>
      </trkpt>
      <trkpt lat="51.390777" lon="12.455985">
        <ele>116.703099</ele>
        <time>2022-10-24T12:16:35.636Z</time>
      </trkpt>
      <trkpt lat="51.390664" lon="12.455856">
        <ele>116.767670</ele>
        <time>2022-10-24T12:16:49.632Z</time>
      </trkpt>
      <trkpt lat="51.390191" lon="12.455450">
        <ele>117.174440</ele>
        <time>2022-10-24T12:17:44.044Z</time>
      </trkpt>
      <trkpt lat="51.389656" lon="12.455137">
        <ele>118.026800</ele>
        <time>2022-10-24T12:18:42.909Z</time>
      </trkpt>
      <trkpt lat="51.389196" lon="12.454808">
        <ele>118.780682</ele>
        <time>2022-10-24T12:19:36.245Z</time>
      </trkpt>
      <trkpt lat="51.388921" lon="12.454436">
        <ele>119.319272</ele>
        <time>2022-10-24T12:20:14.846Z</time>
      </trkpt>
      <trkpt lat="51.388715" lon="12.454278">
        <ele>119.673068</ele>
        <time>2022-10-24T12:20:39.647Z</time>
      </trkpt>
      <trkpt lat="51.388675" lon="12.454140">
        <ele>119.890257</ele>
        <time>2022-10-24T12:20:50.021Z</time>
      </trkpt>
      <trkpt lat="51.388278" lon="12.453360">
        <ele>121.326971</ele>
        <time>2022-10-24T12:21:59.010Z</time>
      </trkpt>
      <trkpt lat="51.388078" lon="12.453090">
        <ele>121.925138</ele>
        <time>2022-10-24T12:22:27.784Z</time>
      </trkpt>
      <trkpt lat="51.387838" lon="12.452137">
        <ele>123.392036</ele>
        <time>2022-10-24T12:23:37.375Z</time>
      </trkpt>
      <trkpt lat="51.387670" lon="12.451700">
        <ele>123.774201</ele>
        <time>2022-10-24T12:24:11.011Z</time>
      </trkpt>
      <trkpt lat="51.387205" lon="12.450652">
        <ele>123.881574</ele>
        <time>2022-10-24T12:25:33.470Z</time>
      </trkpt>
      <trkpt lat="51.387140" lon="12.450564">
        <ele>123.892960</ele>
        <time>2022-10-24T12:25:42.011Z</time>
      </trkpt>
      <trkpt lat="51.387074" lon="12.450547">
        <ele>123.901905</ele>
        <time>2022-10-24T12:25:48.670Z</time>
      </trkpt>
      <trkpt lat="51.386703" lon="12.450690">
        <ele>123.952962</ele>
        <time>2022-10-24T12:26:27.444Z</time>
      </trkpt>
      <trkpt lat="51.386672" lon="12.450284">
        <ele>123.987117</ele>
        <time>2022-10-24T12:26:53.543Z</time>
      </trkpt>
      <trkpt lat="51.386682" lon="12.450165">
        <ele>123.931840</ele>
        <time>2022-10-24T12:27:01.268Z</time>
      </trkpt>
      <trkpt lat="51.386673" lon="12.449945">
        <ele>123.653505</ele>
        <time>2022-10-24T12:27:15.518Z</time>
      </trkpt>
      <trkpt lat="51.386587" lon="12.449822">
        <ele>123.420312</ele>
        <time>2022-10-24T12:27:27.483Z</time>
      </trkpt>
      <trkpt lat="51.386164" lon="12.448883">
        <ele>121.958287</ele>
        <time>2022-10-24T12:28:43.055Z</time>
      </trkpt>
      <trkpt lat="51.386159" lon="12.448741">
        <ele>121.778732</ele>
        <time>2022-10-24T12:28:52.448Z</time>
      </trkpt>
      <trkpt lat="51.386346" lon="12.447906">
        <ele>120.658757</ele>
        <time>2022-10-24T12:29:50.421Z</time>
      </trkpt>
      <trkpt lat="51.386424" lon="12.447684">
        <ele>120.339460</ele>
        <time>2022-10-24T12:30:07.151Z</time>
      </trkpt>
      <trkpt lat="51.386453" lon="12.447670">
        <ele>120.286410</ele>
        <time>2022-10-24T12:30:10.316Z</time>
      </trkpt>
      <trkpt lat="51.386590" lon="12.447430">
        <ele>119.930876</ele>
        <time>2022-10-24T12:30:31.553Z</time>
      </trkpt>
      <trkpt lat="51.386596" lon="12.447402">
        <ele>119.898516</ele>
        <time>2022-10-24T12:30:33.516Z</time>
      </trkpt>
      <trkpt lat="51.386495" lon="12.447243">
        <ele>119.650518</ele>
        <time>2022-10-24T12:30:48.315Z</time>
      </trkpt>
      <trkpt lat="51.386482" lon="12.447104">
        <ele>119.496883</ele>
        <time>2022-10-24T12:30:57.482Z</time>
      </trkpt>
      <trkpt lat="51.386527" lon="12.446810">
        <ele>119.165992</ele>
        <time>2022-10-24T12:31:17.170Z</time>
      </trkpt>
      <trkpt lat="51.386676" lon="12.446360">
        <ele>118.609158</ele>
        <time>2022-10-24T12:31:50.197Z</time>
      </trkpt>
      <trkpt lat="51.386714" lon="12.446327">
        <ele>118.533453</ele>
        <time>2022-10-24T12:31:54.700Z</time>
      </trkpt>
      <trkpt lat="51.386782" lon="12.446268">
        <ele>118.398008</ele>
        <time>2022-10-24T12:32:02.714Z</time>
      </trkpt>
      <trkpt lat="51.387009" lon="12.446177">
        <ele>117.988151</ele>
        <time>2022-10-24T12:32:26.901Z</time>
      </trkpt>
      <trkpt lat="51.387170" lon="12.446156">
        <ele>117.705217</ele>
        <time>2022-10-24T12:32:43.585Z</time>
      </trkpt>
      <trkpt lat="51.387243" lon="12.446074">
        <ele>117.549067</ele>
        <time>2022-10-24T12:32:52.754Z</time>
      </trkpt>
      <trkpt lat="51.388082" lon="12.445861">
        <ele>116.334422</ele>
        <time>2022-10-24T12:34:19.495Z</time>
      </trkpt>
      <trkpt lat="51.388252" lon="12.445761">
        <ele>116.093061</ele>
        <time>2022-10-24T12:34:37.977Z</time>
      </trkpt>
      <trkpt lat="51.388184" lon="12.445636">
        <ele>115.955138</ele>
        <time>2022-10-24T12:34:48.622Z</time>
      </trkpt>
      <trkpt lat="51.388163" lon="12.445598">
        <ele>115.912921</ele>
        <time>2022-10-24T12:34:51.841Z</time>
      </trkpt>
      <trkpt lat="51.387870" lon="12.445066">
        <ele>115.322761</ele>
        <time>2022-10-24T12:35:37.501Z</time>
      </trkpt>
      <trkpt lat="51.387633" lon="12.444562">
        <ele>114.797164</ele>
        <time>2022-10-24T12:36:18.327Z</time>
      </trkpt>
      <trkpt lat="51.387593" lon="12.444471">
        <ele>114.697207</ele>
        <time>2022-10-24T12:36:25.458Z</time>
      </trkpt>
      <trkpt lat="51.387407" lon="12.444041">
        <ele>114.227360</ele>
        <time>2022-10-24T12:36:59.288Z</time>
      </trkpt>
      <trkpt lat="51.387238" lon="12.443652">
        <ele>113.801709</ele>
        <time>2022-10-24T12:37:29.881Z</time>
      </trkpt>
      <trkpt lat="51.387207" lon="12.443578">
        <ele>113.721670</ele>
        <time>2022-10-24T12:37:35.555Z</time>
      </trkpt>
      <trkpt lat="51.386908" lon="12.442843">
        <ele>112.933756</ele>
        <time>2022-10-24T12:38:32.064Z</time>
      </trkpt>
      <trkpt lat="51.386756" lon="12.442526">
        <ele>112.574748</ele>
        <time>2022-10-24T12:38:57.754Z</time>
      </trkpt>
      <trkpt lat="51.386229" lon="12.441599">
        <ele>111.911776</ele>
        <time>2022-10-24T12:40:17.950Z</time>
      </trkpt>
      <trkpt lat="51.386087" lon="12.441295">
        <ele>111.775903</ele>
        <time>2022-10-24T12:40:41.913Z</time>
      </trkpt>
      <trkpt lat="51.385674" lon="12.440464">
        <ele>111.395782</ele>
        <time>2022-10-24T12:41:48.781Z</time>
      </trkpt>
      <trkpt lat="51.385030" lon="12.439281">
        <ele>111.263926</ele>
        <time>2022-10-24T12:43:26.910Z</time>
      </trkpt>
      <trkpt lat="51.383918" lon="12.437808">
        <ele>111.463707</ele>
        <time>2022-10-24T12:45:52.358Z</time>
      </trkpt>
      <trkpt lat="51.383324" lon="12.437019">
        <ele>111.619706</ele>
        <time>2022-10-24T12:47:10.236Z</time>
      </trkpt>
      <trkpt lat="51.383258" lon="12.436830">
        <ele>111.647035</ele>
        <time>2022-10-24T12:47:23.900Z</time>
      </trkpt>
      <trkpt lat="51.383179" lon="12.436692">
        <ele>111.670665</ele>
        <time>2022-10-24T12:47:35.658Z</time>
      </trkpt>
      <trkpt lat="51.382514" lon="12.436413">
        <ele>112.006656</ele>
        <time>2022-10-24T12:48:44.623Z</time>
      </trkpt>
      <trkpt lat="51.382398" lon="12.436148">
        <ele>112.278165</ele>
        <time>2022-10-24T12:49:05.001Z</time>
      </trkpt>
      <trkpt lat="51.382271" lon="12.435675">
        <ele>112.710084</ele>
        <time>2022-10-24T12:49:37.818Z</time>
      </trkpt>
      <trkpt lat="51.381760" lon="12.435638">
        <ele>113.397569</ele>
        <time>2022-10-24T12:50:31.032Z</time>
      </trkpt>
      <trkpt lat="51.381498" lon="12.435717">
        <ele>113.755879</ele>
        <time>2022-10-24T12:50:59.556Z</time>
      </trkpt>
      <trkpt lat="51.381336" lon="12.435801">
        <ele>113.984725</ele>
        <time>2022-10-24T12:51:18.038Z</time>
      </trkpt>
      <trkpt lat="51.381136" lon="12.435929">
        <ele>114.372623</ele>
        <time>2022-10-24T12:51:41.817Z</time>
      </trkpt>
      <trkpt lat="51.380672" lon="12.436305">
        <ele>115.910154</ele>
        <time>2022-10-24T12:52:40.396Z</time>
      </trkpt>
      <trkpt lat="51.380266" lon="12.436545">
        <ele>117.189784</ele>
        <time>2022-10-24T12:53:28.968Z</time>
      </trkpt>
      <trkpt lat="51.380140" lon="12.436571">
        <ele>117.565438</ele>
        <time>2022-10-24T12:53:43.061Z</time>
      </trkpt>
      <trkpt lat="51.380092" lon="12.436567">
        <ele>117.707564</ele>
        <time>2022-10-24T12:53:48.328Z</time>
      </trkpt>
      <trkpt lat="51.379412" lon="12.436612">
        <ele>119.608667</ele>
        <time>2022-10-24T12:55:02.456Z</time>
      </trkpt>
      <trkpt lat="51.379205" lon="12.436608">
        <ele>119.895242</ele>
        <time>2022-10-24T12:55:25.171Z</time>
      </trkpt>
      <trkpt lat="51.379110" lon="12.436617">
        <ele>120.026982</ele>
        <time>2022-10-24T12:55:35.710Z</time>
      </trkpt>
      <trkpt lat="51.379111" lon="12.436326">
        <ele>120.278422</ele>
        <time>2022-10-24T12:55:55.573Z</time>
      </trkpt>
      <trkpt lat="51.379233" lon="12.435376">
        <ele>121.116455</ele>
        <time>2022-10-24T12:56:59.600Z</time>
      </trkpt>
      <trkpt lat="51.378917" lon="12.435660">
        <ele>121.618026</ele>
        <time>2022-10-24T12:57:36.578Z</time>
      </trkpt>
      <trkpt lat="51.378467" lon="12.436146">
        <ele>121.963881</ele>
        <time>2022-10-24T12:58:31.253Z</time>
      </trkpt>
      <trkpt lat="51.378249" lon="12.435621">
        <ele>121.909696</ele>
        <time>2022-10-24T12:59:10.856Z</time>
      </trkpt>
      <trkpt lat="51.378087" lon="12.435255">
        <ele>121.871140</ele>
        <time>2022-10-24T12:59:39.237Z</time>
      </trkpt>
      <trkpt lat="51.378026" lon="12.435116">
        <ele>121.856538</ele>
        <time>2022-10-24T12:59:50.178Z</time>
      </trkpt>
      <trkpt lat="51.377952" lon="12.434579">
        <ele>121.809282</ele>
        <time>2022-10-24T13:00:24.835Z</time>
      </trkpt>
      <trkpt lat="51.377927" lon="12.434394">
        <ele>121.793016</ele>
        <time>2022-10-24T13:00:36.794Z</time>
      </trkpt>
      <trkpt lat="51.377883" lon="12.434075">
        <ele>121.764942</ele>
        <time>2022-10-24T13:00:57.337Z</time>
      </trkpt>
      <trkpt lat="51.377835" lon="12.433730">
        <ele>121.500931</ele>
        <time>2022-10-24T13:01:19.900Z</time>
      </trkpt>
      <trkpt lat="51.377759" lon="12.433180">
        <ele>120.836582</ele>
        <time>2022-10-24T13:01:55.843Z</time>
      </trkpt>
      <trkpt lat="51.377725" lon="12.432940">
        <ele>120.546338</ele>
        <time>2022-10-24T13:02:11.564Z</time>
      </trkpt>
      <trkpt lat="51.377677" lon="12.432592">
        <ele>120.126021</ele>
        <time>2022-10-24T13:02:34.557Z</time>
      </trkpt>
      <trkpt lat="51.377661" lon="12.432460">
        <ele>119.967437</ele>
        <time>2022-10-24T13:02:43.268Z</time>
      </trkpt>
      <trkpt lat="51.377646" lon="12.432322">
        <ele>119.802237</ele>
        <time>2022-10-24T13:02:52.397Z</time>
      </trkpt>
      <trkpt lat="51.377636" lon="12.432208">
        <ele>119.666469</ele>
        <time>2022-10-24T13:02:59.932Z</time>
      </trkpt>
      <trkpt lat="51.377621" lon="12.432033">
        <ele>119.458144</ele>
        <time>2022-10-24T13:03:11.571Z</time>
      </trkpt>
      <trkpt lat="51.377609" lon="12.431891">
        <ele>119.289147</ele>
        <time>2022-10-24T13:03:20.986Z</time>
      </trkpt>
      <trkpt lat="51.377592" lon="12.431696">
        <ele>119.056940</ele>
        <time>2022-10-24T13:03:34.007Z</time>
      </trkpt>
      <trkpt lat="51.377590" lon="12.431677">
        <ele>119.034216</ele>
        <time>2022-10-24T13:03:35.268Z</time>
      </trkpt>
      <trkpt lat="51.377572" lon="12.431453">
        <ele>118.767859</ele>
        <time>2022-10-24T13:03:50.331Z</time>
      </trkpt>
      <trkpt lat="51.377555" lon="12.431235">
        <ele>118.508760</ele>
        <time>2022-10-24T13:04:04.798Z</time>
      </trkpt>
      <trkpt lat="51.377541" lon="12.431067">
        <ele>118.278773</ele>
        <time>2022-10-24T13:04:16.166Z</time>
      </trkpt>
      <trkpt lat="51.377538" lon="12.431024">
        <ele>118.194091</ele>
        <time>2022-10-24T13:04:19.046Z</time>
      </trkpt>
      <trkpt lat="51.377527" lon="12.430884">
        <ele>117.917927</ele>
        <time>2022-10-24T13:04:28.423Z</time>
      </trkpt>
      <trkpt lat="51.377516" lon="12.430749">
        <ele>117.651470</ele>
        <time>2022-10-24T13:04:37.443Z</time>
      </trkpt>
      <trkpt lat="51.377513" lon="12.430711">
        <ele>117.576506</ele>
        <time>2022-10-24T13:04:39.922Z</time>
      </trkpt>
      <trkpt lat="51.377474" lon="12.430191">
        <ele>116.551465</ele>
        <time>2022-10-24T13:05:14.910Z</time>
      </trkpt>
      <trkpt lat="51.377424" lon="12.430200">
        <ele>116.393703</ele>
        <time>2022-10-24T13:05:20.240Z</time>
      </trkpt>
      <trkpt lat="51.377420" lon="12.430099">
        <ele>116.195632</ele>
        <time>2022-10-24T13:05:27.040Z</time>
      </trkpt>
      <trkpt lat="51.377410" lon="12.429864">
        <ele>115.734633</ele>
        <time>2022-10-24T13:05:42.813Z</time>
      </trkpt>
      <trkpt lat="51.377358" lon="12.429764">
        <ele>115.479899</ele>
        <time>2022-10-24T13:05:51.484Z</time>
      </trkpt>
      <trkpt lat="51.377206" lon="12.429698">
        <ele>114.986105</ele>
        <time>2022-10-24T13:06:08.323Z</time>
      </trkpt>
      <trkpt lat="51.377128" lon="12.429662">
        <ele>114.731587</ele>
        <time>2022-10-24T13:06:17.082Z</time>
      </trkpt>
      <trkpt lat="51.377263" lon="12.429144">
        <ele>113.632954</ele>
        <time>2022-10-24T13:06:54.489Z</time>
      </trkpt>
      <trkpt lat="51.377460" lon="12.428073">
        <ele>112.292665</ele>
        <time>2022-10-24T13:08:08.223Z</time>
      </trkpt>
      <trkpt lat="51.377395" lon="12.427872">
        <ele>112.145059</ele>
        <time>2022-10-24T13:08:22.963Z</time>
      </trkpt>
      <trkpt lat="51.377219" lon="12.427543">
        <ele>111.862528</ele>
        <time>2022-10-24T13:08:50.823Z</time>
      </trkpt>
      <trkpt lat="51.377112" lon="12.427329">
        <ele>111.683741</ele>
        <time>2022-10-24T13:09:08.233Z</time>
      </trkpt>
      <trkpt lat="51.377016" lon="12.427251">
        <ele>111.571296</ele>
        <time>2022-10-24T13:09:19.141Z</time>
      </trkpt>
      <trkpt lat="51.376916" lon="12.427189">
        <ele>111.459283</ele>
        <time>2022-10-24T13:09:29.949Z</time>
      </trkpt>
      <trkpt lat="51.376744" lon="12.427162">
        <ele>111.278746</ele>
        <time>2022-10-24T13:09:47.318Z</time>
      </trkpt>
      <trkpt lat="51.376638" lon="12.427192">
        <ele>111.166300</ele>
        <time>2022-10-24T13:09:58.210Z</time>
      </trkpt>
      <trkpt lat="51.376378" lon="12.427410">
        <ele>110.859746</ele>
        <time>2022-10-24T13:10:28.161Z</time>
      </trkpt>
      <trkpt lat="51.376238" lon="12.427464">
        <ele>110.895203</ele>
        <time>2022-10-24T13:10:42.934Z</time>
      </trkpt>
      <trkpt lat="51.375827" lon="12.427472">
        <ele>111.096426</ele>
        <time>2022-10-24T13:11:25.307Z</time>
      </trkpt>
      <trkpt lat="51.375740" lon="12.427447">
        <ele>111.139697</ele>
        <time>2022-10-24T13:11:34.397Z</time>
      </trkpt>
      <trkpt lat="51.375499" lon="12.427264">
        <ele>111.270262</ele>
        <time>2022-10-24T13:12:01.596Z</time>
      </trkpt>
      <trkpt lat="51.375211" lon="12.426820">
        <ele>111.465935</ele>
        <time>2022-10-24T13:12:42.122Z</time>
      </trkpt>
      <trkpt lat="51.375007" lon="12.426559">
        <ele>111.593745</ele>
        <time>2022-10-24T13:13:08.625Z</time>
      </trkpt>
      <trkpt lat="51.374840" lon="12.426497">
        <ele>111.677668</ele>
        <time>2022-10-24T13:13:25.843Z</time>
      </trkpt>
      <trkpt lat="51.374717" lon="12.426332">
        <ele>111.736025</ele>
        <time>2022-10-24T13:13:42.270Z</time>
      </trkpt>
      <trkpt lat="51.374600" lon="12.426032">
        <ele>111.789288</ele>
        <time>2022-10-24T13:14:04.620Z</time>
      </trkpt>
      <trkpt lat="51.374558" lon="12.426004">
        <ele>111.800262</ele>
        <time>2022-10-24T13:14:09.210Z</time>
      </trkpt>
      <trkpt lat="51.374444" lon="12.425929">
        <ele>111.829989</ele>
        <time>2022-10-24T13:14:21.889Z</time>
      </trkpt>
      <trkpt lat="51.374294" lon="12.425832">
        <ele>111.869007</ele>
        <time>2022-10-24T13:14:38.147Z</time>
      </trkpt>
      <trkpt lat="51.373656" lon="12.425225">
        <ele>112.047997</ele>
        <time>2022-10-24T13:15:52.722Z</time>
      </trkpt>
      <trkpt lat="51.373294" lon="12.424654">
        <ele>112.215577</ele>
        <time>2022-10-24T13:16:43.764Z</time>
      </trkpt>
      <trkpt lat="51.373233" lon="12.424382">
        <ele>112.355841</ele>
        <time>2022-10-24T13:17:01.980Z</time>
      </trkpt>
      <trkpt lat="51.373230" lon="12.423982">
        <ele>112.549978</ele>
        <time>2022-10-24T13:17:27.519Z</time>
      </trkpt>
      <trkpt lat="51.373201" lon="12.423761">
        <ele>112.659575</ele>
        <time>2022-10-24T13:17:41.939Z</time>
      </trkpt>
      <trkpt lat="51.373068" lon="12.423526">
        <ele>112.813516</ele>
        <time>2022-10-24T13:18:02.374Z</time>
      </trkpt>
      <trkpt lat="51.372952" lon="12.423445">
        <ele>112.911893</ele>
        <time>2022-10-24T13:18:15.493Z</time>
      </trkpt>
      <trkpt lat="51.372760" lon="12.423404">
        <ele>113.062480</ele>
        <time>2022-10-24T13:18:35.567Z</time>
      </trkpt>
      <trkpt lat="51.372673" lon="12.423363">
        <ele>113.132983</ele>
        <time>2022-10-24T13:18:45.040Z</time>
      </trkpt>
      <trkpt lat="51.372440" lon="12.422921">
        <ele>113.413743</ele>
        <time>2022-10-24T13:19:22.509Z</time>
      </trkpt>
      <trkpt lat="51.372276" lon="12.422716">
        <ele>113.587642</ele>
        <time>2022-10-24T13:19:44.029Z</time>
      </trkpt>
      <trkpt lat="51.372216" lon="12.422654">
        <ele>113.668311</ele>
        <time>2022-10-24T13:19:51.417Z</time>
      </trkpt>
      <trkpt lat="51.371771" lon="12.422306">
        <ele>114.227794</ele>
        <time>2022-10-24T13:20:42.948Z</time>
      </trkpt>
      <trkpt lat="51.371653" lon="12.422071">
        <ele>114.440505</ele>
        <time>2022-10-24T13:21:02.507Z</time>
      </trkpt>
      <trkpt lat="51.371594" lon="12.421547">
        <ele>114.816050</ele>
        <time>2022-10-24T13:21:37.216Z</time>
      </trkpt>
      <trkpt lat="51.370983" lon="12.419404">
        <ele>116.235154</ele>
        <time>2022-10-24T13:24:10.674Z</time>
      </trkpt>
      <trkpt lat="51.370656" lon="12.419612">
        <ele>116.525170</ele>
        <time>2022-10-24T13:24:46.934Z</time>
      </trkpt>
      <trkpt lat="51.370553" lon="12.419645">
        <ele>116.611754</ele>
        <time>2022-10-24T13:24:57.719Z</time>
      </trkpt>
      <trkpt lat="51.370442" lon="12.419524">
        <ele>116.722427</ele>
        <time>2022-10-24T13:25:11.551Z</time>
      </trkpt>
      <trkpt lat="51.370368" lon="12.419299">
        <ele>116.853294</ele>
        <time>2022-10-24T13:25:27.756Z</time>
      </trkpt>
      <trkpt lat="51.370337" lon="12.418724">
        <ele>117.035342</ele>
        <time>2022-10-24T13:26:04.165Z</time>
      </trkpt>
      <trkpt lat="51.370289" lon="12.418610">
        <ele>117.012548</ele>
        <time>2022-10-24T13:26:12.754Z</time>
      </trkpt>
      <trkpt lat="51.370216" lon="12.418573">
        <ele>116.992217</ele>
        <time>2022-10-24T13:26:20.462Z</time>
      </trkpt>
      <trkpt lat="51.369921" lon="12.418615">
        <ele>116.913578</ele>
        <time>2022-10-24T13:26:50.149Z</time>
      </trkpt>
      <trkpt lat="51.369313" lon="12.418739">
        <ele>116.750833</ele>
        <time>2022-10-24T13:27:51.776Z</time>
      </trkpt>
      <trkpt lat="51.369325" lon="12.418313">
        <ele>116.680144</ele>
        <time>2022-10-24T13:28:18.890Z</time>
      </trkpt>
      <trkpt lat="51.369254" lon="12.417810">
        <ele>116.594657</ele>
        <time>2022-10-24T13:28:51.720Z</time>
      </trkpt>
      <trkpt lat="51.369105" lon="12.417869">
        <ele>116.536190</ele>
        <time>2022-10-24T13:29:07.250Z</time>
      </trkpt>
      <trkpt lat="51.369023" lon="12.417525">
        <ele>116.441208</ele>
        <time>2022-10-24T13:29:30.731Z</time>
      </trkpt>
      <trkpt lat="51.368975" lon="12.417295">
        <ele>116.378653</ele>
        <time>2022-10-24T13:29:46.102Z</time>
      </trkpt>
      <trkpt lat="51.368962" lon="12.416970">
        <ele>116.294649</ele>
        <time>2022-10-24T13:30:06.785Z</time>
      </trkpt>
      <trkpt lat="51.368978" lon="12.416721">
        <ele>116.230080</ele>
        <time>2022-10-24T13:30:22.600Z</time>
      </trkpt>
      <trkpt lat="51.368988" lon="12.416037">
        <ele>116.053596</ele>
        <time>2022-10-24T13:31:05.702Z</time>
      </trkpt>
      <trkpt lat="51.369008" lon="12.415830">
        <ele>115.999565</ele>
        <time>2022-10-24T13:31:18.738Z</time>
      </trkpt>
      <trkpt lat="51.369222" lon="12.415874">
        <ele>115.910420</ele>
        <time>2022-10-24T13:31:40.669Z</time>
      </trkpt>
      <trkpt lat="51.369008" lon="12.415830">
        <ele>115.838062</ele>
        <time>2022-10-24T13:32:02.344Z</time>
      </trkpt>
      <trkpt lat="51.368897" lon="12.415838">
        <ele>115.828296</ele>
        <time>2022-10-24T13:32:13.414Z</time>
      </trkpt>
      <trkpt lat="51.368589" lon="12.415861">
        <ele>115.801194</ele>
        <time>2022-10-24T13:32:44.451Z</time>
      </trkpt>
      <trkpt lat="51.368512" lon="12.415838">
        <ele>115.794309</ele>
        <time>2022-10-24T13:32:52.331Z</time>
      </trkpt>
      <trkpt lat="51.368221" lon="12.415629">
        <ele>115.766277</ele>
        <time>2022-10-24T13:33:24.276Z</time>
      </trkpt>
      <trkpt lat="51.368187" lon="12.415628">
        <ele>115.763288</ele>
        <time>2022-10-24T13:33:27.721Z</time>
      </trkpt>
      <trkpt lat="51.368141" lon="12.415636">
        <ele>115.759221</ele>
        <time>2022-10-24T13:33:32.441Z</time>
      </trkpt>
      <trkpt lat="51.367930" lon="12.415870">
        <ele>115.736663</ele>
        <time>2022-10-24T13:33:58.336Z</time>
      </trkpt>
      <trkpt lat="51.367869" lon="12.416077">
        <ele>115.724102</ele>
        <time>2022-10-24T13:34:12.846Z</time>
      </trkpt>
      <trkpt lat="51.367863" lon="12.416040">
        <ele>115.722004</ele>
        <time>2022-10-24T13:34:15.176Z</time>
      </trkpt>
      <trkpt lat="51.367705" lon="12.415944">
        <ele>115.707151</ele>
        <time>2022-10-24T13:34:32.136Z</time>
      </trkpt>
      <trkpt lat="51.367563" lon="12.416002">
        <ele>115.694270</ele>
        <time>2022-10-24T13:34:46.844Z</time>
      </trkpt>
      <trkpt lat="51.367051" lon="12.416014">
        <ele>114.993050</ele>
        <time>2022-10-24T13:35:38.672Z</time>
      </trkpt>
      <trkpt lat="51.366723" lon="12.415689">
        <ele>114.327880</ele>
        <time>2022-10-24T13:36:18.544Z</time>
      </trkpt>
      <trkpt lat="51.366406" lon="12.415185">
        <ele>113.557561</ele>
        <time>2022-10-24T13:37:05.468Z</time>
      </trkpt>
      <trkpt lat="51.366276" lon="12.415097">
        <ele>113.314158</ele>
        <time>2022-10-24T13:37:20.394Z</time>
      </trkpt>
      <trkpt lat="51.366195" lon="12.415080">
        <ele>113.173269</ele>
        <time>2022-10-24T13:37:28.999Z</time>
      </trkpt>
      <trkpt lat="51.366119" lon="12.415164">
        <ele>113.014019</ele>
        <time>2022-10-24T13:37:38.655Z</time>
      </trkpt>
      <trkpt lat="51.366016" lon="12.414972">
        <ele>112.741447</ele>
        <time>2022-10-24T13:37:55.341Z</time>
      </trkpt>
      <trkpt lat="51.365899" lon="12.414820">
        <ele>112.484027</ele>
        <time>2022-10-24T13:38:11.196Z</time>
      </trkpt>
      <trkpt lat="51.365796" lon="12.414750">
        <ele>112.295641</ele>
        <time>2022-10-24T13:38:22.895Z</time>
      </trkpt>
      <trkpt lat="51.365303" lon="12.414595">
        <ele>111.449735</ele>
        <time>2022-10-24T13:39:15.448Z</time>
      </trkpt>
      <trkpt lat="51.364759" lon="12.414351">
        <ele>110.498564</ele>
        <time>2022-10-24T13:40:14.155Z</time>
      </trkpt>
      <trkpt lat="51.364156" lon="12.414131">
        <ele>109.557275</ele>
        <time>2022-10-24T13:41:17.418Z</time>
      </trkpt>
      <trkpt lat="51.363465" lon="12.413771">
        <ele>109.596994</ele>
        <time>2022-10-24T13:42:30.234Z</time>
      </trkpt>
      <trkpt lat="51.363351" lon="12.413653">
        <ele>109.604414</ele>
        <time>2022-10-24T13:42:44.014Z</time>
      </trkpt>
      <trkpt lat="51.363255" lon="12.413453">
        <ele>109.613023</ele>
        <time>2022-10-24T13:43:00.050Z</time>
      </trkpt>
      <trkpt lat="51.362705" lon="12.413048">
        <ele>109.646112</ele>
        <time>2022-10-24T13:44:01.459Z</time>
      </trkpt>
      <trkpt lat="51.362083" lon="12.412243">
        <ele>109.939317</ele>
        <time>2022-10-24T13:45:22.716Z</time>
      </trkpt>
      <trkpt lat="51.361721" lon="12.411853">
        <ele>110.122344</ele>
        <time>2022-10-24T13:46:07.190Z</time>
      </trkpt>
      <trkpt lat="51.361707" lon="12.411837">
        <ele>110.129559</ele>
        <time>2022-10-24T13:46:08.891Z</time>
      </trkpt>
      <trkpt lat="51.361499" lon="12.411632">
        <ele>110.232017</ele>
        <time>2022-10-24T13:46:33.718Z</time>
      </trkpt>
      <trkpt lat="51.361377" lon="12.411494">
        <ele>110.294676</ele>
        <time>2022-10-24T13:46:48.938Z</time>
      </trkpt>
      <trkpt lat="51.361250" lon="12.411302">
        <ele>110.367943</ele>
        <time>2022-10-24T13:47:06.525Z</time>
      </trkpt>
      <trkpt lat="51.361241" lon="12.411099">
        <ele>110.414620</ele>
        <time>2022-10-24T13:47:19.480Z</time>
      </trkpt>
      <trkpt lat="51.361503" lon="12.410501">
        <ele>110.516918</ele>
        <time>2022-10-24T13:48:05.613Z</time>
      </trkpt>
      <trkpt lat="51.361534" lon="12.410352">
        <ele>110.538911</ele>
        <time>2022-10-24T13:48:15.435Z</time>
      </trkpt>
      <trkpt lat="51.361482" lon="12.409565">
        <ele>110.649733</ele>
        <time>2022-10-24T13:49:05.441Z</time>
      </trkpt>
      <trkpt lat="51.360998" lon="12.407678">
        <ele>110.910911</ele>
        <time>2022-10-24T13:51:13.446Z</time>
      </trkpt>
      <trkpt lat="51.360943" lon="12.407536">
        <ele>110.929727</ele>
        <time>2022-10-24T13:51:23.917Z</time>
      </trkpt>
      <trkpt lat="51.360767" lon="12.406861">
        <ele>111.012094</ele>
        <time>2022-10-24T13:52:09.925Z</time>
      </trkpt>
      <trkpt lat="51.360686" lon="12.406662">
        <ele>111.038842</ele>
        <time>2022-10-24T13:52:24.884Z</time>
      </trkpt>
      <trkpt lat="51.360605" lon="12.406663">
        <ele>111.053449</ele>
        <time>2022-10-24T13:52:33.153Z</time>
      </trkpt>
      <trkpt lat="51.360484" lon="12.406247">
        <ele>111.105125</ele>
        <time>2022-10-24T13:53:02.008Z</time>
      </trkpt>
      <trkpt lat="51.359986" lon="12.404780">
        <ele>111.535868</ele>
        <time>2022-10-24T13:54:47.098Z</time>
      </trkpt>
      <trkpt lat="51.359820" lon="12.404590">
        <ele>111.629039</ele>
        <time>2022-10-24T13:55:07.968Z</time>
      </trkpt>
      <trkpt lat="51.359425" lon="12.404546">
        <ele>111.809846</ele>
        <time>2022-10-24T13:55:48.586Z</time>
      </trkpt>
      <trkpt lat="51.359063" lon="12.404588">
        <ele>111.994922</ele>
        <time>2022-10-24T13:56:25.992Z</time>
      </trkpt>
      <trkpt lat="51.358929" lon="12.404650">
        <ele>112.121705</ele>
        <time>2022-10-24T13:56:40.293Z</time>
      </trkpt>
      <trkpt lat="51.358728" lon="12.404591">
        <ele>112.307451</ele>
        <time>2022-10-24T13:57:01.175Z</time>
      </trkpt>
      <trkpt lat="51.358483" lon="12.404477">
        <ele>112.539359</ele>
        <time>2022-10-24T13:57:27.514Z</time>
      </trkpt>
      <trkpt lat="51.358430" lon="12.404452">
        <ele>112.589580</ele>
        <time>2022-10-24T13:57:33.108Z</time>
      </trkpt>
      <trkpt lat="51.358184" lon="12.404338">
        <ele>112.822361</ele>
        <time>2022-10-24T13:57:59.628Z</time>
      </trkpt>
      <trkpt lat="51.358162" lon="12.404331">
        <ele>112.842749</ele>
        <time>2022-10-24T13:58:01.945Z</time>
      </trkpt>
      <trkpt lat="51.357857" lon="12.404219">
        <ele>113.127179</ele>
        <time>2022-10-24T13:58:34.500Z</time>
      </trkpt>
      <trkpt lat="51.357573" lon="12.404160">
        <ele>113.387489</ele>
        <time>2022-10-24T13:59:04.319Z</time>
      </trkpt>
      <trkpt lat="51.357501" lon="12.404149">
        <ele>113.453232</ele>
        <time>2022-10-24T13:59:11.848Z</time>
      </trkpt>
      <trkpt lat="51.357377" lon="12.403981">
        <ele>113.593107</ele>
        <time>2022-10-24T13:59:28.573Z</time>
      </trkpt>
      <trkpt lat="51.357161" lon="12.403867">
        <ele>113.637799</ele>
        <time>2022-10-24T13:59:52.293Z</time>
      </trkpt>
      <trkpt lat="51.356866" lon="12.403868">
        <ele>113.695770</ele>
        <time>2022-10-24T14:00:22.607Z</time>
      </trkpt>
      <trkpt lat="51.356539" lon="12.403780">
        <ele>113.760930</ele>
        <time>2022-10-24T14:00:56.298Z</time>
      </trkpt>
      <trkpt lat="51.356351" lon="12.403527">
        <ele>113.809187</ele>
        <time>2022-10-24T14:01:20.922Z</time>
      </trkpt>
      <trkpt lat="51.355799" lon="12.402654">
        <ele>113.885804</ele>
        <time>2022-10-24T14:02:39.127Z</time>
      </trkpt>
      <trkpt lat="51.355498" lon="12.402180">
        <ele>113.603572</ele>
        <time>2022-10-24T14:03:21.836Z</time>
      </trkpt>
      <trkpt lat="51.355359" lon="12.401996">
        <ele>113.483004</ele>
        <time>2022-10-24T14:03:40.135Z</time>
      </trkpt>
      <trkpt lat="51.354905" lon="12.401411">
        <ele>113.093422</ele>
        <time>2022-10-24T14:04:39.516Z</time>
      </trkpt>
      <trkpt lat="51.354799" lon="12.401287">
        <ele>113.005661</ele>
        <time>2022-10-24T14:04:52.840Z</time>
      </trkpt>
      <trkpt lat="51.354891" lon="12.401075">
        <ele>112.897878</ele>
        <time>2022-10-24T14:05:09.314Z</time>
      </trkpt>
      <trkpt lat="51.354671" lon="12.400777">
        <ele>112.712692</ele>
        <time>2022-10-24T14:05:38.519Z</time>
      </trkpt>
      <trkpt lat="51.354427" lon="12.400525">
        <ele>112.558007</ele>
        <time>2022-10-24T14:06:08.054Z</time>
      </trkpt>
      <trkpt lat="51.354234" lon="12.400326">
        <ele>112.435712</ele>
        <time>2022-10-24T14:06:31.455Z</time>
      </trkpt>
      <trkpt lat="51.352730" lon="12.398936">
        <ele>111.477441</ele>
        <time>2022-10-24T14:09:26.744Z</time>
      </trkpt>
      <trkpt lat="51.352717" lon="12.398979">
        <ele>111.459619</ele>
        <time>2022-10-24T14:09:29.751Z</time>
      </trkpt>
      <trkpt lat="51.352646" lon="12.398889">
        <ele>111.405525</ele>
        <time>2022-10-24T14:09:38.955Z</time>
      </trkpt>
      <trkpt lat="51.352582" lon="12.398810">
        <ele>111.357254</ele>
        <time>2022-10-24T14:09:47.161Z</time>
      </trkpt>
      <trkpt lat="51.353030" lon="12.397875">
        <ele>110.917611</ele>
        <time>2022-10-24T14:11:01.818Z</time>
      </trkpt>
      <trkpt lat="51.353051" lon="12.397762">
        <ele>110.873628</ele>
        <time>2022-10-24T14:11:09.356Z</time>
      </trkpt>
      <trkpt lat="51.353086" lon="12.397691">
        <ele>110.839884</ele>
        <time>2022-10-24T14:11:15.132Z</time>
      </trkpt>
      <trkpt lat="51.353152" lon="12.397626">
        <ele>110.793598</ele>
        <time>2022-10-24T14:11:22.992Z</time>
      </trkpt>
      <trkpt lat="51.353423" lon="12.397056">
        <ele>110.655660</ele>
        <time>2022-10-24T14:12:08.309Z</time>
      </trkpt>
      <trkpt lat="51.353468" lon="12.396885">
        <ele>110.635366</ele>
        <time>2022-10-24T14:12:20.071Z</time>
      </trkpt>
      <trkpt lat="51.353470" lon="12.396725">
        <ele>110.617865</ele>
        <time>2022-10-24T14:12:30.168Z</time>
      </trkpt>
      <trkpt lat="51.353468" lon="12.396693">
        <ele>110.614348</ele>
        <time>2022-10-24T14:12:32.232Z</time>
      </trkpt>
      <trkpt lat="51.353465" lon="12.396588">
        <ele>110.602853</ele>
        <time>2022-10-24T14:12:38.821Z</time>
      </trkpt>
      <trkpt lat="51.353378" lon="12.396266">
        <ele>110.564484</ele>
        <time>2022-10-24T14:13:00.919Z</time>
      </trkpt>
      <trkpt lat="51.352856" lon="12.395610">
        <ele>110.448282</ele>
        <time>2022-10-24T14:14:07.552Z</time>
      </trkpt>
      <trkpt lat="51.352733" lon="12.395468">
        <ele>110.421729</ele>
        <time>2022-10-24T14:14:22.898Z</time>
      </trkpt>
      <trkpt lat="51.352653" lon="12.395419">
        <ele>110.406729</ele>
        <time>2022-10-24T14:14:31.572Z</time>
      </trkpt>
      <trkpt lat="51.352649" lon="12.395373">
        <ele>110.401650</ele>
        <time>2022-10-24T14:14:34.533Z</time>
      </trkpt>
      <trkpt lat="51.352637" lon="12.395208">
        <ele>110.425121</ele>
        <time>2022-10-24T14:14:45.031Z</time>
      </trkpt>
      <trkpt lat="51.352258" lon="12.394781">
        <ele>110.655797</ele>
        <time>2022-10-24T14:15:32.561Z</time>
      </trkpt>
      <trkpt lat="51.352166" lon="12.394675">
        <ele>110.712216</ele>
        <time>2022-10-24T14:15:44.298Z</time>
      </trkpt>
      <trkpt lat="51.352012" lon="12.394528">
        <ele>110.801461</ele>
        <time>2022-10-24T14:16:02.649Z</time>
      </trkpt>
      <trkpt lat="51.351858" lon="12.394380">
        <ele>110.890866</ele>
        <time>2022-10-24T14:16:21.202Z</time>
      </trkpt>
      <trkpt lat="51.351480" lon="12.394093">
        <ele>111.099106</ele>
        <time>2022-10-24T14:17:04.022Z</time>
      </trkpt>
      <trkpt lat="51.351437" lon="12.394075">
        <ele>111.121229</ele>
        <time>2022-10-24T14:17:08.518Z</time>
      </trkpt>
      <trkpt lat="51.351349" lon="12.394241">
        <ele>111.188920</ele>
        <time>2022-10-24T14:17:22.368Z</time>
      </trkpt>
      <trkpt lat="51.351329" lon="12.394293">
        <ele>111.207905</ele>
        <time>2022-10-24T14:17:26.200Z</time>
      </trkpt>
      <trkpt lat="51.351323" lon="12.394312">
        <ele>111.214524</ele>
        <time>2022-10-24T14:17:27.598Z</time>
      </trkpt>
      <trkpt lat="51.351264" lon="12.394275">
        <ele>111.246065</ele>
        <time>2022-10-24T14:17:34.052Z</time>
      </trkpt>
      <trkpt lat="51.351147" lon="12.394309">
        <ele>111.282630</ele>
        <time>2022-10-24T14:17:45.989Z</time>
      </trkpt>
      <trkpt lat="51.350980" lon="12.394338">
        <ele>111.245137</ele>
        <time>2022-10-24T14:18:02.922Z</time>
      </trkpt>
      <trkpt lat="51.350147" lon="12.394231">
        <ele>111.058618</ele>
        <time>2022-10-24T14:19:26.849Z</time>
      </trkpt>
      <trkpt lat="51.349711" lon="12.394165">
        <ele>110.960870</ele>
        <time>2022-10-24T14:20:11.112Z</time>
      </trkpt>
      <trkpt lat="51.349507" lon="12.394094">
        <ele>110.914275</ele>
        <time>2022-10-24T14:20:32.297Z</time>
      </trkpt>
      <trkpt lat="51.349389" lon="12.394025">
        <ele>110.885058</ele>
        <time>2022-10-24T14:20:44.994Z</time>
      </trkpt>
      <trkpt lat="51.349159" lon="12.393890">
        <ele>110.797304</ele>
        <time>2022-10-24T14:21:09.829Z</time>
      </trkpt>
      <trkpt lat="51.349008" lon="12.393730">
        <ele>110.732439</ele>
        <time>2022-10-24T14:21:28.114Z</time>
      </trkpt>
      <trkpt lat="51.348349" lon="12.392779">
        <ele>110.414630</ele>
        <time>2022-10-24T14:22:57.542Z</time>
      </trkpt>
      <trkpt lat="51.348295" lon="12.392701">
        <ele>110.388577</ele>
        <time>2022-10-24T14:23:04.807Z</time>
      </trkpt>
      <trkpt lat="51.348295" lon="12.392613">
        <ele>110.368888</ele>
        <time>2022-10-24T14:23:10.387Z</time>
      </trkpt>
      <trkpt lat="51.348295" lon="12.392571">
        <ele>110.359490</ele>
        <time>2022-10-24T14:23:13.017Z</time>
      </trkpt>
      <trkpt lat="51.348309" lon="12.392545">
        <ele>110.351810</ele>
        <time>2022-10-24T14:23:15.100Z</time>
      </trkpt>
      <trkpt lat="51.348353" lon="12.392461">
        <ele>110.327281</ele>
        <time>2022-10-24T14:23:22.054Z</time>
      </trkpt>
      <trkpt lat="51.348362" lon="12.392444">
        <ele>110.322295</ele>
        <time>2022-10-24T14:23:23.496Z</time>
      </trkpt>
      <trkpt lat="51.348362" lon="12.392401">
        <ele>110.312674</ele>
        <time>2022-10-24T14:23:26.177Z</time>
      </trkpt>
      <trkpt lat="51.348362" lon="12.392301">
        <ele>110.290300</ele>
        <time>2022-10-24T14:23:32.467Z</time>
      </trkpt>
      <trkpt lat="51.347909" lon="12.391615">
        <ele>110.411764</ele>
        <time>2022-10-24T14:24:34.970Z</time>
      </trkpt>
      <trkpt lat="51.347689" lon="12.391374">
        <ele>110.502381</ele>
        <time>2022-10-24T14:25:01.764Z</time>
      </trkpt>
      <trkpt lat="51.347653" lon="12.391347">
        <ele>110.515895</ele>
        <time>2022-10-24T14:25:05.749Z</time>
      </trkpt>
      <trkpt lat="51.347417" lon="12.391304">
        <ele>110.596639</ele>
        <time>2022-10-24T14:25:29.714Z</time>
      </trkpt>
      <trkpt lat="51.347319" lon="12.391322">
        <ele>110.630171</ele>
        <time>2022-10-24T14:25:39.672Z</time>
      </trkpt>
      <trkpt lat="51.347166" lon="12.391352">
        <ele>110.682571</ele>
        <time>2022-10-24T14:25:55.329Z</time>
      </trkpt>
      <trkpt lat="51.346803" lon="12.391649">
        <ele>110.821148</ele>
        <time>2022-10-24T14:26:37.635Z</time>
      </trkpt>
      <trkpt lat="51.346502" lon="12.391793">
        <ele>111.206686</ele>
        <time>2022-10-24T14:27:10.258Z</time>
      </trkpt>
      <trkpt lat="51.346436" lon="12.391810">
        <ele>111.316606</ele>
        <time>2022-10-24T14:27:17.303Z</time>
      </trkpt>
      <trkpt lat="51.346320" lon="12.391847">
        <ele>111.511095</ele>
        <time>2022-10-24T14:27:29.522Z</time>
      </trkpt>
      <trkpt lat="51.346217" lon="12.391891">
        <ele>111.686384</ele>
        <time>2022-10-24T14:27:40.554Z</time>
      </trkpt>
      <trkpt lat="51.345704" lon="12.392034">
        <ele>112.542606</ele>
        <time>2022-10-24T14:28:35.886Z</time>
      </trkpt>
      <trkpt lat="51.345463" lon="12.392146">
        <ele>112.955243</ele>
        <time>2022-10-24T14:29:02.748Z</time>
      </trkpt>
      <trkpt lat="51.345424" lon="12.392147">
        <ele>113.019379</ele>
        <time>2022-10-24T14:29:07.039Z</time>
      </trkpt>
      <trkpt lat="51.345394" lon="12.392120">
        <ele>113.075969</ele>
        <time>2022-10-24T14:29:10.818Z</time>
      </trkpt>
      <trkpt lat="51.345345" lon="12.392034">
        <ele>113.195525</ele>
        <time>2022-10-24T14:29:18.699Z</time>
      </trkpt>
      <trkpt lat="51.345150" lon="12.391430">
        <ele>113.834830</ele>
        <time>2022-10-24T14:30:04.584Z</time>
      </trkpt>
      <trkpt lat="51.344961" lon="12.390853">
        <ele>114.016583</ele>
        <time>2022-10-24T14:30:47.959Z</time>
      </trkpt>
      <trkpt lat="51.344921" lon="12.390731">
        <ele>114.055021</ele>
        <time>2022-10-24T14:30:56.984Z</time>
      </trkpt>
      <trkpt lat="51.344913" lon="12.390707">
        <ele>114.062609</ele>
        <time>2022-10-24T14:30:58.795Z</time>
      </trkpt>
      <trkpt lat="51.344893" lon="12.390647">
        <ele>114.081582</ele>
        <time>2022-10-24T14:31:03.134Z</time>
      </trkpt>
      <trkpt lat="51.344846" lon="12.390501">
        <ele>114.127402</ele>
        <time>2022-10-24T14:31:13.666Z</time>
      </trkpt>
      <trkpt lat="51.344735" lon="12.390163">
        <ele>114.233931</ele>
        <time>2022-10-24T14:31:37.943Z</time>
      </trkpt>
      <trkpt lat="51.344730" lon="12.390146">
        <ele>114.239173</ele>
        <time>2022-10-24T14:31:39.127Z</time>
      </trkpt>
      <trkpt lat="51.344672" lon="12.389965">
        <ele>114.295923</ele>
        <time>2022-10-24T14:31:51.922Z</time>
      </trkpt>
      <trkpt lat="51.344616" lon="12.389790">
        <ele>114.350776</ele>
        <time>2022-10-24T14:32:04.286Z</time>
      </trkpt>
      <trkpt lat="51.344605" lon="12.389756">
        <ele>114.361457</ele>
        <time>2022-10-24T14:32:06.712Z</time>
      </trkpt>
      <trkpt lat="51.344580" lon="12.389680">
        <ele>114.385419</ele>
        <time>2022-10-24T14:32:12.083Z</time>
      </trkpt>
      <trkpt lat="51.344502" lon="12.389447">
        <ele>114.459166</ele>
        <time>2022-10-24T14:32:28.969Z</time>
      </trkpt>
      <trkpt lat="51.344524" lon="12.389429">
        <ele>114.470200</ele>
        <time>2022-10-24T14:32:31.440Z</time>
      </trkpt>
      <trkpt lat="51.344263" lon="12.388614">
        <ele>114.397680</ele>
        <time>2022-10-24T14:33:29.536Z</time>
      </trkpt>
      <trkpt lat="51.344238" lon="12.388634">
        <ele>114.372800</ele>
        <time>2022-10-24T14:33:32.464Z</time>
      </trkpt>
      <trkpt lat="51.343855" lon="12.387472">
        <ele>113.642180</ele>
        <time>2022-10-24T14:34:56.565Z</time>
      </trkpt>
      <trkpt lat="51.343734" lon="12.387090">
        <ele>113.404001</ele>
        <time>2022-10-24T14:35:24.027Z</time>
      </trkpt>
      <trkpt lat="51.343568" lon="12.386549">
        <ele>113.068816</ele>
        <time>2022-10-24T14:36:02.392Z</time>
      </trkpt>
      <trkpt lat="51.343546" lon="12.386314">
        <ele>113.031648</ele>
        <time>2022-10-24T14:36:17.399Z</time>
      </trkpt>
      <trkpt lat="51.343590" lon="12.385767">
        <ele>113.097470</ele>
        <time>2022-10-24T14:36:51.933Z</time>
      </trkpt>
      <trkpt lat="51.343587" lon="12.385426">
        <ele>113.138172</ele>
        <time>2022-10-24T14:37:13.594Z</time>
      </trkpt>
      <trkpt lat="51.343576" lon="12.385380">
        <ele>113.144050</ele>
        <time>2022-10-24T14:37:16.754Z</time>
      </trkpt>
      <trkpt lat="51.343562" lon="12.385013">
        <ele>113.187932</ele>
        <time>2022-10-24T14:37:40.470Z</time>
      </trkpt>
      <trkpt lat="51.343560" lon="12.384966">
        <ele>113.193555</ele>
        <time>2022-10-24T14:37:43.453Z</time>
      </trkpt>
      <trkpt lat="51.343556" lon="12.384919">
        <ele>113.199216</ele>
        <time>2022-10-24T14:37:46.442Z</time>
      </trkpt>
      <trkpt lat="51.343429" lon="12.383654">
        <ele>113.352129</ele>
        <time>2022-10-24T14:39:07.751Z</time>
      </trkpt>
      <trkpt lat="51.343400" lon="12.383662">
        <ele>113.357751</ele>
        <time>2022-10-24T14:39:10.707Z</time>
      </trkpt>
      <trkpt lat="51.343381" lon="12.383666">
        <ele>113.370082</ele>
        <time>2022-10-24T14:39:12.691Z</time>
      </trkpt>
      <trkpt lat="51.343331" lon="12.383678">
        <ele>113.408710</ele>
        <time>2022-10-24T14:39:17.802Z</time>
      </trkpt>
      <trkpt lat="51.343295" lon="12.383687">
        <ele>113.436548</ele>
        <time>2022-10-24T14:39:21.413Z</time>
      </trkpt>
      <trkpt lat="51.343270" lon="12.383644">
        <ele>113.464583</ele>
        <time>2022-10-24T14:39:25.134Z</time>
      </trkpt>
      <trkpt lat="51.342900" lon="12.383445">
        <ele>113.762799</ele>
        <time>2022-10-24T14:40:04.263Z</time>
      </trkpt>
      <trkpt lat="51.342912" lon="12.383389">
        <ele>113.791054</ele>
        <time>2022-10-24T14:40:07.957Z</time>
      </trkpt>
      <trkpt lat="51.342931" lon="12.383303">
        <ele>113.834589</ele>
        <time>2022-10-24T14:40:13.707Z</time>
      </trkpt>
      <trkpt lat="51.342947" lon="12.383222">
        <ele>113.875133</ele>
        <time>2022-10-24T14:40:19.051Z</time>
      </trkpt>
      <trkpt lat="51.342948" lon="12.383179">
        <ele>113.895669</ele>
        <time>2022-10-24T14:40:21.750Z</time>
      </trkpt>
      <trkpt lat="51.342952" lon="12.383025">
        <ele>113.969230</ele>
        <time>2022-10-24T14:40:31.505Z</time>
      </trkpt>
      <trkpt lat="51.342953" lon="12.382979">
        <ele>113.991197</ele>
        <time>2022-10-24T14:40:34.475Z</time>
      </trkpt>
      <trkpt lat="51.342945" lon="12.382915">
        <ele>114.022346</ele>
        <time>2022-10-24T14:40:38.684Z</time>
      </trkpt>
      <trkpt lat="51.342937" lon="12.382854">
        <ele>114.052093</ele>
        <time>2022-10-24T14:40:42.667Z</time>
      </trkpt>
      <trkpt lat="51.342932" lon="12.382812">
        <ele>114.072499</ele>
        <time>2022-10-24T14:40:45.388Z</time>
      </trkpt>
      <trkpt lat="51.342832" lon="12.382720">
        <ele>114.160619</ele>
        <time>2022-10-24T14:40:57.114Z</time>
      </trkpt>
      <trkpt lat="51.342610" lon="12.382411">
        <ele>114.385377</ele>
        <time>2022-10-24T14:41:27.944Z</time>
      </trkpt>
      <trkpt lat="51.342573" lon="12.382349">
        <ele>114.426300</ele>
        <time>2022-10-24T14:41:33.521Z</time>
      </trkpt>
      <trkpt lat="51.342545" lon="12.382309">
        <ele>114.454972</ele>
        <time>2022-10-24T14:41:37.408Z</time>
      </trkpt>
      <trkpt lat="51.342434" lon="12.382130">
        <ele>114.575348</ele>
        <time>2022-10-24T14:41:54.344Z</time>
      </trkpt>
      <trkpt lat="51.342380" lon="12.381847">
        <ele>114.716573</ele>
        <time>2022-10-24T14:42:13.817Z</time>
      </trkpt>
      <trkpt lat="51.342321" lon="12.381866">
        <ele>114.797118</ele>
        <time>2022-10-24T14:42:19.967Z</time>
      </trkpt>
      <trkpt lat="51.342279" lon="12.381741">
        <ele>114.943356</ele>
        <time>2022-10-24T14:42:29.446Z</time>
      </trkpt>
      <trkpt lat="51.342209" lon="12.381646">
        <ele>115.094720</ele>
        <time>2022-10-24T14:42:39.229Z</time>
      </trkpt>
      <trkpt lat="51.342075" lon="12.381578">
        <ele>115.326577</ele>
        <time>2022-10-24T14:42:53.727Z</time>
      </trkpt>
      <trkpt lat="51.341984" lon="12.381595">
        <ele>115.477689</ele>
        <time>2022-10-24T14:43:03.422Z</time>
      </trkpt>
      <trkpt lat="51.341876" lon="12.381563">
        <ele>115.658849</ele>
        <time>2022-10-24T14:43:15.240Z</time>
      </trkpt>
      <trkpt lat="51.341480" lon="12.381343">
        <ele>116.350221</ele>
        <time>2022-10-24T14:44:00.343Z</time>
      </trkpt>
      <trkpt lat="51.341199" lon="12.381318">
        <ele>116.814414</ele>
        <time>2022-10-24T14:44:30.097Z</time>
      </trkpt>
      <trkpt lat="51.341175" lon="12.381192">
        <ele>116.950138</ele>
        <time>2022-10-24T14:44:38.944Z</time>
      </trkpt>
      <trkpt lat="51.341177" lon="12.381046">
        <ele>117.100605</ele>
        <time>2022-10-24T14:44:48.307Z</time>
      </trkpt>
      <trkpt lat="51.341212" lon="12.380783">
        <ele>117.377665</ele>
        <time>2022-10-24T14:45:06.198Z</time>
      </trkpt>
      <trkpt lat="51.340883" lon="12.380668">
        <ele>117.810608</ele>
        <time>2022-10-24T14:45:41.519Z</time>
      </trkpt>
      <trkpt lat="51.340847" lon="12.380655">
        <ele>117.839576</ele>
        <time>2022-10-24T14:45:45.468Z</time>
      </trkpt>
      <trkpt lat="51.340812" lon="12.380643">
        <ele>117.867671</ele>
        <time>2022-10-24T14:45:49.283Z</time>
      </trkpt>
      <trkpt lat="51.340683" lon="12.380598">
        <ele>117.971303</ele>
        <time>2022-10-24T14:46:03.255Z</time>
      </trkpt>
      <trkpt lat="51.340569" lon="12.380628">
        <ele>118.061986</ele>
        <time>2022-10-24T14:46:15.370Z</time>
      </trkpt>
      <trkpt lat="51.340419" lon="12.380583">
        <ele>118.181775</ele>
        <time>2022-10-24T14:46:31.409Z</time>
      </trkpt>
      <trkpt lat="51.340086" lon="12.380469">
        <ele>118.449067</ele>
        <time>2022-10-24T14:47:06.512Z</time>
      </trkpt>
      <trkpt lat="51.340028" lon="12.380494">
        <ele>118.496214</ele>
        <time>2022-10-24T14:47:12.626Z</time>
      </trkpt>
      <trkpt lat="51.339992" lon="12.380509">
        <ele>118.525413</ele>
        <time>2022-10-24T14:47:16.346Z</time>
      </trkpt>
      <trkpt lat="51.339446" lon="12.380289">
        <ele>118.967352</ele>
        <time>2022-10-24T14:48:12.945Z</time>
      </trkpt>
      <trkpt lat="51.339399" lon="12.380197">
        <ele>119.025629</ele>
        <time>2022-10-24T14:48:20.556Z</time>
      </trkpt>
      <trkpt lat="51.339394" lon="12.380173">
        <ele>119.038034</ele>
        <time>2022-10-24T14:48:22.147Z</time>
      </trkpt>
      <trkpt lat="51.339383" lon="12.379975">
        <ele>119.148597</ele>
        <time>2022-10-24T14:48:34.646Z</time>
      </trkpt>
      <trkpt lat="51.339382" lon="12.379950">
        <ele>119.167495</ele>
        <time>2022-10-24T14:48:36.224Z</time>
      </trkpt>
      <trkpt lat="51.339482" lon="12.379477">
        <ele>119.544186</ele>
        <time>2022-10-24T14:49:07.712Z</time>
      </trkpt>
      <trkpt lat="51.339563" lon="12.378948">
        <ele>119.955053</ele>
        <time>2022-10-24T14:49:42.316Z</time>
      </trkpt>
      <trkpt lat="51.339706" lon="12.377918">
        <ele>120.750995</ele>
        <time>2022-10-24T14:50:52.253Z</time>
      </trkpt>
      <trkpt lat="51.339757" lon="12.377381">
        <ele>121.160737</ele>
        <time>2022-10-24T14:51:29.019Z</time>
      </trkpt>
      <trkpt lat="51.339844" lon="12.376648">
        <ele>121.283130</ele>
        <time>2022-10-24T14:52:18.610Z</time>
      </trkpt>
      <trkpt lat="51.339848" lon="12.376596">
        <ele>121.283130</ele>
        <time>2022-10-24T14:52:22.038Z</time>
      </trkpt>
      <trkpt lat="51.339902" lon="12.375728">
        <ele>121.283130</ele>
        <time>2022-10-24T14:53:19.102Z</time>
      </trkpt>
      <trkpt lat="51.339904" lon="12.375518">
        <ele>121.283130</ele>
        <time>2022-10-24T14:53:32.945Z</time>
      </trkpt>
      <trkpt lat="51.339905" lon="12.375458">
        <ele>121.283130</ele>
        <time>2022-10-24T14:53:36.924Z</time>
      </trkpt>
      <trkpt lat="51.339914" lon="12.375091">
        <ele>121.283130</ele>
        <time>2022-10-24T14:54:00.852Z</time>
      </trkpt>
      <trkpt lat="51.339915" lon="12.375039">
        <ele>121.283130</ele>
        <time>2022-10-24T14:54:04.297Z</time>
      </trkpt>
      <trkpt lat="51.339916" lon="12.374830">
        <ele>121.283130</ele>
        <time>2022-10-24T14:54:17.914Z</time>
      </trkpt>
      <trkpt lat="51.339917" lon="12.374659">
        <ele>121.283130</ele>
        <time>2022-10-24T14:54:28.972Z</time>
      </trkpt>
      <trkpt lat="51.339917" lon="12.374478">
        <ele>121.283130</ele>
        <time>2022-10-24T14:54:40.612Z</time>
      </trkpt>
    </trkseg>
  </trk>
</gpx>